Wetterdaten: Donnerstag, 06.07.2017
Datum Zeit Temp. A. Temp. A. max Feuchte A. Luftdruck Regen Wind Richtung Richtung Sonnenschein ET UV Solar Taupunkt Windchill Windböen
06.07.2017 00:00 16,2 °C 16,2 °C 72 % 1016,4 hPa 0,0 mm 0,0 km/h (0 Bft) SW 220 ° 0 min 0,000 mm 0,0 UV-I 0 W/m² 11,1 °C 16,2 °C 0,0 km/h (0 Bft)
06.07.2017 00:01 16,2 °C 16,2 °C 72 % 1016,5 hPa 0,0 mm 0,0 km/h (0 Bft) SW 220 ° 0 min 0,000 mm 0,0 UV-I 0 W/m² 11,1 °C 16,2 °C 0,0 km/h (0 Bft)
06.07.2017 00:02 16,2 °C 16,2 °C 74 % 1016,4 hPa 0,0 mm 0,0 km/h (0 Bft) SW 220 ° 0 min 0,000 mm 0,0 UV-I 0 W/m² 11,6 °C 16,2 °C 0,0 km/h (0 Bft)
06.07.2017 00:03 16,1 °C 16,2 °C 73 % 1016,4 hPa 0,0 mm 0,0 km/h (0 Bft) SW 220 ° 0 min 0,000 mm 0,0 UV-I 0 W/m² 11,3 °C 16,1 °C 0,0 km/h (0 Bft)
06.07.2017 00:04 16,1 °C 16,1 °C 72 % 1016,4 hPa 0,0 mm 0,0 km/h (0 Bft) SW 220 ° 0 min 0,000 mm 0,0 UV-I 0 W/m² 11,0 °C 16,1 °C 0,0 km/h (0 Bft)
06.07.2017 00:05 16,1 °C 16,1 °C 72 % 1016,4 hPa 0,0 mm 0,0 km/h (0 Bft) SW 220 ° 0 min 0,000 mm 0,0 UV-I 0 W/m² 11,0 °C 16,1 °C 0,0 km/h (0 Bft)
06.07.2017 00:06 16,0 °C 16,1 °C 72 % 1016,4 hPa 0,0 mm 0,0 km/h (0 Bft) SW 220 ° 0 min 0,000 mm 0,0 UV-I 0 W/m² 11,0 °C 16,0 °C 0,0 km/h (0 Bft)
06.07.2017 00:07 16,0 °C 16,0 °C 72 % 1016,4 hPa 0,0 mm 0,0 km/h (0 Bft) SW 220 ° 0 min 0,000 mm 0,0 UV-I 0 W/m² 11,0 °C 16,0 °C 0,0 km/h (0 Bft)
06.07.2017 00:08 16,0 °C 16,0 °C 72 % 1016,4 hPa 0,0 mm 0,0 km/h (0 Bft) SW 220 ° 0 min 0,000 mm 0,0 UV-I 0 W/m² 11,0 °C 16,0 °C 0,0 km/h (0 Bft)
06.07.2017 00:09 16,1 °C 16,1 °C 72 % 1016,4 hPa 0,0 mm 0,0 km/h (0 Bft) SW 220 ° 0 min 0,000 mm 0,0 UV-I 0 W/m² 11,0 °C 16,1 °C 0,0 km/h (0 Bft)
06.07.2017 00:10 16,1 °C 16,1 °C 72 % 1016,4 hPa 0,0 mm 0,0 km/h (0 Bft) SW 220 ° 0 min 0,000 mm 0,0 UV-I 0 W/m² 11,0 °C 16,1 °C 0,0 km/h (0 Bft)
06.07.2017 00:11 16,2 °C 16,2 °C 72 % 1016,4 hPa 0,0 mm 0,0 km/h (0 Bft) SW 220 ° 0 min 0,000 mm 0,0 UV-I 0 W/m² 11,1 °C 16,2 °C 0,0 km/h (0 Bft)
06.07.2017 00:12 16,2 °C 16,2 °C 72 % 1016,4 hPa 0,0 mm 0,0 km/h (0 Bft) SW 220 ° 0 min 0,000 mm 0,0 UV-I 0 W/m² 11,1 °C 16,2 °C 0,0 km/h (0 Bft)
06.07.2017 00:13 16,2 °C 16,2 °C 72 % 1016,4 hPa 0,0 mm 0,0 km/h (0 Bft) SW 220 ° 0 min 0,000 mm 0,0 UV-I 0 W/m² 11,1 °C 16,2 °C 0,0 km/h (0 Bft)
06.07.2017 00:14 16,2 °C 16,2 °C 72 % 1016,4 hPa 0,0 mm 0,0 km/h (0 Bft) SW 220 ° 0 min 0,000 mm 0,0 UV-I 0 W/m² 11,1 °C 16,2 °C 0,0 km/h (0 Bft)
06.07.2017 00:15 16,1 °C 16,2 °C 73 % 1016,4 hPa 0,0 mm 0,0 km/h (0 Bft) SW 220 ° 0 min 0,000 mm 0,0 UV-I 0 W/m² 11,3 °C 16,1 °C 0,0 km/h (0 Bft)
06.07.2017 00:16 16,0 °C 16,1 °C 73 % 1016,4 hPa 0,0 mm 0,0 km/h (0 Bft) SW 220 ° 0 min 0,000 mm 0,0 UV-I 0 W/m² 11,2 °C 16,0 °C 0,0 km/h (0 Bft)
06.07.2017 00:17 15,9 °C 16,0 °C 74 % 1016,4 hPa 0,0 mm 0,0 km/h (0 Bft) SW 220 ° 0 min 0,000 mm 0,0 UV-I 0 W/m² 11,3 °C 15,9 °C 0,0 km/h (0 Bft)
06.07.2017 00:18 15,9 °C 15,9 °C 73 % 1016,4 hPa 0,0 mm 0,0 km/h (0 Bft) SW 220 ° 0 min 0,000 mm 0,0 UV-I 0 W/m² 11,1 °C 15,9 °C 0,0 km/h (0 Bft)
06.07.2017 00:19 15,9 °C 15,9 °C 72 % 1016,4 hPa 0,0 mm 0,0 km/h (0 Bft) SW 220 ° 0 min 0,000 mm 0,0 UV-I 0 W/m² 10,9 °C 15,9 °C 0,0 km/h (0 Bft)
06.07.2017 00:20 16,0 °C 16,0 °C 73 % 1016,4 hPa 0,0 mm 0,0 km/h (0 Bft) SW 220 ° 0 min 0,000 mm 0,0 UV-I 0 W/m² 11,2 °C 16,0 °C 0,0 km/h (0 Bft)
06.07.2017 00:21 15,9 °C 16,0 °C 74 % 1016,4 hPa 0,0 mm 0,5 km/h (0 Bft) SW 220 ° 0 min 0,000 mm 0,0 UV-I 0 W/m² 11,3 °C 15,9 °C 3,2 km/h (1 Bft)
06.07.2017 00:22 15,8 °C 15,9 °C 74 % 1016,4 hPa 0,0 mm 2,7 km/h (1 Bft) W-SW 254 ° 0 min 0,000 mm 0,0 UV-I 0 W/m² 11,2 °C 15,8 °C 4,8 km/h (1 Bft)
06.07.2017 00:23 15,8 °C 15,8 °C 74 % 1016,5 hPa 0,0 mm 0,9 km/h (0 Bft) W-SW 254 ° 0 min 0,000 mm 0,0 UV-I 0 W/m² 11,2 °C 15,8 °C 3,2 km/h (1 Bft)
06.07.2017 00:24 15,7 °C 15,8 °C 73 % 1016,5 hPa 0,0 mm 0,0 km/h (0 Bft) W-SW 254 ° 0 min 0,000 mm 0,0 UV-I 0 W/m² 10,9 °C 15,7 °C 0,0 km/h (0 Bft)
06.07.2017 00:25 15,6 °C 15,7 °C 74 % 1016,6 hPa 0,0 mm 1,8 km/h (1 Bft) W 281 ° 0 min 0,000 mm 0,0 UV-I 0 W/m² 11,0 °C 15,6 °C 4,8 km/h (1 Bft)
06.07.2017 00:26 15,6 °C 15,6 °C 73 % 1016,6 hPa 0,0 mm 2,0 km/h (1 Bft) W 281 ° 0 min 0,000 mm 0,0 UV-I 0 W/m² 10,8 °C 15,6 °C 3,2 km/h (1 Bft)
06.07.2017 00:27 15,7 °C 15,7 °C 73 % 1016,5 hPa 0,0 mm 0,6 km/h (0 Bft) W 281 ° 0 min 0,000 mm 0,0 UV-I 0 W/m² 10,9 °C 15,7 °C 3,2 km/h (1 Bft)
06.07.2017 00:28 15,7 °C 15,7 °C 73 % 1016,6 hPa 0,0 mm 0,0 km/h (0 Bft) W 281 ° 0 min 0,000 mm 0,0 UV-I 0 W/m² 10,9 °C 15,7 °C 0,0 km/h (0 Bft)
06.07.2017 00:29 15,8 °C 15,8 °C 73 % 1016,6 hPa 0,0 mm 0,7 km/h (0 Bft) W 281 ° 0 min 0,000 mm 0,0 UV-I 0 W/m² 11,0 °C 15,8 °C 3,2 km/h (1 Bft)
06.07.2017 00:30 15,8 °C 15,8 °C 73 % 1016,6 hPa 0,0 mm 1,7 km/h (1 Bft) W 281 ° 0 min 0,000 mm 0,0 UV-I 0 W/m² 11,0 °C 15,8 °C 4,8 km/h (1 Bft)
06.07.2017 00:31 15,7 °C 15,8 °C 73 % 1016,6 hPa 0,0 mm 1,7 km/h (1 Bft) W 281 ° 0 min 0,000 mm 0,0 UV-I 0 W/m² 10,9 °C 15,7 °C 3,2 km/h (1 Bft)
06.07.2017 00:32 15,7 °C 15,7 °C 74 % 1016,6 hPa 0,0 mm 3,4 km/h (1 Bft) W 267 ° 0 min 0,000 mm 0,0 UV-I 0 W/m² 11,1 °C 15,7 °C 4,8 km/h (1 Bft)
06.07.2017 00:33 15,6 °C 15,7 °C 74 % 1016,7 hPa 0,0 mm 2,5 km/h (1 Bft) W 269 ° 0 min 0,000 mm 0,0 UV-I 0 W/m² 11,0 °C 15,6 °C 4,8 km/h (1 Bft)
06.07.2017 00:34 15,5 °C 15,6 °C 74 % 1016,6 hPa 0,0 mm 3,1 km/h (1 Bft) W 269 ° 0 min 0,000 mm 0,0 UV-I 0 W/m² 10,9 °C 15,5 °C 4,8 km/h (1 Bft)
06.07.2017 00:35 15,4 °C 15,5 °C 75 % 1016,6 hPa 0,0 mm 3,9 km/h (1 Bft) W-SW 245 ° 0 min 0,000 mm 0,0 UV-I 0 W/m² 11,0 °C 15,4 °C 9,7 km/h (2 Bft)
06.07.2017 00:36 15,3 °C 15,4 °C 75 % 1016,6 hPa 0,0 mm 1,7 km/h (1 Bft) W-SW 245 ° 0 min 0,000 mm 0,0 UV-I 0 W/m² 10,9 °C 15,3 °C 3,2 km/h (1 Bft)
06.07.2017 00:37 15,3 °C 15,3 °C 75 % 1016,6 hPa 0,0 mm 1,3 km/h (1 Bft) W-SW 245 ° 0 min 0,000 mm 0,0 UV-I 0 W/m² 10,9 °C 15,3 °C 3,2 km/h (1 Bft)
06.07.2017 00:38 15,3 °C 15,3 °C 75 % 1016,7 hPa 0,0 mm 0,5 km/h (0 Bft) W-SW 245 ° 0 min 0,000 mm 0,0 UV-I 0 W/m² 10,9 °C 15,3 °C 1,6 km/h (1 Bft)
06.07.2017 00:39 15,4 °C 15,4 °C 75 % 1016,7 hPa 0,0 mm 2,1 km/h (1 Bft) W-SW 245 ° 0 min 0,000 mm 0,0 UV-I 0 W/m² 11,0 °C 15,4 °C 4,8 km/h (1 Bft)
06.07.2017 00:40 15,4 °C 15,4 °C 75 % 1016,7 hPa 0,0 mm 2,1 km/h (1 Bft) W-SW 249 ° 0 min 0,000 mm 0,0 UV-I 0 W/m² 11,0 °C 15,4 °C 3,2 km/h (1 Bft)
06.07.2017 00:41 15,4 °C 15,4 °C 75 % 1016,7 hPa 0,0 mm 1,7 km/h (1 Bft) W-SW 249 ° 0 min 0,000 mm 0,0 UV-I 0 W/m² 11,0 °C 15,4 °C 3,2 km/h (1 Bft)
06.07.2017 00:42 15,5 °C 15,5 °C 74 % 1016,7 hPa 0,0 mm 3,8 km/h (1 Bft) S-SW 209 ° 0 min 0,000 mm 0,0 UV-I 0 W/m² 10,9 °C 15,5 °C 6,4 km/h (2 Bft)
06.07.2017 00:43 15,6 °C 15,6 °C 74 % 1016,7 hPa 0,0 mm 5,1 km/h (1 Bft) S 186 ° 0 min 0,000 mm 0,0 UV-I 0 W/m² 11,0 °C 15,6 °C 6,4 km/h (2 Bft)
06.07.2017 00:44 15,7 °C 15,7 °C 73 % 1016,7 hPa 0,0 mm 3,8 km/h (1 Bft) S 185 ° 0 min 0,000 mm 0,0 UV-I 0 W/m² 10,9 °C 15,7 °C 4,8 km/h (1 Bft)
06.07.2017 00:45 15,8 °C 15,8 °C 74 % 1016,7 hPa 0,0 mm 5,7 km/h (1 Bft) SO 146 ° 0 min 0,000 mm 0,0 UV-I 0 W/m² 11,2 °C 15,8 °C 8,0 km/h (2 Bft)
06.07.2017 00:46 15,9 °C 15,9 °C 74 % 1016,7 hPa 0,0 mm 6,5 km/h (2 Bft) S-SO 155 ° 0 min 0,000 mm 0,0 UV-I 0 W/m² 11,3 °C 15,9 °C 8,0 km/h (2 Bft)
06.07.2017 00:47 15,9 °C 15,9 °C 73 % 1016,7 hPa 0,0 mm 4,8 km/h (1 Bft) S-SO 155 ° 0 min 0,000 mm 0,0 UV-I 0 W/m² 11,1 °C 15,9 °C 6,4 km/h (2 Bft)
06.07.2017 00:48 16,0 °C 16,0 °C 72 % 1016,7 hPa 0,0 mm 4,1 km/h (1 Bft) S-SO 154 ° 0 min 0,000 mm 0,0 UV-I 0 W/m² 11,0 °C 16,0 °C 4,8 km/h (1 Bft)
06.07.2017 00:49 15,9 °C 16,0 °C 74 % 1016,7 hPa 0,0 mm 3,5 km/h (1 Bft) S-SO 154 ° 0 min 0,000 mm 0,0 UV-I 0 W/m² 11,3 °C 15,9 °C 4,8 km/h (1 Bft)
06.07.2017 00:50 15,9 °C 16,0 °C 74 % 1016,7 hPa 0,0 mm 2,7 km/h (1 Bft) S-SO 154 ° 0 min 0,000 mm 0,0 UV-I 0 W/m² 11,3 °C 15,9 °C 4,8 km/h (1 Bft)
06.07.2017 00:51 15,9 °C 15,9 °C 74 % 1016,7 hPa 0,0 mm 2,4 km/h (1 Bft) S-SO 154 ° 0 min 0,000 mm 0,0 UV-I 0 W/m² 11,3 °C 15,9 °C 4,8 km/h (1 Bft)
06.07.2017 00:52 15,8 °C 15,9 °C 74 % 1016,7 hPa 0,0 mm 3,0 km/h (1 Bft) S-SO 154 ° 0 min 0,000 mm 0,0 UV-I 0 W/m² 11,2 °C 15,8 °C 4,8 km/h (1 Bft)
06.07.2017 00:53 15,7 °C 15,8 °C 74 % 1016,7 hPa 0,0 mm 2,1 km/h (1 Bft) S-SO 154 ° 0 min 0,000 mm 0,0 UV-I 0 W/m² 11,1 °C 15,7 °C 4,8 km/h (1 Bft)
06.07.2017 00:54 15,7 °C 15,7 °C 74 % 1016,7 hPa 0,0 mm 1,5 km/h (1 Bft) S-SO 154 ° 0 min 0,000 mm 0,0 UV-I 0 W/m² 11,1 °C 15,7 °C 3,2 km/h (1 Bft)
06.07.2017 00:55 15,6 °C 15,7 °C 75 % 1016,7 hPa 0,0 mm 1,8 km/h (1 Bft) S-SO 154 ° 0 min 0,000 mm 0,0 UV-I 0 W/m² 11,2 °C 15,6 °C 3,2 km/h (1 Bft)
06.07.2017 00:56 15,4 °C 15,6 °C 75 % 1016,7 hPa 0,0 mm 2,2 km/h (1 Bft) S-SO 154 ° 0 min 0,000 mm 0,0 UV-I 0 W/m² 11,0 °C 15,4 °C 3,2 km/h (1 Bft)
06.07.2017 00:57 15,3 °C 15,4 °C 75 % 1016,6 hPa 0,0 mm 3,6 km/h (1 Bft) S-SO 162 ° 0 min 0,000 mm 0,0 UV-I 0 W/m² 10,9 °C 15,3 °C 8,0 km/h (2 Bft)
06.07.2017 00:58 15,3 °C 15,3 °C 75 % 1016,6 hPa 0,0 mm 5,2 km/h (1 Bft) S-SO 162 ° 0 min 0,000 mm 0,0 UV-I 0 W/m² 10,9 °C 15,3 °C 6,4 km/h (2 Bft)
06.07.2017 00:59 15,4 °C 15,4 °C 75 % 1016,6 hPa 0,0 mm 6,0 km/h (2 Bft) S 169 ° 0 min 0,000 mm 0,0 UV-I 0 W/m² 11,0 °C 15,4 °C 8,0 km/h (2 Bft)
06.07.2017 01:00 15,4 °C 15,4 °C 74 % 1016,6 hPa 0,0 mm 7,2 km/h (2 Bft) S 184 ° 0 min 0,025 mm 0,0 UV-I 0 W/m² 10,8 °C 15,4 °C 11,3 km/h (2 Bft)
06.07.2017 01:01 15,4 °C 15,4 °C 74 % 1016,7 hPa 0,0 mm 5,0 km/h (1 Bft) S 180 ° 0 min 0,000 mm 0,0 UV-I 0 W/m² 10,8 °C 15,4 °C 6,4 km/h (2 Bft)
06.07.2017 01:02 15,4 °C 15,4 °C 74 % 1016,6 hPa 0,0 mm 4,5 km/h (1 Bft) S-SO 153 ° 0 min 0,000 mm 0,0 UV-I 0 W/m² 10,8 °C 15,4 °C 6,4 km/h (2 Bft)
06.07.2017 01:03 15,6 °C 15,6 °C 74 % 1016,6 hPa 0,0 mm 7,2 km/h (2 Bft) S-SO 167 ° 0 min 0,000 mm 0,0 UV-I 0 W/m² 11,0 °C 15,6 °C 12,9 km/h (3 Bft)
06.07.2017 01:04 15,7 °C 15,7 °C 73 % 1016,5 hPa 0,0 mm 5,0 km/h (1 Bft) S 176 ° 0 min 0,000 mm 0,0 UV-I 0 W/m² 10,9 °C 15,7 °C 9,7 km/h (2 Bft)
06.07.2017 01:05 15,8 °C 15,8 °C 73 % 1016,5 hPa 0,0 mm 2,7 km/h (1 Bft) S 176 ° 0 min 0,000 mm 0,0 UV-I 0 W/m² 11,0 °C 15,8 °C 4,8 km/h (1 Bft)
06.07.2017 01:06 15,8 °C 15,8 °C 72 % 1016,5 hPa 0,0 mm 2,3 km/h (1 Bft) S 177 ° 0 min 0,000 mm 0,0 UV-I 0 W/m² 10,8 °C 15,8 °C 3,2 km/h (1 Bft)
06.07.2017 01:07 15,8 °C 15,8 °C 72 % 1016,5 hPa 0,0 mm 1,7 km/h (1 Bft) S 176 ° 0 min 0,000 mm 0,0 UV-I 0 W/m² 10,8 °C 15,8 °C 3,2 km/h (1 Bft)
06.07.2017 01:08 15,8 °C 15,8 °C 72 % 1016,5 hPa 0,0 mm 2,1 km/h (1 Bft) S-SO 148 ° 0 min 0,000 mm 0,0 UV-I 0 W/m² 10,8 °C 15,8 °C 4,8 km/h (1 Bft)
06.07.2017 01:09 15,9 °C 15,9 °C 71 % 1016,5 hPa 0,0 mm 3,7 km/h (1 Bft) S 171 ° 0 min 0,000 mm 0,0 UV-I 0 W/m² 10,6 °C 15,9 °C 9,7 km/h (2 Bft)
06.07.2017 01:10 16,0 °C 16,0 °C 71 % 1016,6 hPa 0,0 mm 2,6 km/h (1 Bft) SO 127 ° 0 min 0,000 mm 0,0 UV-I 0 W/m² 10,7 °C 16,0 °C 6,4 km/h (2 Bft)
06.07.2017 01:11 16,1 °C 16,1 °C 71 % 1016,5 hPa 0,0 mm 2,7 km/h (1 Bft) SO 128 ° 0 min 0,000 mm 0,0 UV-I 0 W/m² 10,8 °C 16,1 °C 4,8 km/h (1 Bft)
06.07.2017 01:12 16,1 °C 16,1 °C 70 % 1016,5 hPa 0,0 mm 1,0 km/h (0 Bft) SO 128 ° 0 min 0,000 mm 0,0 UV-I 0 W/m² 10,6 °C 16,1 °C 1,6 km/h (1 Bft)
06.07.2017 01:13 16,2 °C 16,2 °C 70 % 1016,5 hPa 0,0 mm 0,3 km/h (0 Bft) SO 128 ° 0 min 0,000 mm 0,0 UV-I 0 W/m² 10,7 °C 16,2 °C 1,6 km/h (1 Bft)
06.07.2017 01:14 16,2 °C 16,2 °C 70 % 1016,5 hPa 0,0 mm 0,0 km/h (0 Bft) SO 128 ° 0 min 0,000 mm 0,0 UV-I 0 W/m² 10,7 °C 16,2 °C 0,0 km/h (0 Bft)
06.07.2017 01:15 16,2 °C 16,2 °C 70 % 1016,5 hPa 0,0 mm 0,0 km/h (0 Bft) SO 128 ° 0 min 0,000 mm 0,0 UV-I 0 W/m² 10,7 °C 16,2 °C 0,0 km/h (0 Bft)
06.07.2017 01:16 16,2 °C 16,2 °C 69 % 1016,5 hPa 0,0 mm 0,0 km/h (0 Bft) SO 128 ° 0 min 0,000 mm 0,0 UV-I 0 W/m² 10,5 °C 16,2 °C 0,0 km/h (0 Bft)
06.07.2017 01:17 16,3 °C 16,3 °C 69 % 1016,5 hPa 0,0 mm 0,2 km/h (0 Bft) SO 128 ° 0 min 0,000 mm 0,0 UV-I 0 W/m² 10,6 °C 16,3 °C 1,6 km/h (1 Bft)
06.07.2017 01:18 16,3 °C 16,3 °C 69 % 1016,5 hPa 0,0 mm 0,0 km/h (0 Bft) SO 128 ° 0 min 0,000 mm 0,0 UV-I 0 W/m² 10,6 °C 16,3 °C 0,0 km/h (0 Bft)
06.07.2017 01:19 16,3 °C 16,3 °C 69 % 1016,6 hPa 0,0 mm 0,7 km/h (0 Bft) SO 128 ° 0 min 0,000 mm 0,0 UV-I 0 W/m² 10,6 °C 16,3 °C 3,2 km/h (1 Bft)
06.07.2017 01:20 16,3 °C 16,3 °C 69 % 1016,5 hPa 0,0 mm 0,0 km/h (0 Bft) SO 128 ° 0 min 0,000 mm 0,0 UV-I 0 W/m² 10,6 °C 16,3 °C 0,0 km/h (0 Bft)
06.07.2017 01:21 16,3 °C 16,3 °C 69 % 1016,6 hPa 0,0 mm 0,6 km/h (0 Bft) SO 128 ° 0 min 0,000 mm 0,0 UV-I 0 W/m² 10,6 °C 16,3 °C 1,6 km/h (1 Bft)
06.07.2017 01:22 16,3 °C 16,3 °C 69 % 1016,6 hPa 0,0 mm 0,0 km/h (0 Bft) SO 128 ° 0 min 0,000 mm 0,0 UV-I 0 W/m² 10,6 °C 16,3 °C 0,0 km/h (0 Bft)
06.07.2017 01:23 16,2 °C 16,3 °C 70 % 1016,6 hPa 0,0 mm 0,0 km/h (0 Bft) SO 128 ° 0 min 0,000 mm 0,0 UV-I 0 W/m² 10,7 °C 16,2 °C 0,0 km/h (0 Bft)
06.07.2017 01:24 16,0 °C 16,2 °C 72 % 1016,5 hPa 0,0 mm 0,0 km/h (0 Bft) SO 128 ° 0 min 0,000 mm 0,0 UV-I 0 W/m² 11,0 °C 16,0 °C 0,0 km/h (0 Bft)
06.07.2017 01:25 15,7 °C 16,0 °C 73 % 1016,5 hPa 0,0 mm 0,0 km/h (0 Bft) SO 128 ° 0 min 0,000 mm 0,0 UV-I 0 W/m² 10,9 °C 15,7 °C 0,0 km/h (0 Bft)
06.07.2017 01:26 15,4 °C 15,7 °C 74 % 1016,5 hPa 0,0 mm 0,0 km/h (0 Bft) SO 128 ° 0 min 0,000 mm 0,0 UV-I 0 W/m² 10,8 °C 15,4 °C 0,0 km/h (0 Bft)
06.07.2017 01:27 15,2 °C 15,4 °C 74 % 1016,5 hPa 0,0 mm 0,0 km/h (0 Bft) SO 128 ° 0 min 0,000 mm 0,0 UV-I 0 W/m² 10,6 °C 15,2 °C 0,0 km/h (0 Bft)
06.07.2017 01:28 15,0 °C 15,2 °C 75 % 1016,5 hPa 0,0 mm 0,0 km/h (0 Bft) SO 128 ° 0 min 0,000 mm 0,0 UV-I 0 W/m² 10,6 °C 15,0 °C 0,0 km/h (0 Bft)
06.07.2017 01:29 14,9 °C 15,0 °C 75 % 1016,5 hPa 0,0 mm 0,0 km/h (0 Bft) SO 128 ° 0 min 0,000 mm 0,0 UV-I 0 W/m² 10,5 °C 14,9 °C 0,0 km/h (0 Bft)
06.07.2017 01:30 14,9 °C 14,9 °C 75 % 1016,5 hPa 0,0 mm 0,9 km/h (0 Bft) SO 128 ° 0 min 0,000 mm 0,0 UV-I 0 W/m² 10,5 °C 14,9 °C 3,2 km/h (1 Bft)
06.07.2017 01:31 14,9 °C 14,9 °C 75 % 1016,5 hPa 0,0 mm 2,5 km/h (1 Bft) SO 128 ° 0 min 0,000 mm 0,0 UV-I 0 W/m² 10,5 °C 14,9 °C 3,2 km/h (1 Bft)
06.07.2017 01:32 15,0 °C 15,0 °C 75 % 1016,5 hPa 0,0 mm 4,1 km/h (1 Bft) S 182 ° 0 min 0,000 mm 0,0 UV-I 0 W/m² 10,6 °C 15,0 °C 6,4 km/h (2 Bft)
06.07.2017 01:33 15,1 °C 15,1 °C 75 % 1016,5 hPa 0,0 mm 4,6 km/h (1 Bft) S 189 ° 0 min 0,000 mm 0,0 UV-I 0 W/m² 10,7 °C 15,1 °C 8,0 km/h (2 Bft)
06.07.2017 01:34 15,2 °C 15,2 °C 75 % 1016,5 hPa 0,0 mm 8,0 km/h (2 Bft) S-SW 212 ° 0 min 0,000 mm 0,0 UV-I 0 W/m² 10,8 °C 15,2 °C 9,7 km/h (2 Bft)
06.07.2017 01:35 15,2 °C 15,2 °C 75 % 1016,5 hPa 0,0 mm 4,4 km/h (1 Bft) S-SW 204 ° 0 min 0,000 mm 0,0 UV-I 0 W/m² 10,8 °C 15,2 °C 6,4 km/h (2 Bft)
06.07.2017 01:36 15,2 °C 15,2 °C 74 % 1016,5 hPa 0,0 mm 5,6 km/h (1 Bft) S-SW 196 ° 0 min 0,000 mm 0,0 UV-I 0 W/m² 10,6 °C 15,2 °C 8,0 km/h (2 Bft)
06.07.2017 01:37 15,2 °C 15,3 °C 75 % 1016,4 hPa 0,0 mm 4,7 km/h (1 Bft) S-SW 195 ° 0 min 0,000 mm 0,0 UV-I 0 W/m² 10,8 °C 15,2 °C 8,0 km/h (2 Bft)
06.07.2017 01:38 15,2 °C 15,2 °C 75 % 1016,5 hPa 0,0 mm 4,1 km/h (1 Bft) S 182 ° 0 min 0,000 mm 0,0 UV-I 0 W/m² 10,8 °C 15,2 °C 4,8 km/h (1 Bft)
06.07.2017 01:39 15,3 °C 15,3 °C 74 % 1016,5 hPa 0,0 mm 4,6 km/h (1 Bft) S 172 ° 0 min 0,000 mm 0,0 UV-I 0 W/m² 10,7 °C 15,3 °C 6,4 km/h (2 Bft)
06.07.2017 01:40 15,4 °C 15,4 °C 74 % 1016,5 hPa 0,0 mm 4,2 km/h (1 Bft) S 173 ° 0 min 0,000 mm 0,0 UV-I 0 W/m² 10,8 °C 15,4 °C 8,0 km/h (2 Bft)
06.07.2017 01:41 15,4 °C 15,4 °C 74 % 1016,4 hPa 0,0 mm 3,6 km/h (1 Bft) S 173 ° 0 min 0,000 mm 0,0 UV-I 0 W/m² 10,8 °C 15,4 °C 8,0 km/h (2 Bft)
06.07.2017 01:42 15,3 °C 15,4 °C 75 % 1016,5 hPa 0,0 mm 5,4 km/h (1 Bft) S 173 ° 0 min 0,000 mm 0,0 UV-I 0 W/m² 10,9 °C 15,3 °C 8,0 km/h (2 Bft)
06.07.2017 01:43 15,3 °C 15,3 °C 75 % 1016,4 hPa 0,0 mm 5,1 km/h (1 Bft) S 173 ° 0 min 0,000 mm 0,0 UV-I 0 W/m² 10,9 °C 15,3 °C 8,0 km/h (2 Bft)
06.07.2017 01:44 15,2 °C 15,3 °C 75 % 1016,5 hPa 0,0 mm 2,9 km/h (1 Bft) S 173 ° 0 min 0,000 mm 0,0 UV-I 0 W/m² 10,8 °C 15,2 °C 4,8 km/h (1 Bft)
06.07.2017 01:45 15,2 °C 15,2 °C 75 % 1016,4 hPa 0,0 mm 1,3 km/h (1 Bft) S 173 ° 0 min 0,000 mm 0,0 UV-I 0 W/m² 10,8 °C 15,2 °C 3,2 km/h (1 Bft)
06.07.2017 01:46 15,3 °C 15,3 °C 75 % 1016,4 hPa 0,0 mm 0,0 km/h (0 Bft) S 173 ° 0 min 0,000 mm 0,0 UV-I 0 W/m² 10,9 °C 15,3 °C 0,0 km/h (0 Bft)
06.07.2017 01:47 15,3 °C 15,3 °C 74 % 1016,4 hPa 0,0 mm 0,1 km/h (0 Bft) S 173 ° 0 min 0,000 mm 0,0 UV-I 0 W/m² 10,7 °C 15,3 °C 1,6 km/h (1 Bft)
06.07.2017 01:48 15,3 °C 15,3 °C 74 % 1016,4 hPa 0,0 mm 1,5 km/h (1 Bft) S 173 ° 0 min 0,000 mm 0,0 UV-I 0 W/m² 10,7 °C 15,3 °C 3,2 km/h (1 Bft)
06.07.2017 01:49 15,3 °C 15,3 °C 75 % 1016,4 hPa 0,0 mm 0,7 km/h (0 Bft) S 173 ° 0 min 0,000 mm 0,0 UV-I 0 W/m² 10,9 °C 15,3 °C 1,6 km/h (1 Bft)
06.07.2017 01:50 15,2 °C 15,3 °C 75 % 1016,4 hPa 0,0 mm 0,0 km/h (0 Bft) S 173 ° 0 min 0,000 mm 0,0 UV-I 0 W/m² 10,8 °C 15,2 °C 0,0 km/h (0 Bft)
06.07.2017 01:51 15,1 °C 15,2 °C 76 % 1016,4 hPa 0,0 mm 0,0 km/h (0 Bft) S 173 ° 0 min 0,000 mm 0,0 UV-I 0 W/m² 10,9 °C 15,1 °C 0,0 km/h (0 Bft)
06.07.2017 01:52 14,9 °C 15,1 °C 77 % 1016,4 hPa 0,0 mm 0,0 km/h (0 Bft) S 173 ° 0 min 0,000 mm 0,0 UV-I 0 W/m² 10,9 °C 14,9 °C 0,0 km/h (0 Bft)
06.07.2017 01:53 14,8 °C 14,9 °C 77 % 1016,4 hPa 0,0 mm 0,0 km/h (0 Bft) S 173 ° 0 min 0,000 mm 0,0 UV-I 0 W/m² 10,8 °C 14,8 °C 0,0 km/h (0 Bft)
06.07.2017 01:54 14,7 °C 14,8 °C 77 % 1016,4 hPa 0,0 mm 0,0 km/h (0 Bft) S 173 ° 0 min 0,000 mm 0,0 UV-I 0 W/m² 10,7 °C 14,7 °C 0,0 km/h (0 Bft)
06.07.2017 01:55 14,7 °C 14,7 °C 77 % 1016,4 hPa 0,0 mm 0,0 km/h (0 Bft) S 173 ° 0 min 0,000 mm 0,0 UV-I 0 W/m² 10,7 °C 14,7 °C 0,0 km/h (0 Bft)
06.07.2017 01:56 14,6 °C 14,7 °C 77 % 1016,4 hPa 0,0 mm 0,0 km/h (0 Bft) S 173 ° 0 min 0,000 mm 0,0 UV-I 0 W/m² 10,6 °C 14,6 °C 0,0 km/h (0 Bft)
06.07.2017 01:57 14,6 °C 14,6 °C 77 % 1016,4 hPa 0,0 mm 0,0 km/h (0 Bft) S 173 ° 0 min 0,000 mm 0,0 UV-I 0 W/m² 10,6 °C 14,6 °C 0,0 km/h (0 Bft)
06.07.2017 01:58 14,6 °C 14,6 °C 78 % 1016,4 hPa 0,0 mm 0,0 km/h (0 Bft) S 173 ° 0 min 0,000 mm 0,0 UV-I 0 W/m² 10,8 °C 14,6 °C 0,0 km/h (0 Bft)
06.07.2017 01:59 14,5 °C 14,6 °C 78 % 1016,4 hPa 0,0 mm 0,0 km/h (0 Bft) S 173 ° 0 min 0,000 mm 0,0 UV-I 0 W/m² 10,7 °C 14,5 °C 0,0 km/h (0 Bft)
06.07.2017 02:00 14,5 °C 14,5 °C 78 % 1016,4 hPa 0,0 mm 0,0 km/h (0 Bft) S 173 ° 0 min 0,026 mm 0,0 UV-I 0 W/m² 10,7 °C 14,5 °C 0,0 km/h (0 Bft)
06.07.2017 02:01 14,4 °C 14,5 °C 78 % 1016,4 hPa 0,0 mm 0,0 km/h (0 Bft) S 173 ° 0 min 0,000 mm 0,0 UV-I 0 W/m² 10,6 °C 14,4 °C 0,0 km/h (0 Bft)
06.07.2017 02:02 14,4 °C 14,4 °C 78 % 1016,4 hPa 0,0 mm 0,0 km/h (0 Bft) S 173 ° 0 min 0,000 mm 0,0 UV-I 0 W/m² 10,6 °C 14,4 °C 0,0 km/h (0 Bft)
06.07.2017 02:03 14,3 °C 14,4 °C 78 % 1016,4 hPa 0,0 mm 0,0 km/h (0 Bft) S 173 ° 0 min 0,000 mm 0,0 UV-I 0 W/m² 10,5 °C 14,3 °C 0,0 km/h (0 Bft)
06.07.2017 02:04 14,3 °C 14,4 °C 78 % 1016,4 hPa 0,0 mm 0,0 km/h (0 Bft) S 173 ° 0 min 0,000 mm 0,0 UV-I 0 W/m² 10,5 °C 14,3 °C 0,0 km/h (0 Bft)
06.07.2017 02:05 14,4 °C 14,4 °C 78 % 1016,4 hPa 0,0 mm 0,0 km/h (0 Bft) S 173 ° 0 min 0,000 mm 0,0 UV-I 0 W/m² 10,6 °C 14,4 °C 0,0 km/h (0 Bft)
06.07.2017 02:06 14,3 °C 14,4 °C 78 % 1016,4 hPa 0,0 mm 0,0 km/h (0 Bft) S 173 ° 0 min 0,000 mm 0,0 UV-I 0 W/m² 10,5 °C 14,3 °C 0,0 km/h (0 Bft)
06.07.2017 02:07 14,3 °C 14,3 °C 78 % 1016,5 hPa 0,0 mm 0,0 km/h (0 Bft) S 173 ° 0 min 0,000 mm 0,0 UV-I 0 W/m² 10,5 °C 14,3 °C 0,0 km/h (0 Bft)
06.07.2017 02:08 14,3 °C 14,3 °C 78 % 1016,4 hPa 0,0 mm 0,0 km/h (0 Bft) S 173 ° 0 min 0,000 mm 0,0 UV-I 0 W/m² 10,5 °C 14,3 °C 0,0 km/h (0 Bft)
06.07.2017 02:09 14,3 °C 14,3 °C 79 % 1016,4 hPa 0,0 mm 0,0 km/h (0 Bft) S 173 ° 0 min 0,000 mm 0,0 UV-I 0 W/m² 10,7 °C 14,3 °C 0,0 km/h (0 Bft)
06.07.2017 02:10 14,2 °C 14,3 °C 78 % 1016,4 hPa 0,0 mm 0,0 km/h (0 Bft) S 173 ° 0 min 0,000 mm 0,0 UV-I 0 W/m² 10,4 °C 14,2 °C 0,0 km/h (0 Bft)
06.07.2017 02:11 14,2 °C 14,2 °C 79 % 1016,5 hPa 0,0 mm 0,0 km/h (0 Bft) S 173 ° 0 min 0,000 mm 0,0 UV-I 0 W/m² 10,6 °C 14,2 °C 0,0 km/h (0 Bft)
06.07.2017 02:12 14,2 °C 14,2 °C 79 % 1016,4 hPa 0,0 mm 0,0 km/h (0 Bft) S 173 ° 0 min 0,000 mm 0,0 UV-I 0 W/m² 10,6 °C 14,2 °C 0,0 km/h (0 Bft)
06.07.2017 02:13 14,1 °C 14,2 °C 79 % 1016,4 hPa 0,0 mm 0,0 km/h (0 Bft) S 173 ° 0 min 0,000 mm 0,0 UV-I 0 W/m² 10,5 °C 14,1 °C 0,0 km/h (0 Bft)
06.07.2017 02:14 14,1 °C 14,1 °C 79 % 1016,4 hPa 0,0 mm 0,0 km/h (0 Bft) S 173 ° 0 min 0,000 mm 0,0 UV-I 0 W/m² 10,5 °C 14,1 °C 0,0 km/h (0 Bft)
06.07.2017 02:15 14,2 °C 14,2 °C 79 % 1016,4 hPa 0,0 mm 0,0 km/h (0 Bft) S 173 ° 0 min 0,000 mm 0,0 UV-I 0 W/m² 10,6 °C 14,2 °C 0,0 km/h (0 Bft)
06.07.2017 02:16 14,1 °C 14,2 °C 79 % 1016,4 hPa 0,0 mm 0,0 km/h (0 Bft) S 173 ° 0 min 0,000 mm 0,0 UV-I 0 W/m² 10,5 °C 14,1 °C 0,0 km/h (0 Bft)
06.07.2017 02:17 14,2 °C 14,2 °C 79 % 1016,4 hPa 0,0 mm 0,0 km/h (0 Bft) S 173 ° 0 min 0,000 mm 0,0 UV-I 0 W/m² 10,6 °C 14,2 °C 0,0 km/h (0 Bft)
06.07.2017 02:18 14,2 °C 14,2 °C 79 % 1016,4 hPa 0,0 mm 0,0 km/h (0 Bft) S 173 ° 0 min 0,000 mm 0,0 UV-I 0 W/m² 10,6 °C 14,2 °C 0,0 km/h (0 Bft)
06.07.2017 02:19 14,2 °C 14,2 °C 79 % 1016,4 hPa 0,0 mm 0,0 km/h (0 Bft) S 173 ° 0 min 0,000 mm 0,0 UV-I 0 W/m² 10,6 °C 14,2 °C 0,0 km/h (0 Bft)
06.07.2017 02:20 14,2 °C 14,2 °C 79 % 1016,4 hPa 0,0 mm 0,0 km/h (0 Bft) S 173 ° 0 min 0,000 mm 0,0 UV-I 0 W/m² 10,6 °C 14,2 °C 0,0 km/h (0 Bft)
06.07.2017 02:21 14,2 °C 14,2 °C 78 % 1016,4 hPa 0,0 mm 0,0 km/h (0 Bft) S 173 ° 0 min 0,000 mm 0,0 UV-I 0 W/m² 10,4 °C 14,2 °C 0,0 km/h (0 Bft)
06.07.2017 02:22 14,2 °C 14,3 °C 78 % 1016,4 hPa 0,0 mm 0,0 km/h (0 Bft) S 173 ° 0 min 0,000 mm 0,0 UV-I 0 W/m² 10,4 °C 14,2 °C 0,0 km/h (0 Bft)
06.07.2017 02:23 14,2 °C 14,3 °C 79 % 1016,4 hPa 0,0 mm 0,0 km/h (0 Bft) S 173 ° 0 min 0,000 mm 0,0 UV-I 0 W/m² 10,6 °C 14,2 °C 0,0 km/h (0 Bft)
06.07.2017 02:24 14,2 °C 14,2 °C 79 % 1016,3 hPa 0,0 mm 0,0 km/h (0 Bft) S 173 ° 0 min 0,000 mm 0,0 UV-I 0 W/m² 10,6 °C 14,2 °C 0,0 km/h (0 Bft)
06.07.2017 02:25 14,1 °C 14,2 °C 79 % 1016,3 hPa 0,0 mm 0,0 km/h (0 Bft) S 173 ° 0 min 0,000 mm 0,0 UV-I 0 W/m² 10,5 °C 14,1 °C 0,0 km/h (0 Bft)
06.07.2017 02:26 14,1 °C 14,1 °C 80 % 1016,3 hPa 0,0 mm 0,0 km/h (0 Bft) S 173 ° 0 min 0,000 mm 0,0 UV-I 0 W/m² 10,7 °C 14,1 °C 0,0 km/h (0 Bft)
06.07.2017 02:27 14,0 °C 14,1 °C 80 % 1016,3 hPa 0,0 mm 0,0 km/h (0 Bft) S 173 ° 0 min 0,000 mm 0,0 UV-I 0 W/m² 10,6 °C 14,0 °C 0,0 km/h (0 Bft)
06.07.2017 02:28 14,0 °C 14,0 °C 80 % 1016,3 hPa 0,0 mm 0,0 km/h (0 Bft) S 173 ° 0 min 0,000 mm 0,0 UV-I 0 W/m² 10,6 °C 14,0 °C 0,0 km/h (0 Bft)
06.07.2017 02:29 14,0 °C 14,0 °C 80 % 1016,3 hPa 0,0 mm 0,0 km/h (0 Bft) S 173 ° 0 min 0,000 mm 0,0 UV-I 0 W/m² 10,6 °C 14,0 °C 0,0 km/h (0 Bft)
06.07.2017 02:30 14,0 °C 14,0 °C 80 % 1016,3 hPa 0,0 mm 0,0 km/h (0 Bft) S 173 ° 0 min 0,000 mm 0,0 UV-I 0 W/m² 10,6 °C 14,0 °C 0,0 km/h (0 Bft)
06.07.2017 02:31 14,0 °C 14,0 °C 80 % 1016,3 hPa 0,0 mm 0,0 km/h (0 Bft) S 173 ° 0 min 0,000 mm 0,0 UV-I 0 W/m² 10,6 °C 14,0 °C 0,0 km/h (0 Bft)
06.07.2017 02:32 14,1 °C 14,1 °C 79 % 1016,3 hPa 0,0 mm 0,0 km/h (0 Bft) S 173 ° 0 min 0,000 mm 0,0 UV-I 0 W/m² 10,5 °C 14,1 °C 0,0 km/h (0 Bft)
06.07.2017 02:33 14,2 °C 14,2 °C 78 % 1016,3 hPa 0,0 mm 0,0 km/h (0 Bft) S 173 ° 0 min 0,000 mm 0,0 UV-I 0 W/m² 10,4 °C 14,2 °C 0,0 km/h (0 Bft)
06.07.2017 02:34 14,3 °C 14,3 °C 78 % 1016,3 hPa 0,0 mm 0,6 km/h (0 Bft) S 173 ° 0 min 0,000 mm 0,0 UV-I 0 W/m² 10,5 °C 14,3 °C 3,2 km/h (1 Bft)
06.07.2017 02:35 14,4 °C 14,4 °C 77 % 1016,3 hPa 0,0 mm 0,0 km/h (0 Bft) S 173 ° 0 min 0,000 mm 0,0 UV-I 0 W/m² 10,4 °C 14,4 °C 0,0 km/h (0 Bft)
06.07.2017 02:36 14,4 °C 14,4 °C 77 % 1016,3 hPa 0,0 mm 0,1 km/h (0 Bft) S 173 ° 0 min 0,000 mm 0,0 UV-I 0 W/m² 10,4 °C 14,4 °C 1,6 km/h (1 Bft)
06.07.2017 02:37 14,5 °C 14,5 °C 78 % 1016,3 hPa 0,0 mm 0,0 km/h (0 Bft) S 173 ° 0 min 0,000 mm 0,0 UV-I 0 W/m² 10,7 °C 14,5 °C 0,0 km/h (0 Bft)
06.07.2017 02:38 14,5 °C 14,5 °C 77 % 1016,3 hPa 0,0 mm 0,0 km/h (0 Bft) S 173 ° 0 min 0,000 mm 0,0 UV-I 0 W/m² 10,5 °C 14,5 °C 0,0 km/h (0 Bft)
06.07.2017 02:39 14,4 °C 14,5 °C 78 % 1016,3 hPa 0,0 mm 0,0 km/h (0 Bft) S 173 ° 0 min 0,000 mm 0,0 UV-I 0 W/m² 10,6 °C 14,4 °C 0,0 km/h (0 Bft)
06.07.2017 02:40 14,3 °C 14,4 °C 79 % 1016,2 hPa 0,0 mm 0,0 km/h (0 Bft) S 173 ° 0 min 0,000 mm 0,0 UV-I 0 W/m² 10,7 °C 14,3 °C 0,0 km/h (0 Bft)
06.07.2017 02:41 14,2 °C 14,3 °C 80 % 1016,2 hPa 0,0 mm 0,0 km/h (0 Bft) S 173 ° 0 min 0,000 mm 0,0 UV-I 0 W/m² 10,8 °C 14,2 °C 0,0 km/h (0 Bft)
06.07.2017 02:42 14,1 °C 14,2 °C 80 % 1016,3 hPa 0,0 mm 0,0 km/h (0 Bft) S 173 ° 0 min 0,000 mm 0,0 UV-I 0 W/m² 10,7 °C 14,1 °C 0,0 km/h (0 Bft)
06.07.2017 02:43 14,1 °C 14,1 °C 80 % 1016,2 hPa 0,0 mm 0,0 km/h (0 Bft) S 173 ° 0 min 0,000 mm 0,0 UV-I 0 W/m² 10,7 °C 14,1 °C 0,0 km/h (0 Bft)
06.07.2017 02:44 14,1 °C 14,1 °C 79 % 1016,2 hPa 0,0 mm 0,0 km/h (0 Bft) S 173 ° 0 min 0,000 mm 0,0 UV-I 0 W/m² 10,5 °C 14,1 °C 0,0 km/h (0 Bft)
06.07.2017 02:45 14,2 °C 14,2 °C 78 % 1016,2 hPa 0,0 mm 0,5 km/h (0 Bft) S 173 ° 0 min 0,000 mm 0,0 UV-I 0 W/m² 10,4 °C 14,2 °C 3,2 km/h (1 Bft)
06.07.2017 02:46 14,2 °C 14,2 °C 78 % 1016,2 hPa 0,0 mm 0,3 km/h (0 Bft) S 173 ° 0 min 0,000 mm 0,0 UV-I 0 W/m² 10,4 °C 14,2 °C 1,6 km/h (1 Bft)
06.07.2017 02:47 14,3 °C 14,3 °C 79 % 1016,3 hPa 0,0 mm 0,0 km/h (0 Bft) S 173 ° 0 min 0,000 mm 0,0 UV-I 0 W/m² 10,7 °C 14,3 °C 0,0 km/h (0 Bft)
06.07.2017 02:48 14,2 °C 14,3 °C 79 % 1016,2 hPa 0,0 mm 0,0 km/h (0 Bft) S 173 ° 0 min 0,000 mm 0,0 UV-I 0 W/m² 10,6 °C 14,2 °C 0,0 km/h (0 Bft)
06.07.2017 02:49 14,1 °C 14,2 °C 80 % 1016,3 hPa 0,0 mm 0,0 km/h (0 Bft) S 173 ° 0 min 0,000 mm 0,0 UV-I 0 W/m² 10,7 °C 14,1 °C 0,0 km/h (0 Bft)
06.07.2017 02:50 14,0 °C 14,1 °C 80 % 1016,3 hPa 0,0 mm 0,0 km/h (0 Bft) S 173 ° 0 min 0,000 mm 0,0 UV-I 0 W/m² 10,6 °C 14,0 °C 0,0 km/h (0 Bft)
06.07.2017 02:51 14,0 °C 14,0 °C 80 % 1016,2 hPa 0,0 mm 0,0 km/h (0 Bft) S 173 ° 0 min 0,000 mm 0,0 UV-I 0 W/m² 10,6 °C 14,0 °C 0,0 km/h (0 Bft)
06.07.2017 02:52 13,9 °C 14,0 °C 80 % 1016,2 hPa 0,0 mm 0,0 km/h (0 Bft) S 173 ° 0 min 0,000 mm 0,0 UV-I 0 W/m² 10,5 °C 13,9 °C 0,0 km/h (0 Bft)
06.07.2017 02:53 13,9 °C 13,9 °C 80 % 1016,2 hPa 0,0 mm 0,0 km/h (0 Bft) S 173 ° 0 min 0,000 mm 0,0 UV-I 0 W/m² 10,5 °C 13,9 °C 0,0 km/h (0 Bft)
06.07.2017 02:54 13,9 °C 13,9 °C 80 % 1016,3 hPa 0,0 mm 0,0 km/h (0 Bft) S 173 ° 0 min 0,000 mm 0,0 UV-I 0 W/m² 10,5 °C 13,9 °C 0,0 km/h (0 Bft)
06.07.2017 02:55 13,8 °C 13,9 °C 80 % 1016,3 hPa 0,0 mm 0,0 km/h (0 Bft) S 173 ° 0 min 0,000 mm 0,0 UV-I 0 W/m² 10,4 °C 13,8 °C 0,0 km/h (0 Bft)
06.07.2017 02:56 13,8 °C 13,8 °C 80 % 1016,3 hPa 0,0 mm 0,0 km/h (0 Bft) S 173 ° 0 min 0,000 mm 0,0 UV-I 0 W/m² 10,4 °C 13,8 °C 0,0 km/h (0 Bft)
06.07.2017 02:57 13,8 °C 13,8 °C 80 % 1016,3 hPa 0,0 mm 0,0 km/h (0 Bft) S 173 ° 0 min 0,000 mm 0,0 UV-I 0 W/m² 10,4 °C 13,8 °C 0,0 km/h (0 Bft)
06.07.2017 02:58 13,8 °C 13,8 °C 80 % 1016,3 hPa 0,0 mm 0,0 km/h (0 Bft) S 173 ° 0 min 0,000 mm 0,0 UV-I 0 W/m² 10,4 °C 13,8 °C 0,0 km/h (0 Bft)
06.07.2017 02:59 13,7 °C 13,8 °C 80 % 1016,3 hPa 0,0 mm 0,0 km/h (0 Bft) S 173 ° 0 min 0,000 mm 0,0 UV-I 0 W/m² 10,3 °C 13,7 °C 0,0 km/h (0 Bft)
06.07.2017 03:00 13,7 °C 13,7 °C 80 % 1016,3 hPa 0,0 mm 0,0 km/h (0 Bft) S 173 ° 0 min 0,025 mm 0,0 UV-I 0 W/m² 10,3 °C 13,7 °C 0,0 km/h (0 Bft)
06.07.2017 03:01 13,6 °C 13,7 °C 81 % 1016,3 hPa 0,0 mm 0,0 km/h (0 Bft) S 173 ° 0 min 0,000 mm 0,0 UV-I 0 W/m² 10,4 °C 13,6 °C 0,0 km/h (0 Bft)
06.07.2017 03:02 13,6 °C 13,6 °C 81 % 1016,3 hPa 0,0 mm 0,0 km/h (0 Bft) S 173 ° 0 min 0,000 mm 0,0 UV-I 0 W/m² 10,4 °C 13,6 °C 0,0 km/h (0 Bft)
06.07.2017 03:03 13,6 °C 13,6 °C 81 % 1016,3 hPa 0,0 mm 0,0 km/h (0 Bft) S 173 ° 0 min 0,000 mm 0,0 UV-I 0 W/m² 10,4 °C 13,6 °C 0,0 km/h (0 Bft)
06.07.2017 03:04 13,6 °C 13,6 °C 81 % 1016,3 hPa 0,0 mm 0,0 km/h (0 Bft) S 173 ° 0 min 0,000 mm 0,0 UV-I 0 W/m² 10,4 °C 13,6 °C 0,0 km/h (0 Bft)
06.07.2017 03:05 13,6 °C 13,6 °C 81 % 1016,3 hPa 0,0 mm 0,0 km/h (0 Bft) S 173 ° 0 min 0,000 mm 0,0 UV-I 0 W/m² 10,4 °C 13,6 °C 0,0 km/h (0 Bft)
06.07.2017 03:06 13,6 °C 13,6 °C 81 % 1016,3 hPa 0,0 mm 0,0 km/h (0 Bft) S 173 ° 0 min 0,000 mm 0,0 UV-I 0 W/m² 10,4 °C 13,6 °C 0,0 km/h (0 Bft)
06.07.2017 03:07 13,6 °C 13,6 °C 81 % 1016,3 hPa 0,0 mm 0,0 km/h (0 Bft) S 173 ° 0 min 0,000 mm 0,0 UV-I 0 W/m² 10,4 °C 13,6 °C 0,0 km/h (0 Bft)
06.07.2017 03:08 13,5 °C 13,6 °C 80 % 1016,3 hPa 0,0 mm 0,0 km/h (0 Bft) S 173 ° 0 min 0,000 mm 0,0 UV-I 0 W/m² 10,1 °C 13,5 °C 0,0 km/h (0 Bft)
06.07.2017 03:09 13,5 °C 13,5 °C 80 % 1016,3 hPa 0,0 mm 0,0 km/h (0 Bft) S 173 ° 0 min 0,000 mm 0,0 UV-I 0 W/m² 10,1 °C 13,5 °C 0,0 km/h (0 Bft)
06.07.2017 03:10 13,5 °C 13,5 °C 81 % 1016,3 hPa 0,0 mm 0,0 km/h (0 Bft) S 173 ° 0 min 0,000 mm 0,0 UV-I 0 W/m² 10,3 °C 13,5 °C 0,0 km/h (0 Bft)
06.07.2017 03:11 13,5 °C 13,5 °C 81 % 1016,3 hPa 0,0 mm 0,0 km/h (0 Bft) S 173 ° 0 min 0,000 mm 0,0 UV-I 0 W/m² 10,3 °C 13,5 °C 0,0 km/h (0 Bft)
06.07.2017 03:12 13,4 °C 13,5 °C 81 % 1016,4 hPa 0,0 mm 0,0 km/h (0 Bft) S 173 ° 0 min 0,000 mm 0,0 UV-I 0 W/m² 10,2 °C 13,4 °C 0,0 km/h (0 Bft)
06.07.2017 03:13 13,4 °C 13,4 °C 81 % 1016,4 hPa 0,0 mm 0,0 km/h (0 Bft) S 173 ° 0 min 0,000 mm 0,0 UV-I 0 W/m² 10,2 °C 13,4 °C 0,0 km/h (0 Bft)
06.07.2017 03:14 13,4 °C 13,4 °C 81 % 1016,3 hPa 0,0 mm 0,0 km/h (0 Bft) S 173 ° 0 min 0,000 mm 0,0 UV-I 0 W/m² 10,2 °C 13,4 °C 0,0 km/h (0 Bft)
06.07.2017 03:15 13,4 °C 13,5 °C 81 % 1016,3 hPa 0,0 mm 0,0 km/h (0 Bft) S 173 ° 0 min 0,000 mm 0,0 UV-I 0 W/m² 10,2 °C 13,4 °C 0,0 km/h (0 Bft)
06.07.2017 03:16 13,4 °C 13,5 °C 81 % 1016,3 hPa 0,0 mm 0,0 km/h (0 Bft) S 173 ° 0 min 0,000 mm 0,0 UV-I 0 W/m² 10,2 °C 13,4 °C 0,0 km/h (0 Bft)
06.07.2017 03:17 13,4 °C 13,4 °C 81 % 1016,3 hPa 0,0 mm 0,0 km/h (0 Bft) S 173 ° 0 min 0,000 mm 0,0 UV-I 0 W/m² 10,2 °C 13,4 °C 0,0 km/h (0 Bft)
06.07.2017 03:18 13,4 °C 13,4 °C 81 % 1016,3 hPa 0,0 mm 0,0 km/h (0 Bft) S 173 ° 0 min 0,000 mm 0,0 UV-I 0 W/m² 10,2 °C 13,4 °C 0,0 km/h (0 Bft)
06.07.2017 03:19 13,4 °C 13,4 °C 81 % 1016,3 hPa 0,0 mm 0,0 km/h (0 Bft) S 173 ° 0 min 0,000 mm 0,0 UV-I 0 W/m² 10,2 °C 13,4 °C 0,0 km/h (0 Bft)
06.07.2017 03:20 13,3 °C 13,4 °C 81 % 1016,3 hPa 0,0 mm 0,0 km/h (0 Bft) S 173 ° 0 min 0,000 mm 0,0 UV-I 0 W/m² 10,1 °C 13,3 °C 0,0 km/h (0 Bft)
06.07.2017 03:21 13,3 °C 13,3 °C 82 % 1016,3 hPa 0,0 mm 0,0 km/h (0 Bft) S 173 ° 0 min 0,000 mm 0,0 UV-I 0 W/m² 10,3 °C 13,3 °C 0,0 km/h (0 Bft)
06.07.2017 03:22 13,3 °C 13,3 °C 82 % 1016,3 hPa 0,0 mm 0,0 km/h (0 Bft) S 173 ° 0 min 0,000 mm 0,0 UV-I 0 W/m² 10,3 °C 13,3 °C 0,0 km/h (0 Bft)
06.07.2017 03:23 13,2 °C 13,3 °C 82 % 1016,3 hPa 0,0 mm 0,0 km/h (0 Bft) S 173 ° 0 min 0,000 mm 0,0 UV-I 0 W/m² 10,2 °C 13,2 °C 0,0 km/h (0 Bft)
06.07.2017 03:24 13,2 °C 13,2 °C 82 % 1016,4 hPa 0,0 mm 0,0 km/h (0 Bft) S 173 ° 0 min 0,000 mm 0,0 UV-I 0 W/m² 10,2 °C 13,2 °C 0,0 km/h (0 Bft)
06.07.2017 03:25 13,2 °C 13,2 °C 82 % 1016,3 hPa 0,0 mm 0,0 km/h (0 Bft) S 173 ° 0 min 0,000 mm 0,0 UV-I 0 W/m² 10,2 °C 13,2 °C 0,0 km/h (0 Bft)
06.07.2017 03:26 13,2 °C 13,2 °C 82 % 1016,3 hPa 0,0 mm 0,0 km/h (0 Bft) S 173 ° 0 min 0,000 mm 0,0 UV-I 0 W/m² 10,2 °C 13,2 °C 0,0 km/h (0 Bft)
06.07.2017 03:27 13,3 °C 13,3 °C 82 % 1016,3 hPa 0,0 mm 0,0 km/h (0 Bft) S 173 ° 0 min 0,000 mm 0,0 UV-I 0 W/m² 10,3 °C 13,3 °C 0,0 km/h (0 Bft)
06.07.2017 03:28 13,3 °C 13,3 °C 82 % 1016,3 hPa 0,0 mm 0,0 km/h (0 Bft) S 173 ° 0 min 0,000 mm 0,0 UV-I 0 W/m² 10,3 °C 13,3 °C 0,0 km/h (0 Bft)
06.07.2017 03:29 13,3 °C 13,3 °C 82 % 1016,3 hPa 0,0 mm 0,0 km/h (0 Bft) S 173 ° 0 min 0,000 mm 0,0 UV-I 0 W/m² 10,3 °C 13,3 °C 0,0 km/h (0 Bft)
06.07.2017 03:30 13,3 °C 13,3 °C 82 % 1016,3 hPa 0,0 mm 0,0 km/h (0 Bft) S 173 ° 0 min 0,000 mm 0,0 UV-I 0 W/m² 10,3 °C 13,3 °C 0,0 km/h (0 Bft)
06.07.2017 03:31 13,2 °C 13,3 °C 82 % 1016,2 hPa 0,0 mm 0,0 km/h (0 Bft) S 173 ° 0 min 0,000 mm 0,0 UV-I 0 W/m² 10,2 °C 13,2 °C 0,0 km/h (0 Bft)
06.07.2017 03:32 13,2 °C 13,2 °C 83 % 1016,3 hPa 0,0 mm 0,0 km/h (0 Bft) S 173 ° 0 min 0,000 mm 0,0 UV-I 0 W/m² 10,4 °C 13,2 °C 0,0 km/h (0 Bft)
06.07.2017 03:33 13,2 °C 13,2 °C 83 % 1016,3 hPa 0,0 mm 0,0 km/h (0 Bft) S 173 ° 0 min 0,000 mm 0,0 UV-I 0 W/m² 10,4 °C 13,2 °C 0,0 km/h (0 Bft)
06.07.2017 03:34 13,1 °C 13,2 °C 83 % 1016,3 hPa 0,0 mm 0,0 km/h (0 Bft) S 173 ° 0 min 0,000 mm 0,0 UV-I 0 W/m² 10,3 °C 13,1 °C 0,0 km/h (0 Bft)
06.07.2017 03:35 13,2 °C 13,2 °C 82 % 1016,3 hPa 0,0 mm 0,0 km/h (0 Bft) S 173 ° 0 min 0,000 mm 0,0 UV-I 0 W/m² 10,2 °C 13,2 °C 0,0 km/h (0 Bft)
06.07.2017 03:36 13,2 °C 13,2 °C 82 % 1016,3 hPa 0,0 mm 0,0 km/h (0 Bft) S-SO 165 ° 0 min 0,000 mm 0,0 UV-I 0 W/m² 10,2 °C 13,2 °C 0,0 km/h (0 Bft)
06.07.2017 03:37 13,2 °C 13,2 °C 82 % 1016,3 hPa 0,0 mm 0,9 km/h (0 Bft) S 171 ° 0 min 0,000 mm 0,0 UV-I 0 W/m² 10,2 °C 13,2 °C 3,2 km/h (1 Bft)
06.07.2017 03:38 13,3 °C 13,3 °C 82 % 1016,3 hPa 0,0 mm 0,0 km/h (0 Bft) S 171 ° 0 min 0,000 mm 0,0 UV-I 0 W/m² 10,3 °C 13,3 °C 0,0 km/h (0 Bft)
06.07.2017 03:39 13,3 °C 13,3 °C 83 % 1016,3 hPa 0,0 mm 0,0 km/h (0 Bft) S 171 ° 0 min 0,000 mm 0,0 UV-I 0 W/m² 10,5 °C 13,3 °C 0,0 km/h (0 Bft)
06.07.2017 03:40 13,3 °C 13,4 °C 82 % 1016,3 hPa 0,0 mm 0,0 km/h (0 Bft) S 171 ° 0 min 0,000 mm 0,0 UV-I 0 W/m² 10,3 °C 13,3 °C 0,0 km/h (0 Bft)
06.07.2017 03:41 13,4 °C 13,4 °C 81 % 1016,3 hPa 0,0 mm 0,0 km/h (0 Bft) S 171 ° 0 min 0,000 mm 0,0 UV-I 0 W/m² 10,2 °C 13,4 °C 0,0 km/h (0 Bft)
06.07.2017 03:42 13,4 °C 13,4 °C 81 % 1016,3 hPa 0,0 mm 0,1 km/h (0 Bft) S 171 ° 0 min 0,000 mm 0,0 UV-I 0 W/m² 10,2 °C 13,4 °C 1,6 km/h (1 Bft)
06.07.2017 03:43 13,3 °C 13,4 °C 81 % 1016,3 hPa 0,0 mm 0,0 km/h (0 Bft) S 171 ° 0 min 0,000 mm 0,0 UV-I 0 W/m² 10,1 °C 13,3 °C 0,0 km/h (0 Bft)
06.07.2017 03:44 13,4 °C 13,4 °C 81 % 1016,3 hPa 0,0 mm 0,0 km/h (0 Bft) S 171 ° 0 min 0,000 mm 0,0 UV-I 0 W/m² 10,2 °C 13,4 °C 0,0 km/h (0 Bft)
06.07.2017 03:45 13,4 °C 13,4 °C 82 % 1016,3 hPa 0,0 mm 0,0 km/h (0 Bft) S 171 ° 0 min 0,000 mm 0,0 UV-I 0 W/m² 10,4 °C 13,4 °C 0,0 km/h (0 Bft)
06.07.2017 03:46 13,4 °C 13,4 °C 80 % 1016,3 hPa 0,0 mm 0,0 km/h (0 Bft) S 171 ° 0 min 0,000 mm 0,0 UV-I 0 W/m² 10,0 °C 13,4 °C 0,0 km/h (0 Bft)
06.07.2017 03:47 13,6 °C 13,6 °C 80 % 1016,3 hPa 0,0 mm 0,0 km/h (0 Bft) S 171 ° 0 min 0,000 mm 0,0 UV-I 0 W/m² 10,2 °C 13,6 °C 0,0 km/h (0 Bft)
06.07.2017 03:48 13,7 °C 13,7 °C 80 % 1016,3 hPa 0,0 mm 0,0 km/h (0 Bft) S 171 ° 0 min 0,000 mm 0,0 UV-I 0 W/m² 10,3 °C 13,7 °C 0,0 km/h (0 Bft)
06.07.2017 03:49 13,8 °C 13,8 °C 80 % 1016,2 hPa 0,0 mm 0,0 km/h (0 Bft) S 171 ° 0 min 0,000 mm 0,0 UV-I 0 W/m² 10,4 °C 13,8 °C 0,0 km/h (0 Bft)
06.07.2017 03:50 13,8 °C 13,8 °C 80 % 1016,2 hPa 0,0 mm 0,0 km/h (0 Bft) S 171 ° 0 min 0,000 mm 0,0 UV-I 0 W/m² 10,4 °C 13,8 °C 0,0 km/h (0 Bft)
06.07.2017 03:51 13,8 °C 13,8 °C 80 % 1016,2 hPa 0,0 mm 0,0 km/h (0 Bft) S 171 ° 0 min 0,000 mm 0,0 UV-I 0 W/m² 10,4 °C 13,8 °C 0,0 km/h (0 Bft)
06.07.2017 03:52 13,9 °C 13,9 °C 79 % 1016,2 hPa 0,0 mm 0,0 km/h (0 Bft) S 171 ° 0 min 0,000 mm 0,0 UV-I 0 W/m² 10,3 °C 13,9 °C 0,0 km/h (0 Bft)
06.07.2017 03:53 13,9 °C 13,9 °C 80 % 1016,2 hPa 0,0 mm 0,0 km/h (0 Bft) S 171 ° 0 min 0,000 mm 0,0 UV-I 0 W/m² 10,5 °C 13,9 °C 0,0 km/h (0 Bft)
06.07.2017 03:54 13,8 °C 13,9 °C 79 % 1016,2 hPa 0,0 mm 0,0 km/h (0 Bft) S 171 ° 0 min 0,000 mm 0,0 UV-I 0 W/m² 10,2 °C 13,8 °C 0,0 km/h (0 Bft)
06.07.2017 03:55 13,8 °C 13,9 °C 80 % 1016,2 hPa 0,0 mm 0,0 km/h (0 Bft) S 171 ° 0 min 0,000 mm 0,0 UV-I 0 W/m² 10,4 °C 13,8 °C 0,0 km/h (0 Bft)
06.07.2017 03:56 13,8 °C 13,8 °C 80 % 1016,2 hPa 0,0 mm 0,0 km/h (0 Bft) S 171 ° 0 min 0,000 mm 0,0 UV-I 0 W/m² 10,4 °C 13,8 °C 0,0 km/h (0 Bft)
06.07.2017 03:57 13,8 °C 13,8 °C 80 % 1016,3 hPa 0,0 mm 0,0 km/h (0 Bft) S 171 ° 0 min 0,000 mm 0,0 UV-I 0 W/m² 10,4 °C 13,8 °C 0,0 km/h (0 Bft)
06.07.2017 03:58 13,8 °C 13,8 °C 79 % 1016,2 hPa 0,0 mm 0,0 km/h (0 Bft) S 171 ° 0 min 0,000 mm 0,0 UV-I 0 W/m² 10,2 °C 13,8 °C 0,0 km/h (0 Bft)
06.07.2017 03:59 13,7 °C 13,8 °C 80 % 1016,3 hPa 0,0 mm 0,0 km/h (0 Bft) S 171 ° 0 min 0,000 mm 0,0 UV-I 0 W/m² 10,3 °C 13,7 °C 0,0 km/h (0 Bft)
06.07.2017 04:00 13,7 °C 13,7 °C 80 % 1016,3 hPa 0,0 mm 0,0 km/h (0 Bft) S 171 ° 0 min 0,000 mm 0,0 UV-I 0 W/m² 10,3 °C 13,7 °C 0,0 km/h (0 Bft)
06.07.2017 04:01 13,6 °C 13,7 °C 80 % 1016,3 hPa 0,0 mm 0,0 km/h (0 Bft) S 171 ° 0 min 0,026 mm 0,0 UV-I 0 W/m² 10,2 °C 13,6 °C 0,0 km/h (0 Bft)
06.07.2017 04:02 13,6 °C 13,6 °C 80 % 1016,3 hPa 0,0 mm 0,0 km/h (0 Bft) N 0 ° 0 min 0,000 mm 0,0 UV-I 0 W/m² 10,2 °C 13,6 °C 0,0 km/h (0 Bft)
06.07.2017 04:03 13,7 °C 13,7 °C 80 % 1016,3 hPa 0,0 mm 0,0 km/h (0 Bft) N 0 ° 0 min 0,000 mm 0,0 UV-I 0 W/m² 10,3 °C 13,7 °C 0,0 km/h (0 Bft)
06.07.2017 04:04 13,6 °C 13,7 °C 80 % 1016,3 hPa 0,0 mm 0,0 km/h (0 Bft) N 0 ° 0 min 0,000 mm 0,0 UV-I 0 W/m² 10,2 °C 13,6 °C 0,0 km/h (0 Bft)
06.07.2017 04:05 13,6 °C 13,6 °C 80 % 1016,3 hPa 0,0 mm 0,0 km/h (0 Bft) N 0 ° 0 min 0,000 mm 0,0 UV-I 0 W/m² 10,2 °C 13,6 °C 0,0 km/h (0 Bft)
06.07.2017 04:06 13,6 °C 13,6 °C 80 % 1016,3 hPa 0,0 mm 0,0 km/h (0 Bft) N 0 ° 0 min 0,000 mm 0,0 UV-I 0 W/m² 10,2 °C 13,6 °C 0,0 km/h (0 Bft)
06.07.2017 04:07 13,6 °C 13,6 °C 80 % 1016,2 hPa 0,0 mm 0,0 km/h (0 Bft) N 0 ° 0 min 0,000 mm 0,0 UV-I 0 W/m² 10,2 °C 13,6 °C 0,0 km/h (0 Bft)
06.07.2017 04:08 13,5 °C 13,6 °C 80 % 1016,3 hPa 0,0 mm 0,0 km/h (0 Bft) N 0 ° 0 min 0,000 mm 0,0 UV-I 0 W/m² 10,1 °C 13,5 °C 0,0 km/h (0 Bft)
06.07.2017 04:10 13,6 °C 13,6 °C 80 % 1016,3 hPa 0,0 mm 0,0 km/h (0 Bft) S 171 ° 0 min 0,000 mm 0,0 UV-I 0 W/m² 10,2 °C 13,6 °C 0,0 km/h (0 Bft)
06.07.2017 04:11 13,6 °C 13,6 °C 80 % 1016,3 hPa 0,0 mm 0,0 km/h (0 Bft) S 171 ° 0 min 0,000 mm 0,0 UV-I 0 W/m² 10,2 °C 13,6 °C 0,0 km/h (0 Bft)
06.07.2017 04:12 13,6 °C 13,6 °C 80 % 1016,3 hPa 0,0 mm 0,0 km/h (0 Bft) S 171 ° 0 min 0,000 mm 0,0 UV-I 0 W/m² 10,2 °C 13,6 °C 0,0 km/h (0 Bft)
06.07.2017 04:13 13,6 °C 13,7 °C 80 % 1016,2 hPa 0,0 mm 0,0 km/h (0 Bft) S 171 ° 0 min 0,000 mm 0,0 UV-I 0 W/m² 10,2 °C 13,6 °C 0,0 km/h (0 Bft)
06.07.2017 04:14 13,7 °C 13,7 °C 81 % 1016,2 hPa 0,0 mm 0,0 km/h (0 Bft) S 171 ° 0 min 0,000 mm 0,0 UV-I 0 W/m² 10,5 °C 13,7 °C 0,0 km/h (0 Bft)
06.07.2017 04:15 13,7 °C 13,7 °C 81 % 1016,2 hPa 0,0 mm 0,0 km/h (0 Bft) S 171 ° 0 min 0,000 mm 0,0 UV-I 0 W/m² 10,5 °C 13,7 °C 0,0 km/h (0 Bft)
06.07.2017 04:16 13,7 °C 13,7 °C 81 % 1016,2 hPa 0,0 mm 0,0 km/h (0 Bft) S 171 ° 0 min 0,000 mm 0,0 UV-I 0 W/m² 10,5 °C 13,7 °C 0,0 km/h (0 Bft)
06.07.2017 04:17 13,7 °C 13,7 °C 80 % 1016,3 hPa 0,0 mm 0,0 km/h (0 Bft) S 171 ° 0 min 0,000 mm 0,0 UV-I 0 W/m² 10,3 °C 13,7 °C 0,0 km/h (0 Bft)
06.07.2017 04:18 13,7 °C 13,7 °C 80 % 1016,2 hPa 0,0 mm 2,6 km/h (1 Bft) NO 44 ° 0 min 0,000 mm 0,0 UV-I 0 W/m² 10,3 °C 13,7 °C 4,8 km/h (1 Bft)
06.07.2017 04:19 13,7 °C 13,7 °C 80 % 1016,2 hPa 0,0 mm 0,8 km/h (0 Bft) NO 44 ° 0 min 0,000 mm 0,0 UV-I 0 W/m² 10,3 °C 13,7 °C 1,6 km/h (1 Bft)
06.07.2017 04:20 13,7 °C 13,7 °C 80 % 1016,2 hPa 0,0 mm 0,0 km/h (0 Bft) NO 44 ° 0 min 0,000 mm 0,0 UV-I 0 W/m² 10,3 °C 13,7 °C 0,0 km/h (0 Bft)
06.07.2017 04:21 13,7 °C 13,7 °C 80 % 1016,3 hPa 0,0 mm 0,0 km/h (0 Bft) NO 44 ° 0 min 0,000 mm 0,0 UV-I 0 W/m² 10,3 °C 13,7 °C 0,0 km/h (0 Bft)
06.07.2017 04:22 13,8 °C 13,8 °C 80 % 1016,3 hPa 0,0 mm 0,0 km/h (0 Bft) NO 44 ° 0 min 0,000 mm 0,0 UV-I 0 W/m² 10,4 °C 13,8 °C 0,0 km/h (0 Bft)
06.07.2017 04:23 13,8 °C 13,8 °C 80 % 1016,3 hPa 0,0 mm 0,0 km/h (0 Bft) NO 44 ° 0 min 0,000 mm 0,0 UV-I 0 W/m² 10,4 °C 13,8 °C 0,0 km/h (0 Bft)
06.07.2017 04:24 13,9 °C 13,9 °C 79 % 1016,3 hPa 0,0 mm 0,0 km/h (0 Bft) NO 44 ° 0 min 0,000 mm 0,0 UV-I 0 W/m² 10,3 °C 13,9 °C 0,0 km/h (0 Bft)
06.07.2017 04:25 13,9 °C 13,9 °C 79 % 1016,3 hPa 0,0 mm 0,0 km/h (0 Bft) NO 44 ° 0 min 0,000 mm 0,0 UV-I 0 W/m² 10,3 °C 13,9 °C 0,0 km/h (0 Bft)
06.07.2017 04:26 14,0 °C 14,0 °C 78 % 1016,3 hPa 0,0 mm 0,0 km/h (0 Bft) NO 44 ° 0 min 0,000 mm 0,0 UV-I 0 W/m² 10,2 °C 14,0 °C 0,0 km/h (0 Bft)
06.07.2017 04:27 14,0 °C 14,0 °C 78 % 1016,2 hPa 0,0 mm 0,2 km/h (0 Bft) NO 44 ° 0 min 0,000 mm 0,0 UV-I 0 W/m² 10,2 °C 14,0 °C 1,6 km/h (1 Bft)
06.07.2017 04:28 14,0 °C 14,0 °C 79 % 1016,2 hPa 0,0 mm 0,1 km/h (0 Bft) NO 44 ° 0 min 0,000 mm 0,0 UV-I 0 W/m² 10,4 °C 14,0 °C 1,6 km/h (1 Bft)
06.07.2017 04:29 14,0 °C 14,0 °C 79 % 1016,2 hPa 0,0 mm 0,0 km/h (0 Bft) NO 44 ° 0 min 0,000 mm 0,0 UV-I 0 W/m² 10,4 °C 14,0 °C 0,0 km/h (0 Bft)
06.07.2017 04:30 13,9 °C 14,0 °C 79 % 1016,2 hPa 0,0 mm 0,2 km/h (0 Bft) NO 44 ° 0 min 0,000 mm 0,0 UV-I 0 W/m² 10,3 °C 13,9 °C 1,6 km/h (1 Bft)
06.07.2017 04:31 13,9 °C 13,9 °C 79 % 1016,2 hPa 0,0 mm 0,0 km/h (0 Bft) NO 44 ° 0 min 0,000 mm 0,0 UV-I 0 W/m² 10,3 °C 13,9 °C 0,0 km/h (0 Bft)
06.07.2017 04:32 14,0 °C 14,0 °C 79 % 1016,2 hPa 0,0 mm 0,0 km/h (0 Bft) NO 44 ° 0 min 0,000 mm 0,0 UV-I 0 W/m² 10,4 °C 14,0 °C 0,0 km/h (0 Bft)
06.07.2017 04:33 14,0 °C 14,0 °C 78 % 1016,2 hPa 0,0 mm 0,0 km/h (0 Bft) NO 44 ° 0 min 0,000 mm 0,0 UV-I 0 W/m² 10,2 °C 14,0 °C 0,0 km/h (0 Bft)
06.07.2017 04:34 14,1 °C 14,1 °C 78 % 1016,1 hPa 0,0 mm 0,0 km/h (0 Bft) NO 44 ° 0 min 0,000 mm 0,0 UV-I 0 W/m² 10,3 °C 14,1 °C 0,0 km/h (0 Bft)
06.07.2017 04:35 14,2 °C 14,2 °C 78 % 1016,2 hPa 0,0 mm 0,0 km/h (0 Bft) NO 44 ° 0 min 0,000 mm 0,0 UV-I 0 W/m² 10,4 °C 14,2 °C 0,0 km/h (0 Bft)
06.07.2017 04:36 14,2 °C 14,2 °C 79 % 1016,2 hPa 0,0 mm 0,0 km/h (0 Bft) NO 44 ° 0 min 0,000 mm 0,0 UV-I 0 W/m² 10,6 °C 14,2 °C 0,0 km/h (0 Bft)
06.07.2017 04:37 14,2 °C 14,2 °C 78 % 1016,2 hPa 0,0 mm 0,0 km/h (0 Bft) NO 44 ° 0 min 0,000 mm 0,0 UV-I 0 W/m² 10,4 °C 14,2 °C 0,0 km/h (0 Bft)
06.07.2017 04:38 14,2 °C 14,2 °C 78 % 1016,2 hPa 0,0 mm 0,9 km/h (0 Bft) NO 44 ° 0 min 0,000 mm 0,0 UV-I 0 W/m² 10,4 °C 14,2 °C 3,2 km/h (1 Bft)
06.07.2017 04:39 14,2 °C 14,2 °C 78 % 1016,1 hPa 0,0 mm 0,0 km/h (0 Bft) NO 44 ° 0 min 0,000 mm 0,0 UV-I 0 W/m² 10,4 °C 14,2 °C 0,0 km/h (0 Bft)
06.07.2017 04:40 14,2 °C 14,2 °C 77 % 1016,2 hPa 0,0 mm 0,0 km/h (0 Bft) NO 44 ° 0 min 0,000 mm 0,0 UV-I 0 W/m² 10,2 °C 14,2 °C 0,0 km/h (0 Bft)
06.07.2017 04:41 14,4 °C 14,4 °C 76 % 1016,2 hPa 0,0 mm 0,0 km/h (0 Bft) NO 44 ° 0 min 0,000 mm 0,0 UV-I 0 W/m² 10,2 °C 14,4 °C 0,0 km/h (0 Bft)
06.07.2017 04:42 14,5 °C 14,5 °C 77 % 1016,2 hPa 0,0 mm 0,0 km/h (0 Bft) NO 44 ° 0 min 0,000 mm 0,0 UV-I 0 W/m² 10,5 °C 14,5 °C 0,0 km/h (0 Bft)
06.07.2017 04:43 14,6 °C 14,6 °C 75 % 1016,2 hPa 0,0 mm 0,4 km/h (0 Bft) O-NO 74 ° 0 min 0,000 mm 0,0 UV-I 0 W/m² 10,2 °C 14,6 °C 1,6 km/h (1 Bft)
06.07.2017 04:44 14,8 °C 14,8 °C 75 % 1016,3 hPa 0,0 mm 1,5 km/h (1 Bft) O-NO 74 ° 0 min 0,000 mm 0,0 UV-I 0 W/m² 10,4 °C 14,8 °C 3,2 km/h (1 Bft)
06.07.2017 04:45 14,9 °C 14,9 °C 74 % 1016,2 hPa 0,0 mm 0,9 km/h (0 Bft) O-NO 74 ° 0 min 0,000 mm 0,0 UV-I 0 W/m² 10,3 °C 14,9 °C 1,6 km/h (1 Bft)
06.07.2017 04:46 14,9 °C 14,9 °C 74 % 1016,2 hPa 0,0 mm 0,1 km/h (0 Bft) O-NO 74 ° 0 min 0,000 mm 0,0 UV-I 0 W/m² 10,3 °C 14,9 °C 1,6 km/h (1 Bft)
06.07.2017 04:47 15,0 °C 15,0 °C 74 % 1016,2 hPa 0,0 mm 0,0 km/h (0 Bft) O-NO 74 ° 0 min 0,000 mm 0,0 UV-I 0 W/m² 10,4 °C 15,0 °C 0,0 km/h (0 Bft)
06.07.2017 04:48 15,1 °C 15,1 °C 74 % 1016,3 hPa 0,0 mm 1,0 km/h (0 Bft) S-SW 204 ° 0 min 0,000 mm 0,0 UV-I 0 W/m² 10,5 °C 15,1 °C 3,2 km/h (1 Bft)
06.07.2017 04:49 15,1 °C 15,1 °C 73 % 1016,2 hPa 0,0 mm 0,0 km/h (0 Bft) S-SW 204 ° 0 min 0,000 mm 0,0 UV-I 0 W/m² 10,3 °C 15,1 °C 0,0 km/h (0 Bft)
06.07.2017 04:50 15,2 °C 15,2 °C 73 % 1016,2 hPa 0,0 mm 1,4 km/h (1 Bft) S-SW 197 ° 0 min 0,000 mm 0,0 UV-I 0 W/m² 10,4 °C 15,2 °C 6,4 km/h (2 Bft)
06.07.2017 04:51 15,2 °C 15,2 °C 73 % 1016,2 hPa 0,0 mm 1,9 km/h (1 Bft) S-SW 197 ° 0 min 0,000 mm 0,0 UV-I 0 W/m² 10,4 °C 15,2 °C 4,8 km/h (1 Bft)
06.07.2017 04:52 15,3 °C 15,3 °C 73 % 1016,2 hPa 0,0 mm 0,9 km/h (0 Bft) S-SW 197 ° 0 min 0,000 mm 0,0 UV-I 0 W/m² 10,5 °C 15,3 °C 3,2 km/h (1 Bft)
06.07.2017 04:53 15,3 °C 15,3 °C 72 % 1016,2 hPa 0,0 mm 0,5 km/h (0 Bft) S-SW 197 ° 0 min 0,000 mm 0,0 UV-I 0 W/m² 10,3 °C 15,3 °C 3,2 km/h (1 Bft)
06.07.2017 04:54 15,3 °C 15,3 °C 73 % 1016,2 hPa 0,0 mm 0,1 km/h (0 Bft) S-SW 197 ° 0 min 0,000 mm 0,0 UV-I 0 W/m² 10,5 °C 15,3 °C 1,6 km/h (1 Bft)
06.07.2017 04:55 15,2 °C 15,3 °C 73 % 1016,2 hPa 0,0 mm 0,7 km/h (0 Bft) S-SW 197 ° 0 min 0,000 mm 0,0 UV-I 0 W/m² 10,4 °C 15,2 °C 1,6 km/h (1 Bft)
06.07.2017 04:56 15,2 °C 15,3 °C 73 % 1016,2 hPa 0,0 mm 0,0 km/h (0 Bft) S-SW 197 ° 0 min 0,000 mm 0,0 UV-I 0 W/m² 10,4 °C 15,2 °C 0,0 km/h (0 Bft)
06.07.2017 04:57 15,2 °C 15,2 °C 73 % 1016,2 hPa 0,0 mm 0,0 km/h (0 Bft) S-SW 197 ° 0 min 0,000 mm 0,0 UV-I 0 W/m² 10,4 °C 15,2 °C 0,0 km/h (0 Bft)
06.07.2017 04:58 15,2 °C 15,2 °C 73 % 1016,2 hPa 0,0 mm 0,6 km/h (0 Bft) S-SW 197 ° 0 min 0,000 mm 0,0 UV-I 0 W/m² 10,4 °C 15,2 °C 3,2 km/h (1 Bft)
06.07.2017 04:59 15,2 °C 15,2 °C 73 % 1016,2 hPa 0,0 mm 0,1 km/h (0 Bft) S-SW 197 ° 0 min 0,000 mm 0,0 UV-I 0 W/m² 10,4 °C 15,2 °C 1,6 km/h (1 Bft)
06.07.2017 05:00 15,2 °C 15,2 °C 73 % 1016,3 hPa 0,0 mm 1,1 km/h (1 Bft) S-SW 197 ° 0 min 0,000 mm 0,0 UV-I 0 W/m² 10,4 °C 15,2 °C 3,2 km/h (1 Bft)
06.07.2017 05:01 15,2 °C 15,2 °C 73 % 1016,3 hPa 0,0 mm 0,1 km/h (0 Bft) S-SW 197 ° 0 min 0,025 mm 0,0 UV-I 0 W/m² 10,4 °C 15,2 °C 1,6 km/h (1 Bft)
06.07.2017 05:02 15,2 °C 15,2 °C 72 % 1016,3 hPa 0,0 mm 0,1 km/h (0 Bft) S-SW 196 ° 0 min 0,000 mm 0,0 UV-I 0 W/m² 10,2 °C 15,2 °C 1,6 km/h (1 Bft)
06.07.2017 05:03 15,3 °C 15,3 °C 72 % 1016,3 hPa 0,0 mm 0,5 km/h (0 Bft) S-SW 197 ° 0 min 0,000 mm 0,0 UV-I 0 W/m² 10,3 °C 15,3 °C 1,6 km/h (1 Bft)
06.07.2017 05:04 15,3 °C 15,3 °C 72 % 1016,3 hPa 0,0 mm 0,2 km/h (0 Bft) S-SW 197 ° 0 min 0,000 mm 0,0 UV-I 0 W/m² 10,3 °C 15,3 °C 1,6 km/h (1 Bft)
06.07.2017 05:05 15,3 °C 15,3 °C 72 % 1016,3 hPa 0,0 mm 0,2 km/h (0 Bft) S-SW 197 ° 0 min 0,000 mm 0,0 UV-I 0 W/m² 10,3 °C 15,3 °C 1,6 km/h (1 Bft)
06.07.2017 05:06 15,3 °C 15,3 °C 73 % 1016,2 hPa 0,0 mm 0,1 km/h (0 Bft) S-SW 197 ° 0 min 0,000 mm 0,0 UV-I 0 W/m² 10,5 °C 15,3 °C 1,6 km/h (1 Bft)
06.07.2017 05:07 15,3 °C 15,3 °C 72 % 1016,3 hPa 0,0 mm 0,8 km/h (0 Bft) S-SW 197 ° 0 min 0,000 mm 0,0 UV-I 0 W/m² 10,3 °C 15,3 °C 1,6 km/h (1 Bft)
06.07.2017 05:08 15,3 °C 15,3 °C 71 % 1016,3 hPa 0,0 mm 0,9 km/h (0 Bft) S-SW 194 ° 0 min 0,000 mm 0,0 UV-I 0 W/m² 10,1 °C 15,3 °C 3,2 km/h (1 Bft)
06.07.2017 05:09 15,4 °C 15,4 °C 71 % 1016,3 hPa 0,0 mm 2,7 km/h (1 Bft) S-SW 198 ° 0 min 0,000 mm 0,0 UV-I 0 W/m² 10,2 °C 15,4 °C 4,8 km/h (1 Bft)
06.07.2017 05:10 15,6 °C 15,6 °C 71 % 1016,3 hPa 0,0 mm 2,0 km/h (1 Bft) S-SW 198 ° 0 min 0,000 mm 0,0 UV-I 0 W/m² 10,4 °C 15,6 °C 4,8 km/h (1 Bft)
06.07.2017 05:11 15,6 °C 15,6 °C 70 % 1016,3 hPa 0,0 mm 0,5 km/h (0 Bft) S-SW 198 ° 0 min 0,000 mm 0,0 UV-I 0 W/m² 10,1 °C 15,6 °C 3,2 km/h (1 Bft)
06.07.2017 05:12 15,7 °C 15,7 °C 71 % 1016,4 hPa 0,0 mm 1,7 km/h (1 Bft) S-SW 201 ° 0 min 0,000 mm 0,0 UV-I 0 W/m² 10,5 °C 15,7 °C 4,8 km/h (1 Bft)
06.07.2017 05:13 15,6 °C 15,7 °C 72 % 1016,3 hPa 0,0 mm 0,2 km/h (0 Bft) S-SW 200 ° 0 min 0,000 mm 0,0 UV-I 0 W/m² 10,6 °C 15,6 °C 1,6 km/h (1 Bft)
06.07.2017 05:14 15,6 °C 15,6 °C 71 % 1016,4 hPa 0,0 mm 0,0 km/h (0 Bft) S-SW 201 ° 0 min 0,000 mm 0,0 UV-I 0 W/m² 10,4 °C 15,6 °C 0,0 km/h (0 Bft)
06.07.2017 05:15 15,6 °C 15,6 °C 71 % 1016,3 hPa 0,0 mm 1,1 km/h (1 Bft) S-SW 200 ° 0 min 0,000 mm 0,0 UV-I 0 W/m² 10,4 °C 15,6 °C 4,8 km/h (1 Bft)
06.07.2017 05:16 15,6 °C 15,6 °C 71 % 1016,3 hPa 0,0 mm 3,5 km/h (1 Bft) SO 126 ° 0 min 0,000 mm 0,0 UV-I 0 W/m² 10,4 °C 15,6 °C 6,4 km/h (2 Bft)
06.07.2017 05:17 15,6 °C 15,6 °C 72 % 1016,4 hPa 0,0 mm 2,0 km/h (1 Bft) SO 126 ° 0 min 0,000 mm 0,0 UV-I 0 W/m² 10,6 °C 15,6 °C 3,2 km/h (1 Bft)
06.07.2017 05:18 15,4 °C 15,6 °C 73 % 1016,4 hPa 0,0 mm 0,5 km/h (0 Bft) SO 126 ° 0 min 0,000 mm 0,0 UV-I 0 W/m² 10,6 °C 15,4 °C 1,6 km/h (1 Bft)
06.07.2017 05:19 15,3 °C 15,4 °C 73 % 1016,3 hPa 0,0 mm 0,0 km/h (0 Bft) SO 126 ° 0 min 0,000 mm 0,0 UV-I 0 W/m² 10,5 °C 15,3 °C 0,0 km/h (0 Bft)
06.07.2017 05:20 15,2 °C 15,3 °C 73 % 1016,4 hPa 0,0 mm 0,0 km/h (0 Bft) SO 126 ° 0 min 0,000 mm 0,0 UV-I 0 W/m² 10,4 °C 15,2 °C 0,0 km/h (0 Bft)
06.07.2017 05:21 15,1 °C 15,2 °C 73 % 1016,4 hPa 0,0 mm 0,0 km/h (0 Bft) SO 126 ° 0 min 0,000 mm 0,0 UV-I 0 W/m² 10,3 °C 15,1 °C 0,0 km/h (0 Bft)
06.07.2017 05:22 15,1 °C 15,1 °C 73 % 1016,4 hPa 0,0 mm 0,0 km/h (0 Bft) SO 126 ° 0 min 0,000 mm 0,0 UV-I 0 W/m² 10,3 °C 15,1 °C 0,0 km/h (0 Bft)
06.07.2017 05:23 15,0 °C 15,1 °C 73 % 1016,4 hPa 0,0 mm 0,0 km/h (0 Bft) SO 126 ° 0 min 0,000 mm 0,0 UV-I 0 W/m² 10,2 °C 15,0 °C 0,0 km/h (0 Bft)
06.07.2017 05:24 14,9 °C 15,0 °C 74 % 1016,4 hPa 0,0 mm 0,0 km/h (0 Bft) SO 126 ° 0 min 0,000 mm 0,0 UV-I 0 W/m² 10,3 °C 14,9 °C 0,0 km/h (0 Bft)
06.07.2017 05:25 14,8 °C 14,9 °C 75 % 1016,4 hPa 0,0 mm 0,0 km/h (0 Bft) SO 126 ° 0 min 0,000 mm 0,0 UV-I 0 W/m² 10,4 °C 14,8 °C 0,0 km/h (0 Bft)
06.07.2017 05:26 14,8 °C 14,8 °C 75 % 1016,4 hPa 0,0 mm 0,0 km/h (0 Bft) SO 126 ° 0 min 0,000 mm 0,0 UV-I 0 W/m² 10,4 °C 14,8 °C 0,0 km/h (0 Bft)
06.07.2017 05:27 14,7 °C 14,8 °C 75 % 1016,4 hPa 0,0 mm 0,0 km/h (0 Bft) SO 126 ° 0 min 0,000 mm 0,0 UV-I 5 W/m² 10,3 °C 14,7 °C 0,0 km/h (0 Bft)
06.07.2017 05:28 14,5 °C 14,7 °C 75 % 1016,4 hPa 0,0 mm 0,0 km/h (0 Bft) SO 126 ° 0 min 0,000 mm 0,0 UV-I 5 W/m² 10,1 °C 14,5 °C 0,0 km/h (0 Bft)
06.07.2017 05:29 14,4 °C 14,5 °C 75 % 1016,4 hPa 0,0 mm 0,0 km/h (0 Bft) SO 126 ° 0 min 0,000 mm 0,0 UV-I 5 W/m² 10,0 °C 14,4 °C 0,0 km/h (0 Bft)
06.07.2017 05:30 14,4 °C 14,4 °C 76 % 1016,5 hPa 0,0 mm 0,0 km/h (0 Bft) SO 126 ° 0 min 0,000 mm 0,0 UV-I 5 W/m² 10,2 °C 14,4 °C 0,0 km/h (0 Bft)
06.07.2017 05:31 14,4 °C 14,4 °C 76 % 1016,5 hPa 0,0 mm 0,0 km/h (0 Bft) SO 126 ° 0 min 0,000 mm 0,0 UV-I 5 W/m² 10,2 °C 14,4 °C 0,0 km/h (0 Bft)
06.07.2017 05:32 14,4 °C 14,4 °C 76 % 1016,4 hPa 0,0 mm 0,0 km/h (0 Bft) SO 126 ° 0 min 0,000 mm 0,0 UV-I 7 W/m² 10,2 °C 14,4 °C 0,0 km/h (0 Bft)
06.07.2017 05:33 14,4 °C 14,4 °C 76 % 1016,4 hPa 0,0 mm 0,0 km/h (0 Bft) SO 126 ° 0 min 0,000 mm 0,0 UV-I 7 W/m² 10,2 °C 14,4 °C 0,0 km/h (0 Bft)
06.07.2017 05:34 14,4 °C 14,4 °C 76 % 1016,4 hPa 0,0 mm 0,0 km/h (0 Bft) SO 126 ° 0 min 0,000 mm 0,0 UV-I 7 W/m² 10,2 °C 14,4 °C 0,0 km/h (0 Bft)
06.07.2017 05:35 14,4 °C 14,4 °C 76 % 1016,4 hPa 0,0 mm 0,0 km/h (0 Bft) SO 126 ° 0 min 0,000 mm 0,0 UV-I 7 W/m² 10,2 °C 14,4 °C 0,0 km/h (0 Bft)
06.07.2017 05:36 14,4 °C 14,4 °C 77 % 1016,5 hPa 0,0 mm 0,0 km/h (0 Bft) SO 126 ° 0 min 0,000 mm 0,0 UV-I 9 W/m² 10,4 °C 14,4 °C 0,0 km/h (0 Bft)
06.07.2017 05:37 14,3 °C 14,4 °C 77 % 1016,5 hPa 0,0 mm 0,0 km/h (0 Bft) SO 126 ° 0 min 0,000 mm 0,0 UV-I 9 W/m² 10,3 °C 14,3 °C 0,0 km/h (0 Bft)
06.07.2017 05:38 14,3 °C 14,3 °C 76 % 1016,5 hPa 0,0 mm 0,0 km/h (0 Bft) SO 126 ° 0 min 0,000 mm 0,0 UV-I 9 W/m² 10,1 °C 14,3 °C 0,0 km/h (0 Bft)
06.07.2017 05:39 14,2 °C 14,3 °C 77 % 1016,5 hPa 0,0 mm 0,0 km/h (0 Bft) SO 126 ° 0 min 0,000 mm 0,0 UV-I 11 W/m² 10,2 °C 14,2 °C 0,0 km/h (0 Bft)
06.07.2017 05:40 14,2 °C 14,2 °C 77 % 1016,5 hPa 0,0 mm 0,6 km/h (0 Bft) SO 126 ° 0 min 0,000 mm 0,0 UV-I 11 W/m² 10,2 °C 14,2 °C 1,6 km/h (1 Bft)
06.07.2017 05:41 14,1 °C 14,2 °C 77 % 1016,5 hPa 0,0 mm 1,4 km/h (1 Bft) SO 126 ° 0 min 0,000 mm 0,0 UV-I 11 W/m² 10,1 °C 14,1 °C 3,2 km/h (1 Bft)
06.07.2017 05:42 14,1 °C 14,1 °C 77 % 1016,5 hPa 0,0 mm 0,0 km/h (0 Bft) SO 126 ° 0 min 0,000 mm 0,0 UV-I 11 W/m² 10,1 °C 14,1 °C 0,0 km/h (0 Bft)
06.07.2017 05:43 14,1 °C 14,1 °C 77 % 1016,5 hPa 0,0 mm 0,0 km/h (0 Bft) SO 126 ° 0 min 0,000 mm 0,0 UV-I 11 W/m² 10,1 °C 14,1 °C 0,0 km/h (0 Bft)
06.07.2017 05:44 14,1 °C 14,1 °C 77 % 1016,5 hPa 0,0 mm 0,0 km/h (0 Bft) SO 126 ° 0 min 0,000 mm 0,0 UV-I 12 W/m² 10,1 °C 14,1 °C 0,0 km/h (0 Bft)
06.07.2017 05:45 14,1 °C 14,1 °C 77 % 1016,5 hPa 0,0 mm 0,0 km/h (0 Bft) SO 126 ° 0 min 0,000 mm 0,0 UV-I 12 W/m² 10,1 °C 14,1 °C 0,0 km/h (0 Bft)
06.07.2017 05:46 14,0 °C 14,1 °C 78 % 1016,5 hPa 0,0 mm 0,0 km/h (0 Bft) SO 126 ° 0 min 0,000 mm 0,0 UV-I 12 W/m² 10,2 °C 14,0 °C 0,0 km/h (0 Bft)
06.07.2017 05:47 14,0 °C 14,0 °C 78 % 1016,5 hPa 0,0 mm 0,0 km/h (0 Bft) SO 126 ° 0 min 0,000 mm 0,0 UV-I 12 W/m² 10,2 °C 14,0 °C 0,0 km/h (0 Bft)
06.07.2017 05:48 14,1 °C 14,1 °C 78 % 1016,5 hPa 0,0 mm 0,0 km/h (0 Bft) SO 126 ° 0 min 0,000 mm 0,0 UV-I 14 W/m² 10,3 °C 14,1 °C 0,0 km/h (0 Bft)
06.07.2017 05:49 14,0 °C 14,1 °C 78 % 1016,5 hPa 0,0 mm 0,0 km/h (0 Bft) SO 126 ° 0 min 0,000 mm 0,0 UV-I 14 W/m² 10,2 °C 14,0 °C 0,0 km/h (0 Bft)
06.07.2017 05:50 13,9 °C 14,0 °C 78 % 1016,5 hPa 0,0 mm 0,0 km/h (0 Bft) SO 126 ° 0 min 0,000 mm 0,0 UV-I 14 W/m² 10,1 °C 13,9 °C 0,0 km/h (0 Bft)
06.07.2017 05:51 13,9 °C 13,9 °C 78 % 1016,5 hPa 0,0 mm 0,0 km/h (0 Bft) SO 126 ° 0 min 0,000 mm 0,0 UV-I 14 W/m² 10,1 °C 13,9 °C 0,0 km/h (0 Bft)
06.07.2017 05:52 13,9 °C 13,9 °C 78 % 1016,5 hPa 0,0 mm 0,0 km/h (0 Bft) SO 126 ° 0 min 0,000 mm 0,0 UV-I 16 W/m² 10,1 °C 13,9 °C 0,0 km/h (0 Bft)
06.07.2017 05:53 13,8 °C 13,9 °C 79 % 1016,5 hPa 0,0 mm 0,0 km/h (0 Bft) SO 126 ° 0 min 0,000 mm 0,0 UV-I 16 W/m² 10,2 °C 13,8 °C 0,0 km/h (0 Bft)
06.07.2017 05:54 13,8 °C 13,8 °C 79 % 1016,5 hPa 0,0 mm 0,0 km/h (0 Bft) SO 126 ° 0 min 0,000 mm 0,0 UV-I 16 W/m² 10,2 °C 13,8 °C 0,0 km/h (0 Bft)
06.07.2017 05:55 13,8 °C 13,8 °C 79 % 1016,5 hPa 0,0 mm 0,0 km/h (0 Bft) SO 126 ° 0 min 0,000 mm 0,0 UV-I 16 W/m² 10,2 °C 13,8 °C 0,0 km/h (0 Bft)
06.07.2017 05:56 13,8 °C 13,8 °C 79 % 1016,5 hPa 0,0 mm 0,0 km/h (0 Bft) SO 126 ° 0 min 0,000 mm 0,0 UV-I 18 W/m² 10,2 °C 13,8 °C 0,0 km/h (0 Bft)
06.07.2017 05:57 13,8 °C 13,8 °C 79 % 1016,5 hPa 0,0 mm 0,0 km/h (0 Bft) SO 126 ° 0 min 0,000 mm 0,0 UV-I 18 W/m² 10,2 °C 13,8 °C 0,0 km/h (0 Bft)
06.07.2017 05:58 13,8 °C 13,8 °C 79 % 1016,5 hPa 0,0 mm 0,0 km/h (0 Bft) SO 126 ° 0 min 0,000 mm 0,0 UV-I 18 W/m² 10,2 °C 13,8 °C 0,0 km/h (0 Bft)
06.07.2017 05:59 13,8 °C 13,8 °C 78 % 1016,5 hPa 0,0 mm 1,0 km/h (0 Bft) SO 126 ° 0 min 0,000 mm 0,0 UV-I 19 W/m² 10,0 °C 13,8 °C 3,2 km/h (1 Bft)
06.07.2017 06:00 13,8 °C 13,9 °C 78 % 1016,5 hPa 0,0 mm 0,2 km/h (0 Bft) SO 126 ° 0 min 0,000 mm 0,0 UV-I 19 W/m² 10,0 °C 13,8 °C 1,6 km/h (1 Bft)
06.07.2017 06:01 13,8 °C 13,8 °C 79 % 1016,5 hPa 0,0 mm 0,8 km/h (0 Bft) SO 126 ° 0 min 0,000 mm 0,0 UV-I 19 W/m² 10,2 °C 13,8 °C 1,6 km/h (1 Bft)
06.07.2017 06:02 13,8 °C 13,9 °C 79 % 1016,5 hPa 0,0 mm 0,0 km/h (0 Bft) SO 126 ° 0 min 0,000 mm 0,0 UV-I 21 W/m² 10,2 °C 13,8 °C 0,0 km/h (0 Bft)
06.07.2017 06:03 13,8 °C 13,8 °C 79 % 1016,5 hPa 0,0 mm 0,0 km/h (0 Bft) SO 126 ° 0 min 0,000 mm 0,0 UV-I 21 W/m² 10,2 °C 13,8 °C 0,0 km/h (0 Bft)
06.07.2017 06:04 13,8 °C 13,8 °C 79 % 1016,6 hPa 0,0 mm 0,0 km/h (0 Bft) SO 126 ° 0 min 0,000 mm 0,0 UV-I 21 W/m² 10,2 °C 13,8 °C 0,0 km/h (0 Bft)
06.07.2017 06:05 13,8 °C 13,8 °C 79 % 1016,6 hPa 0,0 mm 0,0 km/h (0 Bft) SO 126 ° 0 min 0,000 mm 0,0 UV-I 25 W/m² 10,2 °C 13,8 °C 0,0 km/h (0 Bft)
06.07.2017 06:06 13,8 °C 13,8 °C 79 % 1016,6 hPa 0,0 mm 0,0 km/h (0 Bft) SO 126 ° 0 min 0,000 mm 0,0 UV-I 26 W/m² 10,2 °C 13,8 °C 0,0 km/h (0 Bft)
06.07.2017 06:07 13,9 °C 13,9 °C 79 % 1016,6 hPa 0,0 mm 0,0 km/h (0 Bft) SO 126 ° 0 min 0,000 mm 0,0 UV-I 28 W/m² 10,3 °C 13,9 °C 0,0 km/h (0 Bft)
06.07.2017 06:08 13,9 °C 13,9 °C 79 % 1016,6 hPa 0,0 mm 0,0 km/h (0 Bft) SO 126 ° 0 min 0,000 mm 0,0 UV-I 32 W/m² 10,3 °C 13,9 °C 0,0 km/h (0 Bft)
06.07.2017 06:09 13,9 °C 13,9 °C 79 % 1016,6 hPa 0,0 mm 0,0 km/h (0 Bft) SO 126 ° 0 min 0,000 mm 0,0 UV-I 33 W/m² 10,3 °C 13,9 °C 0,0 km/h (0 Bft)
06.07.2017 06:10 14,0 °C 14,0 °C 79 % 1016,6 hPa 0,0 mm 0,0 km/h (0 Bft) SO 126 ° 0 min 0,000 mm 0,0 UV-I 33 W/m² 10,4 °C 14,0 °C 0,0 km/h (0 Bft)
06.07.2017 06:11 14,0 °C 14,1 °C 79 % 1016,6 hPa 0,0 mm 0,0 km/h (0 Bft) SO 126 ° 0 min 0,000 mm 0,0 UV-I 33 W/m² 10,4 °C 14,0 °C 0,0 km/h (0 Bft)
06.07.2017 06:12 14,1 °C 14,1 °C 78 % 1016,6 hPa 0,0 mm 0,0 km/h (0 Bft) SO 126 ° 0 min 0,000 mm 0,0 UV-I 37 W/m² 10,3 °C 14,1 °C 0,0 km/h (0 Bft)
06.07.2017 06:13 14,1 °C 14,1 °C 78 % 1016,6 hPa 0,0 mm 0,0 km/h (0 Bft) SO 126 ° 0 min 0,000 mm 0,0 UV-I 37 W/m² 10,3 °C 14,1 °C 0,0 km/h (0 Bft)
06.07.2017 06:14 14,2 °C 14,2 °C 78 % 1016,6 hPa 0,0 mm 0,0 km/h (0 Bft) SO 126 ° 0 min 0,000 mm 0,0 UV-I 39 W/m² 10,4 °C 14,2 °C 0,0 km/h (0 Bft)
06.07.2017 06:15 14,3 °C 14,3 °C 78 % 1016,6 hPa 0,0 mm 0,0 km/h (0 Bft) SO 126 ° 0 min 0,000 mm 0,0 UV-I 40 W/m² 10,5 °C 14,3 °C 0,0 km/h (0 Bft)
06.07.2017 06:16 14,3 °C 14,3 °C 79 % 1016,6 hPa 0,0 mm 0,0 km/h (0 Bft) SO 126 ° 0 min 0,000 mm 0,0 UV-I 40 W/m² 10,7 °C 14,3 °C 0,0 km/h (0 Bft)
06.07.2017 06:17 14,3 °C 14,3 °C 79 % 1016,6 hPa 0,0 mm 0,0 km/h (0 Bft) SO 126 ° 0 min 0,000 mm 0,0 UV-I 42 W/m² 10,7 °C 14,3 °C 0,0 km/h (0 Bft)
06.07.2017 06:18 14,3 °C 14,3 °C 79 % 1016,6 hPa 0,0 mm 0,0 km/h (0 Bft) SO 126 ° 0 min 0,000 mm 0,0 UV-I 44 W/m² 10,7 °C 14,3 °C 0,0 km/h (0 Bft)
06.07.2017 06:19 14,4 °C 14,4 °C 78 % 1016,6 hPa 0,0 mm 0,0 km/h (0 Bft) SO 126 ° 0 min 0,000 mm 0,0 UV-I 44 W/m² 10,6 °C 14,4 °C 0,0 km/h (0 Bft)
06.07.2017 06:20 14,4 °C 14,4 °C 78 % 1016,6 hPa 0,0 mm 0,0 km/h (0 Bft) SO 126 ° 0 min 0,000 mm 0,0 UV-I 47 W/m² 10,6 °C 14,4 °C 0,0 km/h (0 Bft)
06.07.2017 06:21 14,4 °C 14,4 °C 78 % 1016,6 hPa 0,0 mm 0,0 km/h (0 Bft) SO 126 ° 0 min 0,000 mm 0,0 UV-I 47 W/m² 10,6 °C 14,4 °C 0,0 km/h (0 Bft)
06.07.2017 06:22 14,5 °C 14,5 °C 80 % 1016,6 hPa 0,0 mm 0,0 km/h (0 Bft) SO 126 ° 0 min 0,000 mm 0,0 UV-I 49 W/m² 11,1 °C 14,5 °C 0,0 km/h (0 Bft)
06.07.2017 06:23 14,6 °C 14,6 °C 79 % 1016,6 hPa 0,0 mm 0,4 km/h (0 Bft) SO 126 ° 0 min 0,000 mm 0,0 UV-I 51 W/m² 11,0 °C 14,6 °C 1,6 km/h (1 Bft)
06.07.2017 06:24 14,6 °C 14,6 °C 78 % 1016,6 hPa 0,0 mm 0,1 km/h (0 Bft) SO 126 ° 0 min 0,000 mm 0,0 UV-I 53 W/m² 10,8 °C 14,6 °C 1,6 km/h (1 Bft)
06.07.2017 06:25 14,7 °C 14,7 °C 78 % 1016,6 hPa 0,0 mm 0,3 km/h (0 Bft) SO 126 ° 0 min 0,000 mm 0,0 UV-I 54 W/m² 10,9 °C 14,7 °C 1,6 km/h (1 Bft)
06.07.2017 06:26 14,7 °C 14,7 °C 79 % 1016,6 hPa 0,0 mm 0,0 km/h (0 Bft) SO 126 ° 0 min 0,000 mm 0,0 UV-I 58 W/m² 11,1 °C 14,7 °C 0,0 km/h (0 Bft)
06.07.2017 06:27 14,8 °C 14,8 °C 78 % 1016,6 hPa 0,0 mm 0,0 km/h (0 Bft) SO 126 ° 0 min 0,000 mm 0,0 UV-I 60 W/m² 11,0 °C 14,8 °C 0,0 km/h (0 Bft)
06.07.2017 06:28 14,9 °C 14,9 °C 78 % 1016,6 hPa 0,0 mm 0,0 km/h (0 Bft) SO 126 ° 0 min 0,000 mm 0,0 UV-I 62 W/m² 11,1 °C 14,9 °C 0,0 km/h (0 Bft)
06.07.2017 06:29 15,1 °C 15,1 °C 77 % 1016,6 hPa 0,0 mm 0,3 km/h (0 Bft) SO 126 ° 0 min 0,000 mm 0,0 UV-I 63 W/m² 11,1 °C 15,1 °C 1,6 km/h (1 Bft)
06.07.2017 06:30 15,1 °C 15,1 °C 77 % 1016,6 hPa 0,0 mm 0,7 km/h (0 Bft) SO 126 ° 0 min 0,000 mm 0,0 UV-I 65 W/m² 11,1 °C 15,1 °C 3,2 km/h (1 Bft)
06.07.2017 06:31 15,2 °C 15,2 °C 77 % 1016,6 hPa 0,0 mm 1,1 km/h (1 Bft) SO 131 ° 0 min 0,000 mm 0,0 UV-I 70 W/m² 11,2 °C 15,2 °C 3,2 km/h (1 Bft)
06.07.2017 06:32 15,3 °C 15,3 °C 76 % 1016,6 hPa 0,0 mm 0,1 km/h (0 Bft) SO 131 ° 0 min 0,000 mm 0,0 UV-I 72 W/m² 11,1 °C 15,3 °C 1,6 km/h (1 Bft)
06.07.2017 06:33 15,4 °C 15,4 °C 76 % 1016,6 hPa 0,0 mm 0,1 km/h (0 Bft) SO 131 ° 0 min 0,000 mm 0,0 UV-I 74 W/m² 11,2 °C 15,4 °C 1,6 km/h (1 Bft)
06.07.2017 06:34 15,4 °C 15,5 °C 77 % 1016,6 hPa 0,0 mm 0,1 km/h (0 Bft) SO 131 ° 0 min 0,000 mm 0,0 UV-I 76 W/m² 11,4 °C 15,4 °C 1,6 km/h (1 Bft)
06.07.2017 06:35 15,5 °C 15,5 °C 75 % 1016,6 hPa 0,0 mm 0,0 km/h (0 Bft) SO 131 ° 0 min 0,000 mm 0,0 UV-I 77 W/m² 11,1 °C 15,5 °C 0,0 km/h (0 Bft)
06.07.2017 06:36 15,6 °C 15,6 °C 75 % 1016,6 hPa 0,0 mm 0,0 km/h (0 Bft) SO 131 ° 0 min 0,000 mm 0,0 UV-I 79 W/m² 11,2 °C 15,6 °C 0,0 km/h (0 Bft)
06.07.2017 06:37 15,7 °C 15,7 °C 76 % 1016,6 hPa 0,0 mm 0,0 km/h (0 Bft) SO 131 ° 0 min 0,000 mm 0,0 UV-I 83 W/m² 11,5 °C 15,7 °C 0,0 km/h (0 Bft)
06.07.2017 06:38 15,7 °C 15,7 °C 76 % 1016,5 hPa 0,0 mm 0,0 km/h (0 Bft) SO 131 ° 0 min 0,000 mm 0,0 UV-I 84 W/m² 11,5 °C 15,7 °C 0,0 km/h (0 Bft)
06.07.2017 06:39 15,8 °C 15,8 °C 74 % 1016,6 hPa 0,0 mm 0,1 km/h (0 Bft) SO 131 ° 0 min 0,000 mm 0,0 UV-I 88 W/m² 11,2 °C 15,8 °C 1,6 km/h (1 Bft)
06.07.2017 06:40 16,0 °C 16,0 °C 74 % 1016,6 hPa 0,0 mm 0,0 km/h (0 Bft) SO 131 ° 0 min 0,000 mm 0,0 UV-I 90 W/m² 11,4 °C 16,0 °C 0,0 km/h (0 Bft)
06.07.2017 06:41 16,1 °C 16,1 °C 74 % 1016,5 hPa 0,0 mm 0,0 km/h (0 Bft) SO 131 ° 0 min 0,000 mm 0,0 UV-I 91 W/m² 11,5 °C 16,1 °C 0,0 km/h (0 Bft)
06.07.2017 06:42 16,1 °C 16,1 °C 74 % 1016,5 hPa 0,0 mm 0,0 km/h (0 Bft) SO 131 ° 0 min 0,000 mm 0,5 UV-I 93 W/m² 11,5 °C 16,1 °C 0,0 km/h (0 Bft)
06.07.2017 06:43 16,2 °C 16,2 °C 73 % 1016,6 hPa 0,0 mm 0,0 km/h (0 Bft) SO 131 ° 0 min 0,000 mm 0,5 UV-I 98 W/m² 11,4 °C 16,2 °C 0,0 km/h (0 Bft)
06.07.2017 06:44 16,3 °C 16,3 °C 74 % 1016,6 hPa 0,0 mm 0,0 km/h (0 Bft) SO 131 ° 0 min 0,000 mm 0,5 UV-I 100 W/m² 11,7 °C 16,3 °C 0,0 km/h (0 Bft)
06.07.2017 06:45 16,3 °C 16,3 °C 73 % 1016,6 hPa 0,0 mm 0,0 km/h (0 Bft) SO 131 ° 0 min 0,000 mm 0,5 UV-I 102 W/m² 11,4 °C 16,3 °C 0,0 km/h (0 Bft)
06.07.2017 06:46 16,3 °C 16,3 °C 73 % 1016,6 hPa 0,0 mm 0,0 km/h (0 Bft) SO 131 ° 0 min 0,000 mm 0,5 UV-I 104 W/m² 11,4 °C 16,3 °C 0,0 km/h (0 Bft)
06.07.2017 06:47 16,3 °C 16,3 °C 74 % 1016,6 hPa 0,0 mm 0,0 km/h (0 Bft) SO 131 ° 0 min 0,000 mm 0,5 UV-I 107 W/m² 11,7 °C 16,3 °C 0,0 km/h (0 Bft)
06.07.2017 06:48 16,3 °C 16,3 °C 75 % 1016,5 hPa 0,0 mm 0,0 km/h (0 Bft) SO 131 ° 0 min 0,000 mm 0,5 UV-I 109 W/m² 11,9 °C 16,3 °C 0,0 km/h (0 Bft)
06.07.2017 06:49 16,3 °C 16,3 °C 74 % 1016,6 hPa 0,0 mm 0,0 km/h (0 Bft) SO 131 ° 0 min 0,000 mm 0,5 UV-I 114 W/m² 11,7 °C 16,3 °C 0,0 km/h (0 Bft)
06.07.2017 06:50 16,4 °C 16,4 °C 74 % 1016,6 hPa 0,0 mm 0,0 km/h (0 Bft) SO 131 ° 0 min 0,000 mm 0,5 UV-I 116 W/m² 11,8 °C 16,4 °C 0,0 km/h (0 Bft)
06.07.2017 06:51 16,5 °C 16,5 °C 75 % 1016,6 hPa 0,0 mm 0,4 km/h (0 Bft) SO 132 ° 0 min 0,000 mm 0,6 UV-I 120 W/m² 12,1 °C 16,5 °C 1,6 km/h (1 Bft)
06.07.2017 06:52 16,6 °C 16,6 °C 73 % 1016,5 hPa 0,0 mm 1,4 km/h (1 Bft) SO 139 ° 0 min 0,000 mm 0,6 UV-I 121 W/m² 11,7 °C 16,6 °C 3,2 km/h (1 Bft)
06.07.2017 06:53 16,7 °C 16,7 °C 74 % 1016,6 hPa 0,0 mm 0,3 km/h (0 Bft) SO 139 ° 0 min 0,000 mm 0,6 UV-I 123 W/m² 12,0 °C 16,7 °C 1,6 km/h (1 Bft)
06.07.2017 06:54 16,8 °C 16,8 °C 76 % 1016,6 hPa 0,0 mm 0,0 km/h (0 Bft) SO 139 ° 0 min 0,000 mm 0,6 UV-I 127 W/m² 12,5 °C 16,8 °C 0,0 km/h (0 Bft)
06.07.2017 06:55 16,8 °C 16,8 °C 75 % 1016,6 hPa 0,0 mm 0,2 km/h (0 Bft) SO 139 ° 0 min 0,000 mm 0,6 UV-I 132 W/m² 12,3 °C 16,8 °C 1,6 km/h (1 Bft)
06.07.2017 06:56 16,9 °C 16,9 °C 73 % 1016,6 hPa 0,0 mm 0,6 km/h (0 Bft) SO 139 ° 0 min 0,000 mm 0,6 UV-I 134 W/m² 12,0 °C 16,9 °C 1,6 km/h (1 Bft)
06.07.2017 06:57 16,9 °C 16,9 °C 74 % 1016,6 hPa 0,0 mm 0,0 km/h (0 Bft) SO 139 ° 0 min 0,000 mm 0,6 UV-I 135 W/m² 12,2 °C 16,9 °C 0,0 km/h (0 Bft)
06.07.2017 06:58 17,0 °C 17,0 °C 70 % 1016,6 hPa 0,0 mm 0,0 km/h (0 Bft) SO 139 ° 0 min 0,000 mm 0,6 UV-I 139 W/m² 11,5 °C 17,0 °C 0,0 km/h (0 Bft)
06.07.2017 06:59 17,0 °C 17,0 °C 72 % 1016,6 hPa 0,0 mm 0,0 km/h (0 Bft) SO 139 ° 0 min 0,000 mm 0,6 UV-I 141 W/m² 11,9 °C 17,0 °C 0,0 km/h (0 Bft)
06.07.2017 07:00 17,0 °C 17,0 °C 74 % 1016,6 hPa 0,0 mm 0,0 km/h (0 Bft) SO 139 ° 0 min 0,000 mm 0,7 UV-I 142 W/m² 12,3 °C 17,0 °C 0,0 km/h (0 Bft)
06.07.2017 07:01 16,9 °C 17,0 °C 75 % 1016,6 hPa 0,0 mm 0,0 km/h (0 Bft) SO 139 ° 0 min 0,051 mm 0,7 UV-I 146 W/m² 12,4 °C 16,9 °C 0,0 km/h (0 Bft)
06.07.2017 07:02 17,0 °C 17,0 °C 75 % 1016,6 hPa 0,0 mm 0,0 km/h (0 Bft) SO 139 ° 0 min 0,000 mm 0,7 UV-I 146 W/m² 12,5 °C 17,0 °C 0,0 km/h (0 Bft)
06.07.2017 07:03 16,9 °C 17,0 °C 74 % 1016,6 hPa 0,0 mm 0,0 km/h (0 Bft) SO 139 ° 0 min 0,000 mm 0,7 UV-I 146 W/m² 12,2 °C 16,9 °C 0,0 km/h (0 Bft)
06.07.2017 07:04 17,0 °C 17,0 °C 76 % 1016,6 hPa 0,0 mm 0,0 km/h (0 Bft) SO 139 ° 0 min 0,000 mm 0,7 UV-I 148 W/m² 12,7 °C 17,0 °C 0,0 km/h (0 Bft)
06.07.2017 07:05 17,1 °C 17,1 °C 75 % 1016,5 hPa 0,0 mm 0,0 km/h (0 Bft) SO 139 ° 0 min 0,000 mm 0,7 UV-I 148 W/m² 12,6 °C 17,1 °C 0,0 km/h (0 Bft)
06.07.2017 07:06 17,1 °C 17,1 °C 74 % 1016,5 hPa 0,0 mm 0,4 km/h (0 Bft) SO 139 ° 0 min 0,000 mm 0,7 UV-I 146 W/m² 12,4 °C 17,1 °C 1,6 km/h (1 Bft)
06.07.2017 07:07 17,2 °C 17,2 °C 72 % 1016,5 hPa 0,0 mm 0,0 km/h (0 Bft) SO 139 ° 0 min 0,000 mm 0,7 UV-I 149 W/m² 12,1 °C 17,2 °C 0,0 km/h (0 Bft)
06.07.2017 07:08 17,2 °C 17,2 °C 73 % 1016,5 hPa 0,0 mm 0,0 km/h (0 Bft) SO 139 ° 0 min 0,000 mm 0,8 UV-I 149 W/m² 12,3 °C 17,2 °C 0,0 km/h (0 Bft)
06.07.2017 07:09 17,2 °C 17,2 °C 74 % 1016,5 hPa 0,0 mm 0,0 km/h (0 Bft) SO 139 ° 0 min 0,000 mm 0,8 UV-I 149 W/m² 12,5 °C 17,2 °C 0,0 km/h (0 Bft)
06.07.2017 07:10 17,2 °C 17,2 °C 73 % 1016,5 hPa 0,0 mm 0,3 km/h (0 Bft) SO 126 ° 0 min 0,000 mm 0,8 UV-I 149 W/m² 12,3 °C 17,2 °C 1,6 km/h (1 Bft)
06.07.2017 07:11 17,1 °C 17,2 °C 75 % 1016,6 hPa 0,0 mm 1,0 km/h (0 Bft) O-SO 119 ° 0 min 0,000 mm 0,8 UV-I 149 W/m² 12,6 °C 17,1 °C 3,2 km/h (1 Bft)
06.07.2017 07:12 17,2 °C 17,2 °C 74 % 1016,6 hPa 0,0 mm 1,3 km/h (1 Bft) O-SO 119 ° 0 min 0,000 mm 0,8 UV-I 148 W/m² 12,5 °C 17,2 °C 3,2 km/h (1 Bft)
06.07.2017 07:13 17,3 °C 17,3 °C 74 % 1016,6 hPa 0,0 mm 0,3 km/h (0 Bft) O-SO 119 ° 0 min 0,000 mm 0,8 UV-I 149 W/m² 12,6 °C 17,3 °C 1,6 km/h (1 Bft)
06.07.2017 07:14 17,3 °C 17,3 °C 73 % 1016,6 hPa 0,0 mm 0,0 km/h (0 Bft) O-SO 119 ° 0 min 0,000 mm 0,8 UV-I 151 W/m² 12,4 °C 17,3 °C 0,0 km/h (0 Bft)
06.07.2017 07:15 17,4 °C 17,4 °C 73 % 1016,6 hPa 0,0 mm 0,0 km/h (0 Bft) O-SO 119 ° 0 min 0,000 mm 0,9 UV-I 153 W/m² 12,5 °C 17,4 °C 0,0 km/h (0 Bft)
06.07.2017 07:16 17,6 °C 17,6 °C 73 % 1016,6 hPa 0,0 mm 0,5 km/h (0 Bft) O-SO 119 ° 0 min 0,000 mm 0,9 UV-I 155 W/m² 12,7 °C 17,6 °C 3,2 km/h (1 Bft)
06.07.2017 07:17 17,7 °C 17,7 °C 73 % 1016,6 hPa 0,0 mm 1,7 km/h (1 Bft) O-SO 119 ° 0 min 0,000 mm 0,9 UV-I 156 W/m² 12,8 °C 17,7 °C 3,2 km/h (1 Bft)
06.07.2017 07:18 17,7 °C 17,7 °C 72 % 1016,6 hPa 0,0 mm 1,5 km/h (1 Bft) O-SO 112 ° 0 min 0,000 mm 0,9 UV-I 162 W/m² 12,6 °C 17,7 °C 3,2 km/h (1 Bft)
06.07.2017 07:19 17,7 °C 17,7 °C 74 % 1016,6 hPa 0,0 mm 0,5 km/h (0 Bft) O-SO 112 ° 0 min 0,000 mm 0,9 UV-I 167 W/m² 13,0 °C 17,7 °C 1,6 km/h (1 Bft)
06.07.2017 07:20 17,8 °C 17,8 °C 73 % 1016,6 hPa 0,0 mm 0,7 km/h (0 Bft) O-SO 112 ° 0 min 0,000 mm 0,9 UV-I 171 W/m² 12,9 °C 17,8 °C 3,2 km/h (1 Bft)
06.07.2017 07:21 17,8 °C 17,8 °C 72 % 1016,6 hPa 0,0 mm 1,1 km/h (1 Bft) O-SO 112 ° 0 min 0,000 mm 0,9 UV-I 174 W/m² 12,7 °C 17,8 °C 3,2 km/h (1 Bft)
06.07.2017 07:22 17,9 °C 17,9 °C 73 % 1016,6 hPa 0,0 mm 0,0 km/h (0 Bft) O-SO 112 ° 0 min 0,000 mm 1,0 UV-I 179 W/m² 13,0 °C 17,9 °C 0,0 km/h (0 Bft)
06.07.2017 07:23 17,9 °C 17,9 °C 72 % 1016,6 hPa 0,0 mm 0,0 km/h (0 Bft) O-SO 112 ° 0 min 0,000 mm 1,0 UV-I 185 W/m² 12,8 °C 17,9 °C 0,0 km/h (0 Bft)
06.07.2017 07:24 17,8 °C 17,9 °C 73 % 1016,6 hPa 0,0 mm 0,0 km/h (0 Bft) O-SO 112 ° 0 min 0,000 mm 1,0 UV-I 195 W/m² 12,9 °C 17,8 °C 0,0 km/h (0 Bft)
06.07.2017 07:25 17,8 °C 17,8 °C 73 % 1016,6 hPa 0,0 mm 0,0 km/h (0 Bft) O-SO 112 ° 0 min 0,000 mm 1,0 UV-I 199 W/m² 12,9 °C 17,8 °C 0,0 km/h (0 Bft)
06.07.2017 07:26 17,8 °C 17,8 °C 73 % 1016,6 hPa 0,0 mm 0,0 km/h (0 Bft) O-SO 112 ° 0 min 0,000 mm 1,0 UV-I 204 W/m² 12,9 °C 17,8 °C 0,0 km/h (0 Bft)
06.07.2017 07:27 17,8 °C 17,8 °C 74 % 1016,6 hPa 0,0 mm 0,0 km/h (0 Bft) O-SO 112 ° 0 min 0,000 mm 1,0 UV-I 207 W/m² 13,1 °C 17,8 °C 0,0 km/h (0 Bft)
06.07.2017 07:28 17,9 °C 17,9 °C 73 % 1016,6 hPa 0,0 mm 0,0 km/h (0 Bft) O-SO 112 ° 0 min 0,000 mm 1,0 UV-I 213 W/m² 13,0 °C 17,9 °C 0,0 km/h (0 Bft)
06.07.2017 07:29 17,9 °C 17,9 °C 71 % 1016,6 hPa 0,0 mm 0,0 km/h (0 Bft) O-SO 112 ° 0 min 0,000 mm 1,1 UV-I 216 W/m² 12,6 °C 17,9 °C 0,0 km/h (0 Bft)
06.07.2017 07:30 17,9 °C 17,9 °C 72 % 1016,6 hPa 0,0 mm 0,0 km/h (0 Bft) O-SO 112 ° 0 min 0,000 mm 1,1 UV-I 223 W/m² 12,8 °C 17,9 °C 0,0 km/h (0 Bft)
06.07.2017 07:31 18,0 °C 18,0 °C 74 % 1016,6 hPa 0,0 mm 0,0 km/h (0 Bft) O-SO 112 ° 0 min 0,000 mm 1,1 UV-I 225 W/m² 13,3 °C 18,0 °C 0,0 km/h (0 Bft)
06.07.2017 07:32 18,1 °C 18,1 °C 74 % 1016,7 hPa 0,0 mm 0,0 km/h (0 Bft) O-SO 112 ° 0 min 0,000 mm 1,1 UV-I 229 W/m² 13,4 °C 18,1 °C 0,0 km/h (0 Bft)
06.07.2017 07:33 18,1 °C 18,1 °C 73 % 1016,6 hPa 0,0 mm 0,0 km/h (0 Bft) O-SO 112 ° 0 min 0,000 mm 1,1 UV-I 232 W/m² 13,2 °C 18,1 °C 0,0 km/h (0 Bft)
06.07.2017 07:34 18,2 °C 18,2 °C 74 % 1016,6 hPa 0,0 mm 0,0 km/h (0 Bft) O-SO 112 ° 0 min 0,000 mm 1,1 UV-I 232 W/m² 13,5 °C 18,2 °C 0,0 km/h (0 Bft)
06.07.2017 07:35 18,2 °C 18,2 °C 75 % 1016,6 hPa 0,0 mm 0,0 km/h (0 Bft) O-SO 112 ° 0 min 0,000 mm 1,2 UV-I 234 W/m² 13,7 °C 18,2 °C 0,0 km/h (0 Bft)
06.07.2017 07:36 18,2 °C 18,2 °C 74 % 1016,6 hPa 0,0 mm 0,0 km/h (0 Bft) O-SO 112 ° 0 min 0,000 mm 1,2 UV-I 236 W/m² 13,5 °C 18,2 °C 0,0 km/h (0 Bft)
06.07.2017 07:37 18,2 °C 18,2 °C 75 % 1016,6 hPa 0,0 mm 0,0 km/h (0 Bft) O-SO 112 ° 0 min 0,000 mm 1,2 UV-I 237 W/m² 13,7 °C 18,2 °C 0,0 km/h (0 Bft)
06.07.2017 07:38 18,2 °C 18,2 °C 75 % 1016,6 hPa 0,0 mm 0,0 km/h (0 Bft) O-SO 112 ° 0 min 0,000 mm 1,2 UV-I 237 W/m² 13,7 °C 18,2 °C 0,0 km/h (0 Bft)
06.07.2017 07:39 18,2 °C 18,2 °C 73 % 1016,6 hPa 0,0 mm 0,0 km/h (0 Bft) O-SO 112 ° 0 min 0,000 mm 1,2 UV-I 241 W/m² 13,3 °C 18,2 °C 0,0 km/h (0 Bft)
06.07.2017 07:40 18,2 °C 18,2 °C 73 % 1016,6 hPa 0,0 mm 0,1 km/h (0 Bft) O-SO 112 ° 0 min 0,000 mm 1,2 UV-I 243 W/m² 13,3 °C 18,2 °C 1,6 km/h (1 Bft)
06.07.2017 07:41 18,2 °C 18,2 °C 72 % 1016,6 hPa 0,0 mm 1,2 km/h (1 Bft) O-SO 112 ° 0 min 0,000 mm 1,3 UV-I 243 W/m² 13,1 °C 18,2 °C 3,2 km/h (1 Bft)
06.07.2017 07:42 18,3 °C 18,3 °C 74 % 1016,6 hPa 0,0 mm 0,3 km/h (0 Bft) O-SO 112 ° 0 min 0,000 mm 1,3 UV-I 244 W/m² 13,6 °C 18,3 °C 1,6 km/h (1 Bft)
06.07.2017 07:43 18,3 °C 18,3 °C 73 % 1016,6 hPa 0,0 mm 0,2 km/h (0 Bft) O-SO 112 ° 0 min 0,000 mm 1,3 UV-I 244 W/m² 13,4 °C 18,3 °C 1,6 km/h (1 Bft)
06.07.2017 07:44 18,4 °C 18,4 °C 73 % 1016,6 hPa 0,0 mm 0,0 km/h (0 Bft) O-SO 112 ° 0 min 0,000 mm 1,3 UV-I 244 W/m² 13,5 °C 18,4 °C 0,0 km/h (0 Bft)
06.07.2017 07:45 18,7 °C 18,7 °C 75 % 1016,6 hPa 0,0 mm 0,0 km/h (0 Bft) O-SO 112 ° 0 min 0,000 mm 1,3 UV-I 244 W/m² 14,2 °C 18,7 °C 0,0 km/h (0 Bft)
06.07.2017 07:46 18,8 °C 18,8 °C 75 % 1016,6 hPa 0,0 mm 0,0 km/h (0 Bft) O-SO 112 ° 0 min 0,000 mm 1,3 UV-I 244 W/m² 14,3 °C 18,8 °C 0,0 km/h (0 Bft)
06.07.2017 07:47 18,9 °C 18,9 °C 74 % 1016,6 hPa 0,0 mm 0,3 km/h (0 Bft) O-SO 112 ° 0 min 0,000 mm 1,4 UV-I 246 W/m² 14,2 °C 18,9 °C 1,6 km/h (1 Bft)
06.07.2017 07:48 19,1 °C 19,1 °C 72 % 1016,6 hPa 0,0 mm 0,5 km/h (0 Bft) O-SO 112 ° 0 min 0,000 mm 1,4 UV-I 248 W/m² 13,9 °C 19,1 °C 1,6 km/h (1 Bft)
06.07.2017 07:49 19,1 °C 19,1 °C 72 % 1016,6 hPa 0,0 mm 0,8 km/h (0 Bft) O-SO 112 ° 0 min 0,000 mm 1,4 UV-I 248 W/m² 13,9 °C 19,1 °C 1,6 km/h (1 Bft)
06.07.2017 07:50 19,0 °C 19,1 °C 71 % 1016,6 hPa 0,0 mm 0,0 km/h (0 Bft) O-SO 112 ° 0 min 0,000 mm 1,4 UV-I 248 W/m² 13,6 °C 19,0 °C 0,0 km/h (0 Bft)
06.07.2017 07:51 19,0 °C 19,0 °C 73 % 1016,6 hPa 0,0 mm 0,0 km/h (0 Bft) O-SO 112 ° 0 min 0,000 mm 1,4 UV-I 248 W/m² 14,0 °C 19,0 °C 0,0 km/h (0 Bft)
06.07.2017 07:52 19,1 °C 19,1 °C 73 % 1016,6 hPa 0,0 mm 0,0 km/h (0 Bft) O-SO 112 ° 0 min 0,000 mm 1,5 UV-I 244 W/m² 14,1 °C 19,1 °C 0,0 km/h (0 Bft)
06.07.2017 07:53 19,1 °C 19,1 °C 73 % 1016,6 hPa 0,0 mm 0,0 km/h (0 Bft) O-SO 112 ° 0 min 0,000 mm 1,5 UV-I 239 W/m² 14,1 °C 19,1 °C 0,0 km/h (0 Bft)
06.07.2017 07:54 19,3 °C 19,3 °C 70 % 1016,6 hPa 0,0 mm 0,0 km/h (0 Bft) O-SO 112 ° 0 min 0,000 mm 1,5 UV-I 236 W/m² 13,7 °C 19,3 °C 0,0 km/h (0 Bft)
06.07.2017 07:55 19,3 °C 19,3 °C 69 % 1016,7 hPa 0,0 mm 0,4 km/h (0 Bft) O-SO 112 ° 0 min 0,000 mm 1,5 UV-I 232 W/m² 13,5 °C 19,3 °C 1,6 km/h (1 Bft)
06.07.2017 07:56 19,4 °C 19,4 °C 67 % 1016,6 hPa 0,0 mm 0,0 km/h (0 Bft) O-SO 112 ° 0 min 0,000 mm 1,5 UV-I 230 W/m² 13,1 °C 19,4 °C 0,0 km/h (0 Bft)
06.07.2017 07:57 19,6 °C 19,6 °C 68 % 1016,6 hPa 0,0 mm 0,0 km/h (0 Bft) O-SO 112 ° 0 min 0,000 mm 1,6 UV-I 225 W/m² 13,5 °C 19,6 °C 0,0 km/h (0 Bft)
06.07.2017 07:58 19,6 °C 19,6 °C 72 % 1016,6 hPa 0,0 mm 1,6 km/h (1 Bft) O-SO 112 ° 0 min 0,000 mm 1,6 UV-I 220 W/m² 14,4 °C 19,6 °C 3,2 km/h (1 Bft)
06.07.2017 07:59 19,6 °C 19,7 °C 69 % 1016,7 hPa 0,0 mm 0,1 km/h (0 Bft) O-SO 112 ° 0 min 0,000 mm 1,6 UV-I 216 W/m² 13,8 °C 19,6 °C 1,6 km/h (1 Bft)
06.07.2017 08:00 19,7 °C 19,7 °C 71 % 1016,6 hPa 0,0 mm 0,5 km/h (0 Bft) O-SO 112 ° 0 min 0,127 mm 1,6 UV-I 209 W/m² 14,3 °C 19,7 °C 1,6 km/h (1 Bft)
06.07.2017 08:01 19,8 °C 19,8 °C 73 % 1016,7 hPa 0,0 mm 0,5 km/h (0 Bft) O-SO 112 ° 0 min 0,000 mm 1,6 UV-I 206 W/m² 14,8 °C 19,8 °C 1,6 km/h (1 Bft)
06.07.2017 08:02 19,9 °C 20,0 °C 70 % 1016,6 hPa 0,0 mm 0,1 km/h (0 Bft) O-SO 112 ° 0 min 0,000 mm 1,7 UV-I 202 W/m² 14,3 °C 19,9 °C 1,6 km/h (1 Bft)
06.07.2017 08:03 20,0 °C 20,0 °C 68 % 1016,6 hPa 0,0 mm 0,4 km/h (0 Bft) O-SO 112 ° 0 min 0,000 mm 1,7 UV-I 200 W/m² 13,9 °C 20,0 °C 1,6 km/h (1 Bft)
06.07.2017 08:04 20,0 °C 20,1 °C 65 % 1016,6 hPa 0,0 mm 0,0 km/h (0 Bft) O-SO 112 ° 0 min 0,000 mm 1,7 UV-I 200 W/m² 13,2 °C 20,0 °C 0,0 km/h (0 Bft)
06.07.2017 08:05 19,9 °C 20,0 °C 67 % 1016,6 hPa 0,0 mm 0,1 km/h (0 Bft) O-SO 112 ° 0 min 0,000 mm 1,7 UV-I 204 W/m² 13,6 °C 19,9 °C 1,6 km/h (1 Bft)
06.07.2017 08:06 19,9 °C 19,9 °C 65 % 1016,6 hPa 0,0 mm 0,0 km/h (0 Bft) O-SO 112 ° 0 min 0,000 mm 1,7 UV-I 207 W/m² 13,1 °C 19,9 °C 0,0 km/h (0 Bft)
06.07.2017 08:07 19,9 °C 19,9 °C 66 % 1016,6 hPa 0,0 mm 0,0 km/h (0 Bft) O-SO 112 ° 0 min 0,000 mm 1,8 UV-I 211 W/m² 13,4 °C 19,9 °C 0,0 km/h (0 Bft)
06.07.2017 08:08 20,0 °C 20,0 °C 67 % 1016,6 hPa 0,0 mm 0,0 km/h (0 Bft) O-SO 112 ° 0 min 0,000 mm 1,8 UV-I 216 W/m² 13,7 °C 20,0 °C 0,0 km/h (0 Bft)
06.07.2017 08:09 20,2 °C 20,2 °C 68 % 1016,6 hPa 0,0 mm 0,3 km/h (0 Bft) O-SO 112 ° 0 min 0,000 mm 1,8 UV-I 221 W/m² 14,1 °C 20,2 °C 1,6 km/h (1 Bft)
06.07.2017 08:10 20,3 °C 20,3 °C 68 % 1016,6 hPa 0,0 mm 0,6 km/h (0 Bft) O-SO 112 ° 0 min 0,000 mm 1,8 UV-I 227 W/m² 14,2 °C 20,3 °C 1,6 km/h (1 Bft)
06.07.2017 08:11 20,4 °C 20,4 °C 71 % 1016,7 hPa 0,0 mm 0,1 km/h (0 Bft) O-SO 112 ° 0 min 0,000 mm 1,8 UV-I 239 W/m² 15,0 °C 20,4 °C 1,6 km/h (1 Bft)
06.07.2017 08:12 20,4 °C 20,4 °C 70 % 1016,6 hPa 0,0 mm 0,0 km/h (0 Bft) O-SO 112 ° 0 min 0,000 mm 1,9 UV-I 244 W/m² 14,7 °C 20,4 °C 0,0 km/h (0 Bft)
06.07.2017 08:13 20,4 °C 20,4 °C 68 % 1016,6 hPa 0,0 mm 0,0 km/h (0 Bft) O-SO 112 ° 0 min 0,000 mm 1,9 UV-I 251 W/m² 14,3 °C 20,4 °C 0,0 km/h (0 Bft)
06.07.2017 08:14 20,4 °C 20,4 °C 66 % 1016,6 hPa 0,0 mm 0,4 km/h (0 Bft) O-SO 112 ° 0 min 0,000 mm 1,9 UV-I 258 W/m² 13,8 °C 20,4 °C 1,6 km/h (1 Bft)
06.07.2017 08:15 20,5 °C 20,5 °C 68 % 1016,6 hPa 0,0 mm 0,0 km/h (0 Bft) O-SO 112 ° 0 min 0,000 mm 1,9 UV-I 265 W/m² 14,4 °C 20,5 °C 0,0 km/h (0 Bft)
06.07.2017 08:16 20,6 °C 20,6 °C 70 % 1016,6 hPa 0,0 mm 0,0 km/h (0 Bft) O-SO 112 ° 0 min 0,000 mm 1,9 UV-I 272 W/m² 14,9 °C 20,6 °C 0,0 km/h (0 Bft)
06.07.2017 08:17 20,7 °C 20,7 °C 68 % 1016,7 hPa 0,0 mm 0,0 km/h (0 Bft) O-SO 112 ° 0 min 0,000 mm 1,9 UV-I 285 W/m² 14,6 °C 20,7 °C 0,0 km/h (0 Bft)
06.07.2017 08:18 20,7 °C 20,7 °C 71 % 1016,6 hPa 0,0 mm 0,0 km/h (0 Bft) O-SO 112 ° 1 min 0,000 mm 2,0 UV-I 292 W/m² 15,2 °C 20,7 °C 0,0 km/h (0 Bft)
06.07.2017 08:19 20,7 °C 20,7 °C 71 % 1016,6 hPa 0,0 mm 0,0 km/h (0 Bft) O-SO 112 ° 1 min 0,000 mm 2,0 UV-I 299 W/m² 15,2 °C 20,7 °C 0,0 km/h (0 Bft)
06.07.2017 08:20 20,6 °C 20,7 °C 64 % 1016,6 hPa 0,0 mm 0,0 km/h (0 Bft) O-SO 112 ° 1 min 0,000 mm 2,0 UV-I 306 W/m² 13,5 °C 20,6 °C 0,0 km/h (0 Bft)
06.07.2017 08:21 20,7 °C 20,7 °C 68 % 1016,6 hPa 0,0 mm 0,0 km/h (0 Bft) O-SO 112 ° 1 min 0,000 mm 2,0 UV-I 311 W/m² 14,6 °C 20,7 °C 0,0 km/h (0 Bft)
06.07.2017 08:22 20,7 °C 20,7 °C 70 % 1016,7 hPa 0,0 mm 0,0 km/h (0 Bft) O-SO 112 ° 1 min 0,000 mm 2,1 UV-I 316 W/m² 15,0 °C 20,7 °C 0,0 km/h (0 Bft)
06.07.2017 08:23 20,8 °C 20,8 °C 67 % 1016,6 hPa 0,0 mm 0,0 km/h (0 Bft) O-SO 112 ° 1 min 0,000 mm 2,1 UV-I 325 W/m² 14,4 °C 20,8 °C 0,0 km/h (0 Bft)
06.07.2017 08:24 20,8 °C 20,9 °C 65 % 1016,7 hPa 0,0 mm 0,0 km/h (0 Bft) O-SO 112 ° 1 min 0,000 mm 2,1 UV-I 330 W/m² 14,0 °C 20,8 °C 0,0 km/h (0 Bft)
06.07.2017 08:25 20,9 °C 20,9 °C 68 % 1016,6 hPa 0,0 mm 0,0 km/h (0 Bft) O-SO 112 ° 1 min 0,000 mm 2,1 UV-I 334 W/m² 14,8 °C 20,9 °C 0,0 km/h (0 Bft)
06.07.2017 08:26 20,9 °C 20,9 °C 70 % 1016,7 hPa 0,0 mm 0,0 km/h (0 Bft) O-SO 112 ° 1 min 0,000 mm 2,1 UV-I 341 W/m² 15,2 °C 20,9 °C 0,0 km/h (0 Bft)
06.07.2017 08:27 21,0 °C 21,0 °C 66 % 1016,7 hPa 0,0 mm 0,0 km/h (0 Bft) O-SO 112 ° 1 min 0,000 mm 2,2 UV-I 346 W/m² 14,4 °C 21,0 °C 0,0 km/h (0 Bft)
06.07.2017 08:28 21,2 °C 21,2 °C 69 % 1016,7 hPa 0,0 mm 0,0 km/h (0 Bft) O-SO 112 ° 1 min 0,000 mm 2,2 UV-I 350 W/m² 15,3 °C 21,2 °C 0,0 km/h (0 Bft)
06.07.2017 08:29 21,3 °C 21,3 °C 70 % 1016,7 hPa 0,0 mm 0,0 km/h (0 Bft) O-SO 112 ° 1 min 0,000 mm 2,2 UV-I 359 W/m² 15,6 °C 21,3 °C 0,0 km/h (0 Bft)
06.07.2017 08:30 21,3 °C 21,3 °C 65 % 1016,7 hPa 0,0 mm 0,0 km/h (0 Bft) O-SO 112 ° 1 min 0,000 mm 2,2 UV-I 364 W/m² 14,4 °C 21,3 °C 0,0 km/h (0 Bft)
06.07.2017 08:31 21,2 °C 21,3 °C 65 % 1016,7 hPa 0,0 mm 1,0 km/h (0 Bft) O-SO 112 ° 1 min 0,000 mm 2,2 UV-I 369 W/m² 14,4 °C 21,2 °C 1,6 km/h (1 Bft)
06.07.2017 08:32 21,2 °C 21,2 °C 67 % 1016,7 hPa 0,0 mm 0,2 km/h (0 Bft) O-SO 112 ° 1 min 0,000 mm 2,2 UV-I 373 W/m² 14,8 °C 21,2 °C 1,6 km/h (1 Bft)
06.07.2017 08:33 21,2 °C 21,2 °C 67 % 1016,7 hPa 0,0 mm 0,0 km/h (0 Bft) O-SO 112 ° 1 min 0,000 mm 2,3 UV-I 378 W/m² 14,8 °C 21,2 °C 0,0 km/h (0 Bft)
06.07.2017 08:34 21,2 °C 21,3 °C 66 % 1016,7 hPa 0,0 mm 0,0 km/h (0 Bft) O-SO 112 ° 1 min 0,000 mm 2,3 UV-I 387 W/m² 14,6 °C 21,2 °C 0,0 km/h (0 Bft)
06.07.2017 08:35 21,2 °C 21,2 °C 66 % 1016,8 hPa 0,0 mm 0,0 km/h (0 Bft) O-SO 112 ° 1 min 0,000 mm 2,3 UV-I 392 W/m² 14,6 °C 21,2 °C 0,0 km/h (0 Bft)
06.07.2017 08:36 21,2 °C 21,2 °C 71 % 1016,8 hPa 0,0 mm 0,0 km/h (0 Bft) O-SO 112 ° 1 min 0,000 mm 2,3 UV-I 396 W/m² 15,7 °C 21,2 °C 0,0 km/h (0 Bft)
06.07.2017 08:37 21,2 °C 21,3 °C 65 % 1016,7 hPa 0,0 mm 0,0 km/h (0 Bft) O-SO 112 ° 1 min 0,000 mm 2,4 UV-I 401 W/m² 14,4 °C 21,2 °C 0,0 km/h (0 Bft)
06.07.2017 08:38 21,3 °C 21,3 °C 64 % 1016,7 hPa 0,0 mm 0,0 km/h (0 Bft) O-SO 112 ° 1 min 0,000 mm 2,4 UV-I 404 W/m² 14,2 °C 21,3 °C 0,0 km/h (0 Bft)
06.07.2017 08:39 21,3 °C 21,3 °C 67 % 1016,8 hPa 0,0 mm 0,3 km/h (0 Bft) O-SO 112 ° 1 min 0,000 mm 2,4 UV-I 408 W/m² 14,9 °C 21,3 °C 1,6 km/h (1 Bft)
06.07.2017 08:40 21,3 °C 21,4 °C 66 % 1016,7 hPa 0,0 mm 0,1 km/h (0 Bft) O-SO 112 ° 1 min 0,000 mm 2,4 UV-I 415 W/m² 14,7 °C 21,3 °C 1,6 km/h (1 Bft)
06.07.2017 08:41 21,4 °C 21,4 °C 64 % 1016,7 hPa 0,0 mm 0,9 km/h (0 Bft) O-SO 112 ° 1 min 0,000 mm 2,5 UV-I 418 W/m² 14,3 °C 21,4 °C 1,6 km/h (1 Bft)
06.07.2017 08:42 21,5 °C 21,5 °C 68 % 1016,7 hPa 0,0 mm 0,0 km/h (0 Bft) O-SO 112 ° 1 min 0,000 mm 2,5 UV-I 418 W/m² 15,3 °C 21,5 °C 0,0 km/h (0 Bft)
06.07.2017 08:43 21,6 °C 21,6 °C 66 % 1016,7 hPa 0,0 mm 0,1 km/h (0 Bft) O-SO 112 ° 1 min 0,000 mm 2,5 UV-I 424 W/m² 15,0 °C 21,6 °C 1,6 km/h (1 Bft)
06.07.2017 08:44 21,6 °C 21,6 °C 67 % 1016,7 hPa 0,0 mm 0,0 km/h (0 Bft) O-SO 112 ° 1 min 0,000 mm 2,5 UV-I 427 W/m² 15,2 °C 21,6 °C 0,0 km/h (0 Bft)
06.07.2017 08:45 21,8 °C 21,8 °C 64 % 1016,7 hPa 0,0 mm 0,0 km/h (0 Bft) O-SO 112 ° 1 min 0,000 mm 2,6 UV-I 429 W/m² 14,7 °C 21,8 °C 0,0 km/h (0 Bft)
06.07.2017 08:46 21,8 °C 21,8 °C 62 % 1016,7 hPa 0,0 mm 0,0 km/h (0 Bft) O-SO 112 ° 1 min 0,000 mm 2,6 UV-I 434 W/m² 14,2 °C 21,8 °C 0,0 km/h (0 Bft)
06.07.2017 08:47 21,8 °C 21,8 °C 60 % 1016,8 hPa 0,0 mm 0,0 km/h (0 Bft) O-SO 112 ° 1 min 0,000 mm 2,6 UV-I 438 W/m² 13,7 °C 21,8 °C 0,0 km/h (0 Bft)
06.07.2017 08:48 21,9 °C 21,9 °C 62 % 1016,8 hPa 0,0 mm 0,0 km/h (0 Bft) O-SO 112 ° 1 min 0,000 mm 2,6 UV-I 439 W/m² 14,3 °C 21,9 °C 0,0 km/h (0 Bft)
06.07.2017 08:49 22,0 °C 22,0 °C 63 % 1016,8 hPa 0,0 mm 0,0 km/h (0 Bft) O-SO 112 ° 1 min 0,000 mm 2,6 UV-I 441 W/m² 14,6 °C 22,0 °C 0,0 km/h (0 Bft)
06.07.2017 08:50 22,1 °C 22,1 °C 61 % 1016,7 hPa 0,0 mm 0,0 km/h (0 Bft) O-SO 112 ° 1 min 0,000 mm 2,7 UV-I 441 W/m² 14,2 °C 22,1 °C 0,0 km/h (0 Bft)
06.07.2017 08:51 22,1 °C 22,1 °C 62 % 1016,8 hPa 0,0 mm 0,0 km/h (0 Bft) O-SO 112 ° 1 min 0,000 mm 2,7 UV-I 446 W/m² 14,5 °C 22,1 °C 0,0 km/h (0 Bft)
06.07.2017 08:52 22,1 °C 22,1 °C 61 % 1016,8 hPa 0,0 mm 0,0 km/h (0 Bft) O-SO 112 ° 1 min 0,000 mm 2,7 UV-I 452 W/m² 14,2 °C 22,1 °C 0,0 km/h (0 Bft)
06.07.2017 08:53 22,2 °C 22,2 °C 67 % 1016,7 hPa 0,0 mm 0,0 km/h (0 Bft) O-SO 112 ° 1 min 0,000 mm 2,8 UV-I 454 W/m² 15,8 °C 22,2 °C 0,0 km/h (0 Bft)
06.07.2017 08:54 22,3 °C 22,3 °C 66 % 1016,7 hPa 0,0 mm 0,0 km/h (0 Bft) O-SO 112 ° 1 min 0,000 mm 2,8 UV-I 455 W/m² 15,6 °C 22,3 °C 0,0 km/h (0 Bft)
06.07.2017 08:55 22,3 °C 22,3 °C 65 % 1016,7 hPa 0,0 mm 0,0 km/h (0 Bft) O-SO 112 ° 1 min 0,000 mm 2,8 UV-I 457 W/m² 15,4 °C 22,3 °C 0,0 km/h (0 Bft)
06.07.2017 08:56 22,4 °C 22,4 °C 63 % 1016,7 hPa 0,0 mm 0,0 km/h (0 Bft) O-SO 112 ° 1 min 0,000 mm 2,8 UV-I 461 W/m² 15,0 °C 22,4 °C 0,0 km/h (0 Bft)
06.07.2017 08:57 22,5 °C 22,5 °C 68 % 1016,7 hPa 0,0 mm 0,0 km/h (0 Bft) O-SO 112 ° 1 min 0,000 mm 2,8 UV-I 462 W/m² 16,3 °C 22,5 °C 0,0 km/h (0 Bft)
06.07.2017 08:58 22,6 °C 22,6 °C 68 % 1016,7 hPa 0,0 mm 0,1 km/h (0 Bft) O-SO 112 ° 1 min 0,000 mm 2,8 UV-I 468 W/m² 16,4 °C 22,6 °C 1,6 km/h (1 Bft)
06.07.2017 08:59 22,6 °C 22,6 °C 58 % 1016,7 hPa 0,0 mm 0,0 km/h (0 Bft) O-SO 112 ° 1 min 0,000 mm 2,9 UV-I 471 W/m² 13,9 °C 22,6 °C 0,0 km/h (0 Bft)
06.07.2017 09:00 22,7 °C 22,7 °C 63 % 1016,7 hPa 0,0 mm 0,0 km/h (0 Bft) O-SO 112 ° 1 min 0,000 mm 2,9 UV-I 473 W/m² 15,3 °C 22,7 °C 0,0 km/h (0 Bft)
06.07.2017 09:01 22,7 °C 22,7 °C 63 % 1016,7 hPa 0,0 mm 0,0 km/h (0 Bft) O-SO 112 ° 1 min 0,203 mm 2,9 UV-I 475 W/m² 15,3 °C 22,7 °C 0,0 km/h (0 Bft)
06.07.2017 09:02 22,7 °C 22,7 °C 59 % 1016,7 hPa 0,0 mm 0,0 km/h (0 Bft) O-SO 112 ° 1 min 0,000 mm 3,0 UV-I 478 W/m² 14,3 °C 22,7 °C 0,0 km/h (0 Bft)
06.07.2017 09:03 22,8 °C 22,8 °C 64 % 1016,7 hPa 0,0 mm 0,0 km/h (0 Bft) O-SO 112 ° 1 min 0,000 mm 3,0 UV-I 480 W/m² 15,6 °C 22,8 °C 0,0 km/h (0 Bft)
06.07.2017 09:04 22,8 °C 22,8 °C 63 % 1016,7 hPa 0,0 mm 0,0 km/h (0 Bft) O-SO 112 ° 1 min 0,000 mm 3,0 UV-I 483 W/m² 15,4 °C 22,8 °C 0,0 km/h (0 Bft)
06.07.2017 09:05 22,9 °C 22,9 °C 59 % 1016,7 hPa 0,0 mm 0,0 km/h (0 Bft) O-SO 112 ° 1 min 0,000 mm 3,0 UV-I 485 W/m² 14,5 °C 22,9 °C 0,0 km/h (0 Bft)
06.07.2017 09:06 22,9 °C 22,9 °C 69 % 1016,6 hPa 0,0 mm 0,0 km/h (0 Bft) O-SO 112 ° 1 min 0,000 mm 3,1 UV-I 489 W/m² 16,9 °C 22,9 °C 0,0 km/h (0 Bft)
06.07.2017 09:07 22,9 °C 22,9 °C 60 % 1016,7 hPa 0,0 mm 0,1 km/h (0 Bft) O-SO 112 ° 1 min 0,000 mm 3,1 UV-I 490 W/m² 14,7 °C 22,9 °C 1,6 km/h (1 Bft)
06.07.2017 09:08 22,9 °C 22,9 °C 61 % 1016,7 hPa 0,0 mm 0,0 km/h (0 Bft) O-SO 112 ° 1 min 0,000 mm 3,1 UV-I 492 W/m² 15,0 °C 22,9 °C 0,0 km/h (0 Bft)
06.07.2017 09:09 22,9 °C 23,0 °C 59 % 1016,6 hPa 0,0 mm 0,0 km/h (0 Bft) O-SO 112 ° 1 min 0,000 mm 3,1 UV-I 494 W/m² 14,5 °C 22,9 °C 0,0 km/h (0 Bft)
06.07.2017 09:10 23,0 °C 23,0 °C 64 % 1016,7 hPa 0,0 mm 0,0 km/h (0 Bft) O-SO 112 ° 1 min 0,000 mm 3,1 UV-I 497 W/m² 15,8 °C 23,0 °C 0,0 km/h (0 Bft)
06.07.2017 09:11 23,0 °C 23,0 °C 58 % 1016,6 hPa 0,0 mm 0,0 km/h (0 Bft) O-SO 112 ° 1 min 0,000 mm 3,2 UV-I 501 W/m² 14,3 °C 23,0 °C 0,0 km/h (0 Bft)
06.07.2017 09:12 23,0 °C 23,0 °C 60 % 1016,6 hPa 0,0 mm 0,0 km/h (0 Bft) O-SO 112 ° 1 min 0,000 mm 3,2 UV-I 504 W/m² 14,8 °C 23,0 °C 0,0 km/h (0 Bft)
06.07.2017 09:13 23,1 °C 23,1 °C 64 % 1016,6 hPa 0,0 mm 0,0 km/h (0 Bft) O-SO 112 ° 1 min 0,000 mm 3,2 UV-I 506 W/m² 15,9 °C 23,1 °C 0,0 km/h (0 Bft)
06.07.2017 09:14 23,2 °C 23,2 °C 60 % 1016,7 hPa 0,0 mm 0,0 km/h (0 Bft) O-SO 112 ° 1 min 0,000 mm 3,2 UV-I 508 W/m² 15,0 °C 23,2 °C 0,0 km/h (0 Bft)
06.07.2017 09:15 23,2 °C 23,2 °C 58 % 1016,7 hPa 0,0 mm 0,0 km/h (0 Bft) O-SO 112 ° 1 min 0,000 mm 3,2 UV-I 513 W/m² 14,5 °C 23,2 °C 0,0 km/h (0 Bft)
06.07.2017 09:16 23,2 °C 23,2 °C 60 % 1016,6 hPa 0,0 mm 0,0 km/h (0 Bft) O-SO 112 ° 1 min 0,000 mm 3,3 UV-I 517 W/m² 15,0 °C 23,2 °C 0,0 km/h (0 Bft)
06.07.2017 09:17 23,3 °C 23,3 °C 58 % 1016,6 hPa 0,0 mm 0,9 km/h (0 Bft) O-SO 112 ° 1 min 0,000 mm 3,3 UV-I 519 W/m² 14,6 °C 23,3 °C 1,6 km/h (1 Bft)
06.07.2017 09:18 23,4 °C 23,4 °C 56 % 1016,6 hPa 0,0 mm 1,4 km/h (1 Bft) O-SO 112 ° 1 min 0,000 mm 3,3 UV-I 520 W/m² 14,1 °C 23,4 °C 1,6 km/h (1 Bft)
06.07.2017 09:19 23,4 °C 23,4 °C 64 % 1016,6 hPa 0,0 mm 1,1 km/h (1 Bft) O-SO 112 ° 1 min 0,000 mm 3,4 UV-I 524 W/m² 16,2 °C 23,4 °C 1,6 km/h (1 Bft)
06.07.2017 09:20 23,4 °C 23,4 °C 64 % 1016,6 hPa 0,0 mm 0,0 km/h (0 Bft) O-SO 112 ° 1 min 0,000 mm 3,4 UV-I 526 W/m² 16,2 °C 23,4 °C 0,0 km/h (0 Bft)
06.07.2017 09:21 23,4 °C 23,4 °C 66 % 1016,6 hPa 0,0 mm 0,0 km/h (0 Bft) O-SO 112 ° 1 min 0,000 mm 3,4 UV-I 531 W/m² 16,7 °C 23,4 °C 0,0 km/h (0 Bft)
06.07.2017 09:22 23,3 °C 23,4 °C 64 % 1016,6 hPa 0,0 mm 0,0 km/h (0 Bft) O-SO 112 ° 1 min 0,000 mm 3,4 UV-I 533 W/m² 16,1 °C 23,3 °C 0,0 km/h (0 Bft)
06.07.2017 09:23 23,3 °C 23,3 °C 59 % 1016,6 hPa 0,0 mm 0,0 km/h (0 Bft) O-SO 112 ° 1 min 0,000 mm 3,5 UV-I 534 W/m² 14,8 °C 23,3 °C 0,0 km/h (0 Bft)
06.07.2017 09:24 23,4 °C 23,4 °C 61 % 1016,5 hPa 0,0 mm 0,0 km/h (0 Bft) O-SO 112 ° 1 min 0,000 mm 3,5 UV-I 538 W/m² 15,4 °C 23,4 °C 0,0 km/h (0 Bft)
06.07.2017 09:25 23,4 °C 23,4 °C 62 % 1016,6 hPa 0,0 mm 0,0 km/h (0 Bft) O-SO 112 ° 1 min 0,000 mm 3,5 UV-I 540 W/m² 15,7 °C 23,4 °C 0,0 km/h (0 Bft)
06.07.2017 09:26 23,4 °C 23,4 °C 57 % 1016,6 hPa 0,0 mm 0,0 km/h (0 Bft) O-SO 112 ° 1 min 0,000 mm 3,5 UV-I 541 W/m² 14,4 °C 23,4 °C 0,0 km/h (0 Bft)
06.07.2017 09:27 23,4 °C 23,4 °C 57 % 1016,6 hPa 0,0 mm 2,3 km/h (1 Bft) O-NO 78 ° 1 min 0,000 mm 3,5 UV-I 545 W/m² 14,4 °C 23,4 °C 4,8 km/h (1 Bft)
06.07.2017 09:28 23,4 °C 23,4 °C 62 % 1016,6 hPa 0,0 mm 2,1 km/h (1 Bft) O-NO 78 ° 1 min 0,000 mm 3,6 UV-I 548 W/m² 15,7 °C 23,4 °C 3,2 km/h (1 Bft)
06.07.2017 09:29 23,5 °C 23,5 °C 67 % 1016,6 hPa 0,0 mm 1,3 km/h (1 Bft) O-NO 78 ° 1 min 0,000 mm 3,6 UV-I 552 W/m² 17,0 °C 23,5 °C 1,6 km/h (1 Bft)
06.07.2017 09:30 23,6 °C 23,6 °C 66 % 1016,6 hPa 0,0 mm 0,5 km/h (0 Bft) O-NO 78 ° 1 min 0,000 mm 3,6 UV-I 554 W/m² 16,9 °C 23,6 °C 1,6 km/h (1 Bft)
06.07.2017 09:31 23,5 °C 23,6 °C 65 % 1016,6 hPa 0,0 mm 0,0 km/h (0 Bft) O-NO 78 ° 1 min 0,000 mm 3,7 UV-I 555 W/m² 16,5 °C 23,5 °C 0,0 km/h (0 Bft)
06.07.2017 09:32 23,6 °C 23,6 °C 58 % 1016,6 hPa 0,0 mm 0,4 km/h (0 Bft) O-NO 78 ° 1 min 0,000 mm 3,7 UV-I 559 W/m² 14,8 °C 23,6 °C 1,6 km/h (1 Bft)
06.07.2017 09:33 23,7 °C 23,7 °C 57 % 1016,6 hPa 0,0 mm 0,1 km/h (0 Bft) O-NO 78 ° 1 min 0,000 mm 3,7 UV-I 563 W/m² 14,7 °C 23,7 °C 1,6 km/h (1 Bft)
06.07.2017 09:34 23,8 °C 23,8 °C 61 % 1016,6 hPa 0,0 mm 0,0 km/h (0 Bft) O-NO 78 ° 1 min 0,000 mm 3,8 UV-I 566 W/m² 15,8 °C 23,8 °C 0,0 km/h (0 Bft)
06.07.2017 09:35 23,8 °C 23,8 °C 59 % 1016,6 hPa 0,0 mm 0,5 km/h (0 Bft) O-NO 78 ° 1 min 0,000 mm 3,8 UV-I 568 W/m² 15,3 °C 23,8 °C 1,6 km/h (1 Bft)
06.07.2017 09:36 23,8 °C 23,8 °C 58 % 1016,6 hPa 0,0 mm 0,0 km/h (0 Bft) O-NO 78 ° 1 min 0,000 mm 3,8 UV-I 568 W/m² 15,0 °C 23,8 °C 0,0 km/h (0 Bft)
06.07.2017 09:37 23,9 °C 23,9 °C 55 % 1016,6 hPa 0,0 mm 1,6 km/h (1 Bft) O-NO 78 ° 1 min 0,000 mm 3,8 UV-I 573 W/m² 14,3 °C 23,9 °C 3,2 km/h (1 Bft)
06.07.2017 09:38 24,2 °C 24,2 °C 58 % 1016,6 hPa 0,0 mm 0,0 km/h (0 Bft) O-NO 78 ° 1 min 0,000 mm 3,9 UV-I 575 W/m² 15,4 °C 24,2 °C 0,0 km/h (0 Bft)
06.07.2017 09:39 24,4 °C 24,4 °C 57 % 1016,6 hPa 0,0 mm 0,3 km/h (0 Bft) O-NO 78 ° 1 min 0,000 mm 3,9 UV-I 580 W/m² 15,3 °C 24,4 °C 1,6 km/h (1 Bft)
06.07.2017 09:40 24,7 °C 24,7 °C 58 % 1016,6 hPa 0,0 mm 0,5 km/h (0 Bft) O-NO 78 ° 1 min 0,000 mm 3,9 UV-I 584 W/m² 15,9 °C 24,7 °C 1,6 km/h (1 Bft)
06.07.2017 09:41 24,7 °C 24,7 °C 52 % 1016,6 hPa 0,0 mm 0,6 km/h (0 Bft) O-NO 78 ° 1 min 0,000 mm 4,0 UV-I 585 W/m² 14,2 °C 24,7 °C 1,6 km/h (1 Bft)
06.07.2017 09:42 24,8 °C 24,8 °C 52 % 1016,7 hPa 0,0 mm 0,0 km/h (0 Bft) O-NO 78 ° 1 min 0,000 mm 4,0 UV-I 589 W/m² 14,3 °C 24,8 °C 0,0 km/h (0 Bft)
06.07.2017 09:43 24,9 °C 24,9 °C 52 % 1016,7 hPa 0,0 mm 0,7 km/h (0 Bft) O-NO 78 ° 1 min 0,000 mm 4,0 UV-I 591 W/m² 14,4 °C 24,9 °C 1,6 km/h (1 Bft)
06.07.2017 09:44 25,1 °C 25,1 °C 56 % 1016,7 hPa 0,0 mm 0,6 km/h (0 Bft) O-NO 78 ° 1 min 0,000 mm 4,0 UV-I 591 W/m² 15,7 °C 25,1 °C 1,6 km/h (1 Bft)
06.07.2017 09:45 25,2 °C 25,2 °C 55 % 1016,6 hPa 0,0 mm 0,8 km/h (0 Bft) O-NO 78 ° 1 min 0,000 mm 4,0 UV-I 596 W/m² 15,5 °C 25,2 °C 1,6 km/h (1 Bft)
06.07.2017 09:46 25,2 °C 25,2 °C 61 % 1016,6 hPa 0,0 mm 2,4 km/h (1 Bft) N-NO 19 ° 1 min 0,000 mm 4,1 UV-I 598 W/m² 17,1 °C 25,2 °C 4,8 km/h (1 Bft)
06.07.2017 09:47 25,2 °C 25,2 °C 52 % 1016,6 hPa 0,0 mm 2,0 km/h (1 Bft) N-NO 19 ° 1 min 0,000 mm 4,1 UV-I 599 W/m² 14,6 °C 25,2 °C 4,8 km/h (1 Bft)
06.07.2017 09:48 25,2 °C 25,2 °C 52 % 1016,6 hPa 0,0 mm 0,1 km/h (0 Bft) N-NO 19 ° 1 min 0,000 mm 4,1 UV-I 603 W/m² 14,6 °C 25,2 °C 1,6 km/h (1 Bft)
06.07.2017 09:49 25,2 °C 25,2 °C 53 % 1016,6 hPa 0,0 mm 3,1 km/h (1 Bft) W-NW 302 ° 1 min 0,000 mm 4,1 UV-I 603 W/m² 14,9 °C 25,2 °C 6,4 km/h (2 Bft)
06.07.2017 09:50 25,4 °C 25,4 °C 56 % 1016,6 hPa 0,0 mm 2,7 km/h (1 Bft) W-NW 302 ° 1 min 0,000 mm 4,2 UV-I 605 W/m² 16,0 °C 25,4 °C 4,8 km/h (1 Bft)
06.07.2017 09:51 25,5 °C 25,5 °C 52 % 1016,6 hPa 0,0 mm 1,3 km/h (1 Bft) W-NW 302 ° 1 min 0,000 mm 4,2 UV-I 608 W/m² 14,9 °C 25,5 °C 3,2 km/h (1 Bft)
06.07.2017 09:52 25,5 °C 25,6 °C 54 % 1016,6 hPa 0,0 mm 3,8 km/h (1 Bft) N 5 ° 1 min 0,000 mm 4,2 UV-I 610 W/m² 15,5 °C 25,5 °C 6,4 km/h (2 Bft)
06.07.2017 09:53 25,6 °C 25,6 °C 53 % 1016,6 hPa 0,0 mm 3,6 km/h (1 Bft) N-NW 331 ° 1 min 0,000 mm 4,2 UV-I 612 W/m² 15,3 °C 25,6 °C 6,4 km/h (2 Bft)
06.07.2017 09:54 25,6 °C 25,6 °C 51 % 1016,6 hPa 0,0 mm 1,0 km/h (0 Bft) N-NW 331 ° 1 min 0,000 mm 4,3 UV-I 613 W/m² 14,7 °C 25,6 °C 3,2 km/h (1 Bft)
06.07.2017 09:55 25,6 °C 25,6 °C 50 % 1016,6 hPa 0,0 mm 2,1 km/h (1 Bft) N-NW 331 ° 1 min 0,000 mm 4,3 UV-I 617 W/m² 14,4 °C 25,6 °C 3,2 km/h (1 Bft)
06.07.2017 09:56 25,6 °C 25,6 °C 49 % 1016,7 hPa 0,0 mm 2,6 km/h (1 Bft) NW 316 ° 1 min 0,000 mm 4,3 UV-I 622 W/m² 14,1 °C 25,6 °C 6,4 km/h (2 Bft)
06.07.2017 09:57 25,5 °C 25,6 °C 52 % 1016,6 hPa 0,0 mm 5,1 km/h (1 Bft) W-NW 294 ° 1 min 0,000 mm 4,3 UV-I 624 W/m² 14,9 °C 25,5 °C 8,0 km/h (2 Bft)
06.07.2017 09:58 25,5 °C 25,5 °C 50 % 1016,7 hPa 0,0 mm 6,1 km/h (2 Bft) W-NW 286 ° 1 min 0,000 mm 4,4 UV-I 628 W/m² 14,3 °C 25,5 °C 9,7 km/h (2 Bft)
06.07.2017 09:59 25,5 °C 25,6 °C 49 % 1016,6 hPa 0,0 mm 2,7 km/h (1 Bft) W-NW 286 ° 1 min 0,000 mm 4,4 UV-I 629 W/m² 14,0 °C 25,5 °C 6,4 km/h (2 Bft)
06.07.2017 10:00 25,5 °C 25,6 °C 49 % 1016,6 hPa 0,0 mm 0,0 km/h (0 Bft) W-NW 286 ° 1 min 0,000 mm 4,4 UV-I 631 W/m² 14,0 °C 25,5 °C 0,0 km/h (0 Bft)
06.07.2017 10:01 25,4 °C 25,5 °C 53 % 1016,6 hPa 0,0 mm 0,7 km/h (0 Bft) W-NW 286 ° 1 min 0,356 mm 4,4 UV-I 633 W/m² 15,1 °C 25,4 °C 1,6 km/h (1 Bft)
06.07.2017 10:02 25,5 °C 25,5 °C 54 % 1016,6 hPa 0,0 mm 2,5 km/h (1 Bft) NW 307 ° 1 min 0,000 mm 4,5 UV-I 635 W/m² 15,5 °C 25,5 °C 6,4 km/h (2 Bft)
06.07.2017 10:03 25,6 °C 25,6 °C 53 % 1016,6 hPa 0,0 mm 6,7 km/h (2 Bft) NW 305 ° 1 min 0,000 mm 4,5 UV-I 638 W/m² 15,3 °C 25,6 °C 8,0 km/h (2 Bft)
06.07.2017 10:04 25,7 °C 25,7 °C 50 % 1016,7 hPa 0,0 mm 1,3 km/h (1 Bft) NW 305 ° 1 min 0,000 mm 4,5 UV-I 640 W/m² 14,5 °C 25,7 °C 3,2 km/h (1 Bft)
06.07.2017 10:05 25,8 °C 25,8 °C 51 % 1016,7 hPa 0,0 mm 2,5 km/h (1 Bft) NW 309 ° 1 min 0,000 mm 4,5 UV-I 642 W/m² 14,9 °C 25,8 °C 4,8 km/h (1 Bft)
06.07.2017 10:06 25,8 °C 25,8 °C 47 % 1016,7 hPa 0,0 mm 0,9 km/h (0 Bft) NW 309 ° 1 min 0,000 mm 4,6 UV-I 643 W/m² 13,6 °C 25,8 °C 3,2 km/h (1 Bft)
06.07.2017 10:07 25,6 °C 25,8 °C 47 % 1016,6 hPa 0,0 mm 0,5 km/h (0 Bft) NW 309 ° 1 min 0,000 mm 4,6 UV-I 645 W/m² 13,4 °C 25,6 °C 1,6 km/h (1 Bft)
06.07.2017 10:08 25,5 °C 25,6 °C 47 % 1016,6 hPa 0,0 mm 2,9 km/h (1 Bft) W-NW 295 ° 1 min 0,000 mm 4,6 UV-I 650 W/m² 13,3 °C 25,5 °C 4,8 km/h (1 Bft)
06.07.2017 10:09 25,5 °C 25,5 °C 50 % 1016,6 hPa 0,0 mm 2,7 km/h (1 Bft) NW 304 ° 1 min 0,000 mm 4,6 UV-I 650 W/m² 14,3 °C 25,5 °C 4,8 km/h (1 Bft)
06.07.2017 10:10 25,6 °C 25,6 °C 53 % 1016,6 hPa 0,0 mm 5,8 km/h (2 Bft) NW 313 ° 1 min 0,000 mm 4,7 UV-I 652 W/m² 15,3 °C 25,6 °C 9,7 km/h (2 Bft)
06.07.2017 10:11 25,8 °C 25,8 °C 55 % 1016,6 hPa 0,0 mm 5,1 km/h (1 Bft) NW 325 ° 1 min 0,000 mm 4,7 UV-I 654 W/m² 16,1 °C 25,8 °C 6,4 km/h (2 Bft)
06.07.2017 10:12 25,8 °C 25,8 °C 54 % 1016,6 hPa 0,0 mm 4,1 km/h (1 Bft) NW 314 ° 1 min 0,000 mm 4,7 UV-I 656 W/m² 15,8 °C 25,8 °C 6,4 km/h (2 Bft)
06.07.2017 10:13 25,9 °C 25,9 °C 56 % 1016,6 hPa 0,0 mm 3,7 km/h (1 Bft) N-NW 341 ° 1 min 0,000 mm 4,7 UV-I 657 W/m² 16,4 °C 25,9 °C 6,4 km/h (2 Bft)
06.07.2017 10:14 25,9 °C 25,9 °C 53 % 1016,6 hPa 0,0 mm 4,9 km/h (1 Bft) N-NW 340 ° 1 min 0,000 mm 4,7 UV-I 661 W/m² 15,6 °C 25,9 °C 6,4 km/h (2 Bft)
06.07.2017 10:15 25,9 °C 25,9 °C 52 % 1016,6 hPa 0,0 mm 6,8 km/h (2 Bft) NW 319 ° 1 min 0,000 mm 4,8 UV-I 663 W/m² 15,3 °C 25,9 °C 9,7 km/h (2 Bft)
06.07.2017 10:16 25,9 °C 25,9 °C 53 % 1016,6 hPa 0,0 mm 4,7 km/h (1 Bft) NW 323 ° 1 min 0,000 mm 4,8 UV-I 664 W/m² 15,6 °C 25,9 °C 6,4 km/h (2 Bft)
06.07.2017 10:17 26,0 °C 26,0 °C 52 % 1016,7 hPa 0,0 mm 2,8 km/h (1 Bft) NW 323 ° 1 min 0,000 mm 4,8 UV-I 666 W/m² 15,4 °C 26,0 °C 4,8 km/h (1 Bft)
06.07.2017 10:18 26,0 °C 26,1 °C 50 % 1016,6 hPa 0,0 mm 2,3 km/h (1 Bft) NW 323 ° 1 min 0,000 mm 4,8 UV-I 668 W/m² 14,8 °C 26,0 °C 4,8 km/h (1 Bft)
06.07.2017 10:19 25,9 °C 26,0 °C 49 % 1016,6 hPa 0,0 mm 2,4 km/h (1 Bft) NW 323 ° 1 min 0,000 mm 4,9 UV-I 671 W/m² 14,4 °C 25,9 °C 3,2 km/h (1 Bft)
06.07.2017 10:20 25,9 °C 25,9 °C 51 % 1016,6 hPa 0,0 mm 7,9 km/h (2 Bft) N-NW 327 ° 1 min 0,000 mm 4,9 UV-I 673 W/m² 15,0 °C 25,9 °C 12,9 km/h (3 Bft)
06.07.2017 10:21 25,8 °C 25,9 °C 51 % 1016,6 hPa 0,0 mm 5,1 km/h (1 Bft) W-NW 302 ° 1 min 0,000 mm 4,9 UV-I 677 W/m² 14,9 °C 25,8 °C 8,0 km/h (2 Bft)
06.07.2017 10:22 25,8 °C 25,8 °C 54 % 1016,6 hPa 0,0 mm 4,1 km/h (1 Bft) NW 313 ° 1 min 0,000 mm 4,9 UV-I 677 W/m² 15,8 °C 25,8 °C 8,0 km/h (2 Bft)
06.07.2017 10:23 25,8 °C 25,8 °C 52 % 1016,6 hPa 0,0 mm 3,9 km/h (1 Bft) N-NW 327 ° 1 min 0,000 mm 5,0 UV-I 680 W/m² 15,2 °C 25,8 °C 6,4 km/h (2 Bft)
06.07.2017 10:24 25,9 °C 25,9 °C 52 % 1016,6 hPa 0,0 mm 3,9 km/h (1 Bft) N 5 ° 1 min 0,000 mm 5,0 UV-I 680 W/m² 15,3 °C 25,9 °C 6,4 km/h (2 Bft)
06.07.2017 10:25 26,0 °C 26,0 °C 52 % 1016,6 hPa 0,0 mm 3,2 km/h (1 Bft) NW 304 ° 1 min 0,000 mm 5,0 UV-I 682 W/m² 15,4 °C 26,0 °C 6,4 km/h (2 Bft)
06.07.2017 10:26 26,1 °C 26,1 °C 53 % 1016,6 hPa 0,0 mm 1,5 km/h (1 Bft) W-NW 302 ° 1 min 0,000 mm 5,0 UV-I 686 W/m² 15,8 °C 26,1 °C 3,2 km/h (1 Bft)
06.07.2017 10:27 26,1 °C 26,1 °C 49 % 1016,7 hPa 0,0 mm 5,1 km/h (1 Bft) NW 312 ° 1 min 0,000 mm 5,1 UV-I 687 W/m² 14,5 °C 26,1 °C 11,3 km/h (2 Bft)
06.07.2017 10:28 26,0 °C 26,1 °C 49 % 1016,7 hPa 0,0 mm 7,1 km/h (2 Bft) N 355 ° 1 min 0,000 mm 5,1 UV-I 691 W/m² 14,4 °C 26,0 °C 9,7 km/h (2 Bft)
06.07.2017 10:29 26,1 °C 26,1 °C 48 % 1016,7 hPa 0,0 mm 3,2 km/h (1 Bft) N 355 ° 1 min 0,000 mm 5,1 UV-I 693 W/m² 14,2 °C 26,1 °C 4,8 km/h (1 Bft)
06.07.2017 10:30 26,1 °C 26,1 °C 48 % 1016,6 hPa 0,0 mm 3,0 km/h (1 Bft) N-NW 344 ° 1 min 0,000 mm 5,1 UV-I 694 W/m² 14,2 °C 26,1 °C 4,8 km/h (1 Bft)
06.07.2017 10:31 26,1 °C 26,1 °C 53 % 1016,6 hPa 0,0 mm 0,9 km/h (0 Bft) N-NW 346 ° 1 min 0,000 mm 5,1 UV-I 696 W/m² 15,8 °C 26,1 °C 3,2 km/h (1 Bft)
06.07.2017 10:32 26,1 °C 26,1 °C 46 % 1016,6 hPa 0,0 mm 2,5 km/h (1 Bft) NO 55 ° 1 min 0,000 mm 5,2 UV-I 700 W/m² 13,6 °C 26,1 °C 4,8 km/h (1 Bft)
06.07.2017 10:33 25,9 °C 26,1 °C 49 % 1016,6 hPa 0,0 mm 3,7 km/h (1 Bft) O-SO 115 ° 1 min 0,000 mm 5,2 UV-I 701 W/m² 14,4 °C 25,9 °C 6,4 km/h (2 Bft)
06.07.2017 10:34 25,8 °C 25,9 °C 51 % 1016,5 hPa 0,0 mm 5,8 km/h (2 Bft) W-SW 257 ° 1 min 0,000 mm 5,2 UV-I 705 W/m² 14,9 °C 25,8 °C 8,0 km/h (2 Bft)
06.07.2017 10:35 25,9 °C 25,9 °C 50 % 1016,6 hPa 0,0 mm 3,6 km/h (1 Bft) S-SW 211 ° 1 min 0,000 mm 5,2 UV-I 707 W/m² 14,7 °C 25,9 °C 8,0 km/h (2 Bft)
06.07.2017 10:36 25,9 °C 25,9 °C 51 % 1016,6 hPa 0,0 mm 0,5 km/h (0 Bft) SW 224 ° 1 min 0,000 mm 5,3 UV-I 708 W/m² 15,0 °C 25,9 °C 1,6 km/h (1 Bft)
06.07.2017 10:37 25,9 °C 25,9 °C 48 % 1016,6 hPa 0,0 mm 5,7 km/h (1 Bft) W-NW 284 ° 1 min 0,000 mm 5,3 UV-I 710 W/m² 14,0 °C 25,9 °C 8,0 km/h (2 Bft)
06.07.2017 10:38 26,1 °C 26,1 °C 49 % 1016,6 hPa 0,0 mm 6,2 km/h (2 Bft) W-NW 292 ° 1 min 0,000 mm 5,3 UV-I 712 W/m² 14,5 °C 26,1 °C 11,3 km/h (2 Bft)
06.07.2017 10:39 26,1 °C 26,1 °C 48 % 1016,6 hPa 0,0 mm 5,9 km/h (2 Bft) NW 318 ° 1 min 0,000 mm 5,3 UV-I 714 W/m² 14,2 °C 26,1 °C 8,0 km/h (2 Bft)
06.07.2017 10:40 26,2 °C 26,2 °C 48 % 1016,6 hPa 0,0 mm 6,0 km/h (2 Bft) W 277 ° 1 min 0,000 mm 5,3 UV-I 715 W/m² 14,3 °C 26,2 °C 8,0 km/h (2 Bft)
06.07.2017 10:41 26,3 °C 26,3 °C 49 % 1016,6 hPa 0,0 mm 4,8 km/h (1 Bft) W-NW 292 ° 1 min 0,000 mm 5,4 UV-I 717 W/m² 14,7 °C 26,3 °C 6,4 km/h (2 Bft)
06.07.2017 10:42 26,3 °C 26,3 °C 49 % 1016,6 hPa 0,0 mm 5,7 km/h (1 Bft) NW 315 ° 1 min 0,000 mm 5,4 UV-I 719 W/m² 14,7 °C 26,3 °C 11,3 km/h (2 Bft)
06.07.2017 10:43 26,3 °C 26,3 °C 49 % 1016,6 hPa 0,0 mm 5,9 km/h (2 Bft) NW 312 ° 1 min 0,000 mm 5,4 UV-I 722 W/m² 14,7 °C 26,3 °C 8,0 km/h (2 Bft)
06.07.2017 10:44 26,4 °C 26,4 °C 52 % 1016,6 hPa 0,0 mm 8,5 km/h (2 Bft) W-NW 298 ° 1 min 0,000 mm 5,5 UV-I 724 W/m² 15,7 °C 26,4 °C 11,3 km/h (2 Bft)
06.07.2017 10:45 26,4 °C 26,4 °C 47 % 1016,6 hPa 0,0 mm 7,4 km/h (2 Bft) W-NW 300 ° 1 min 0,000 mm 5,5 UV-I 726 W/m² 14,2 °C 26,4 °C 9,7 km/h (2 Bft)
06.07.2017 10:46 26,4 °C 26,4 °C 46 % 1016,6 hPa 0,0 mm 5,6 km/h (1 Bft) NW 321 ° 1 min 0,000 mm 5,5 UV-I 728 W/m² 13,8 °C 26,4 °C 6,4 km/h (2 Bft)
06.07.2017 10:47 26,3 °C 26,4 °C 48 % 1016,6 hPa 0,0 mm 4,4 km/h (1 Bft) NW 307 ° 1 min 0,000 mm 5,5 UV-I 729 W/m² 14,4 °C 26,3 °C 6,4 km/h (2 Bft)
06.07.2017 10:48 26,3 °C 26,3 °C 50 % 1016,6 hPa 0,0 mm 5,1 km/h (1 Bft) W 263 ° 1 min 0,000 mm 5,6 UV-I 731 W/m² 15,0 °C 26,3 °C 9,7 km/h (2 Bft)
06.07.2017 10:49 26,3 °C 26,3 °C 46 % 1016,6 hPa 0,0 mm 4,7 km/h (1 Bft) NW 317 ° 1 min 0,000 mm 5,6 UV-I 735 W/m² 13,7 °C 26,3 °C 6,4 km/h (2 Bft)
06.07.2017 10:50 26,3 °C 26,3 °C 52 % 1016,5 hPa 0,0 mm 6,6 km/h (2 Bft) N-NW 333 ° 1 min 0,000 mm 5,6 UV-I 737 W/m² 15,6 °C 26,3 °C 8,0 km/h (2 Bft)
06.07.2017 10:51 26,3 °C 26,4 °C 51 % 1016,6 hPa 0,0 mm 4,3 km/h (1 Bft) W-NW 294 ° 1 min 0,000 mm 5,6 UV-I 737 W/m² 15,3 °C 26,3 °C 8,0 km/h (2 Bft)
06.07.2017 10:52 26,3 °C 26,3 °C 47 % 1016,6 hPa 0,0 mm 3,9 km/h (1 Bft) W-NW 296 ° 1 min 0,000 mm 5,6 UV-I 738 W/m² 14,1 °C 26,3 °C 4,8 km/h (1 Bft)
06.07.2017 10:53 26,3 °C 26,3 °C 49 % 1016,5 hPa 0,0 mm 4,1 km/h (1 Bft) W-NW 298 ° 1 min 0,000 mm 5,6 UV-I 740 W/m² 14,7 °C 26,3 °C 8,0 km/h (2 Bft)
06.07.2017 10:54 26,3 °C 26,3 °C 47 % 1016,5 hPa 0,0 mm 5,4 km/h (1 Bft) W-NW 290 ° 1 min 0,000 mm 5,7 UV-I 742 W/m² 14,1 °C 26,3 °C 11,3 km/h (2 Bft)
06.07.2017 10:55 26,3 °C 26,3 °C 52 % 1016,5 hPa 0,0 mm 2,6 km/h (1 Bft) W 273 ° 1 min 0,000 mm 5,7 UV-I 747 W/m² 15,6 °C 26,3 °C 4,8 km/h (1 Bft)
06.07.2017 10:56 26,3 °C 26,3 °C 48 % 1016,5 hPa 0,0 mm 1,0 km/h (0 Bft) W 273 ° 1 min 0,000 mm 5,7 UV-I 747 W/m² 14,4 °C 26,3 °C 3,2 km/h (1 Bft)
06.07.2017 10:57 26,4 °C 26,4 °C 52 % 1016,5 hPa 0,0 mm 2,9 km/h (1 Bft) NW 305 ° 1 min 0,000 mm 5,8 UV-I 749 W/m² 15,7 °C 26,4 °C 4,8 km/h (1 Bft)
06.07.2017 10:58 26,5 °C 26,5 °C 51 % 1016,5 hPa 0,0 mm 2,0 km/h (1 Bft) W-NW 294 ° 1 min 0,000 mm 5,8 UV-I 751 W/m² 15,5 °C 26,5 °C 4,8 km/h (1 Bft)
06.07.2017 10:59 26,5 °C 26,5 °C 49 % 1016,5 hPa 0,0 mm 4,7 km/h (1 Bft) W-NW 288 ° 1 min 0,000 mm 5,8 UV-I 752 W/m² 14,9 °C 26,5 °C 6,4 km/h (2 Bft)
06.07.2017 11:00 26,6 °C 26,6 °C 52 % 1016,5 hPa 0,0 mm 5,4 km/h (1 Bft) NW 316 ° 1 min 0,482 mm 5,8 UV-I 754 W/m² 15,9 °C 26,6 °C 8,0 km/h (2 Bft)
06.07.2017 11:01 26,6 °C 26,6 °C 48 % 1016,6 hPa 0,0 mm 4,8 km/h (1 Bft) W-NW 291 ° 1 min 0,000 mm 5,8 UV-I 758 W/m² 14,7 °C 26,6 °C 8,0 km/h (2 Bft)
06.07.2017 11:02 26,6 °C 26,6 °C 47 % 1016,6 hPa 0,0 mm 3,8 km/h (1 Bft) W-NW 296 ° 1 min 0,000 mm 5,9 UV-I 759 W/m² 14,3 °C 26,6 °C 6,4 km/h (2 Bft)
06.07.2017 11:03 26,5 °C 26,6 °C 49 % 1016,6 hPa 0,0 mm 2,1 km/h (1 Bft) W-NW 299 ° 1 min 0,000 mm 5,9 UV-I 761 W/m² 14,9 °C 26,5 °C 4,8 km/h (1 Bft)
06.07.2017 11:04 26,5 °C 26,6 °C 48 % 1016,5 hPa 0,0 mm 3,3 km/h (1 Bft) W 259 ° 1 min 0,000 mm 5,9 UV-I 763 W/m² 14,6 °C 26,5 °C 4,8 km/h (1 Bft)
06.07.2017 11:05 26,5 °C 26,5 °C 46 % 1016,6 hPa 0,0 mm 3,6 km/h (1 Bft) W-NW 285 ° 1 min 0,000 mm 5,9 UV-I 766 W/m² 13,9 °C 26,5 °C 6,4 km/h (2 Bft)
06.07.2017 11:06 26,6 °C 26,6 °C 50 % 1016,6 hPa 0,0 mm 8,4 km/h (2 Bft) W 260 ° 1 min 0,000 mm 5,9 UV-I 766 W/m² 15,3 °C 26,6 °C 11,3 km/h (2 Bft)
06.07.2017 11:07 26,5 °C 26,6 °C 48 % 1016,6 hPa 0,0 mm 10,9 km/h (2 Bft) W-SW 258 ° 1 min 0,000 mm 6,0 UV-I 770 W/m² 14,6 °C 26,5 °C 12,9 km/h (3 Bft)
06.07.2017 11:08 26,4 °C 26,5 °C 46 % 1016,6 hPa 0,0 mm 10,5 km/h (2 Bft) W-NW 302 ° 1 min 0,000 mm 6,0 UV-I 770 W/m² 13,8 °C 26,4 °C 14,5 km/h (3 Bft)
06.07.2017 11:09 26,4 °C 26,4 °C 50 % 1016,6 hPa 0,0 mm 7,4 km/h (2 Bft) W-NW 285 ° 1 min 0,000 mm 6,0 UV-I 773 W/m² 15,1 °C 26,4 °C 11,3 km/h (2 Bft)
06.07.2017 11:10 26,4 °C 26,4 °C 54 % 1016,6 hPa 0,0 mm 4,5 km/h (1 Bft) NW 307 ° 1 min 0,000 mm 6,1 UV-I 775 W/m² 16,3 °C 26,4 °C 6,4 km/h (2 Bft)
06.07.2017 11:11 26,5 °C 26,5 °C 51 % 1016,6 hPa 0,0 mm 5,2 km/h (1 Bft) SW 224 ° 1 min 0,000 mm 6,1 UV-I 777 W/m² 15,5 °C 26,5 °C 6,4 km/h (2 Bft)
06.07.2017 11:12 26,6 °C 26,6 °C 51 % 1016,6 hPa 0,0 mm 7,5 km/h (2 Bft) W 276 ° 1 min 0,000 mm 6,1 UV-I 777 W/m² 15,6 °C 26,6 °C 12,9 km/h (3 Bft)
06.07.2017 11:13 26,6 °C 26,6 °C 47 % 1016,5 hPa 0,0 mm 7,4 km/h (2 Bft) W-SW 255 ° 1 min 0,000 mm 6,1 UV-I 780 W/m² 14,3 °C 26,6 °C 12,9 km/h (3 Bft)
06.07.2017 11:14 26,6 °C 26,6 °C 50 % 1016,5 hPa 0,0 mm 6,7 km/h (2 Bft) W 262 ° 1 min 0,000 mm 6,1 UV-I 780 W/m² 15,3 °C 26,6 °C 11,3 km/h (2 Bft)
06.07.2017 11:15 26,6 °C 26,6 °C 50 % 1016,6 hPa 0,0 mm 6,6 km/h (2 Bft) W-NW 298 ° 1 min 0,000 mm 6,2 UV-I 782 W/m² 15,3 °C 26,6 °C 11,3 km/h (2 Bft)
06.07.2017 11:16 26,7 °C 26,7 °C 52 % 1016,5 hPa 0,0 mm 5,1 km/h (1 Bft) N-NW 335 ° 1 min 0,000 mm 6,2 UV-I 784 W/m² 16,0 °C 26,7 °C 8,0 km/h (2 Bft)
06.07.2017 11:17 26,8 °C 26,8 °C 51 % 1016,6 hPa 0,0 mm 7,6 km/h (2 Bft) NW 319 ° 1 min 0,000 mm 6,2 UV-I 784 W/m² 15,8 °C 26,8 °C 12,9 km/h (3 Bft)
06.07.2017 11:18 26,8 °C 26,8 °C 47 % 1016,6 hPa 0,0 mm 2,8 km/h (1 Bft) NW 309 ° 1 min 0,000 mm 6,2 UV-I 788 W/m² 14,5 °C 26,8 °C 8,0 km/h (2 Bft)
06.07.2017 11:19 26,7 °C 26,8 °C 51 % 1016,5 hPa 0,0 mm 8,0 km/h (2 Bft) NW 306 ° 1 min 0,000 mm 6,2 UV-I 788 W/m² 15,7 °C 26,7 °C 12,9 km/h (3 Bft)
06.07.2017 11:20 26,6 °C 26,7 °C 46 % 1016,6 hPa 0,0 mm 7,1 km/h (2 Bft) N-NW 333 ° 1 min 0,000 mm 6,2 UV-I 789 W/m² 14,0 °C 26,6 °C 8,0 km/h (2 Bft)
06.07.2017 11:21 26,6 °C 26,6 °C 47 % 1016,6 hPa 0,0 mm 6,3 km/h (2 Bft) NW 315 ° 1 min 0,000 mm 6,3 UV-I 789 W/m² 14,3 °C 26,6 °C 9,7 km/h (2 Bft)
06.07.2017 11:22 26,6 °C 26,6 °C 49 % 1016,6 hPa 0,0 mm 6,4 km/h (2 Bft) N-NW 333 ° 1 min 0,000 mm 6,3 UV-I 791 W/m² 15,0 °C 26,6 °C 8,0 km/h (2 Bft)
06.07.2017 11:23 26,6 °C 26,6 °C 52 % 1016,6 hPa 0,0 mm 6,7 km/h (2 Bft) W-NW 302 ° 1 min 0,000 mm 6,3 UV-I 795 W/m² 15,9 °C 26,6 °C 9,7 km/h (2 Bft)
06.07.2017 11:24 26,7 °C 26,7 °C 52 % 1016,6 hPa 0,0 mm 8,3 km/h (2 Bft) W 265 ° 1 min 0,000 mm 6,3 UV-I 796 W/m² 16,0 °C 26,7 °C 9,7 km/h (2 Bft)
06.07.2017 11:25 26,7 °C 26,7 °C 48 % 1016,5 hPa 0,0 mm 3,9 km/h (1 Bft) W-NW 298 ° 1 min 0,000 mm 6,4 UV-I 798 W/m² 14,8 °C 26,7 °C 4,8 km/h (1 Bft)
06.07.2017 11:26 26,7 °C 26,7 °C 52 % 1016,5 hPa 0,0 mm 3,6 km/h (1 Bft) NW 317 ° 1 min 0,000 mm 6,4 UV-I 798 W/m² 16,0 °C 26,7 °C 4,8 km/h (1 Bft)
06.07.2017 11:27 26,7 °C 26,7 °C 54 % 1016,5 hPa 0,0 mm 3,1 km/h (1 Bft) NW 306 ° 1 min 0,000 mm 6,4 UV-I 800 W/m² 16,6 °C 26,7 °C 4,8 km/h (1 Bft)
06.07.2017 11:28 26,7 °C 26,7 °C 52 % 1016,5 hPa 0,0 mm 7,0 km/h (2 Bft) W-NW 286 ° 1 min 0,000 mm 6,4 UV-I 802 W/m² 16,0 °C 26,7 °C 11,3 km/h (2 Bft)
06.07.2017 11:29 26,7 °C 26,7 °C 52 % 1016,5 hPa 0,0 mm 6,2 km/h (2 Bft) NW 325 ° 1 min 0,000 mm 6,4 UV-I 803 W/m² 16,0 °C 26,7 °C 8,0 km/h (2 Bft)
06.07.2017 11:30 26,7 °C 26,7 °C 54 % 1016,5 hPa 0,0 mm 4,8 km/h (1 Bft) N-NW 341 ° 1 min 0,000 mm 6,4 UV-I 805 W/m² 16,6 °C 26,7 °C 9,7 km/h (2 Bft)
06.07.2017 11:31 26,7 °C 26,8 °C 49 % 1016,5 hPa 0,0 mm 3,0 km/h (1 Bft) N-NW 345 ° 1 min 0,000 mm 6,5 UV-I 809 W/m² 15,1 °C 26,7 °C 6,4 km/h (2 Bft)
06.07.2017 11:32 26,7 °C 26,7 °C 47 % 1016,5 hPa 0,0 mm 11,3 km/h (2 Bft) NW 317 ° 1 min 0,000 mm 6,5 UV-I 809 W/m² 14,4 °C 26,7 °C 19,3 km/h (3 Bft)
06.07.2017 11:33 26,7 °C 26,7 °C 49 % 1016,5 hPa 0,0 mm 9,8 km/h (2 Bft) W-NW 291 ° 1 min 0,000 mm 6,5 UV-I 809 W/m² 15,1 °C 26,7 °C 17,7 km/h (3 Bft)
06.07.2017 11:34 26,7 °C 26,7 °C 52 % 1016,5 hPa 0,0 mm 6,2 km/h (2 Bft) W-NW 290 ° 1 min 0,000 mm 6,5 UV-I 810 W/m² 16,0 °C 26,7 °C 16,1 km/h (3 Bft)
06.07.2017 11:35 26,8 °C 26,8 °C 50 % 1016,5 hPa 0,0 mm 7,6 km/h (2 Bft) W-NW 289 ° 1 min 0,000 mm 6,5 UV-I 810 W/m² 15,5 °C 26,8 °C 11,3 km/h (2 Bft)
06.07.2017 11:36 26,7 °C 26,8 °C 46 % 1016,5 hPa 0,0 mm 4,2 km/h (1 Bft) NW 311 ° 1 min 0,000 mm 6,5 UV-I 816 W/m² 14,1 °C 26,7 °C 6,4 km/h (2 Bft)
06.07.2017 11:37 26,7 °C 26,7 °C 48 % 1016,5 hPa 0,0 mm 5,9 km/h (2 Bft) W-NW 292 ° 1 min 0,000 mm 6,6 UV-I 816 W/m² 14,8 °C 26,7 °C 11,3 km/h (2 Bft)
06.07.2017 11:38 26,7 °C 26,7 °C 47 % 1016,5 hPa 0,0 mm 5,8 km/h (2 Bft) W-NW 296 ° 1 min 0,000 mm 6,6 UV-I 817 W/m² 14,4 °C 26,7 °C 8,0 km/h (2 Bft)
06.07.2017 11:39 26,7 °C 26,7 °C 48 % 1016,5 hPa 0,0 mm 3,7 km/h (1 Bft) NW 310 ° 1 min 0,000 mm 6,6 UV-I 821 W/m² 14,8 °C 26,7 °C 6,4 km/h (2 Bft)
06.07.2017 11:40 26,7 °C 26,7 °C 46 % 1016,5 hPa 0,0 mm 5,0 km/h (1 Bft) NW 309 ° 1 min 0,000 mm 6,6 UV-I 819 W/m² 14,1 °C 26,7 °C 8,0 km/h (2 Bft)
06.07.2017 11:41 26,6 °C 26,7 °C 48 % 1016,5 hPa 0,0 mm 2,5 km/h (1 Bft) NW 319 ° 1 min 0,000 mm 6,6 UV-I 821 W/m² 14,7 °C 26,6 °C 6,4 km/h (2 Bft)
06.07.2017 11:42 26,6 °C 26,6 °C 46 % 1016,5 hPa 0,0 mm 3,2 km/h (1 Bft) NW 309 ° 1 min 0,000 mm 6,6 UV-I 823 W/m² 14,0 °C 26,6 °C 6,4 km/h (2 Bft)
06.07.2017 11:43 26,7 °C 26,7 °C 49 % 1016,5 hPa 0,0 mm 5,8 km/h (2 Bft) N 355 ° 1 min 0,000 mm 6,7 UV-I 824 W/m² 15,1 °C 26,7 °C 9,7 km/h (2 Bft)
06.07.2017 11:44 26,7 °C 26,7 °C 50 % 1016,4 hPa 0,0 mm 8,8 km/h (2 Bft) NW 309 ° 1 min 0,000 mm 6,6 UV-I 824 W/m² 15,4 °C 26,7 °C 16,1 km/h (3 Bft)
06.07.2017 11:45 26,8 °C 26,8 °C 49 % 1016,4 hPa 0,0 mm 6,4 km/h (2 Bft) N-NO 15 ° 1 min 0,000 mm 6,7 UV-I 826 W/m² 15,2 °C 26,8 °C 14,5 km/h (3 Bft)
06.07.2017 11:46 26,9 °C 26,9 °C 51 % 1016,4 hPa 0,0 mm 4,8 km/h (1 Bft) N 5 ° 1 min 0,000 mm 6,7 UV-I 826 W/m² 15,9 °C 26,9 °C 8,0 km/h (2 Bft)
06.07.2017 11:47 26,9 °C 27,0 °C 48 % 1016,4 hPa 0,0 mm 7,4 km/h (2 Bft) N-NO 25 ° 1 min 0,000 mm 6,7 UV-I 828 W/m² 14,9 °C 26,9 °C 9,7 km/h (2 Bft)
06.07.2017 11:48 26,9 °C 26,9 °C 44 % 1016,4 hPa 0,0 mm 4,6 km/h (1 Bft) N-NW 335 ° 1 min 0,000 mm 6,7 UV-I 831 W/m² 13,6 °C 26,9 °C 8,0 km/h (2 Bft)
06.07.2017 11:49 26,9 °C 26,9 °C 50 % 1016,4 hPa 0,0 mm 5,2 km/h (1 Bft) W-NW 298 ° 1 min 0,000 mm 6,8 UV-I 831 W/m² 15,6 °C 26,9 °C 9,7 km/h (2 Bft)
06.07.2017 11:50 26,9 °C 26,9 °C 48 % 1016,4 hPa 0,0 mm 9,1 km/h (2 Bft) W 275 ° 1 min 0,000 mm 6,8 UV-I 833 W/m² 14,9 °C 26,9 °C 16,1 km/h (3 Bft)
06.07.2017 11:51 26,9 °C 26,9 °C 44 % 1016,4 hPa 0,0 mm 8,0 km/h (2 Bft) NW 310 ° 1 min 0,000 mm 6,8 UV-I 833 W/m² 13,6 °C 26,9 °C 12,9 km/h (3 Bft)
06.07.2017 11:52 26,8 °C 26,9 °C 46 % 1016,4 hPa 0,0 mm 2,4 km/h (1 Bft) N-NW 331 ° 1 min 0,000 mm 6,8 UV-I 835 W/m² 14,2 °C 26,8 °C 4,8 km/h (1 Bft)
06.07.2017 11:53 26,8 °C 26,8 °C 50 % 1016,4 hPa 0,0 mm 2,1 km/h (1 Bft) W-NW 296 ° 1 min 0,000 mm 6,8 UV-I 835 W/m² 15,5 °C 26,8 °C 4,8 km/h (1 Bft)
06.07.2017 11:54 26,8 °C 26,8 °C 49 % 1016,4 hPa 0,0 mm 6,6 km/h (2 Bft) W 279 ° 1 min 0,000 mm 6,8 UV-I 838 W/m² 15,2 °C 26,8 °C 12,9 km/h (3 Bft)
06.07.2017 11:55 26,9 °C 26,9 °C 47 % 1016,4 hPa 0,0 mm 8,2 km/h (2 Bft) NW 309 ° 1 min 0,000 mm 6,8 UV-I 840 W/m² 14,6 °C 26,9 °C 12,9 km/h (3 Bft)
06.07.2017 11:56 26,9 °C 26,9 °C 49 % 1016,4 hPa 0,0 mm 6,0 km/h (2 Bft) NW 309 ° 1 min 0,000 mm 6,8 UV-I 840 W/m² 15,3 °C 26,9 °C 11,3 km/h (2 Bft)
06.07.2017 11:57 26,9 °C 26,9 °C 46 % 1016,4 hPa 0,0 mm 6,2 km/h (2 Bft) NW 306 ° 1 min 0,000 mm 6,9 UV-I 844 W/m² 14,3 °C 26,9 °C 12,9 km/h (3 Bft)
06.07.2017 11:58 26,8 °C 26,9 °C 46 % 1016,4 hPa 0,0 mm 5,5 km/h (1 Bft) W-NW 286 ° 1 min 0,000 mm 6,9 UV-I 844 W/m² 14,2 °C 26,8 °C 11,3 km/h (2 Bft)
06.07.2017 11:59 26,8 °C 26,8 °C 49 % 1016,4 hPa 0,0 mm 7,5 km/h (2 Bft) NW 316 ° 1 min 0,000 mm 6,9 UV-I 846 W/m² 15,2 °C 26,8 °C 9,7 km/h (2 Bft)
06.07.2017 12:00 26,9 °C 26,9 °C 48 % 1016,4 hPa 0,0 mm 10,1 km/h (2 Bft) W-NW 296 ° 1 min 0,559 mm 6,9 UV-I 846 W/m² 14,9 °C 26,9 °C 16,1 km/h (3 Bft)
06.07.2017 12:01 26,8 °C 26,9 °C 47 % 1016,4 hPa 0,0 mm 8,6 km/h (2 Bft) W 280 ° 1 min 0,000 mm 7,0 UV-I 849 W/m² 14,5 °C 26,8 °C 12,9 km/h (3 Bft)
06.07.2017 12:02 26,8 °C 26,8 °C 47 % 1016,4 hPa 0,0 mm 7,9 km/h (2 Bft) W-NW 290 ° 1 min 0,000 mm 7,0 UV-I 851 W/m² 14,5 °C 26,8 °C 12,9 km/h (3 Bft)
06.07.2017 12:03 26,8 °C 26,8 °C 45 % 1016,4 hPa 0,0 mm 12,7 km/h (3 Bft) W-NW 296 ° 1 min 0,000 mm 7,0 UV-I 849 W/m² 13,9 °C 26,8 °C 16,1 km/h (3 Bft)
06.07.2017 12:04 26,8 °C 26,8 °C 46 % 1016,4 hPa 0,0 mm 8,3 km/h (2 Bft) NW 322 ° 1 min 0,000 mm 7,0 UV-I 849 W/m² 14,2 °C 26,8 °C 14,5 km/h (3 Bft)
06.07.2017 12:05 26,8 °C 26,8 °C 47 % 1016,3 hPa 0,0 mm 2,2 km/h (1 Bft) N-NW 329 ° 1 min 0,000 mm 7,0 UV-I 853 W/m² 14,5 °C 26,8 °C 3,2 km/h (1 Bft)
06.07.2017 12:06 26,8 °C 26,8 °C 49 % 1016,3 hPa 0,0 mm 5,1 km/h (1 Bft) NW 319 ° 1 min 0,000 mm 7,0 UV-I 853 W/m² 15,2 °C 26,8 °C 8,0 km/h (2 Bft)
06.07.2017 12:07 26,9 °C 26,9 °C 51 % 1016,3 hPa 0,0 mm 5,7 km/h (1 Bft) N-NW 329 ° 1 min 0,000 mm 7,0 UV-I 854 W/m² 15,9 °C 26,9 °C 8,0 km/h (2 Bft)
06.07.2017 12:08 27,1 °C 27,1 °C 47 % 1016,4 hPa 0,0 mm 4,0 km/h (1 Bft) SW 226 ° 1 min 0,000 mm 7,0 UV-I 854 W/m² 14,8 °C 27,1 °C 6,4 km/h (2 Bft)
06.07.2017 12:09 27,0 °C 27,1 °C 48 % 1016,4 hPa 0,0 mm 7,0 km/h (2 Bft) NW 313 ° 1 min 0,000 mm 7,0 UV-I 854 W/m² 15,0 °C 27,0 °C 11,3 km/h (2 Bft)
06.07.2017 12:10 27,1 °C 27,1 °C 48 % 1016,4 hPa 0,0 mm 9,9 km/h (2 Bft) N 355 ° 1 min 0,000 mm 7,0 UV-I 856 W/m² 15,1 °C 27,1 °C 16,1 km/h (3 Bft)
06.07.2017 12:11 27,1 °C 27,1 °C 49 % 1016,4 hPa 0,0 mm 5,7 km/h (1 Bft) W-NW 289 ° 1 min 0,000 mm 7,0 UV-I 856 W/m² 15,4 °C 27,1 °C 8,0 km/h (2 Bft)
06.07.2017 12:12 27,1 °C 27,1 °C 47 % 1016,4 hPa 0,0 mm 9,7 km/h (2 Bft) W 270 ° 1 min 0,000 mm 7,1 UV-I 861 W/m² 14,8 °C 27,1 °C 12,9 km/h (3 Bft)
06.07.2017 12:13 27,1 °C 27,1 °C 48 % 1016,4 hPa 0,0 mm 6,7 km/h (2 Bft) N-NW 328 ° 1 min 0,000 mm 7,2 UV-I 863 W/m² 15,1 °C 27,1 °C 12,9 km/h (3 Bft)
06.07.2017 12:14 27,1 °C 27,1 °C 48 % 1016,4 hPa 0,0 mm 6,5 km/h (2 Bft) NW 325 ° 1 min 0,000 mm 7,2 UV-I 863 W/m² 15,1 °C 27,1 °C 8,0 km/h (2 Bft)
06.07.2017 12:15 27,1 °C 27,1 °C 50 % 1016,4 hPa 0,0 mm 4,4 km/h (1 Bft) NW 315 ° 1 min 0,000 mm 7,2 UV-I 865 W/m² 15,8 °C 27,1 °C 9,7 km/h (2 Bft)
06.07.2017 12:16 27,1 °C 27,1 °C 49 % 1016,4 hPa 0,0 mm 8,2 km/h (2 Bft) N-NW 340 ° 1 min 0,000 mm 7,2 UV-I 867 W/m² 15,4 °C 27,1 °C 14,5 km/h (3 Bft)
06.07.2017 12:17 27,1 °C 27,2 °C 46 % 1016,4 hPa 0,0 mm 5,2 km/h (1 Bft) N-NW 345 ° 1 min 0,000 mm 7,2 UV-I 868 W/m² 14,5 °C 27,1 °C 8,0 km/h (2 Bft)
06.07.2017 12:18 27,1 °C 27,1 °C 50 % 1016,4 hPa 0,0 mm 2,8 km/h (1 Bft) N-NW 334 ° 1 min 0,000 mm 7,2 UV-I 870 W/m² 15,8 °C 27,1 °C 4,8 km/h (1 Bft)
06.07.2017 12:19 27,1 °C 27,1 °C 46 % 1016,4 hPa 0,0 mm 4,9 km/h (1 Bft) NW 309 ° 1 min 0,000 mm 7,2 UV-I 870 W/m² 14,5 °C 27,1 °C 8,0 km/h (2 Bft)
06.07.2017 12:20 27,1 °C 27,1 °C 47 % 1016,4 hPa 0,0 mm 5,7 km/h (1 Bft) N-NO 18 ° 1 min 0,000 mm 7,2 UV-I 868 W/m² 14,8 °C 27,1 °C 9,7 km/h (2 Bft)
06.07.2017 12:21 27,1 °C 27,1 °C 50 % 1016,4 hPa 0,0 mm 4,5 km/h (1 Bft) N-NW 336 ° 1 min 0,000 mm 7,2 UV-I 865 W/m² 15,8 °C 27,1 °C 6,4 km/h (2 Bft)
06.07.2017 12:22 27,2 °C 27,2 °C 46 % 1016,4 hPa 0,0 mm 2,7 km/h (1 Bft) N-NO 19 ° 1 min 0,000 mm 7,2 UV-I 867 W/m² 14,6 °C 27,2 °C 4,8 km/h (1 Bft)
06.07.2017 12:23 27,2 °C 27,2 °C 46 % 1016,3 hPa 0,0 mm 7,6 km/h (2 Bft) N 5 ° 1 min 0,000 mm 7,1 UV-I 870 W/m² 14,6 °C 27,2 °C 12,9 km/h (3 Bft)
06.07.2017 12:24 27,2 °C 27,2 °C 49 % 1016,3 hPa 0,0 mm 9,9 km/h (2 Bft) N-NW 333 ° 1 min 0,000 mm 7,3 UV-I 872 W/m² 15,5 °C 27,2 °C 17,7 km/h (3 Bft)
06.07.2017 12:25 27,3 °C 27,3 °C 46 % 1016,3 hPa 0,0 mm 10,3 km/h (2 Bft) N 351 ° 1 min 0,000 mm 7,3 UV-I 872 W/m² 14,6 °C 27,3 °C 17,7 km/h (3 Bft)
06.07.2017 12:26 27,3 °C 27,3 °C 45 % 1016,3 hPa 0,0 mm 9,3 km/h (2 Bft) NO 40 ° 1 min 0,000 mm 7,3 UV-I 872 W/m² 14,3 °C 27,3 °C 16,1 km/h (3 Bft)
06.07.2017 12:27 27,4 °C 27,4 °C 45 % 1016,3 hPa 0,0 mm 7,4 km/h (2 Bft) N-NW 336 ° 1 min 0,000 mm 7,2 UV-I 870 W/m² 14,4 °C 27,4 °C 9,7 km/h (2 Bft)
06.07.2017 12:28 27,4 °C 27,4 °C 44 % 1016,3 hPa 0,0 mm 6,5 km/h (2 Bft) N-NW 336 ° 1 min 0,000 mm 7,2 UV-I 872 W/m² 14,0 °C 27,4 °C 12,9 km/h (3 Bft)
06.07.2017 12:29 27,3 °C 27,4 °C 44 % 1016,3 hPa 0,0 mm 10,1 km/h (2 Bft) N 9 ° 1 min 0,000 mm 7,2 UV-I 870 W/m² 14,0 °C 27,3 °C 16,1 km/h (3 Bft)
06.07.2017 12:30 27,4 °C 27,4 °C 45 % 1016,4 hPa 0,0 mm 6,1 km/h (2 Bft) N-NW 330 ° 1 min 0,000 mm 7,2 UV-I 872 W/m² 14,4 °C 27,4 °C 9,7 km/h (2 Bft)
06.07.2017 12:31 27,6 °C 27,6 °C 51 % 1016,3 hPa 0,0 mm 6,0 km/h (2 Bft) NW 324 ° 1 min 0,000 mm 7,2 UV-I 872 W/m² 16,5 °C 27,6 °C 8,0 km/h (2 Bft)
06.07.2017 12:32 27,5 °C 27,6 °C 49 % 1016,3 hPa 0,0 mm 4,8 km/h (1 Bft) N-NW 329 ° 1 min 0,000 mm 7,2 UV-I 875 W/m² 15,8 °C 27,5 °C 8,0 km/h (2 Bft)
06.07.2017 12:33 27,5 °C 27,5 °C 50 % 1016,3 hPa 0,0 mm 7,0 km/h (2 Bft) W-NW 289 ° 1 min 0,000 mm 7,3 UV-I 877 W/m² 16,1 °C 27,5 °C 16,1 km/h (3 Bft)
06.07.2017 12:34 27,5 °C 27,5 °C 48 % 1016,3 hPa 0,0 mm 10,3 km/h (2 Bft) N-NW 344 ° 1 min 0,000 mm 7,3 UV-I 877 W/m² 15,5 °C 27,5 °C 16,1 km/h (3 Bft)
06.07.2017 12:35 27,4 °C 27,5 °C 47 % 1016,4 hPa 0,0 mm 9,1 km/h (2 Bft) N-NW 328 ° 1 min 0,000 mm 7,3 UV-I 882 W/m² 15,1 °C 27,4 °C 16,1 km/h (3 Bft)
06.07.2017 12:36 27,3 °C 27,4 °C 48 % 1016,4 hPa 0,0 mm 6,1 km/h (2 Bft) N-NW 347 ° 1 min 0,000 mm 7,4 UV-I 884 W/m² 15,3 °C 27,3 °C 14,5 km/h (3 Bft)
06.07.2017 12:37 27,2 °C 27,3 °C 48 % 1016,4 hPa 0,0 mm 4,2 km/h (1 Bft) W 277 ° 1 min 0,000 mm 7,4 UV-I 882 W/m² 15,2 °C 27,2 °C 6,4 km/h (2 Bft)
06.07.2017 12:38 27,2 °C 27,2 °C 46 % 1016,3 hPa 0,0 mm 5,7 km/h (1 Bft) W 279 ° 1 min 0,000 mm 7,3 UV-I 882 W/m² 14,6 °C 27,2 °C 11,3 km/h (2 Bft)
06.07.2017 12:39 27,2 °C 27,2 °C 49 % 1016,3 hPa 0,0 mm 6,8 km/h (2 Bft) NW 314 ° 1 min 0,000 mm 7,3 UV-I 884 W/m² 15,5 °C 27,2 °C 12,9 km/h (3 Bft)
06.07.2017 12:40 27,2 °C 27,2 °C 52 % 1016,3 hPa 0,0 mm 7,2 km/h (2 Bft) W 281 ° 1 min 0,000 mm 7,3 UV-I 884 W/m² 16,5 °C 27,2 °C 9,7 km/h (2 Bft)
06.07.2017 12:41 27,2 °C 27,2 °C 47 % 1016,3 hPa 0,0 mm 7,6 km/h (2 Bft) NW 311 ° 1 min 0,000 mm 7,3 UV-I 882 W/m² 14,9 °C 27,2 °C 12,9 km/h (3 Bft)
06.07.2017 12:42 27,2 °C 27,2 °C 51 % 1016,3 hPa 0,0 mm 3,8 km/h (1 Bft) N-NW 327 ° 1 min 0,000 mm 7,3 UV-I 886 W/m² 16,2 °C 27,2 °C 8,0 km/h (2 Bft)
06.07.2017 12:43 27,3 °C 27,3 °C 49 % 1016,3 hPa 0,0 mm 4,6 km/h (1 Bft) N 350 ° 1 min 0,000 mm 7,3 UV-I 888 W/m² 15,6 °C 27,3 °C 8,0 km/h (2 Bft)
06.07.2017 12:44 27,4 °C 27,4 °C 49 % 1016,3 hPa 0,0 mm 6,4 km/h (2 Bft) W-NW 294 ° 1 min 0,000 mm 7,3 UV-I 889 W/m² 15,7 °C 27,4 °C 11,3 km/h (2 Bft)
06.07.2017 12:45 27,5 °C 27,5 °C 46 % 1016,3 hPa 0,0 mm 5,9 km/h (2 Bft) N-NW 327 ° 1 min 0,000 mm 7,3 UV-I 891 W/m² 14,8 °C 27,5 °C 9,7 km/h (2 Bft)
06.07.2017 12:46 27,5 °C 27,5 °C 48 % 1016,3 hPa 0,0 mm 5,1 km/h (1 Bft) NO 45 ° 1 min 0,000 mm 7,3 UV-I 889 W/m² 15,5 °C 27,5 °C 12,9 km/h (3 Bft)
06.07.2017 12:47 27,4 °C 27,5 °C 46 % 1016,3 hPa 0,0 mm 3,2 km/h (1 Bft) NO 38 ° 1 min 0,000 mm 7,2 UV-I 888 W/m² 14,7 °C 27,4 °C 8,0 km/h (2 Bft)
06.07.2017 12:48 27,4 °C 27,4 °C 45 % 1016,4 hPa 0,0 mm 5,1 km/h (1 Bft) N-NW 348 ° 1 min 0,000 mm 7,2 UV-I 886 W/m² 14,4 °C 27,4 °C 8,0 km/h (2 Bft)
06.07.2017 12:49 27,5 °C 27,5 °C 45 % 1016,3 hPa 0,0 mm 3,8 km/h (1 Bft) NW 313 ° 1 min 0,000 mm 7,3 UV-I 895 W/m² 14,5 °C 27,5 °C 12,9 km/h (3 Bft)
06.07.2017 12:50 27,6 °C 27,6 °C 47 % 1016,3 hPa 0,0 mm 7,4 km/h (2 Bft) NW 315 ° 1 min 0,000 mm 7,3 UV-I 905 W/m² 15,3 °C 27,6 °C 12,9 km/h (3 Bft)
06.07.2017 12:51 27,5 °C 27,6 °C 48 % 1016,3 hPa 0,0 mm 7,8 km/h (2 Bft) NW 319 ° 1 min 0,000 mm 7,3 UV-I 905 W/m² 15,5 °C 27,5 °C 12,9 km/h (3 Bft)
06.07.2017 12:52 27,6 °C 27,6 °C 49 % 1016,3 hPa 0,0 mm 7,8 km/h (2 Bft) NW 310 ° 1 min 0,000 mm 7,4 UV-I 914 W/m² 15,9 °C 27,6 °C 11,3 km/h (2 Bft)
06.07.2017 12:53 27,6 °C 27,6 °C 45 % 1016,3 hPa 0,0 mm 6,2 km/h (2 Bft) N 360 ° 1 min 0,000 mm 7,5 UV-I 919 W/m² 14,6 °C 27,6 °C 11,3 km/h (2 Bft)
06.07.2017 12:54 27,5 °C 27,6 °C 47 % 1016,3 hPa 0,0 mm 6,8 km/h (2 Bft) NW 323 ° 1 min 0,000 mm 7,4 UV-I 919 W/m² 15,2 °C 27,5 °C 12,9 km/h (3 Bft)
06.07.2017 12:55 27,5 °C 27,5 °C 47 % 1016,3 hPa 0,0 mm 5,6 km/h (1 Bft) NW 319 ° 1 min 0,000 mm 7,3 UV-I 911 W/m² 15,2 °C 27,5 °C 16,1 km/h (3 Bft)
06.07.2017 12:56 27,4 °C 27,5 °C 49 % 1016,3 hPa 0,0 mm 11,2 km/h (2 Bft) W-NW 282 ° 1 min 0,000 mm 7,4 UV-I 909 W/m² 15,7 °C 27,4 °C 17,7 km/h (3 Bft)
06.07.2017 12:57 27,4 °C 27,4 °C 50 % 1016,2 hPa 0,0 mm 6,6 km/h (2 Bft) W-NW 301 ° 1 min 0,000 mm 7,4 UV-I 905 W/m² 16,0 °C 27,4 °C 9,7 km/h (2 Bft)
06.07.2017 12:58 27,5 °C 27,5 °C 50 % 1016,2 hPa 0,0 mm 5,2 km/h (1 Bft) W-NW 302 ° 1 min 0,000 mm 7,4 UV-I 905 W/m² 16,1 °C 27,5 °C 8,0 km/h (2 Bft)
06.07.2017 12:59 27,5 °C 27,5 °C 49 % 1016,2 hPa 0,0 mm 8,4 km/h (2 Bft) W 273 ° 1 min 0,000 mm 7,4 UV-I 900 W/m² 15,8 °C 27,5 °C 12,9 km/h (3 Bft)
06.07.2017 13:00 27,5 °C 27,6 °C 47 % 1016,2 hPa 0,0 mm 6,5 km/h (2 Bft) W-NW 286 ° 1 min 0,000 mm 7,4 UV-I 900 W/m² 15,2 °C 27,5 °C 9,7 km/h (2 Bft)
06.07.2017 13:01 27,4 °C 27,5 °C 46 % 1016,2 hPa 0,0 mm 5,5 km/h (1 Bft) W 259 ° 1 min 0,610 mm 7,3 UV-I 896 W/m² 14,7 °C 27,4 °C 6,4 km/h (2 Bft)
06.07.2017 13:02 27,4 °C 27,4 °C 45 % 1016,2 hPa 0,0 mm 6,6 km/h (2 Bft) W-NW 298 ° 1 min 0,000 mm 7,4 UV-I 904 W/m² 14,4 °C 27,4 °C 9,7 km/h (2 Bft)
06.07.2017 13:03 27,4 °C 27,4 °C 51 % 1016,2 hPa 0,0 mm 7,2 km/h (2 Bft) W-NW 286 ° 1 min 0,000 mm 7,3 UV-I 898 W/m² 16,3 °C 27,4 °C 11,3 km/h (2 Bft)
06.07.2017 13:04 27,4 °C 27,4 °C 49 % 1016,3 hPa 0,0 mm 6,0 km/h (2 Bft) NO 37 ° 1 min 0,000 mm 7,5 UV-I 912 W/m² 15,7 °C 27,4 °C 8,0 km/h (2 Bft)
06.07.2017 13:05 27,4 °C 27,4 °C 47 % 1016,2 hPa 0,0 mm 5,0 km/h (1 Bft) N 360 ° 1 min 0,000 mm 7,5 UV-I 914 W/m² 15,1 °C 27,4 °C 6,4 km/h (2 Bft)
06.07.2017 13:06 27,3 °C 27,4 °C 47 % 1016,2 hPa 0,0 mm 3,5 km/h (1 Bft) N-NO 23 ° 1 min 0,000 mm 7,4 UV-I 932 W/m² 15,0 °C 27,3 °C 6,4 km/h (2 Bft)
06.07.2017 13:07 27,4 °C 27,4 °C 46 % 1016,1 hPa 0,0 mm 1,7 km/h (1 Bft) N 5 ° 1 min 0,000 mm 7,4 UV-I 905 W/m² 14,7 °C 27,4 °C 3,2 km/h (1 Bft)
06.07.2017 13:08 27,6 °C 27,6 °C 47 % 1016,2 hPa 0,0 mm 7,4 km/h (2 Bft) NW 309 ° 1 min 0,000 mm 7,4 UV-I 898 W/m² 15,3 °C 27,6 °C 16,1 km/h (3 Bft)
06.07.2017 13:09 27,7 °C 27,7 °C 48 % 1016,2 hPa 0,0 mm 10,3 km/h (2 Bft) NW 317 ° 1 min 0,000 mm 7,4 UV-I 898 W/m² 15,7 °C 27,7 °C 16,1 km/h (3 Bft)
06.07.2017 13:10 27,7 °C 27,7 °C 49 % 1016,2 hPa 0,0 mm 7,8 km/h (2 Bft) N 355 ° 1 min 0,000 mm 7,6 UV-I 835 W/m² 16,0 °C 27,7 °C 12,9 km/h (3 Bft)
06.07.2017 13:11 27,7 °C 27,7 °C 46 % 1016,2 hPa 0,0 mm 4,4 km/h (1 Bft) N 5 ° 1 min 0,000 mm 4,0 UV-I 835 W/m² 15,0 °C 27,7 °C 8,0 km/h (2 Bft)
06.07.2017 13:12 27,6 °C 27,7 °C 48 % 1016,2 hPa 0,0 mm 4,0 km/h (1 Bft) NW 320 ° 1 min 0,000 mm 4,9 UV-I 835 W/m² 15,6 °C 27,6 °C 6,4 km/h (2 Bft)
06.07.2017 13:13 27,5 °C 27,6 °C 47 % 1016,2 hPa 0,0 mm 3,6 km/h (1 Bft) N-NW 342 ° 1 min 0,000 mm 7,5 UV-I 933 W/m² 15,2 °C 27,5 °C 6,4 km/h (2 Bft)
06.07.2017 13:14 27,6 °C 27,6 °C 52 % 1016,2 hPa 0,0 mm 9,0 km/h (2 Bft) W-NW 302 ° 1 min 0,000 mm 7,5 UV-I 928 W/m² 16,8 °C 27,6 °C 14,5 km/h (3 Bft)
06.07.2017 13:15 27,7 °C 27,7 °C 52 % 1016,1 hPa 0,0 mm 10,9 km/h (2 Bft) NW 326 ° 1 min 0,000 mm 7,4 UV-I 916 W/m² 16,9 °C 27,7 °C 14,5 km/h (3 Bft)
06.07.2017 13:16 27,7 °C 27,7 °C 46 % 1016,1 hPa 0,0 mm 5,3 km/h (1 Bft) NW 317 ° 1 min 0,000 mm 7,4 UV-I 911 W/m² 15,0 °C 27,7 °C 9,7 km/h (2 Bft)
06.07.2017 13:17 27,7 °C 27,7 °C 45 % 1016,1 hPa 0,0 mm 4,2 km/h (1 Bft) NW 317 ° 1 min 0,000 mm 7,4 UV-I 914 W/m² 14,7 °C 27,7 °C 6,4 km/h (2 Bft)
06.07.2017 13:18 27,7 °C 27,7 °C 48 % 1016,1 hPa 0,0 mm 5,8 km/h (2 Bft) NW 320 ° 1 min 0,000 mm 7,5 UV-I 919 W/m² 15,7 °C 27,7 °C 8,0 km/h (2 Bft)
06.07.2017 13:19 27,7 °C 27,7 °C 45 % 1016,1 hPa 0,0 mm 5,0 km/h (1 Bft) W 281 ° 1 min 0,000 mm 7,5 UV-I 898 W/m² 14,7 °C 27,7 °C 6,4 km/h (2 Bft)
06.07.2017 13:20 27,6 °C 27,7 °C 44 % 1016,1 hPa 0,0 mm 3,4 km/h (1 Bft) W 264 ° 1 min 0,000 mm 7,4 UV-I 930 W/m² 14,2 °C 27,6 °C 4,8 km/h (1 Bft)
06.07.2017 13:21 27,6 °C 27,6 °C 46 % 1016,0 hPa 0,0 mm 3,0 km/h (1 Bft) W-NW 286 ° 1 min 0,000 mm 7,4 UV-I 907 W/m² 14,9 °C 27,6 °C 4,8 km/h (1 Bft)
06.07.2017 13:22 27,7 °C 27,7 °C 53 % 1016,1 hPa 0,0 mm 7,2 km/h (2 Bft) N-NW 346 ° 1 min 0,000 mm 7,3 UV-I 919 W/m² 17,2 °C 27,7 °C 12,9 km/h (3 Bft)
06.07.2017 13:23 27,7 °C 27,7 °C 47 % 1016,1 hPa 0,0 mm 6,8 km/h (2 Bft) NW 317 ° 1 min 0,000 mm 7,5 UV-I 921 W/m² 15,3 °C 27,7 °C 9,7 km/h (2 Bft)
06.07.2017 13:24 27,9 °C 27,9 °C 50 % 1016,0 hPa 0,0 mm 6,9 km/h (2 Bft) N-NW 340 ° 1 min 0,000 mm 7,6 UV-I 928 W/m² 16,5 °C 27,9 °C 12,9 km/h (3 Bft)
06.07.2017 13:25 28,0 °C 28,0 °C 49 % 1016,0 hPa 0,0 mm 8,2 km/h (2 Bft) N-NW 331 ° 1 min 0,000 mm 7,6 UV-I 928 W/m² 16,3 °C 28,0 °C 14,5 km/h (3 Bft)
06.07.2017 13:26 28,1 °C 28,1 °C 48 % 1016,0 hPa 0,0 mm 9,7 km/h (2 Bft) W-NW 286 ° 1 min 0,000 mm 7,5 UV-I 926 W/m² 16,0 °C 28,1 °C 16,1 km/h (3 Bft)
06.07.2017 13:27 28,0 °C 28,1 °C 44 % 1016,0 hPa 0,0 mm 6,0 km/h (2 Bft) NW 319 ° 1 min 0,000 mm 7,6 UV-I 923 W/m² 14,6 °C 28,0 °C 12,9 km/h (3 Bft)
06.07.2017 13:28 27,9 °C 28,0 °C 48 % 1015,9 hPa 0,0 mm 8,9 km/h (2 Bft) N-NW 331 ° 1 min 0,000 mm 7,5 UV-I 921 W/m² 15,9 °C 27,9 °C 12,9 km/h (3 Bft)
06.07.2017 13:29 27,9 °C 27,9 °C 49 % 1015,9 hPa 0,0 mm 9,6 km/h (2 Bft) N-NW 335 ° 1 min 0,000 mm 7,5 UV-I 926 W/m² 16,2 °C 27,9 °C 14,5 km/h (3 Bft)
06.07.2017 13:30 27,9 °C 27,9 °C 48 % 1015,9 hPa 0,0 mm 6,8 km/h (2 Bft) NW 325 ° 1 min 0,000 mm 7,6 UV-I 926 W/m² 15,9 °C 27,9 °C 9,7 km/h (2 Bft)
06.07.2017 13:31 27,9 °C 27,9 °C 50 % 1015,9 hPa 0,0 mm 3,7 km/h (1 Bft) W-NW 288 ° 1 min 0,000 mm 7,6 UV-I 926 W/m² 16,5 °C 27,9 °C 6,4 km/h (2 Bft)
06.07.2017 13:32 27,9 °C 27,9 °C 47 % 1015,9 hPa 0,0 mm 7,4 km/h (2 Bft) W-SW 254 ° 1 min 0,000 mm 7,6 UV-I 928 W/m² 15,5 °C 27,9 °C 12,9 km/h (3 Bft)
06.07.2017 13:33 27,9 °C 27,9 °C 49 % 1015,9 hPa 0,0 mm 7,5 km/h (2 Bft) W 265 ° 1 min 0,000 mm 7,6 UV-I 919 W/m² 16,2 °C 27,9 °C 11,3 km/h (2 Bft)
06.07.2017 13:34 27,8 °C 27,9 °C 47 % 1015,9 hPa 0,0 mm 6,2 km/h (2 Bft) NW 320 ° 1 min 0,000 mm 7,6 UV-I 921 W/m² 15,4 °C 27,8 °C 9,7 km/h (2 Bft)
06.07.2017 13:35 27,8 °C 27,9 °C 48 % 1015,9 hPa 0,0 mm 6,6 km/h (2 Bft) NW 313 ° 1 min 0,000 mm 7,6 UV-I 919 W/m² 15,8 °C 27,8 °C 12,9 km/h (3 Bft)
06.07.2017 13:36 27,9 °C 27,9 °C 47 % 1015,9 hPa 0,0 mm 8,2 km/h (2 Bft) N-NW 331 ° 1 min 0,000 mm 7,5 UV-I 918 W/m² 15,5 °C 27,9 °C 12,9 km/h (3 Bft)
06.07.2017 13:37 27,9 °C 27,9 °C 49 % 1015,9 hPa 0,0 mm 6,5 km/h (2 Bft) NW 313 ° 1 min 0,000 mm 7,6 UV-I 918 W/m² 16,2 °C 27,9 °C 9,7 km/h (2 Bft)
06.07.2017 13:38 27,9 °C 27,9 °C 45 % 1015,9 hPa 0,0 mm 3,0 km/h (1 Bft) NW 319 ° 1 min 0,000 mm 7,6 UV-I 918 W/m² 14,8 °C 27,9 °C 4,8 km/h (1 Bft)
06.07.2017 13:39 27,9 °C 27,9 °C 47 % 1015,9 hPa 0,0 mm 4,0 km/h (1 Bft) NW 317 ° 1 min 0,000 mm 7,6 UV-I 911 W/m² 15,5 °C 27,9 °C 8,0 km/h (2 Bft)
06.07.2017 13:40 27,9 °C 27,9 °C 43 % 1015,8 hPa 0,0 mm 5,3 km/h (1 Bft) W-NW 282 ° 1 min 0,000 mm 7,6 UV-I 914 W/m² 14,1 °C 27,9 °C 9,7 km/h (2 Bft)
06.07.2017 13:41 27,9 °C 28,0 °C 44 % 1015,8 hPa 0,0 mm 4,2 km/h (1 Bft) NW 325 ° 1 min 0,000 mm 7,6 UV-I 914 W/m² 14,5 °C 27,9 °C 6,4 km/h (2 Bft)
06.07.2017 13:42 27,9 °C 27,9 °C 47 % 1015,8 hPa 0,0 mm 4,7 km/h (1 Bft) NW 316 ° 1 min 0,000 mm 7,6 UV-I 914 W/m² 15,5 °C 27,9 °C 11,3 km/h (2 Bft)
06.07.2017 13:43 27,9 °C 27,9 °C 48 % 1015,9 hPa 0,0 mm 9,1 km/h (2 Bft) W-NW 298 ° 1 min 0,000 mm 7,6 UV-I 914 W/m² 15,9 °C 27,9 °C 14,5 km/h (3 Bft)
06.07.2017 13:44 27,9 °C 27,9 °C 45 % 1015,9 hPa 0,0 mm 6,5 km/h (2 Bft) NW 317 ° 1 min 0,000 mm 7,6 UV-I 918 W/m² 14,8 °C 27,9 °C 11,3 km/h (2 Bft)
06.07.2017 13:45 27,9 °C 27,9 °C 43 % 1015,9 hPa 0,0 mm 3,1 km/h (1 Bft) N-NW 341 ° 1 min 0,000 mm 7,6 UV-I 918 W/m² 14,1 °C 27,9 °C 6,4 km/h (2 Bft)
06.07.2017 13:46 27,9 °C 27,9 °C 44 % 1015,9 hPa 0,0 mm 6,6 km/h (2 Bft) N-NW 336 ° 1 min 0,000 mm 7,5 UV-I 912 W/m² 14,5 °C 27,9 °C 12,9 km/h (3 Bft)
06.07.2017 13:47 27,9 °C 28,0 °C 47 % 1015,9 hPa 0,0 mm 2,6 km/h (1 Bft) N 360 ° 1 min 0,000 mm 7,4 UV-I 912 W/m² 15,5 °C 27,9 °C 4,8 km/h (1 Bft)
06.07.2017 13:48 28,0 °C 28,0 °C 46 % 1015,8 hPa 0,0 mm 5,4 km/h (1 Bft) NW 321 ° 1 min 0,000 mm 7,4 UV-I 907 W/m² 15,3 °C 28,0 °C 8,0 km/h (2 Bft)
06.07.2017 13:49 28,1 °C 28,1 °C 47 % 1015,8 hPa 0,0 mm 12,9 km/h (3 Bft) NW 323 ° 1 min 0,000 mm 7,4 UV-I 907 W/m² 15,7 °C 28,1 °C 16,1 km/h (3 Bft)
06.07.2017 13:50 28,1 °C 28,1 °C 46 % 1015,8 hPa 0,0 mm 6,1 km/h (2 Bft) NW 323 ° 1 min 0,000 mm 7,4 UV-I 907 W/m² 15,4 °C 28,1 °C 12,9 km/h (3 Bft)
06.07.2017 13:51 28,1 °C 28,1 °C 45 % 1015,9 hPa 0,0 mm 8,0 km/h (2 Bft) NW 323 ° 1 min 0,000 mm 7,4 UV-I 911 W/m² 15,0 °C 28,1 °C 12,9 km/h (3 Bft)
06.07.2017 13:52 28,1 °C 28,1 °C 46 % 1015,8 hPa 0,0 mm 5,6 km/h (1 Bft) W 279 ° 1 min 0,000 mm 7,4 UV-I 911 W/m² 15,4 °C 28,1 °C 8,0 km/h (2 Bft)
06.07.2017 13:53 28,1 °C 28,1 °C 49 % 1015,8 hPa 0,0 mm 5,1 km/h (1 Bft) W 280 ° 1 min 0,000 mm 7,4 UV-I 905 W/m² 16,4 °C 28,1 °C 9,7 km/h (2 Bft)
06.07.2017 13:54 28,1 °C 28,1 °C 47 % 1015,8 hPa 0,0 mm 5,3 km/h (1 Bft) N-NW 348 ° 1 min 0,000 mm 7,4 UV-I 905 W/m² 15,7 °C 28,1 °C 9,7 km/h (2 Bft)
06.07.2017 13:55 28,2 °C 28,2 °C 47 % 1015,8 hPa 0,0 mm 8,6 km/h (2 Bft) NW 324 ° 1 min 0,000 mm 7,4 UV-I 905 W/m² 15,8 °C 28,2 °C 14,5 km/h (3 Bft)
06.07.2017 13:56 28,2 °C 28,2 °C 44 % 1015,8 hPa 0,0 mm 7,7 km/h (2 Bft) N 355 ° 1 min 0,000 mm 7,4 UV-I 909 W/m² 14,8 °C 28,2 °C 9,7 km/h (2 Bft)
06.07.2017 13:57 28,1 °C 28,2 °C 43 % 1015,9 hPa 0,0 mm 6,6 km/h (2 Bft) NW 320 ° 1 min 0,000 mm 7,4 UV-I 907 W/m² 14,3 °C 28,1 °C 12,9 km/h (3 Bft)
06.07.2017 13:58 28,1 °C 28,1 °C 45 % 1015,8 hPa 0,0 mm 5,8 km/h (2 Bft) N 355 ° 1 min 0,000 mm 7,5 UV-I 911 W/m² 15,0 °C 28,1 °C 8,0 km/h (2 Bft)
06.07.2017 13:59 28,1 °C 28,1 °C 47 % 1015,8 hPa 0,0 mm 6,6 km/h (2 Bft) N-NW 327 ° 1 min 0,000 mm 7,4 UV-I 907 W/m² 15,7 °C 28,1 °C 9,7 km/h (2 Bft)
06.07.2017 14:00 28,1 °C 28,1 °C 44 % 1015,8 hPa 0,0 mm 6,2 km/h (2 Bft) N 349 ° 1 min 0,000 mm 7,4 UV-I 907 W/m² 14,7 °C 28,1 °C 12,9 km/h (3 Bft)
06.07.2017 14:01 28,2 °C 28,2 °C 47 % 1015,8 hPa 0,0 mm 7,9 km/h (2 Bft) NW 325 ° 1 min 0,635 mm 7,4 UV-I 911 W/m² 15,8 °C 28,2 °C 12,9 km/h (3 Bft)
06.07.2017 14:02 28,3 °C 28,3 °C 47 % 1015,8 hPa 0,0 mm 6,4 km/h (2 Bft) N-NO 17 ° 1 min 0,000 mm 7,4 UV-I 914 W/m² 15,9 °C 28,3 °C 9,7 km/h (2 Bft)
06.07.2017 14:03 28,3 °C 28,3 °C 43 % 1015,8 hPa 0,0 mm 6,9 km/h (2 Bft) N-NW 346 ° 1 min 0,000 mm 7,4 UV-I 912 W/m² 14,5 °C 28,3 °C 8,0 km/h (2 Bft)
06.07.2017 14:04 28,2 °C 28,3 °C 44 % 1015,8 hPa 0,0 mm 3,9 km/h (1 Bft) O-NO 67 ° 1 min 0,000 mm 7,3 UV-I 911 W/m² 14,8 °C 28,2 °C 4,8 km/h (1 Bft)
06.07.2017 14:05 28,2 °C 28,2 °C 42 % 1015,8 hPa 0,0 mm 4,2 km/h (1 Bft) NW 323 ° 1 min 0,000 mm 7,4 UV-I 911 W/m² 14,0 °C 28,2 °C 6,4 km/h (2 Bft)
06.07.2017 14:06 28,2 °C 28,2 °C 44 % 1015,9 hPa 0,0 mm 7,8 km/h (2 Bft) N-NW 336 ° 1 min 0,000 mm 7,3 UV-I 909 W/m² 14,8 °C 28,2 °C 12,9 km/h (3 Bft)
06.07.2017 14:07 28,2 °C 28,2 °C 47 % 1015,9 hPa 0,0 mm 5,9 km/h (2 Bft) NW 309 ° 1 min 0,000 mm 7,3 UV-I 907 W/m² 15,8 °C 28,2 °C 9,7 km/h (2 Bft)
06.07.2017 14:08 28,2 °C 28,2 °C 46 % 1015,8 hPa 0,0 mm 8,0 km/h (2 Bft) N-NW 333 ° 1 min 0,000 mm 7,3 UV-I 905 W/m² 15,5 °C 28,2 °C 12,9 km/h (3 Bft)
06.07.2017 14:09 28,2 °C 28,2 °C 46 % 1015,8 hPa 0,0 mm 8,1 km/h (2 Bft) NW 323 ° 1 min 0,000 mm 7,3 UV-I 904 W/m² 15,5 °C 28,2 °C 12,9 km/h (3 Bft)
06.07.2017 14:10 28,1 °C 28,2 °C 44 % 1015,8 hPa 0,0 mm 6,5 km/h (2 Bft) NW 317 ° 1 min 0,000 mm 7,3 UV-I 905 W/m² 14,7 °C 28,1 °C 11,3 km/h (2 Bft)
06.07.2017 14:11 28,2 °C 28,2 °C 44 % 1015,8 hPa 0,0 mm 3,0 km/h (1 Bft) W 281 ° 1 min 0,000 mm 7,3 UV-I 902 W/m² 14,8 °C 28,2 °C 4,8 km/h (1 Bft)
06.07.2017 14:12 28,2 °C 28,2 °C 47 % 1015,8 hPa 0,0 mm 5,4 km/h (1 Bft) W-NW 299 ° 1 min 0,000 mm 7,2 UV-I 904 W/m² 15,8 °C 28,2 °C 11,3 km/h (2 Bft)
06.07.2017 14:13 28,2 °C 28,2 °C 46 % 1015,8 hPa 0,0 mm 3,5 km/h (1 Bft) N 5 ° 1 min 0,000 mm 7,2 UV-I 902 W/m² 15,5 °C 28,2 °C 6,4 km/h (2 Bft)
06.07.2017 14:14 28,2 °C 28,2 °C 46 % 1015,8 hPa 0,0 mm 3,4 km/h (1 Bft) N-NW 342 ° 1 min 0,000 mm 7,2 UV-I 896 W/m² 15,5 °C 28,2 °C 4,8 km/h (1 Bft)
06.07.2017 14:15 28,3 °C 28,3 °C 49 % 1015,8 hPa 0,0 mm 10,3 km/h (2 Bft) NO 38 ° 1 min 0,000 mm 7,1 UV-I 896 W/m² 16,5 °C 28,3 °C 16,1 km/h (3 Bft)
06.07.2017 14:16 28,4 °C 28,4 °C 47 % 1015,9 hPa 0,0 mm 8,6 km/h (2 Bft) N 355 ° 1 min 0,000 mm 7,2 UV-I 911 W/m² 16,0 °C 28,4 °C 16,1 km/h (3 Bft)
06.07.2017 14:17 28,4 °C 28,4 °C 41 % 1015,8 hPa 0,0 mm 6,5 km/h (2 Bft) N-NW 346 ° 1 min 0,000 mm 3,9 UV-I 932 W/m² 13,9 °C 28,4 °C 14,5 km/h (3 Bft)
06.07.2017 14:18 28,2 °C 28,4 °C 45 % 1015,8 hPa 0,0 mm 8,0 km/h (2 Bft) W-NW 302 ° 1 min 0,000 mm 3,8 UV-I 932 W/m² 15,1 °C 28,2 °C 12,9 km/h (3 Bft)
06.07.2017 14:19 28,2 °C 28,2 °C 47 % 1015,8 hPa 0,0 mm 4,2 km/h (1 Bft) N-NW 327 ° 1 min 0,000 mm 6,9 UV-I 932 W/m² 15,8 °C 28,2 °C 8,0 km/h (2 Bft)
06.07.2017 14:20 28,1 °C 28,2 °C 44 % 1015,9 hPa 0,0 mm 4,4 km/h (1 Bft) NW 309 ° 1 min 0,000 mm 7,1 UV-I 902 W/m² 14,7 °C 28,1 °C 11,3 km/h (2 Bft)
06.07.2017 14:21 28,0 °C 28,1 °C 42 % 1015,8 hPa 0,0 mm 5,1 km/h (1 Bft) N-NW 347 ° 1 min 0,000 mm 7,1 UV-I 888 W/m² 13,9 °C 28,0 °C 8,0 km/h (2 Bft)
06.07.2017 14:22 28,0 °C 28,0 °C 44 % 1015,8 hPa 0,0 mm 3,4 km/h (1 Bft) NW 309 ° 1 min 0,000 mm 7,1 UV-I 889 W/m² 14,6 °C 28,0 °C 8,0 km/h (2 Bft)
06.07.2017 14:23 27,9 °C 28,0 °C 43 % 1015,7 hPa 0,0 mm 1,5 km/h (1 Bft) N-NW 327 ° 1 min 0,000 mm 7,1 UV-I 886 W/m² 14,1 °C 27,9 °C 3,2 km/h (1 Bft)
06.07.2017 14:24 28,0 °C 28,0 °C 44 % 1015,8 hPa 0,0 mm 6,5 km/h (2 Bft) N 5 ° 1 min 0,000 mm 7,1 UV-I 888 W/m² 14,6 °C 28,0 °C 8,0 km/h (2 Bft)
06.07.2017 14:25 28,1 °C 28,1 °C 49 % 1015,8 hPa 0,0 mm 6,7 km/h (2 Bft) O-NO 74 ° 1 min 0,000 mm 7,1 UV-I 889 W/m² 16,4 °C 28,1 °C 11,3 km/h (2 Bft)
06.07.2017 14:26 28,1 °C 28,1 °C 44 % 1015,7 hPa 0,0 mm 4,5 km/h (1 Bft) N 5 ° 1 min 0,000 mm 7,2 UV-I 891 W/m² 14,7 °C 28,1 °C 11,3 km/h (2 Bft)
06.07.2017 14:27 28,3 °C 28,3 °C 43 % 1015,7 hPa 0,0 mm 8,0 km/h (2 Bft) N-NO 26 ° 1 min 0,000 mm 7,1 UV-I 889 W/m² 14,5 °C 28,3 °C 14,5 km/h (3 Bft)
06.07.2017 14:28 28,4 °C 28,4 °C 43 % 1015,7 hPa 0,0 mm 11,5 km/h (2 Bft) N-NW 331 ° 1 min 0,000 mm 7,1 UV-I 888 W/m² 14,6 °C 28,4 °C 20,9 km/h (4 Bft)
06.07.2017 14:29 28,5 °C 28,5 °C 43 % 1015,7 hPa 0,0 mm 8,8 km/h (2 Bft) N 5 ° 1 min 0,000 mm 7,1 UV-I 889 W/m² 14,7 °C 28,5 °C 14,5 km/h (3 Bft)
06.07.2017 14:30 28,4 °C 28,5 °C 41 % 1015,7 hPa 0,0 mm 10,9 km/h (2 Bft) N-NO 30 ° 1 min 0,000 mm 7,1 UV-I 884 W/m² 13,9 °C 28,4 °C 14,5 km/h (3 Bft)
06.07.2017 14:31 28,3 °C 28,4 °C 41 % 1015,7 hPa 0,0 mm 5,6 km/h (1 Bft) N-NO 14 ° 1 min 0,000 mm 7,0 UV-I 884 W/m² 13,8 °C 28,3 °C 12,9 km/h (3 Bft)
06.07.2017 14:32 28,3 °C 28,3 °C 41 % 1015,7 hPa 0,0 mm 7,5 km/h (2 Bft) N 5 ° 1 min 0,000 mm 7,0 UV-I 879 W/m² 13,8 °C 28,3 °C 9,7 km/h (2 Bft)
06.07.2017 14:33 28,3 °C 28,3 °C 43 % 1015,7 hPa 0,0 mm 6,4 km/h (2 Bft) N-NW 341 ° 1 min 0,000 mm 7,0 UV-I 879 W/m² 14,5 °C 28,3 °C 9,7 km/h (2 Bft)
06.07.2017 14:34 28,2 °C 28,3 °C 44 % 1015,7 hPa 0,0 mm 6,8 km/h (2 Bft) N 351 ° 1 min 0,000 mm 6,9 UV-I 875 W/m² 14,8 °C 28,2 °C 8,0 km/h (2 Bft)
06.07.2017 14:35 28,3 °C 28,3 °C 43 % 1015,7 hPa 0,0 mm 8,0 km/h (2 Bft) N-NO 13 ° 1 min 0,000 mm 6,9 UV-I 875 W/m² 14,5 °C 28,3 °C 12,9 km/h (3 Bft)
06.07.2017 14:36 28,3 °C 28,4 °C 42 % 1015,7 hPa 0,0 mm 6,7 km/h (2 Bft) N-NW 348 ° 1 min 0,000 mm 6,8 UV-I 877 W/m² 14,1 °C 28,3 °C 12,9 km/h (3 Bft)
06.07.2017 14:37 28,4 °C 28,4 °C 42 % 1015,7 hPa 0,0 mm 3,6 km/h (1 Bft) NW 306 ° 1 min 0,000 mm 6,8 UV-I 877 W/m² 14,2 °C 28,4 °C 8,0 km/h (2 Bft)
06.07.2017 14:38 28,4 °C 28,4 °C 46 % 1015,7 hPa 0,0 mm 5,7 km/h (1 Bft) W-NW 294 ° 1 min 0,000 mm 6,8 UV-I 872 W/m² 15,6 °C 28,4 °C 9,7 km/h (2 Bft)
06.07.2017 14:39 28,5 °C 28,5 °C 47 % 1015,6 hPa 0,0 mm 5,3 km/h (1 Bft) W-NW 292 ° 1 min 0,000 mm 7,0 UV-I 904 W/m² 16,1 °C 28,5 °C 12,9 km/h (3 Bft)
06.07.2017 14:40 28,6 °C 28,6 °C 45 % 1015,7 hPa 0,0 mm 5,1 km/h (1 Bft) N 355 ° 1 min 0,000 mm 6,7 UV-I 875 W/m² 15,5 °C 28,6 °C 8,0 km/h (2 Bft)
06.07.2017 14:41 28,6 °C 28,6 °C 47 % 1015,6 hPa 0,0 mm 6,1 km/h (2 Bft) N-NO 29 ° 1 min 0,000 mm 6,6 UV-I 882 W/m² 16,2 °C 28,6 °C 8,0 km/h (2 Bft)
06.07.2017 14:42 28,7 °C 28,7 °C 46 % 1015,6 hPa 0,0 mm 6,2 km/h (2 Bft) O 84 ° 1 min 0,000 mm 6,7 UV-I 847 W/m² 15,9 °C 28,7 °C 12,9 km/h (3 Bft)
06.07.2017 14:43 28,7 °C 28,7 °C 44 % 1015,6 hPa 0,0 mm 7,1 km/h (2 Bft) N-NO 19 ° 1 min 0,000 mm 6,4 UV-I 782 W/m² 15,2 °C 28,7 °C 14,5 km/h (3 Bft)
06.07.2017 14:44 28,6 °C 28,7 °C 41 % 1015,6 hPa 0,0 mm 11,5 km/h (2 Bft) N 360 ° 1 min 0,000 mm 6,2 UV-I 775 W/m² 14,0 °C 28,6 °C 19,3 km/h (3 Bft)
06.07.2017 14:45 28,4 °C 28,6 °C 43 % 1015,6 hPa 0,0 mm 2,1 km/h (1 Bft) W-NW 294 ° 1 min 0,000 mm 6,4 UV-I 805 W/m² 14,6 °C 28,4 °C 4,8 km/h (1 Bft)
06.07.2017 14:46 28,3 °C 28,4 °C 42 % 1015,6 hPa 0,0 mm 6,4 km/h (2 Bft) N-NW 341 ° 1 min 0,000 mm 6,6 UV-I 856 W/m² 14,1 °C 28,3 °C 11,3 km/h (2 Bft)
06.07.2017 14:47 28,3 °C 28,3 °C 45 % 1015,6 hPa 0,0 mm 3,4 km/h (1 Bft) N-NW 336 ° 1 min 0,000 mm 6,2 UV-I 828 W/m² 15,2 °C 28,3 °C 6,4 km/h (2 Bft)
06.07.2017 14:48 28,3 °C 28,3 °C 46 % 1015,6 hPa 0,0 mm 1,0 km/h (0 Bft) N-NW 331 ° 1 min 0,000 mm 6,3 UV-I 809 W/m² 15,6 °C 28,3 °C 3,2 km/h (1 Bft)
06.07.2017 14:49 28,3 °C 28,3 °C 42 % 1015,6 hPa 0,0 mm 2,1 km/h (1 Bft) N-NW 331 ° 1 min 0,000 mm 6,1 UV-I 809 W/m² 14,1 °C 28,3 °C 3,2 km/h (1 Bft)
06.07.2017 14:50 28,2 °C 28,3 °C 45 % 1015,6 hPa 0,0 mm 0,3 km/h (0 Bft) N-NW 331 ° 1 min 0,000 mm 6,1 UV-I 763 W/m² 15,1 °C 28,2 °C 1,6 km/h (1 Bft)
06.07.2017 14:51 28,1 °C 28,2 °C 41 % 1015,6 hPa 0,0 mm 1,6 km/h (1 Bft) N-NW 331 ° 1 min 0,000 mm 6,1 UV-I 772 W/m² 13,6 °C 28,1 °C 4,8 km/h (1 Bft)
06.07.2017 14:52 28,2 °C 28,2 °C 44 % 1015,5 hPa 0,0 mm 5,7 km/h (1 Bft) N-NW 336 ° 1 min 0,000 mm 6,6 UV-I 840 W/m² 14,8 °C 28,2 °C 8,0 km/h (2 Bft)
06.07.2017 14:53 28,2 °C 28,2 °C 41 % 1015,5 hPa 0,0 mm 2,8 km/h (1 Bft) W-NW 286 ° 1 min 0,000 mm 6,7 UV-I 875 W/m² 13,7 °C 28,2 °C 6,4 km/h (2 Bft)
06.07.2017 14:54 28,1 °C 28,2 °C 44 % 1015,5 hPa 0,0 mm 3,1 km/h (1 Bft) W-SW 238 ° 1 min 0,000 mm 6,9 UV-I 886 W/m² 14,7 °C 28,1 °C 4,8 km/h (1 Bft)
06.07.2017 14:55 28,1 °C 28,2 °C 44 % 1015,5 hPa 0,0 mm 1,0 km/h (0 Bft) O 92 ° 1 min 0,000 mm 7,0 UV-I 960 W/m² 14,7 °C 28,1 °C 3,2 km/h (1 Bft)
06.07.2017 14:56 28,1 °C 28,1 °C 44 % 1015,5 hPa 0,0 mm 4,0 km/h (1 Bft) O-NO 74 ° 1 min 0,000 mm 7,1 UV-I 921 W/m² 14,7 °C 28,1 °C 9,7 km/h (2 Bft)
06.07.2017 14:57 28,1 °C 28,1 °C 42 % 1015,5 hPa 0,0 mm 11,6 km/h (2 Bft) O 80 ° 1 min 0,000 mm 5,9 UV-I 826 W/m² 14,0 °C 28,1 °C 17,7 km/h (3 Bft)
06.07.2017 14:58 28,2 °C 28,2 °C 45 % 1015,3 hPa 0,0 mm 16,7 km/h (3 Bft) NW 313 ° 1 min 0,000 mm 6,1 UV-I 752 W/m² 15,1 °C 28,2 °C 22,5 km/h (4 Bft)
06.07.2017 14:59 28,2 °C 28,2 °C 44 % 1015,4 hPa 0,0 mm 10,4 km/h (2 Bft) N-NW 328 ° 1 min 0,000 mm 6,5 UV-I 752 W/m² 14,8 °C 28,2 °C 14,5 km/h (3 Bft)
06.07.2017 15:00 28,3 °C 28,3 °C 47 % 1015,5 hPa 0,0 mm 7,0 km/h (2 Bft) N-NW 329 ° 1 min 0,000 mm 6,9 UV-I 752 W/m² 15,9 °C 28,3 °C 9,7 km/h (2 Bft)
06.07.2017 15:01 28,3 °C 28,3 °C 45 % 1015,4 hPa 0,0 mm 4,5 km/h (1 Bft) NW 324 ° 1 min 0,635 mm 6,8 UV-I 907 W/m² 15,2 °C 28,3 °C 6,4 km/h (2 Bft)
06.07.2017 15:02 28,3 °C 28,3 °C 43 % 1015,4 hPa 0,0 mm 5,0 km/h (1 Bft) N-NW 339 ° 1 min 0,000 mm 6,6 UV-I 853 W/m² 14,5 °C 28,3 °C 9,7 km/h (2 Bft)
06.07.2017 15:03 28,3 °C 28,3 °C 44 % 1015,4 hPa 0,0 mm 4,3 km/h (1 Bft) N-NO 28 ° 1 min 0,000 mm 6,6 UV-I 884 W/m² 14,9 °C 28,3 °C 11,3 km/h (2 Bft)
06.07.2017 15:04 28,4 °C 28,4 °C 45 % 1015,4 hPa 0,0 mm 2,9 km/h (1 Bft) N 11 ° 1 min 0,000 mm 6,6 UV-I 872 W/m² 15,3 °C 28,4 °C 4,8 km/h (1 Bft)
06.07.2017 15:05 28,5 °C 28,5 °C 45 % 1015,4 hPa 0,0 mm 5,2 km/h (1 Bft) NW 326 ° 1 min 0,000 mm 6,4 UV-I 830 W/m² 15,4 °C 28,5 °C 8,0 km/h (2 Bft)
06.07.2017 15:06 28,6 °C 28,6 °C 49 % 1015,4 hPa 0,0 mm 4,8 km/h (1 Bft) N-NW 334 ° 1 min 0,000 mm 6,4 UV-I 844 W/m² 16,8 °C 28,6 °C 6,4 km/h (2 Bft)
06.07.2017 15:07 28,6 °C 28,6 °C 45 % 1015,4 hPa 0,0 mm 5,7 km/h (1 Bft) W 280 ° 1 min 0,000 mm 6,3 UV-I 846 W/m² 15,5 °C 28,6 °C 6,4 km/h (2 Bft)
06.07.2017 15:08 28,6 °C 28,6 °C 43 % 1015,4 hPa 0,0 mm 9,4 km/h (2 Bft) NW 313 ° 1 min 0,000 mm 5,3 UV-I 835 W/m² 14,8 °C 28,6 °C 12,9 km/h (3 Bft)
06.07.2017 15:09 28,6 °C 28,6 °C 47 % 1015,4 hPa 0,0 mm 7,2 km/h (2 Bft) N-NW 328 ° 1 min 0,000 mm 6,1 UV-I 830 W/m² 16,2 °C 28,6 °C 12,9 km/h (3 Bft)
06.07.2017 15:10 28,6 °C 28,6 °C 43 % 1015,5 hPa 0,0 mm 13,0 km/h (3 Bft) NW 325 ° 1 min 0,000 mm 6,1 UV-I 842 W/m² 14,8 °C 28,6 °C 16,1 km/h (3 Bft)
06.07.2017 15:11 28,6 °C 28,6 °C 43 % 1015,4 hPa 0,0 mm 12,5 km/h (3 Bft) N 360 ° 1 min 0,000 mm 5,7 UV-I 766 W/m² 14,8 °C 28,6 °C 14,5 km/h (3 Bft)
06.07.2017 15:12 28,5 °C 28,6 °C 43 % 1015,5 hPa 0,0 mm 8,9 km/h (2 Bft) N-NO 21 ° 1 min 0,000 mm 5,5 UV-I 749 W/m² 14,7 °C 28,5 °C 12,9 km/h (3 Bft)
06.07.2017 15:13 28,4 °C 28,5 °C 45 % 1015,5 hPa 0,0 mm 6,8 km/h (2 Bft) N-NO 26 ° 1 min 0,000 mm 5,7 UV-I 682 W/m² 15,3 °C 28,4 °C 12,9 km/h (3 Bft)
06.07.2017 15:14 28,4 °C 28,4 °C 43 % 1015,5 hPa 0,0 mm 9,3 km/h (2 Bft) N 360 ° 1 min 0,000 mm 5,7 UV-I 664 W/m² 14,6 °C 28,4 °C 14,5 km/h (3 Bft)
06.07.2017 15:15 28,3 °C 28,4 °C 40 % 1015,5 hPa 0,0 mm 2,9 km/h (1 Bft) N-NW 346 ° 1 min 0,000 mm 6,0 UV-I 664 W/m² 13,4 °C 28,3 °C 9,7 km/h (2 Bft)
06.07.2017 15:16 28,3 °C 28,3 °C 40 % 1015,6 hPa 0,0 mm 3,4 km/h (1 Bft) N-NW 328 ° 1 min 0,000 mm 5,8 UV-I 775 W/m² 13,4 °C 28,3 °C 6,4 km/h (2 Bft)
06.07.2017 15:17 28,2 °C 28,3 °C 43 % 1015,5 hPa 0,0 mm 8,9 km/h (2 Bft) N 5 ° 1 min 0,000 mm 5,7 UV-I 710 W/m² 14,4 °C 28,2 °C 12,9 km/h (3 Bft)
06.07.2017 15:18 28,2 °C 28,2 °C 43 % 1015,5 hPa 0,0 mm 9,8 km/h (2 Bft) NW 316 ° 1 min 0,000 mm 5,6 UV-I 759 W/m² 14,4 °C 28,2 °C 12,9 km/h (3 Bft)
06.07.2017 15:19 28,3 °C 28,3 °C 45 % 1015,4 hPa 0,0 mm 9,2 km/h (2 Bft) N-NW 339 ° 1 min 0,000 mm 5,7 UV-I 719 W/m² 15,2 °C 28,3 °C 16,1 km/h (3 Bft)
06.07.2017 15:20 28,3 °C 28,3 °C 44 % 1015,5 hPa 0,0 mm 7,4 km/h (2 Bft) N-NW 334 ° 1 min 0,000 mm 5,5 UV-I 698 W/m² 14,9 °C 28,3 °C 12,9 km/h (3 Bft)
06.07.2017 15:21 28,3 °C 28,3 °C 44 % 1015,5 hPa 0,0 mm 7,4 km/h (2 Bft) W 277 ° 1 min 0,000 mm 5,2 UV-I 657 W/m² 14,9 °C 28,3 °C 11,3 km/h (2 Bft)
06.07.2017 15:22 28,3 °C 28,3 °C 41 % 1015,5 hPa 0,0 mm 3,8 km/h (1 Bft) W-NW 288 ° 1 min 0,000 mm 5,3 UV-I 726 W/m² 13,8 °C 28,3 °C 6,4 km/h (2 Bft)
06.07.2017 15:23 28,2 °C 28,3 °C 41 % 1015,5 hPa 0,0 mm 2,8 km/h (1 Bft) W-NW 303 ° 1 min 0,000 mm 5,4 UV-I 714 W/m² 13,7 °C 28,2 °C 4,8 km/h (1 Bft)
06.07.2017 15:24 28,2 °C 28,2 °C 43 % 1015,4 hPa 0,0 mm 2,9 km/h (1 Bft) NW 305 ° 1 min 0,000 mm 4,9 UV-I 536 W/m² 14,4 °C 28,2 °C 4,8 km/h (1 Bft)
06.07.2017 15:25 28,2 °C 28,2 °C 42 % 1015,4 hPa 0,0 mm 2,4 km/h (1 Bft) NW 305 ° 1 min 0,000 mm 3,9 UV-I 536 W/m² 14,0 °C 28,2 °C 3,2 km/h (1 Bft)
06.07.2017 15:26 28,1 °C 28,2 °C 44 % 1015,4 hPa 0,0 mm 5,0 km/h (1 Bft) NW 321 ° 1 min 0,000 mm 4,5 UV-I 536 W/m² 14,7 °C 28,1 °C 6,4 km/h (2 Bft)
06.07.2017 15:27 28,0 °C 28,1 °C 44 % 1015,4 hPa 0,0 mm 7,6 km/h (2 Bft) W-NW 299 ° 1 min 0,000 mm 4,6 UV-I 564 W/m² 14,6 °C 28,0 °C 11,3 km/h (2 Bft)
06.07.2017 15:28 27,9 °C 28,0 °C 45 % 1015,4 hPa 0,0 mm 7,4 km/h (2 Bft) W-NW 294 ° 1 min 0,000 mm 5,0 UV-I 664 W/m² 14,8 °C 27,9 °C 11,3 km/h (2 Bft)
06.07.2017 15:29 27,8 °C 27,9 °C 42 % 1015,4 hPa 0,0 mm 2,9 km/h (1 Bft) NW 304 ° 1 min 0,000 mm 5,4 UV-I 747 W/m² 13,7 °C 27,8 °C 8,0 km/h (2 Bft)
06.07.2017 15:30 27,8 °C 27,8 °C 41 % 1015,4 hPa 0,0 mm 2,2 km/h (1 Bft) N-NW 347 ° 1 min 0,000 mm 5,1 UV-I 661 W/m² 13,3 °C 27,8 °C 4,8 km/h (1 Bft)
06.07.2017 15:31 27,7 °C 27,8 °C 42 % 1015,4 hPa 0,0 mm 1,5 km/h (1 Bft) N-NO 29 ° 1 min 0,000 mm 4,8 UV-I 619 W/m² 13,6 °C 27,7 °C 6,4 km/h (2 Bft)
06.07.2017 15:32 27,7 °C 27,7 °C 44 % 1015,3 hPa 0,0 mm 3,9 km/h (1 Bft) O-NO 60 ° 1 min 0,000 mm 4,9 UV-I 635 W/m² 14,3 °C 27,7 °C 6,4 km/h (2 Bft)
06.07.2017 15:33 27,8 °C 27,8 °C 45 % 1015,4 hPa 0,0 mm 5,0 km/h (1 Bft) N 350 ° 1 min 0,000 mm 5,0 UV-I 666 W/m² 14,8 °C 27,8 °C 8,0 km/h (2 Bft)
06.07.2017 15:34 27,8 °C 27,8 °C 45 % 1015,3 hPa 0,0 mm 8,4 km/h (2 Bft) N-NW 348 ° 1 min 0,000 mm 4,7 UV-I 578 W/m² 14,8 °C 27,8 °C 14,5 km/h (3 Bft)
06.07.2017 15:35 27,9 °C 27,9 °C 48 % 1015,4 hPa 0,0 mm 4,5 km/h (1 Bft) NW 322 ° 1 min 0,000 mm 4,7 UV-I 585 W/m² 15,9 °C 27,9 °C 6,4 km/h (2 Bft)
06.07.2017 15:36 27,9 °C 27,9 °C 49 % 1015,4 hPa 0,0 mm 6,7 km/h (2 Bft) N-NW 338 ° 1 min 0,000 mm 4,8 UV-I 594 W/m² 16,2 °C 27,9 °C 9,7 km/h (2 Bft)
06.07.2017 15:37 27,9 °C 27,9 °C 44 % 1015,4 hPa 0,0 mm 4,2 km/h (1 Bft) NW 322 ° 1 min 0,000 mm 4,7 UV-I 591 W/m² 14,5 °C 27,9 °C 6,4 km/h (2 Bft)
06.07.2017 15:38 27,9 °C 27,9 °C 48 % 1015,4 hPa 0,0 mm 8,3 km/h (2 Bft) N-NO 13 ° 1 min 0,000 mm 4,6 UV-I 566 W/m² 15,9 °C 27,9 °C 14,5 km/h (3 Bft)
06.07.2017 15:39 27,9 °C 27,9 °C 43 % 1015,4 hPa 0,0 mm 6,4 km/h (2 Bft) N-NW 340 ° 1 min 0,000 mm 4,5 UV-I 536 W/m² 14,1 °C 27,9 °C 9,7 km/h (2 Bft)
06.07.2017 15:40 27,9 °C 27,9 °C 44 % 1015,4 hPa 0,0 mm 3,4 km/h (1 Bft) NW 325 ° 1 min 0,000 mm 4,5 UV-I 538 W/m² 14,5 °C 27,9 °C 4,8 km/h (1 Bft)
06.07.2017 15:41 27,9 °C 27,9 °C 46 % 1015,3 hPa 0,0 mm 4,6 km/h (1 Bft) NW 319 ° 1 min 0,000 mm 4,4 UV-I 520 W/m² 15,2 °C 27,9 °C 8,0 km/h (2 Bft)
06.07.2017 15:42 27,9 °C 27,9 °C 45 % 1015,3 hPa 0,0 mm 3,4 km/h (1 Bft) NW 313 ° 1 min 0,000 mm 4,7 UV-I 610 W/m² 14,8 °C 27,9 °C 4,8 km/h (1 Bft)
06.07.2017 15:43 27,9 °C 27,9 °C 47 % 1015,4 hPa 0,0 mm 7,0 km/h (2 Bft) N-NO 22 ° 1 min 0,000 mm 4,9 UV-I 606 W/m² 15,5 °C 27,9 °C 16,1 km/h (3 Bft)
06.07.2017 15:44 27,9 °C 27,9 °C 46 % 1015,4 hPa 0,0 mm 7,6 km/h (2 Bft) N-NW 343 ° 1 min 0,000 mm 4,9 UV-I 647 W/m² 15,2 °C 27,9 °C 14,5 km/h (3 Bft)
06.07.2017 15:45 27,9 °C 27,9 °C 47 % 1015,4 hPa 0,0 mm 5,7 km/h (1 Bft) N-NW 348 ° 1 min 0,000 mm 5,0 UV-I 663 W/m² 15,5 °C 27,9 °C 8,0 km/h (2 Bft)
06.07.2017 15:46 27,9 °C 27,9 °C 42 % 1015,4 hPa 0,0 mm 4,8 km/h (1 Bft) N 9 ° 1 min 0,000 mm 5,2 UV-I 714 W/m² 13,8 °C 27,9 °C 8,0 km/h (2 Bft)
06.07.2017 15:47 28,0 °C 28,0 °C 44 % 1015,4 hPa 0,0 mm 4,2 km/h (1 Bft) N-NW 347 ° 1 min 0,000 mm 5,3 UV-I 749 W/m² 14,6 °C 28,0 °C 6,4 km/h (2 Bft)
06.07.2017 15:48 28,0 °C 28,0 °C 44 % 1015,4 hPa 0,0 mm 3,4 km/h (1 Bft) NO 44 ° 1 min 0,000 mm 5,3 UV-I 754 W/m² 14,6 °C 28,0 °C 6,4 km/h (2 Bft)
06.07.2017 15:49 28,0 °C 28,0 °C 44 % 1015,4 hPa 0,0 mm 5,0 km/h (1 Bft) N 5 ° 1 min 0,000 mm 5,1 UV-I 726 W/m² 14,6 °C 28,0 °C 8,0 km/h (2 Bft)
06.07.2017 15:50 28,0 °C 28,1 °C 43 % 1015,4 hPa 0,0 mm 5,1 km/h (1 Bft) N-NO 25 ° 1 min 0,000 mm 5,0 UV-I 671 W/m² 14,2 °C 28,0 °C 8,0 km/h (2 Bft)
06.07.2017 15:51 28,1 °C 28,1 °C 43 % 1015,3 hPa 0,0 mm 5,6 km/h (1 Bft) N-NO 16 ° 1 min 0,000 mm 5,0 UV-I 705 W/m² 14,3 °C 28,1 °C 8,0 km/h (2 Bft)
06.07.2017 15:52 28,1 °C 28,1 °C 42 % 1015,4 hPa 0,0 mm 5,6 km/h (1 Bft) N-NO 19 ° 1 min 0,000 mm 5,2 UV-I 740 W/m² 14,0 °C 28,1 °C 11,3 km/h (2 Bft)
06.07.2017 15:53 28,1 °C 28,1 °C 41 % 1015,4 hPa 0,0 mm 6,0 km/h (2 Bft) N-NO 32 ° 1 min 0,000 mm 5,2 UV-I 721 W/m² 13,6 °C 28,1 °C 8,0 km/h (2 Bft)
06.07.2017 15:54 28,1 °C 28,1 °C 43 % 1015,4 hPa 0,0 mm 2,3 km/h (1 Bft) NO 49 ° 1 min 0,000 mm 3,5 UV-I 721 W/m² 14,3 °C 28,1 °C 6,4 km/h (2 Bft)
06.07.2017 15:55 28,0 °C 28,1 °C 42 % 1015,4 hPa 0,0 mm 8,3 km/h (2 Bft) NO 50 ° 0 min 0,000 mm 3,2 UV-I 236 W/m² 13,9 °C 28,0 °C 14,5 km/h (3 Bft)
06.07.2017 15:56 27,9 °C 28,0 °C 45 % 1015,4 hPa 0,0 mm 4,7 km/h (1 Bft) NO 46 ° 0 min 0,000 mm 3,6 UV-I 260 W/m² 14,8 °C 27,9 °C 6,4 km/h (2 Bft)
06.07.2017 15:57 27,8 °C 27,9 °C 46 % 1015,3 hPa 0,0 mm 5,4 km/h (1 Bft) NO 36 ° 0 min 0,000 mm 4,7 UV-I 260 W/m² 15,1 °C 27,8 °C 9,7 km/h (2 Bft)
06.07.2017 15:58 27,8 °C 27,8 °C 44 % 1015,3 hPa 0,0 mm 7,9 km/h (2 Bft) N-NO 23 ° 1 min 0,000 mm 4,7 UV-I 647 W/m² 14,4 °C 27,8 °C 9,7 km/h (2 Bft)
06.07.2017 15:59 27,8 °C 27,8 °C 43 % 1015,3 hPa 0,0 mm 6,1 km/h (2 Bft) N-NO 25 ° 1 min 0,000 mm 4,8 UV-I 728 W/m² 14,1 °C 27,8 °C 9,7 km/h (2 Bft)
06.07.2017 16:00 27,8 °C 27,8 °C 43 % 1015,3 hPa 0,0 mm 3,6 km/h (1 Bft) NO 41 ° 1 min 0,000 mm 4,8 UV-I 701 W/m² 14,1 °C 27,8 °C 9,7 km/h (2 Bft)
06.07.2017 16:01 27,8 °C 27,8 °C 42 % 1015,3 hPa 0,0 mm 3,1 km/h (1 Bft) O-NO 59 ° 1 min 0,508 mm 4,3 UV-I 631 W/m² 13,7 °C 27,8 °C 6,4 km/h (2 Bft)
06.07.2017 16:02 27,9 °C 27,9 °C 47 % 1015,3 hPa 0,0 mm 4,2 km/h (1 Bft) NW 317 ° 1 min 0,000 mm 3,6 UV-I 631 W/m² 15,5 °C 27,9 °C 9,7 km/h (2 Bft)
06.07.2017 16:03 27,9 °C 27,9 °C 44 % 1015,3 hPa 0,0 mm 7,0 km/h (2 Bft) N 355 ° 0 min 0,000 mm 3,2 UV-I 264 W/m² 14,5 °C 27,9 °C 11,3 km/h (2 Bft)
06.07.2017 16:04 27,8 °C 27,9 °C 47 % 1015,3 hPa 0,0 mm 6,3 km/h (2 Bft) NW 319 ° 0 min 0,000 mm 4,4 UV-I 264 W/m² 15,4 °C 27,8 °C 9,7 km/h (2 Bft)
06.07.2017 16:05 27,8 °C 27,9 °C 46 % 1015,3 hPa 0,0 mm 6,6 km/h (2 Bft) N 355 ° 0 min 0,000 mm 4,2 UV-I 264 W/m² 15,1 °C 27,8 °C 8,0 km/h (2 Bft)
06.07.2017 16:06 27,8 °C 27,8 °C 42 % 1015,3 hPa 0,0 mm 4,3 km/h (1 Bft) N-NW 344 ° 1 min 0,000 mm 4,5 UV-I 656 W/m² 13,7 °C 27,8 °C 6,4 km/h (2 Bft)
06.07.2017 16:07 27,8 °C 27,9 °C 44 % 1015,3 hPa 0,0 mm 3,2 km/h (1 Bft) N 355 ° 1 min 0,000 mm 4,8 UV-I 708 W/m² 14,4 °C 27,8 °C 6,4 km/h (2 Bft)
06.07.2017 16:08 27,9 °C 27,9 °C 46 % 1015,3 hPa 0,0 mm 4,8 km/h (1 Bft) NW 320 ° 1 min 0,000 mm 4,6 UV-I 675 W/m² 15,2 °C 27,9 °C 9,7 km/h (2 Bft)
06.07.2017 16:09 27,9 °C 27,9 °C 43 % 1015,3 hPa 0,0 mm 6,1 km/h (2 Bft) NW 322 ° 1 min 0,000 mm 4,3 UV-I 628 W/m² 14,1 °C 27,9 °C 8,0 km/h (2 Bft)
06.07.2017 16:10 27,9 °C 27,9 °C 42 % 1015,2 hPa 0,0 mm 7,0 km/h (2 Bft) N-NO 29 ° 1 min 0,000 mm 4,2 UV-I 552 W/m² 13,8 °C 27,9 °C 11,3 km/h (2 Bft)
06.07.2017 16:11 27,9 °C 27,9 °C 45 % 1015,3 hPa 0,0 mm 4,5 km/h (1 Bft) O-NO 69 ° 1 min 0,000 mm 4,5 UV-I 578 W/m² 14,8 °C 27,9 °C 8,0 km/h (2 Bft)
06.07.2017 16:12 27,9 °C 27,9 °C 44 % 1015,2 hPa 0,0 mm 5,2 km/h (1 Bft) N-NO 17 ° 1 min 0,000 mm 4,1 UV-I 483 W/m² 14,5 °C 27,9 °C 6,4 km/h (2 Bft)
06.07.2017 16:13 27,9 °C 27,9 °C 42 % 1015,2 hPa 0,0 mm 4,6 km/h (1 Bft) NW 309 ° 1 min 0,000 mm 4,5 UV-I 552 W/m² 13,8 °C 27,9 °C 11,3 km/h (2 Bft)
06.07.2017 16:14 27,9 °C 27,9 °C 45 % 1015,2 hPa 0,0 mm 7,8 km/h (2 Bft) W-NW 303 ° 1 min 0,000 mm 4,2 UV-I 552 W/m² 14,8 °C 27,9 °C 12,9 km/h (3 Bft)
06.07.2017 16:15 27,8 °C 27,9 °C 46 % 1015,2 hPa 0,0 mm 7,5 km/h (2 Bft) W-NW 289 ° 1 min 0,000 mm 3,6 UV-I 552 W/m² 15,1 °C 27,8 °C 12,9 km/h (3 Bft)
06.07.2017 16:16 27,8 °C 27,8 °C 48 % 1015,2 hPa 0,0 mm 8,7 km/h (2 Bft) N 355 ° 0 min 0,000 mm 3,1 UV-I 248 W/m² 15,8 °C 27,8 °C 14,5 km/h (3 Bft)
06.07.2017 16:17 27,8 °C 27,8 °C 45 % 1015,3 hPa 0,0 mm 8,1 km/h (2 Bft) NW 314 ° 0 min 0,000 mm 3,0 UV-I 243 W/m² 14,8 °C 27,8 °C 12,9 km/h (3 Bft)
06.07.2017 16:18 27,8 °C 27,8 °C 48 % 1015,3 hPa 0,0 mm 11,5 km/h (2 Bft) N-NW 329 ° 0 min 0,000 mm 3,1 UV-I 250 W/m² 15,8 °C 27,8 °C 16,1 km/h (3 Bft)
06.07.2017 16:19 27,8 °C 27,8 °C 46 % 1015,3 hPa 0,0 mm 5,4 km/h (1 Bft) N 350 ° 0 min 0,000 mm 3,1 UV-I 251 W/m² 15,1 °C 27,8 °C 9,7 km/h (2 Bft)
06.07.2017 16:20 27,8 °C 27,8 °C 46 % 1015,2 hPa 0,0 mm 6,4 km/h (2 Bft) N-NW 340 ° 0 min 0,000 mm 3,0 UV-I 248 W/m² 15,1 °C 27,8 °C 9,7 km/h (2 Bft)
06.07.2017 16:21 27,8 °C 27,8 °C 44 % 1015,2 hPa 0,0 mm 6,4 km/h (2 Bft) N 360 ° 0 min 0,000 mm 3,0 UV-I 248 W/m² 14,4 °C 27,8 °C 9,7 km/h (2 Bft)
06.07.2017 16:22 27,8 °C 27,8 °C 45 % 1015,2 hPa 0,0 mm 5,6 km/h (1 Bft) N 360 ° 0 min 0,000 mm 3,0 UV-I 250 W/m² 14,8 °C 27,8 °C 8,0 km/h (2 Bft)
06.07.2017 16:23 27,9 °C 27,9 °C 45 % 1015,2 hPa 0,0 mm 5,5 km/h (1 Bft) NW 311 ° 0 min 0,000 mm 3,0 UV-I 258 W/m² 14,8 °C 27,9 °C 6,4 km/h (2 Bft)
06.07.2017 16:24 27,9 °C 27,9 °C 45 % 1015,2 hPa 0,0 mm 2,2 km/h (1 Bft) NW 311 ° 0 min 0,000 mm 3,0 UV-I 265 W/m² 14,8 °C 27,9 °C 3,2 km/h (1 Bft)
06.07.2017 16:25 27,8 °C 27,9 °C 42 % 1015,2 hPa 0,0 mm 3,2 km/h (1 Bft) N-NW 340 ° 0 min 0,000 mm 3,0 UV-I 271 W/m² 13,7 °C 27,8 °C 4,8 km/h (1 Bft)
06.07.2017 16:26 27,8 °C 27,8 °C 45 % 1015,2 hPa 0,0 mm 6,9 km/h (2 Bft) N-NO 26 ° 0 min 0,000 mm 3,1 UV-I 274 W/m² 14,8 °C 27,8 °C 14,5 km/h (3 Bft)
06.07.2017 16:27 27,8 °C 27,8 °C 45 % 1015,2 hPa 0,0 mm 10,2 km/h (2 Bft) N-NW 336 ° 0 min 0,000 mm 3,1 UV-I 278 W/m² 14,8 °C 27,8 °C 14,5 km/h (3 Bft)
06.07.2017 16:28 27,9 °C 27,9 °C 45 % 1015,1 hPa 0,0 mm 7,6 km/h (2 Bft) NW 313 ° 0 min 0,000 mm 3,1 UV-I 283 W/m² 14,8 °C 27,9 °C 12,9 km/h (3 Bft)
06.07.2017 16:29 27,9 °C 27,9 °C 44 % 1015,1 hPa 0,0 mm 7,6 km/h (2 Bft) N-NW 338 ° 0 min 0,000 mm 3,1 UV-I 283 W/m² 14,5 °C 27,9 °C 12,9 km/h (3 Bft)
06.07.2017 16:30 27,9 °C 27,9 °C 44 % 1015,2 hPa 0,0 mm 2,5 km/h (1 Bft) W-NW 298 ° 0 min 0,000 mm 3,1 UV-I 279 W/m² 14,5 °C 27,9 °C 6,4 km/h (2 Bft)
06.07.2017 16:31 27,8 °C 27,9 °C 45 % 1015,2 hPa 0,0 mm 4,1 km/h (1 Bft) N 9 ° 0 min 0,000 mm 3,1 UV-I 279 W/m² 14,8 °C 27,8 °C 6,4 km/h (2 Bft)
06.07.2017 16:32 27,8 °C 27,8 °C 45 % 1015,2 hPa 0,0 mm 3,1 km/h (1 Bft) N 355 ° 0 min 0,000 mm 3,1 UV-I 281 W/m² 14,8 °C 27,8 °C 6,4 km/h (2 Bft)
06.07.2017 16:33 27,8 °C 27,8 °C 49 % 1015,1 hPa 0,0 mm 5,5 km/h (1 Bft) NW 320 ° 0 min 0,000 mm 3,1 UV-I 281 W/m² 16,1 °C 27,8 °C 8,0 km/h (2 Bft)
06.07.2017 16:34 27,8 °C 27,8 °C 50 % 1015,1 hPa 0,0 mm 7,0 km/h (2 Bft) N-NW 327 ° 0 min 0,000 mm 3,0 UV-I 279 W/m² 16,4 °C 27,8 °C 12,9 km/h (3 Bft)
06.07.2017 16:35 27,8 °C 27,8 °C 51 % 1015,1 hPa 0,0 mm 8,9 km/h (2 Bft) NW 317 ° 0 min 0,000 mm 3,0 UV-I 279 W/m² 16,7 °C 27,8 °C 12,9 km/h (3 Bft)
06.07.2017 16:36 27,8 °C 27,8 °C 46 % 1015,1 hPa 0,0 mm 6,3 km/h (2 Bft) NW 317 ° 0 min 0,000 mm 2,9 UV-I 279 W/m² 15,1 °C 27,8 °C 9,7 km/h (2 Bft)
06.07.2017 16:37 27,8 °C 27,8 °C 47 % 1015,1 hPa 0,0 mm 6,9 km/h (2 Bft) N-NO 20 ° 0 min 0,000 mm 2,9 UV-I 278 W/m² 15,4 °C 27,8 °C 12,9 km/h (3 Bft)
06.07.2017 16:38 27,9 °C 27,9 °C 46 % 1015,1 hPa 0,0 mm 7,6 km/h (2 Bft) NW 311 ° 0 min 0,000 mm 2,8 UV-I 276 W/m² 15,2 °C 27,9 °C 9,7 km/h (2 Bft)
06.07.2017 16:39 27,8 °C 27,9 °C 44 % 1015,1 hPa 0,0 mm 1,2 km/h (1 Bft) NW 321 ° 0 min 0,000 mm 2,8 UV-I 274 W/m² 14,4 °C 27,8 °C 4,8 km/h (1 Bft)
06.07.2017 16:40 27,8 °C 27,8 °C 46 % 1015,1 hPa 0,0 mm 1,5 km/h (1 Bft) O-NO 57 ° 0 min 0,000 mm 2,7 UV-I 272 W/m² 15,1 °C 27,8 °C 6,4 km/h (2 Bft)
06.07.2017 16:41 27,7 °C 27,8 °C 46 % 1015,1 hPa 0,0 mm 4,9 km/h (1 Bft) N-NO 19 ° 0 min 0,000 mm 2,7 UV-I 272 W/m² 15,0 °C 27,7 °C 6,4 km/h (2 Bft)
06.07.2017 16:42 27,8 °C 27,8 °C 46 % 1015,1 hPa 0,0 mm 5,7 km/h (1 Bft) NW 311 ° 0 min 0,000 mm 2,6 UV-I 274 W/m² 15,1 °C 27,8 °C 9,7 km/h (2 Bft)
06.07.2017 16:43 27,8 °C 27,8 °C 45 % 1015,1 hPa 0,0 mm 5,9 km/h (2 Bft) N 360 ° 0 min 0,000 mm 2,6 UV-I 276 W/m² 14,8 °C 27,8 °C 11,3 km/h (2 Bft)
06.07.2017 16:44 27,8 °C 27,8 °C 45 % 1015,1 hPa 0,0 mm 2,9 km/h (1 Bft) NW 324 ° 0 min 0,000 mm 2,6 UV-I 278 W/m² 14,8 °C 27,8 °C 4,8 km/h (1 Bft)
06.07.2017 16:45 27,7 °C 27,8 °C 47 % 1015,0 hPa 0,0 mm 3,2 km/h (1 Bft) W 281 ° 0 min 0,000 mm 2,6 UV-I 281 W/m² 15,3 °C 27,7 °C 6,4 km/h (2 Bft)
06.07.2017 16:46 27,8 °C 27,8 °C 51 % 1015,0 hPa 0,0 mm 5,0 km/h (1 Bft) W-NW 302 ° 0 min 0,000 mm 2,6 UV-I 279 W/m² 16,7 °C 27,8 °C 6,4 km/h (2 Bft)
06.07.2017 16:47 27,8 °C 27,8 °C 46 % 1015,0 hPa 0,0 mm 4,0 km/h (1 Bft) NW 315 ° 0 min 0,000 mm 2,6 UV-I 279 W/m² 15,1 °C 27,8 °C 6,4 km/h (2 Bft)
06.07.2017 16:48 27,7 °C 27,8 °C 46 % 1015,0 hPa 0,0 mm 4,1 km/h (1 Bft) NW 323 ° 0 min 0,000 mm 2,5 UV-I 278 W/m² 15,0 °C 27,7 °C 11,3 km/h (2 Bft)
06.07.2017 16:49 27,7 °C 27,7 °C 47 % 1015,0 hPa 0,0 mm 7,0 km/h (2 Bft) NW 317 ° 0 min 0,000 mm 2,5 UV-I 272 W/m² 15,3 °C 27,7 °C 9,7 km/h (2 Bft)
06.07.2017 16:50 27,7 °C 27,7 °C 47 % 1015,0 hPa 0,0 mm 7,0 km/h (2 Bft) NW 324 ° 0 min 0,000 mm 2,4 UV-I 269 W/m² 15,3 °C 27,7 °C 9,7 km/h (2 Bft)
06.07.2017 16:51 27,6 °C 27,7 °C 47 % 1015,0 hPa 0,0 mm 6,9 km/h (2 Bft) N 360 ° 0 min 0,000 mm 2,4 UV-I 265 W/m² 15,3 °C 27,6 °C 11,3 km/h (2 Bft)
06.07.2017 16:52 27,6 °C 27,6 °C 50 % 1015,0 hPa 0,0 mm 4,8 km/h (1 Bft) N 11 ° 0 min 0,000 mm 2,3 UV-I 267 W/m² 16,2 °C 27,6 °C 8,0 km/h (2 Bft)
06.07.2017 16:53 27,7 °C 27,7 °C 47 % 1015,0 hPa 0,0 mm 7,4 km/h (2 Bft) NW 315 ° 0 min 0,000 mm 2,4 UV-I 267 W/m² 15,3 °C 27,7 °C 9,7 km/h (2 Bft)
06.07.2017 16:54 27,7 °C 27,7 °C 47 % 1015,0 hPa 0,0 mm 3,3 km/h (1 Bft) N-NW 331 ° 0 min 0,000 mm 2,4 UV-I 267 W/m² 15,3 °C 27,7 °C 4,8 km/h (1 Bft)
06.07.2017 16:55 27,7 °C 27,7 °C 46 % 1015,0 hPa 0,0 mm 3,8 km/h (1 Bft) N 360 ° 0 min 0,000 mm 2,4 UV-I 267 W/m² 15,0 °C 27,7 °C 4,8 km/h (1 Bft)
06.07.2017 16:56 27,7 °C 27,7 °C 47 % 1015,0 hPa 0,0 mm 6,6 km/h (2 Bft) N-NW 339 ° 0 min 0,000 mm 2,4 UV-I 271 W/m² 15,3 °C 27,7 °C 9,7 km/h (2 Bft)
06.07.2017 16:57 27,6 °C 27,7 °C 45 % 1015,0 hPa 0,0 mm 2,7 km/h (1 Bft) N-NW 342 ° 0 min 0,000 mm 2,4 UV-I 272 W/m² 14,6 °C 27,6 °C 6,4 km/h (2 Bft)
06.07.2017 16:58 27,6 °C 27,6 °C 47 % 1015,0 hPa 0,0 mm 4,1 km/h (1 Bft) N-NO 22 ° 0 min 0,000 mm 2,4 UV-I 274 W/m² 15,3 °C 27,6 °C 8,0 km/h (2 Bft)
06.07.2017 16:59 27,5 °C 27,6 °C 45 % 1015,0 hPa 0,0 mm 5,7 km/h (1 Bft) N-NO 19 ° 0 min 0,000 mm 2,5 UV-I 274 W/m² 14,5 °C 27,5 °C 8,0 km/h (2 Bft)
06.07.2017 17:00 27,5 °C 27,5 °C 43 % 1014,9 hPa 0,0 mm 3,7 km/h (1 Bft) N-NO 19 ° 0 min 0,279 mm 2,5 UV-I 274 W/m² 13,8 °C 27,5 °C 4,8 km/h (1 Bft)
06.07.2017 17:01 27,6 °C 27,6 °C 45 % 1014,9 hPa 0,0 mm 2,2 km/h (1 Bft) N-NO 16 ° 0 min 0,000 mm 2,5 UV-I 276 W/m² 14,6 °C 27,6 °C 3,2 km/h (1 Bft)
06.07.2017 17:02 27,6 °C 27,6 °C 45 % 1014,9 hPa 0,0 mm 5,9 km/h (2 Bft) N 349 ° 0 min 0,000 mm 2,5 UV-I 272 W/m² 14,6 °C 27,6 °C 8,0 km/h (2 Bft)
06.07.2017 17:03 27,6 °C 27,6 °C 45 % 1014,9 hPa 0,0 mm 5,3 km/h (1 Bft) NW 319 ° 0 min 0,000 mm 2,5 UV-I 271 W/m² 14,6 °C 27,6 °C 6,4 km/h (2 Bft)
06.07.2017 17:04 27,5 °C 27,6 °C 46 % 1014,9 hPa 0,0 mm 2,7 km/h (1 Bft) NW 318 ° 0 min 0,000 mm 2,5 UV-I 265 W/m² 14,8 °C 27,5 °C 6,4 km/h (2 Bft)
06.07.2017 17:05 27,4 °C 27,5 °C 44 % 1014,9 hPa 0,0 mm 1,5 km/h (1 Bft) N 360 ° 0 min 0,000 mm 2,5 UV-I 264 W/m² 14,0 °C 27,4 °C 3,2 km/h (1 Bft)
06.07.2017 17:06 27,4 °C 27,5 °C 44 % 1014,8 hPa 0,0 mm 5,3 km/h (1 Bft) NO 47 ° 0 min 0,000 mm 2,5 UV-I 264 W/m² 14,0 °C 27,4 °C 8,0 km/h (2 Bft)
06.07.2017 17:07 27,4 °C 27,4 °C 45 % 1014,9 hPa 0,0 mm 5,2 km/h (1 Bft) N-NO 15 ° 0 min 0,000 mm 2,5 UV-I 264 W/m² 14,4 °C 27,4 °C 8,0 km/h (2 Bft)
06.07.2017 17:08 27,5 °C 27,5 °C 44 % 1014,9 hPa 0,0 mm 3,3 km/h (1 Bft) N-NO 15 ° 0 min 0,000 mm 2,4 UV-I 255 W/m² 14,1 °C 27,5 °C 4,8 km/h (1 Bft)
06.07.2017 17:09 27,6 °C 27,6 °C 46 % 1014,9 hPa 0,0 mm 2,2 km/h (1 Bft) N 10 ° 0 min 0,000 mm 2,4 UV-I 253 W/m² 14,9 °C 27,6 °C 8,0 km/h (2 Bft)
06.07.2017 17:10 27,7 °C 27,7 °C 45 % 1014,9 hPa 0,0 mm 5,0 km/h (1 Bft) N 355 ° 0 min 0,000 mm 2,4 UV-I 248 W/m² 14,7 °C 27,7 °C 6,4 km/h (2 Bft)
06.07.2017 17:11 27,7 °C 27,7 °C 47 % 1014,9 hPa 0,0 mm 3,9 km/h (1 Bft) N 5 ° 0 min 0,000 mm 2,4 UV-I 250 W/m² 15,3 °C 27,7 °C 6,4 km/h (2 Bft)
06.07.2017 17:12 27,7 °C 27,7 °C 46 % 1014,9 hPa 0,0 mm 4,7 km/h (1 Bft) NO 36 ° 0 min 0,000 mm 2,4 UV-I 241 W/m² 15,0 °C 27,7 °C 6,4 km/h (2 Bft)
06.07.2017 17:13 27,7 °C 27,7 °C 46 % 1014,9 hPa 0,0 mm 1,1 km/h (1 Bft) N 5 ° 0 min 0,000 mm 2,4 UV-I 236 W/m² 15,0 °C 27,7 °C 3,2 km/h (1 Bft)
06.07.2017 17:14 27,6 °C 27,7 °C 48 % 1014,8 hPa 0,0 mm 2,2 km/h (1 Bft) N 5 ° 0 min 0,000 mm 2,4 UV-I 232 W/m² 15,6 °C 27,6 °C 3,2 km/h (1 Bft)
06.07.2017 17:15 27,6 °C 27,6 °C 46 % 1014,9 hPa 0,0 mm 3,4 km/h (1 Bft) N-NO 19 ° 0 min 0,000 mm 2,4 UV-I 227 W/m² 14,9 °C 27,6 °C 12,9 km/h (3 Bft)
06.07.2017 17:16 27,5 °C 27,6 °C 44 % 1014,8 hPa 0,0 mm 5,5 km/h (1 Bft) N-NW 338 ° 0 min 0,000 mm 2,3 UV-I 216 W/m² 14,1 °C 27,5 °C 12,9 km/h (3 Bft)
06.07.2017 17:17 27,5 °C 27,5 °C 47 % 1014,8 hPa 0,0 mm 4,8 km/h (1 Bft) N-NW 327 ° 0 min 0,000 mm 2,3 UV-I 211 W/m² 15,2 °C 27,5 °C 6,4 km/h (2 Bft)
06.07.2017 17:18 27,4 °C 27,5 °C 46 % 1014,8 hPa 0,0 mm 4,1 km/h (1 Bft) N-NW 337 ° 0 min 0,000 mm 2,3 UV-I 207 W/m² 14,7 °C 27,4 °C 4,8 km/h (1 Bft)
06.07.2017 17:19 27,4 °C 27,4 °C 48 % 1014,8 hPa 0,0 mm 4,1 km/h (1 Bft) NW 321 ° 0 min 0,000 mm 2,2 UV-I 204 W/m² 15,4 °C 27,4 °C 4,8 km/h (1 Bft)
06.07.2017 17:20 27,4 °C 27,5 °C 47 % 1014,8 hPa 0,0 mm 5,8 km/h (2 Bft) NW 319 ° 0 min 0,000 mm 2,2 UV-I 200 W/m² 15,1 °C 27,4 °C 9,7 km/h (2 Bft)
06.07.2017 17:21 27,4 °C 27,4 °C 44 % 1014,8 hPa 0,0 mm 4,2 km/h (1 Bft) NW 322 ° 0 min 0,000 mm 2,2 UV-I 197 W/m² 14,0 °C 27,4 °C 6,4 km/h (2 Bft)
06.07.2017 17:22 27,4 °C 27,4 °C 45 % 1014,7 hPa 0,0 mm 5,4 km/h (1 Bft) N 355 ° 0 min 0,000 mm 2,2 UV-I 193 W/m² 14,4 °C 27,4 °C 8,0 km/h (2 Bft)
06.07.2017 17:23 27,4 °C 27,4 °C 44 % 1014,8 hPa 0,0 mm 5,0 km/h (1 Bft) N-NO 14 ° 0 min 0,000 mm 2,2 UV-I 186 W/m² 14,0 °C 27,4 °C 6,4 km/h (2 Bft)
06.07.2017 17:24 27,4 °C 27,4 °C 45 % 1014,8 hPa 0,0 mm 5,4 km/h (1 Bft) N 5 ° 0 min 0,000 mm 2,1 UV-I 181 W/m² 14,4 °C 27,4 °C 6,4 km/h (2 Bft)
06.07.2017 17:25 27,4 °C 27,4 °C 45 % 1014,7 hPa 0,0 mm 5,2 km/h (1 Bft) N 5 ° 0 min 0,000 mm 2,1 UV-I 174 W/m² 14,4 °C 27,4 °C 8,0 km/h (2 Bft)
06.07.2017 17:26 27,4 °C 27,4 °C 45 % 1014,7 hPa 0,0 mm 4,8 km/h (1 Bft) N-NW 331 ° 0 min 0,000 mm 2,1 UV-I 169 W/m² 14,4 °C 27,4 °C 6,4 km/h (2 Bft)
06.07.2017 17:27 27,3 °C 27,4 °C 47 % 1014,7 hPa 0,0 mm 2,6 km/h (1 Bft) N-NW 346 ° 0 min 0,000 mm 2,0 UV-I 162 W/m² 15,0 °C 27,3 °C 3,2 km/h (1 Bft)
06.07.2017 17:28 27,4 °C 27,4 °C 45 % 1014,7 hPa 0,0 mm 3,3 km/h (1 Bft) NO 47 ° 0 min 0,000 mm 2,0 UV-I 158 W/m² 14,4 °C 27,4 °C 4,8 km/h (1 Bft)
06.07.2017 17:29 27,4 °C 27,4 °C 45 % 1014,7 hPa 0,0 mm 2,7 km/h (1 Bft) NO 34 ° 0 min 0,000 mm 2,0 UV-I 153 W/m² 14,4 °C 27,4 °C 4,8 km/h (1 Bft)
06.07.2017 17:30 27,4 °C 27,4 °C 44 % 1014,7 hPa 0,0 mm 2,5 km/h (1 Bft) NO 34 ° 0 min 0,000 mm 1,9 UV-I 148 W/m² 14,0 °C 27,4 °C 3,2 km/h (1 Bft)
06.07.2017 17:31 27,4 °C 27,4 °C 46 % 1014,7 hPa 0,0 mm 2,1 km/h (1 Bft) NO 34 ° 0 min 0,000 mm 1,9 UV-I 144 W/m² 14,7 °C 27,4 °C 3,2 km/h (1 Bft)
06.07.2017 17:32 27,4 °C 27,4 °C 46 % 1014,7 hPa 0,0 mm 1,3 km/h (1 Bft) NO 34 ° 0 min 0,000 mm 1,9 UV-I 142 W/m² 14,7 °C 27,4 °C 3,2 km/h (1 Bft)
06.07.2017 17:33 27,3 °C 27,4 °C 46 % 1014,7 hPa 0,0 mm 1,4 km/h (1 Bft) NO 34 ° 0 min 0,000 mm 1,9 UV-I 153 W/m² 14,6 °C 27,3 °C 3,2 km/h (1 Bft)
06.07.2017 17:34 27,3 °C 27,3 °C 47 % 1014,7 hPa 0,0 mm 3,9 km/h (1 Bft) N-NO 29 ° 0 min 0,000 mm 1,9 UV-I 149 W/m² 15,0 °C 27,3 °C 6,4 km/h (2 Bft)
06.07.2017 17:35 27,3 °C 27,3 °C 45 % 1014,7 hPa 0,0 mm 2,0 km/h (1 Bft) N-NO 28 ° 0 min 0,000 mm 1,9 UV-I 148 W/m² 14,3 °C 27,3 °C 4,8 km/h (1 Bft)
06.07.2017 17:36 27,3 °C 27,3 °C 48 % 1014,7 hPa 0,0 mm 1,5 km/h (1 Bft) N-NO 28 ° 0 min 0,000 mm 1,9 UV-I 153 W/m² 15,3 °C 27,3 °C 3,2 km/h (1 Bft)
06.07.2017 17:37 27,3 °C 27,3 °C 46 % 1014,7 hPa 0,0 mm 1,5 km/h (1 Bft) N-NO 28 ° 0 min 0,000 mm 1,9 UV-I 155 W/m² 14,6 °C 27,3 °C 3,2 km/h (1 Bft)
06.07.2017 17:38 27,3 °C 27,3 °C 43 % 1014,7 hPa 0,0 mm 0,1 km/h (0 Bft) N-NO 28 ° 0 min 0,000 mm 2,0 UV-I 156 W/m² 13,6 °C 27,3 °C 1,6 km/h (1 Bft)
06.07.2017 17:39 27,4 °C 27,4 °C 43 % 1014,7 hPa 0,0 mm 3,5 km/h (1 Bft) NO 47 ° 0 min 0,000 mm 2,0 UV-I 153 W/m² 13,7 °C 27,4 °C 8,0 km/h (2 Bft)
06.07.2017 17:40 27,4 °C 27,4 °C 47 % 1014,7 hPa 0,0 mm 3,5 km/h (1 Bft) NO 49 ° 0 min 0,000 mm 1,9 UV-I 151 W/m² 15,1 °C 27,4 °C 4,8 km/h (1 Bft)
06.07.2017 17:41 27,4 °C 27,4 °C 46 % 1014,7 hPa 0,0 mm 1,0 km/h (0 Bft) NO 49 ° 0 min 0,000 mm 1,9 UV-I 139 W/m² 14,7 °C 27,4 °C 3,2 km/h (1 Bft)
06.07.2017 17:42 27,4 °C 27,4 °C 43 % 1014,7 hPa 0,0 mm 0,0 km/h (0 Bft) NO 49 ° 0 min 0,000 mm 1,9 UV-I 149 W/m² 13,7 °C 27,4 °C 0,0 km/h (0 Bft)
06.07.2017 17:43 27,3 °C 27,4 °C 43 % 1014,6 hPa 0,0 mm 0,0 km/h (0 Bft) NO 49 ° 0 min 0,000 mm 1,9 UV-I 146 W/m² 13,6 °C 27,3 °C 0,0 km/h (0 Bft)
06.07.2017 17:44 27,4 °C 27,4 °C 44 % 1014,7 hPa 0,0 mm 0,1 km/h (0 Bft) NO 49 ° 0 min 0,000 mm 1,9 UV-I 144 W/m² 14,0 °C 27,4 °C 1,6 km/h (1 Bft)
06.07.2017 17:45 27,4 °C 27,4 °C 44 % 1014,7 hPa 0,0 mm 2,3 km/h (1 Bft) O-NO 74 ° 0 min 0,000 mm 1,9 UV-I 137 W/m² 14,0 °C 27,4 °C 4,8 km/h (1 Bft)
06.07.2017 17:46 27,4 °C 27,4 °C 45 % 1014,7 hPa 0,0 mm 3,8 km/h (1 Bft) O 84 ° 0 min 0,000 mm 1,9 UV-I 137 W/m² 14,4 °C 27,4 °C 6,4 km/h (2 Bft)
06.07.2017 17:47 27,4 °C 27,4 °C 45 % 1014,7 hPa 0,0 mm 3,3 km/h (1 Bft) O 100 ° 0 min 0,000 mm 1,9 UV-I 134 W/m² 14,4 °C 27,4 °C 6,4 km/h (2 Bft)
06.07.2017 17:48 27,3 °C 27,4 °C 45 % 1014,7 hPa 0,0 mm 2,2 km/h (1 Bft) O 84 ° 0 min 0,000 mm 1,8 UV-I 132 W/m² 14,3 °C 27,3 °C 4,8 km/h (1 Bft)
06.07.2017 17:49 27,3 °C 27,3 °C 43 % 1014,7 hPa 0,0 mm 2,6 km/h (1 Bft) O 84 ° 0 min 0,000 mm 1,8 UV-I 127 W/m² 13,6 °C 27,3 °C 4,8 km/h (1 Bft)
06.07.2017 17:50 27,3 °C 27,3 °C 44 % 1014,6 hPa 0,0 mm 1,5 km/h (1 Bft) O 84 ° 0 min 0,000 mm 1,8 UV-I 118 W/m² 14,0 °C 27,3 °C 3,2 km/h (1 Bft)
06.07.2017 17:51 27,2 °C 27,3 °C 44 % 1014,6 hPa 0,0 mm 0,1 km/h (0 Bft) O 84 ° 0 min 0,000 mm 1,7 UV-I 107 W/m² 13,9 °C 27,2 °C 1,6 km/h (1 Bft)
06.07.2017 17:52 27,2 °C 27,2 °C 44 % 1014,6 hPa 0,0 mm 2,3 km/h (1 Bft) O 84 ° 0 min 0,000 mm 1,7 UV-I 105 W/m² 13,9 °C 27,2 °C 4,8 km/h (1 Bft)
06.07.2017 17:53 27,2 °C 27,2 °C 42 % 1014,6 hPa 0,0 mm 0,0 km/h (0 Bft) O 84 ° 0 min 0,000 mm 1,7 UV-I 105 W/m² 13,2 °C 27,2 °C 0,0 km/h (0 Bft)
06.07.2017 17:54 27,2 °C 27,2 °C 43 % 1014,6 hPa 0,0 mm 1,8 km/h (1 Bft) O-SO 119 ° 0 min 0,000 mm 1,7 UV-I 102 W/m² 13,5 °C 27,2 °C 3,2 km/h (1 Bft)
06.07.2017 17:55 27,1 °C 27,2 °C 43 % 1014,6 hPa 0,0 mm 3,0 km/h (1 Bft) O-SO 119 ° 0 min 0,000 mm 1,7 UV-I 102 W/m² 13,4 °C 27,1 °C 3,2 km/h (1 Bft)
06.07.2017 17:56 27,1 °C 27,2 °C 46 % 1014,6 hPa 0,0 mm 0,9 km/h (0 Bft) O-SO 119 ° 0 min 0,000 mm 1,7 UV-I 98 W/m² 14,5 °C 27,1 °C 3,2 km/h (1 Bft)
06.07.2017 17:57 27,1 °C 27,1 °C 47 % 1014,6 hPa 0,0 mm 0,9 km/h (0 Bft) O-SO 119 ° 0 min 0,000 mm 1,6 UV-I 86 W/m² 14,8 °C 27,1 °C 3,2 km/h (1 Bft)
06.07.2017 17:58 27,1 °C 27,1 °C 45 % 1014,6 hPa 0,0 mm 2,9 km/h (1 Bft) O 94 ° 0 min 0,000 mm 1,6 UV-I 84 W/m² 14,1 °C 27,1 °C 3,2 km/h (1 Bft)
06.07.2017 17:59 27,2 °C 27,2 °C 44 % 1014,6 hPa 0,0 mm 4,6 km/h (1 Bft) N 355 ° 0 min 0,000 mm 1,6 UV-I 86 W/m² 13,9 °C 27,2 °C 8,0 km/h (2 Bft)
06.07.2017 18:00 27,3 °C 27,3 °C 43 % 1014,6 hPa 0,0 mm 4,6 km/h (1 Bft) N 5 ° 0 min 0,152 mm 1,6 UV-I 83 W/m² 13,6 °C 27,3 °C 6,4 km/h (2 Bft)
06.07.2017 18:01 27,3 °C 27,3 °C 43 % 1014,6 hPa 0,0 mm 2,1 km/h (1 Bft) N 355 ° 0 min 0,000 mm 1,6 UV-I 84 W/m² 13,6 °C 27,3 °C 3,2 km/h (1 Bft)
06.07.2017 18:02 27,4 °C 27,4 °C 45 % 1014,6 hPa 0,0 mm 4,7 km/h (1 Bft) NO 41 ° 0 min 0,000 mm 1,5 UV-I 83 W/m² 14,4 °C 27,4 °C 6,4 km/h (2 Bft)
06.07.2017 18:03 27,4 °C 27,4 °C 46 % 1014,6 hPa 0,0 mm 4,8 km/h (1 Bft) N 5 ° 0 min 0,000 mm 1,5 UV-I 81 W/m² 14,7 °C 27,4 °C 6,4 km/h (2 Bft)
06.07.2017 18:04 27,4 °C 27,4 °C 45 % 1014,6 hPa 0,0 mm 5,6 km/h (1 Bft) N 5 ° 0 min 0,000 mm 1,5 UV-I 79 W/m² 14,4 °C 27,4 °C 6,4 km/h (2 Bft)
06.07.2017 18:05 27,6 °C 27,6 °C 44 % 1014,6 hPa 0,0 mm 2,7 km/h (1 Bft) N 5 ° 0 min 0,000 mm 1,5 UV-I 79 W/m² 14,2 °C 27,6 °C 3,2 km/h (1 Bft)
06.07.2017 18:06 27,6 °C 27,6 °C 44 % 1014,6 hPa 0,0 mm 1,9 km/h (1 Bft) N 5 ° 0 min 0,000 mm 1,5 UV-I 77 W/m² 14,2 °C 27,6 °C 3,2 km/h (1 Bft)
06.07.2017 18:07 27,6 °C 27,6 °C 42 % 1014,6 hPa 0,0 mm 0,1 km/h (0 Bft) N 5 ° 0 min 0,000 mm 1,5 UV-I 79 W/m² 13,5 °C 27,6 °C 1,6 km/h (1 Bft)
06.07.2017 18:08 27,5 °C 27,6 °C 42 % 1014,6 hPa 0,0 mm 1,9 km/h (1 Bft) N 5 ° 0 min 0,000 mm 1,5 UV-I 79 W/m² 13,4 °C 27,5 °C 4,8 km/h (1 Bft)
06.07.2017 18:09 27,4 °C 27,5 °C 43 % 1014,6 hPa 0,0 mm 1,0 km/h (0 Bft) N 5 ° 0 min 0,000 mm 1,5 UV-I 81 W/m² 13,7 °C 27,4 °C 3,2 km/h (1 Bft)
06.07.2017 18:10 27,4 °C 27,4 °C 44 % 1014,6 hPa 0,0 mm 2,2 km/h (1 Bft) NW 311 ° 0 min 0,000 mm 1,4 UV-I 77 W/m² 14,0 °C 27,4 °C 8,0 km/h (2 Bft)
06.07.2017 18:11 27,5 °C 27,5 °C 45 % 1014,6 hPa 0,0 mm 4,9 km/h (1 Bft) N 355 ° 0 min 0,000 mm 1,4 UV-I 77 W/m² 14,5 °C 27,5 °C 6,4 km/h (2 Bft)
06.07.2017 18:12 27,5 °C 27,5 °C 42 % 1014,6 hPa 0,0 mm 0,7 km/h (0 Bft) N 355 ° 0 min 0,000 mm 1,4 UV-I 74 W/m² 13,4 °C 27,5 °C 3,2 km/h (1 Bft)
06.07.2017 18:13 27,5 °C 27,6 °C 40 % 1014,6 hPa 0,0 mm 0,9 km/h (0 Bft) N 349 ° 0 min 0,000 mm 1,4 UV-I 77 W/m² 12,7 °C 27,5 °C 3,2 km/h (1 Bft)
06.07.2017 18:14 27,4 °C 27,5 °C 41 % 1014,6 hPa 0,0 mm 4,1 km/h (1 Bft) N-NW 332 ° 0 min 0,000 mm 1,4 UV-I 76 W/m² 13,0 °C 27,4 °C 4,8 km/h (1 Bft)
06.07.2017 18:15 27,4 °C 27,4 °C 44 % 1014,6 hPa 0,0 mm 3,0 km/h (1 Bft) N-NW 332 ° 0 min 0,000 mm 1,4 UV-I 81 W/m² 14,0 °C 27,4 °C 3,2 km/h (1 Bft)
06.07.2017 18:16 27,4 °C 27,4 °C 45 % 1014,6 hPa 0,0 mm 3,4 km/h (1 Bft) W-NW 294 ° 0 min 0,000 mm 1,4 UV-I 79 W/m² 14,4 °C 27,4 °C 4,8 km/h (1 Bft)
06.07.2017 18:17 27,5 °C 27,5 °C 43 % 1014,6 hPa 0,0 mm 3,8 km/h (1 Bft) W-NW 290 ° 0 min 0,000 mm 1,4 UV-I 79 W/m² 13,8 °C 27,5 °C 6,4 km/h (2 Bft)
06.07.2017 18:18 27,5 °C 27,5 °C 42 % 1014,6 hPa 0,0 mm 4,6 km/h (1 Bft) W 264 ° 0 min 0,000 mm 1,4 UV-I 79 W/m² 13,4 °C 27,5 °C 6,4 km/h (2 Bft)
06.07.2017 18:19 27,4 °C 27,5 °C 44 % 1014,6 hPa 0,0 mm 5,3 km/h (1 Bft) W-SW 251 ° 0 min 0,000 mm 1,4 UV-I 79 W/m² 14,0 °C 27,4 °C 6,4 km/h (2 Bft)
06.07.2017 18:20 27,3 °C 27,4 °C 45 % 1014,5 hPa 0,0 mm 3,2 km/h (1 Bft) W-SW 251 ° 0 min 0,000 mm 1,3 UV-I 76 W/m² 14,3 °C 27,3 °C 4,8 km/h (1 Bft)
06.07.2017 18:21 27,3 °C 27,3 °C 43 % 1014,6 hPa 0,0 mm 1,3 km/h (1 Bft) W-SW 251 ° 0 min 0,000 mm 1,3 UV-I 76 W/m² 13,6 °C 27,3 °C 1,6 km/h (1 Bft)
06.07.2017 18:22 27,2 °C 27,3 °C 42 % 1014,5 hPa 0,0 mm 0,0 km/h (0 Bft) W-SW 251 ° 0 min 0,000 mm 1,3 UV-I 76 W/m² 13,2 °C 27,2 °C 0,0 km/h (0 Bft)
06.07.2017 18:23 27,2 °C 27,2 °C 42 % 1014,5 hPa 0,0 mm 0,0 km/h (0 Bft) W-SW 251 ° 0 min 0,000 mm 1,3 UV-I 77 W/m² 13,2 °C 27,2 °C 0,0 km/h (0 Bft)
06.07.2017 18:24 27,2 °C 27,2 °C 41 % 1014,5 hPa 0,0 mm 0,0 km/h (0 Bft) W-SW 251 ° 0 min 0,000 mm 1,3 UV-I 79 W/m² 12,8 °C 27,2 °C 0,0 km/h (0 Bft)
06.07.2017 18:25 27,3 °C 27,3 °C 42 % 1014,5 hPa 0,0 mm 1,3 km/h (1 Bft) W-SW 251 ° 0 min 0,000 mm 1,3 UV-I 76 W/m² 13,2 °C 27,3 °C 3,2 km/h (1 Bft)
06.07.2017 18:26 27,3 °C 27,3 °C 47 % 1014,5 hPa 0,0 mm 2,0 km/h (1 Bft) W 275 ° 0 min 0,000 mm 1,3 UV-I 77 W/m² 15,0 °C 27,3 °C 3,2 km/h (1 Bft)
06.07.2017 18:27 27,3 °C 27,3 °C 46 % 1014,4 hPa 0,0 mm 3,5 km/h (1 Bft) N-NW 346 ° 0 min 0,000 mm 1,3 UV-I 83 W/m² 14,6 °C 27,3 °C 4,8 km/h (1 Bft)
06.07.2017 18:28 27,4 °C 27,4 °C 46 % 1014,4 hPa 0,0 mm 4,7 km/h (1 Bft) N-NW 341 ° 0 min 0,000 mm 1,3 UV-I 83 W/m² 14,7 °C 27,4 °C 8,0 km/h (2 Bft)
06.07.2017 18:29 27,4 °C 27,4 °C 44 % 1014,5 hPa 0,0 mm 2,7 km/h (1 Bft) N-NW 332 ° 0 min 0,000 mm 1,3 UV-I 84 W/m² 14,0 °C 27,4 °C 3,2 km/h (1 Bft)
06.07.2017 18:30 27,5 °C 27,5 °C 42 % 1014,4 hPa 0,0 mm 3,8 km/h (1 Bft) NW 323 ° 0 min 0,000 mm 1,3 UV-I 90 W/m² 13,4 °C 27,5 °C 4,8 km/h (1 Bft)
06.07.2017 18:31 27,5 °C 27,6 °C 43 % 1014,4 hPa 0,0 mm 4,3 km/h (1 Bft) N-NW 335 ° 0 min 0,000 mm 1,3 UV-I 95 W/m² 13,8 °C 27,5 °C 6,4 km/h (2 Bft)
06.07.2017 18:32 27,5 °C 27,5 °C 44 % 1014,4 hPa 0,0 mm 5,0 km/h (1 Bft) N 9 ° 0 min 0,000 mm 1,4 UV-I 128 W/m² 14,1 °C 27,5 °C 6,4 km/h (2 Bft)
06.07.2017 18:33 27,5 °C 27,5 °C 41 % 1014,4 hPa 0,0 mm 4,8 km/h (1 Bft) N-NO 26 ° 0 min 0,000 mm 1,4 UV-I 158 W/m² 13,1 °C 27,5 °C 6,4 km/h (2 Bft)
06.07.2017 18:34 27,6 °C 27,6 °C 44 % 1014,4 hPa 0,0 mm 3,6 km/h (1 Bft) N-NO 26 ° 0 min 0,000 mm 1,3 UV-I 109 W/m² 14,2 °C 27,6 °C 4,8 km/h (1 Bft)
06.07.2017 18:35 27,6 °C 27,6 °C 39 % 1014,5 hPa 0,0 mm 3,6 km/h (1 Bft) N-NO 24 ° 0 min 0,000 mm 1,3 UV-I 95 W/m² 12,4 °C 27,6 °C 4,8 km/h (1 Bft)
06.07.2017 18:36 27,6 °C 27,6 °C 40 % 1014,5 hPa 0,0 mm 2,1 km/h (1 Bft) N-NO 24 ° 0 min 0,000 mm 1,3 UV-I 100 W/m² 12,8 °C 27,6 °C 4,8 km/h (1 Bft)
06.07.2017 18:37 27,6 °C 27,6 °C 41 % 1014,4 hPa 0,0 mm 1,7 km/h (1 Bft) N-NO 14 ° 0 min 0,000 mm 1,2 UV-I 95 W/m² 13,1 °C 27,6 °C 4,8 km/h (1 Bft)
06.07.2017 18:38 27,5 °C 27,6 °C 42 % 1014,4 hPa 0,0 mm 2,5 km/h (1 Bft) N 10 ° 0 min 0,000 mm 1,2 UV-I 107 W/m² 13,4 °C 27,5 °C 3,2 km/h (1 Bft)
06.07.2017 18:39 27,4 °C 27,5 °C 45 % 1014,4 hPa 0,0 mm 2,3 km/h (1 Bft) N 5 ° 0 min 0,000 mm 1,2 UV-I 118 W/m² 14,4 °C 27,4 °C 3,2 km/h (1 Bft)
06.07.2017 18:40 27,3 °C 27,4 °C 44 % 1014,4 hPa 0,0 mm 2,7 km/h (1 Bft) N 5 ° 0 min 0,000 mm 1,2 UV-I 130 W/m² 14,0 °C 27,3 °C 3,2 km/h (1 Bft)
06.07.2017 18:41 27,2 °C 27,3 °C 44 % 1014,4 hPa 0,0 mm 2,0 km/h (1 Bft) N 9 ° 0 min 0,000 mm 1,2 UV-I 135 W/m² 13,9 °C 27,2 °C 3,2 km/h (1 Bft)
06.07.2017 18:42 27,2 °C 27,2 °C 42 % 1014,4 hPa 0,0 mm 3,4 km/h (1 Bft) N 9 ° 0 min 0,000 mm 1,2 UV-I 130 W/m² 13,2 °C 27,2 °C 4,8 km/h (1 Bft)
06.07.2017 18:43 27,2 °C 27,2 °C 43 % 1014,4 hPa 0,0 mm 1,7 km/h (1 Bft) N 9 ° 0 min 0,000 mm 1,2 UV-I 139 W/m² 13,5 °C 27,2 °C 4,8 km/h (1 Bft)
06.07.2017 18:44 27,2 °C 27,2 °C 46 % 1014,4 hPa 0,0 mm 0,0 km/h (0 Bft) N 9 ° 0 min 0,000 mm 1,2 UV-I 167 W/m² 14,6 °C 27,2 °C 0,0 km/h (0 Bft)
06.07.2017 18:45 27,1 °C 27,2 °C 46 % 1014,4 hPa 0,0 mm 0,0 km/h (0 Bft) N 9 ° 0 min 0,000 mm 1,3 UV-I 148 W/m² 14,5 °C 27,1 °C 0,0 km/h (0 Bft)
06.07.2017 18:46 27,1 °C 27,1 °C 43 % 1014,4 hPa 0,0 mm 0,0 km/h (0 Bft) N 9 ° 0 min 0,000 mm 1,2 UV-I 130 W/m² 13,4 °C 27,1 °C 0,0 km/h (0 Bft)
06.07.2017 18:47 27,0 °C 27,1 °C 44 % 1014,3 hPa 0,0 mm 1,1 km/h (1 Bft) N 9 ° 0 min 0,000 mm 1,3 UV-I 181 W/m² 13,7 °C 27,0 °C 3,2 km/h (1 Bft)
06.07.2017 18:48 27,0 °C 27,1 °C 47 % 1014,3 hPa 0,0 mm 2,5 km/h (1 Bft) O-NO 69 ° 0 min 0,000 mm 1,3 UV-I 195 W/m² 14,7 °C 27,0 °C 4,8 km/h (1 Bft)
06.07.2017 18:49 26,9 °C 27,0 °C 49 % 1014,4 hPa 0,0 mm 1,9 km/h (1 Bft) O-NO 65 ° 0 min 0,000 mm 1,2 UV-I 132 W/m² 15,3 °C 26,9 °C 3,2 km/h (1 Bft)
06.07.2017 18:50 26,8 °C 26,9 °C 48 % 1014,4 hPa 0,0 mm 2,8 km/h (1 Bft) N 9 ° 0 min 0,000 mm 1,2 UV-I 121 W/m² 14,9 °C 26,8 °C 4,8 km/h (1 Bft)
06.07.2017 18:51 26,9 °C 26,9 °C 48 % 1014,4 hPa 0,0 mm 2,4 km/h (1 Bft) N 5 ° 0 min 0,000 mm 1,2 UV-I 146 W/m² 14,9 °C 26,9 °C 3,2 km/h (1 Bft)
06.07.2017 18:52 27,0 °C 27,0 °C 45 % 1014,4 hPa 0,0 mm 2,9 km/h (1 Bft) NW 325 ° 0 min 0,000 mm 1,1 UV-I 114 W/m² 14,0 °C 27,0 °C 4,8 km/h (1 Bft)
06.07.2017 18:53 27,1 °C 27,1 °C 44 % 1014,4 hPa 0,0 mm 4,0 km/h (1 Bft) N-NW 339 ° 0 min 0,000 mm 1,2 UV-I 142 W/m² 13,8 °C 27,1 °C 4,8 km/h (1 Bft)
06.07.2017 18:54 27,1 °C 27,1 °C 45 % 1014,4 hPa 0,0 mm 2,1 km/h (1 Bft) N-NW 339 ° 0 min 0,000 mm 1,3 UV-I 172 W/m² 14,1 °C 27,1 °C 4,8 km/h (1 Bft)
06.07.2017 18:55 27,2 °C 27,2 °C 46 % 1014,4 hPa 0,0 mm 4,3 km/h (1 Bft) NW 315 ° 0 min 0,000 mm 1,2 UV-I 135 W/m² 14,6 °C 27,2 °C 4,8 km/h (1 Bft)
06.07.2017 18:56 27,2 °C 27,2 °C 42 % 1014,4 hPa 0,0 mm 3,7 km/h (1 Bft) NW 326 ° 0 min 0,000 mm 1,2 UV-I 148 W/m² 13,2 °C 27,2 °C 4,8 km/h (1 Bft)
06.07.2017 18:57 27,2 °C 27,2 °C 43 % 1014,4 hPa 0,0 mm 5,1 km/h (1 Bft) N 355 ° 0 min 0,000 mm 1,2 UV-I 216 W/m² 13,5 °C 27,2 °C 8,0 km/h (2 Bft)
06.07.2017 18:58 27,2 °C 27,2 °C 41 % 1014,3 hPa 0,0 mm 2,3 km/h (1 Bft) N 360 ° 0 min 0,000 mm 1,2 UV-I 218 W/m² 12,8 °C 27,2 °C 6,4 km/h (2 Bft)
06.07.2017 18:59 27,3 °C 27,3 °C 42 % 1014,4 hPa 0,0 mm 2,4 km/h (1 Bft) N 360 ° 0 min 0,000 mm 1,3 UV-I 218 W/m² 13,2 °C 27,3 °C 4,8 km/h (1 Bft)
06.07.2017 19:00 27,3 °C 27,3 °C 43 % 1014,3 hPa 0,0 mm 1,4 km/h (1 Bft) N 360 ° 0 min 0,000 mm 1,3 UV-I 283 W/m² 13,6 °C 27,3 °C 3,2 km/h (1 Bft)
06.07.2017 19:01 27,3 °C 27,3 °C 45 % 1014,3 hPa 0,0 mm 0,8 km/h (0 Bft) N 360 ° 0 min 0,102 mm 1,3 UV-I 288 W/m² 14,3 °C 27,3 °C 3,2 km/h (1 Bft)
06.07.2017 19:02 27,3 °C 27,3 °C 47 % 1014,4 hPa 0,0 mm 1,3 km/h (1 Bft) N 360 ° 1 min 0,000 mm 1,3 UV-I 311 W/m² 15,0 °C 27,3 °C 1,6 km/h (1 Bft)
06.07.2017 19:03 27,3 °C 27,3 °C 47 % 1014,3 hPa 0,0 mm 1,5 km/h (1 Bft) N 360 ° 1 min 0,000 mm 1,3 UV-I 294 W/m² 15,0 °C 27,3 °C 3,2 km/h (1 Bft)
06.07.2017 19:04 27,3 °C 27,3 °C 43 % 1014,3 hPa 0,0 mm 0,3 km/h (0 Bft) N 360 ° 1 min 0,000 mm 1,3 UV-I 301 W/m² 13,6 °C 27,3 °C 1,6 km/h (1 Bft)
06.07.2017 19:05 27,3 °C 27,3 °C 43 % 1014,4 hPa 0,0 mm 1,3 km/h (1 Bft) N 360 ° 1 min 0,000 mm 1,2 UV-I 301 W/m² 13,6 °C 27,3 °C 3,2 km/h (1 Bft)
06.07.2017 19:06 27,4 °C 27,4 °C 43 % 1014,4 hPa 0,0 mm 3,9 km/h (1 Bft) N 355 ° 1 min 0,000 mm 1,2 UV-I 301 W/m² 13,7 °C 27,4 °C 4,8 km/h (1 Bft)
06.07.2017 19:07 27,4 °C 27,4 °C 41 % 1014,4 hPa 0,0 mm 4,2 km/h (1 Bft) N 360 ° 0 min 0,000 mm 1,0 UV-I 111 W/m² 13,0 °C 27,4 °C 4,8 km/h (1 Bft)
06.07.2017 19:08 27,4 °C 27,4 °C 40 % 1014,4 hPa 0,0 mm 4,4 km/h (1 Bft) N-NO 16 ° 0 min 0,000 mm 1,1 UV-I 139 W/m² 12,6 °C 27,4 °C 6,4 km/h (2 Bft)
06.07.2017 19:09 27,4 °C 27,4 °C 42 % 1014,4 hPa 0,0 mm 2,0 km/h (1 Bft) N-NO 16 ° 0 min 0,000 mm 1,1 UV-I 197 W/m² 13,3 °C 27,4 °C 3,2 km/h (1 Bft)
06.07.2017 19:10 27,4 °C 27,4 °C 40 % 1014,4 hPa 0,0 mm 0,3 km/h (0 Bft) N-NO 16 ° 0 min 0,000 mm 1,1 UV-I 174 W/m² 12,6 °C 27,4 °C 1,6 km/h (1 Bft)
06.07.2017 19:11 27,4 °C 27,4 °C 40 % 1014,4 hPa 0,0 mm 0,0 km/h (0 Bft) N-NO 16 ° 0 min 0,000 mm 1,0 UV-I 149 W/m² 12,6 °C 27,4 °C 0,0 km/h (0 Bft)
06.07.2017 19:12 27,3 °C 27,4 °C 39 % 1014,4 hPa 0,0 mm 0,7 km/h (0 Bft) N-NO 16 ° 0 min 0,000 mm 1,0 UV-I 107 W/m² 12,1 °C 27,3 °C 1,6 km/h (1 Bft)
06.07.2017 19:13 27,3 °C 27,3 °C 38 % 1014,4 hPa 0,0 mm 0,1 km/h (0 Bft) N-NO 16 ° 0 min 0,000 mm 1,0 UV-I 100 W/m² 11,7 °C 27,3 °C 1,6 km/h (1 Bft)
06.07.2017 19:14 27,3 °C 27,3 °C 39 % 1014,4 hPa 0,0 mm 0,0 km/h (0 Bft) N-NO 16 ° 0 min 0,000 mm 0,9 UV-I 102 W/m² 12,1 °C 27,3 °C 0,0 km/h (0 Bft)
06.07.2017 19:15 27,3 °C 27,3 °C 38 % 1014,4 hPa 0,0 mm 0,1 km/h (0 Bft) N-NO 16 ° 0 min 0,000 mm 0,9 UV-I 109 W/m² 11,7 °C 27,3 °C 1,6 km/h (1 Bft)
06.07.2017 19:16 27,4 °C 27,4 °C 41 % 1014,4 hPa 0,0 mm 2,5 km/h (1 Bft) N-NW 331 ° 0 min 0,000 mm 0,9 UV-I 130 W/m² 13,0 °C 27,4 °C 4,8 km/h (1 Bft)
06.07.2017 19:17 27,4 °C 27,4 °C 40 % 1014,4 hPa 0,0 mm 5,2 km/h (1 Bft) N-NW 335 ° 0 min 0,000 mm 1,0 UV-I 160 W/m² 12,6 °C 27,4 °C 6,4 km/h (2 Bft)
06.07.2017 19:18 27,4 °C 27,4 °C 40 % 1014,4 hPa 0,0 mm 3,3 km/h (1 Bft) N-NW 335 ° 0 min 0,000 mm 1,0 UV-I 246 W/m² 12,6 °C 27,4 °C 4,8 km/h (1 Bft)
06.07.2017 19:19 27,4 °C 27,4 °C 40 % 1014,5 hPa 0,0 mm 2,7 km/h (1 Bft) N-NW 336 ° 0 min 0,000 mm 1,0 UV-I 253 W/m² 12,6 °C 27,4 °C 4,8 km/h (1 Bft)
06.07.2017 19:20 27,3 °C 27,4 °C 48 % 1014,5 hPa 0,0 mm 2,6 km/h (1 Bft) N-NO 22 ° 0 min 0,000 mm 1,0 UV-I 250 W/m² 15,3 °C 27,3 °C 4,8 km/h (1 Bft)
06.07.2017 19:21 27,2 °C 27,3 °C 46 % 1014,5 hPa 0,0 mm 2,2 km/h (1 Bft) N-NO 20 ° 0 min 0,000 mm 0,9 UV-I 246 W/m² 14,6 °C 27,2 °C 4,8 km/h (1 Bft)
06.07.2017 19:22 27,1 °C 27,2 °C 44 % 1014,5 hPa 0,0 mm 4,0 km/h (1 Bft) N 5 ° 0 min 0,000 mm 0,9 UV-I 243 W/m² 13,8 °C 27,1 °C 4,8 km/h (1 Bft)
06.07.2017 19:23 27,1 °C 27,1 °C 42 % 1014,5 hPa 0,0 mm 2,7 km/h (1 Bft) N 5 ° 0 min 0,000 mm 0,9 UV-I 241 W/m² 13,1 °C 27,1 °C 4,8 km/h (1 Bft)
06.07.2017 19:24 27,2 °C 27,2 °C 39 % 1014,5 hPa 0,0 mm 2,2 km/h (1 Bft) N 5 ° 0 min 0,000 mm 0,9 UV-I 234 W/m² 12,0 °C 27,2 °C 3,2 km/h (1 Bft)
06.07.2017 19:25 27,2 °C 27,2 °C 43 % 1014,6 hPa 0,0 mm 1,7 km/h (1 Bft) N 5 ° 0 min 0,000 mm 0,9 UV-I 230 W/m² 13,5 °C 27,2 °C 4,8 km/h (1 Bft)
06.07.2017 19:26 27,2 °C 27,3 °C 41 % 1014,5 hPa 0,0 mm 1,4 km/h (1 Bft) N 5 ° 0 min 0,000 mm 0,9 UV-I 227 W/m² 12,8 °C 27,2 °C 1,6 km/h (1 Bft)
06.07.2017 19:27 27,2 °C 27,2 °C 43 % 1014,5 hPa 0,0 mm 1,5 km/h (1 Bft) N 5 ° 0 min 0,000 mm 0,8 UV-I 223 W/m² 13,5 °C 27,2 °C 3,2 km/h (1 Bft)
06.07.2017 19:28 27,1 °C 27,2 °C 43 % 1014,5 hPa 0,0 mm 1,4 km/h (1 Bft) N 5 ° 0 min 0,000 mm 0,8 UV-I 218 W/m² 13,4 °C 27,1 °C 3,2 km/h (1 Bft)
06.07.2017 19:29 27,1 °C 27,1 °C 46 % 1014,5 hPa 0,0 mm 0,0 km/h (0 Bft) N 5 ° 0 min 0,000 mm 0,8 UV-I 214 W/m² 14,5 °C 27,1 °C 0,0 km/h (0 Bft)
06.07.2017 19:30 26,9 °C 27,1 °C 44 % 1014,5 hPa 0,0 mm 0,0 km/h (0 Bft) N 5 ° 0 min 0,000 mm 0,8 UV-I 211 W/m² 13,6 °C 26,9 °C 0,0 km/h (0 Bft)
06.07.2017 19:31 26,7 °C 26,9 °C 46 % 1014,6 hPa 0,0 mm 0,0 km/h (0 Bft) N 5 ° 0 min 0,000 mm 0,8 UV-I 204 W/m² 14,1 °C 26,7 °C 0,0 km/h (0 Bft)
06.07.2017 19:32 26,6 °C 26,7 °C 46 % 1014,5 hPa 0,0 mm 0,0 km/h (0 Bft) N 5 ° 0 min 0,000 mm 0,8 UV-I 200 W/m² 14,0 °C 26,6 °C 0,0 km/h (0 Bft)
06.07.2017 19:33 26,6 °C 26,7 °C 46 % 1014,5 hPa 0,0 mm 0,0 km/h (0 Bft) N 5 ° 0 min 0,000 mm 0,8 UV-I 197 W/m² 14,0 °C 26,6 °C 0,0 km/h (0 Bft)
06.07.2017 19:34 26,6 °C 26,7 °C 43 % 1014,5 hPa 0,0 mm 0,0 km/h (0 Bft) N 5 ° 0 min 0,000 mm 0,8 UV-I 195 W/m² 13,0 °C 26,6 °C 0,0 km/h (0 Bft)
06.07.2017 19:35 26,7 °C 26,7 °C 45 % 1014,5 hPa 0,0 mm 0,0 km/h (0 Bft) N 5 ° 0 min 0,000 mm 0,7 UV-I 192 W/m² 13,8 °C 26,7 °C 0,0 km/h (0 Bft)
06.07.2017 19:36 26,5 °C 26,7 °C 50 % 1014,6 hPa 0,0 mm 0,0 km/h (0 Bft) N 5 ° 0 min 0,000 mm 0,7 UV-I 185 W/m² 15,2 °C 26,5 °C 0,0 km/h (0 Bft)
06.07.2017 19:37 26,4 °C 26,5 °C 46 % 1014,6 hPa 0,0 mm 0,0 km/h (0 Bft) N 5 ° 0 min 0,000 mm 0,7 UV-I 181 W/m² 13,8 °C 26,4 °C 0,0 km/h (0 Bft)
06.07.2017 19:38 26,3 °C 26,4 °C 49 % 1014,5 hPa 0,0 mm 0,0 km/h (0 Bft) N 5 ° 0 min 0,000 mm 0,7 UV-I 178 W/m² 14,7 °C 26,3 °C 0,0 km/h (0 Bft)
06.07.2017 19:39 26,2 °C 26,3 °C 49 % 1014,5 hPa 0,0 mm 0,0 km/h (0 Bft) N 5 ° 0 min 0,000 mm 0,7 UV-I 176 W/m² 14,6 °C 26,2 °C 0,0 km/h (0 Bft)
06.07.2017 19:40 26,1 °C 26,2 °C 49 % 1014,6 hPa 0,0 mm 0,0 km/h (0 Bft) N 5 ° 0 min 0,000 mm 0,7 UV-I 172 W/m² 14,5 °C 26,1 °C 0,0 km/h (0 Bft)
06.07.2017 19:41 25,9 °C 26,1 °C 46 % 1014,5 hPa 0,0 mm 0,0 km/h (0 Bft) N 5 ° 0 min 0,000 mm 0,7 UV-I 169 W/m² 13,4 °C 25,9 °C 0,0 km/h (0 Bft)
06.07.2017 19:42 26,0 °C 26,0 °C 47 % 1014,6 hPa 0,0 mm 1,1 km/h (1 Bft) O 81 ° 0 min 0,000 mm 0,6 UV-I 163 W/m² 13,8 °C 26,0 °C 3,2 km/h (1 Bft)
06.07.2017 19:43 26,1 °C 26,1 °C 45 % 1014,6 hPa 0,0 mm 0,9 km/h (0 Bft) O 81 ° 0 min 0,000 mm 0,6 UV-I 160 W/m² 13,2 °C 26,1 °C 3,2 km/h (1 Bft)
06.07.2017 19:44 25,9 °C 26,1 °C 48 % 1014,6 hPa 0,0 mm 2,3 km/h (1 Bft) O 81 ° 0 min 0,000 mm 0,6 UV-I 153 W/m² 14,0 °C 25,9 °C 3,2 km/h (1 Bft)
06.07.2017 19:45 25,9 °C 25,9 °C 48 % 1014,6 hPa 0,0 mm 1,7 km/h (1 Bft) O 81 ° 0 min 0,000 mm 0,6 UV-I 149 W/m² 14,0 °C 25,9 °C 3,2 km/h (1 Bft)
06.07.2017 19:46 25,9 °C 25,9 °C 49 % 1014,6 hPa 0,0 mm 0,1 km/h (0 Bft) O 81 ° 0 min 0,000 mm 0,6 UV-I 149 W/m² 14,4 °C 25,9 °C 1,6 km/h (1 Bft)
06.07.2017 19:47 25,9 °C 25,9 °C 48 % 1014,6 hPa 0,0 mm 1,4 km/h (1 Bft) O 81 ° 0 min 0,000 mm 0,6 UV-I 148 W/m² 14,0 °C 25,9 °C 3,2 km/h (1 Bft)
06.07.2017 19:48 25,8 °C 25,9 °C 53 % 1014,6 hPa 0,0 mm 0,9 km/h (0 Bft) O 81 ° 0 min 0,000 mm 0,6 UV-I 142 W/m² 15,5 °C 25,8 °C 1,6 km/h (1 Bft)
06.07.2017 19:49 25,7 °C 25,8 °C 50 % 1014,6 hPa 0,0 mm 1,3 km/h (1 Bft) O 81 ° 0 min 0,000 mm 0,6 UV-I 139 W/m² 14,5 °C 25,7 °C 3,2 km/h (1 Bft)
06.07.2017 19:50 25,8 °C 25,8 °C 48 % 1014,6 hPa 0,0 mm 0,0 km/h (0 Bft) O 81 ° 0 min 0,000 mm 0,5 UV-I 139 W/m² 13,9 °C 25,8 °C 0,0 km/h (0 Bft)
06.07.2017 19:51 25,7 °C 25,8 °C 51 % 1014,6 hPa 0,0 mm 0,7 km/h (0 Bft) O 81 ° 0 min 0,000 mm 0,5 UV-I 135 W/m² 14,8 °C 25,7 °C 3,2 km/h (1 Bft)
06.07.2017 19:52 25,6 °C 25,7 °C 49 % 1014,6 hPa 0,0 mm 1,0 km/h (0 Bft) O 81 ° 0 min 0,000 mm 0,5 UV-I 132 W/m² 14,1 °C 25,6 °C 3,2 km/h (1 Bft)
06.07.2017 19:53 25,6 °C 25,6 °C 54 % 1014,6 hPa 0,0 mm 3,0 km/h (1 Bft) O-SO 103 ° 0 min 0,000 mm 0,5 UV-I 127 W/m² 15,6 °C 25,6 °C 3,2 km/h (1 Bft)
06.07.2017 19:54 25,4 °C 25,6 °C 50 % 1014,6 hPa 0,0 mm 2,4 km/h (1 Bft) S-SO 148 ° 0 min 0,000 mm 0,5 UV-I 111 W/m² 14,2 °C 25,4 °C 4,8 km/h (1 Bft)
06.07.2017 19:55 25,5 °C 25,5 °C 48 % 1014,6 hPa 0,0 mm 0,8 km/h (0 Bft) S-SO 148 ° 0 min 0,000 mm 0,5 UV-I 114 W/m² 13,7 °C 25,5 °C 1,6 km/h (1 Bft)
06.07.2017 19:56 25,5 °C 25,5 °C 50 % 1014,6 hPa 0,0 mm 0,9 km/h (0 Bft) S-SO 148 ° 0 min 0,000 mm 0,5 UV-I 109 W/m² 14,3 °C 25,5 °C 3,2 km/h (1 Bft)
06.07.2017 19:57 25,5 °C 25,5 °C 51 % 1014,6 hPa 0,0 mm 0,3 km/h (0 Bft) SO 145 ° 0 min 0,000 mm 0,5 UV-I 107 W/m² 14,6 °C 25,5 °C 1,6 km/h (1 Bft)
06.07.2017 19:58 25,5 °C 25,5 °C 53 % 1014,6 hPa 0,0 mm 1,3 km/h (1 Bft) SO 145 ° 0 min 0,000 mm 0,5 UV-I 107 W/m² 15,2 °C 25,5 °C 3,2 km/h (1 Bft)
06.07.2017 19:59 25,4 °C 25,5 °C 51 % 1014,6 hPa 0,0 mm 0,7 km/h (0 Bft) SO 145 ° 0 min 0,000 mm 0,5 UV-I 105 W/m² 14,5 °C 25,4 °C 1,6 km/h (1 Bft)
06.07.2017 20:00 25,3 °C 25,4 °C 55 % 1014,6 hPa 0,0 mm 0,6 km/h (0 Bft) SO 145 ° 0 min 0,000 mm 0,0 UV-I 90 W/m² 15,6 °C 25,3 °C 1,6 km/h (1 Bft)
06.07.2017 20:01 25,2 °C 25,3 °C 51 % 1014,6 hPa 0,0 mm 0,4 km/h (0 Bft) SO 145 ° 0 min 0,127 mm 0,0 UV-I 86 W/m² 14,3 °C 25,2 °C 1,6 km/h (1 Bft)
06.07.2017 20:02 25,2 °C 25,2 °C 50 % 1014,6 hPa 0,0 mm 0,0 km/h (0 Bft) SO 145 ° 0 min 0,000 mm 0,0 UV-I 84 W/m² 14,0 °C 25,2 °C 0,0 km/h (0 Bft)
06.07.2017 20:03 25,1 °C 25,2 °C 51 % 1014,7 hPa 0,0 mm 1,1 km/h (1 Bft) SO 145 ° 0 min 0,000 mm 0,0 UV-I 95 W/m² 14,2 °C 25,1 °C 3,2 km/h (1 Bft)
06.07.2017 20:04 25,1 °C 25,1 °C 49 % 1014,7 hPa 0,0 mm 0,1 km/h (0 Bft) SO 145 ° 0 min 0,000 mm 0,0 UV-I 98 W/m² 13,6 °C 25,1 °C 1,6 km/h (1 Bft)
06.07.2017 20:05 25,1 °C 25,1 °C 52 % 1014,6 hPa 0,0 mm 0,0 km/h (0 Bft) SO 145 ° 0 min 0,000 mm 0,0 UV-I 91 W/m² 14,5 °C 25,1 °C 0,0 km/h (0 Bft)
06.07.2017 20:06 25,1 °C 25,1 °C 51 % 1014,6 hPa 0,0 mm 0,8 km/h (0 Bft) SO 145 ° 0 min 0,000 mm 0,0 UV-I 93 W/m² 14,2 °C 25,1 °C 1,6 km/h (1 Bft)
06.07.2017 20:07 24,9 °C 25,1 °C 55 % 1014,6 hPa 0,0 mm 1,5 km/h (1 Bft) SO 145 ° 0 min 0,000 mm 0,0 UV-I 90 W/m² 15,2 °C 24,9 °C 3,2 km/h (1 Bft)
06.07.2017 20:08 24,7 °C 24,9 °C 54 % 1014,6 hPa 0,0 mm 1,1 km/h (1 Bft) SO 145 ° 0 min 0,000 mm 0,0 UV-I 88 W/m² 14,8 °C 24,7 °C 1,6 km/h (1 Bft)
06.07.2017 20:09 24,6 °C 24,7 °C 53 % 1014,6 hPa 0,0 mm 0,6 km/h (0 Bft) SO 145 ° 0 min 0,000 mm 0,0 UV-I 86 W/m² 14,4 °C 24,6 °C 3,2 km/h (1 Bft)
06.07.2017 20:10 24,6 °C 24,6 °C 53 % 1014,6 hPa 0,0 mm 0,8 km/h (0 Bft) SO 145 ° 0 min 0,000 mm 0,0 UV-I 84 W/m² 14,4 °C 24,6 °C 3,2 km/h (1 Bft)
06.07.2017 20:11 24,7 °C 24,7 °C 53 % 1014,6 hPa 0,0 mm 1,7 km/h (1 Bft) SO 145 ° 0 min 0,000 mm 0,0 UV-I 81 W/m² 14,5 °C 24,7 °C 3,2 km/h (1 Bft)
06.07.2017 20:12 24,6 °C 24,7 °C 53 % 1014,5 hPa 0,0 mm 0,5 km/h (0 Bft) SO 145 ° 0 min 0,000 mm 0,0 UV-I 79 W/m² 14,4 °C 24,6 °C 1,6 km/h (1 Bft)
06.07.2017 20:13 24,6 °C 24,6 °C 54 % 1014,6 hPa 0,0 mm 0,0 km/h (0 Bft) SO 145 ° 0 min 0,000 mm 0,0 UV-I 76 W/m² 14,7 °C 24,6 °C 0,0 km/h (0 Bft)
06.07.2017 20:14 24,5 °C 24,6 °C 54 % 1014,5 hPa 0,0 mm 0,5 km/h (0 Bft) SO 145 ° 0 min 0,000 mm 0,0 UV-I 74 W/m² 14,6 °C 24,5 °C 1,6 km/h (1 Bft)
06.07.2017 20:15 24,6 °C 24,6 °C 55 % 1014,5 hPa 0,0 mm 0,5 km/h (0 Bft) SO 145 ° 0 min 0,000 mm 0,0 UV-I 72 W/m² 14,9 °C 24,6 °C 1,6 km/h (1 Bft)
06.07.2017 20:16 24,6 °C 24,6 °C 52 % 1014,5 hPa 0,0 mm 0,0 km/h (0 Bft) SO 145 ° 0 min 0,000 mm 0,0 UV-I 70 W/m² 14,1 °C 24,6 °C 0,0 km/h (0 Bft)
06.07.2017 20:17 24,7 °C 24,7 °C 52 % 1014,6 hPa 0,0 mm 0,0 km/h (0 Bft) SO 145 ° 0 min 0,000 mm 0,0 UV-I 63 W/m² 14,2 °C 24,7 °C 0,0 km/h (0 Bft)
06.07.2017 20:18 24,6 °C 24,7 °C 54 % 1014,5 hPa 0,0 mm 0,3 km/h (0 Bft) SO 145 ° 0 min 0,000 mm 0,0 UV-I 62 W/m² 14,7 °C 24,6 °C 1,6 km/h (1 Bft)
06.07.2017 20:19 24,7 °C 24,7 °C 50 % 1014,6 hPa 0,0 mm 0,0 km/h (0 Bft) SO 145 ° 0 min 0,000 mm 0,0 UV-I 58 W/m² 13,6 °C 24,7 °C 0,0 km/h (0 Bft)
06.07.2017 20:20 24,7 °C 24,7 °C 52 % 1014,6 hPa 0,0 mm 0,1 km/h (0 Bft) SO 145 ° 0 min 0,000 mm 0,0 UV-I 49 W/m² 14,2 °C 24,7 °C 1,6 km/h (1 Bft)
06.07.2017 20:21 24,6 °C 24,7 °C 51 % 1014,5 hPa 0,0 mm 0,0 km/h (0 Bft) SO 145 ° 0 min 0,000 mm 0,0 UV-I 49 W/m² 13,8 °C 24,6 °C 0,0 km/h (0 Bft)
06.07.2017 20:22 24,6 °C 24,6 °C 52 % 1014,6 hPa 0,0 mm 0,0 km/h (0 Bft) SO 145 ° 0 min 0,000 mm 0,0 UV-I 49 W/m² 14,1 °C 24,6 °C 0,0 km/h (0 Bft)
06.07.2017 20:23 24,5 °C 24,6 °C 54 % 1014,5 hPa 0,0 mm 0,0 km/h (0 Bft) SO 145 ° 0 min 0,000 mm 0,0 UV-I 39 W/m² 14,6 °C 24,5 °C 0,0 km/h (0 Bft)
06.07.2017 20:24 24,4 °C 24,5 °C 52 % 1014,6 hPa 0,0 mm 0,0 km/h (0 Bft) SO 145 ° 0 min 0,000 mm 0,0 UV-I 33 W/m² 13,9 °C 24,4 °C 0,0 km/h (0 Bft)
06.07.2017 20:25 24,4 °C 24,4 °C 53 % 1014,6 hPa 0,0 mm 0,5 km/h (0 Bft) SO 145 ° 0 min 0,000 mm 0,0 UV-I 37 W/m² 14,2 °C 24,4 °C 1,6 km/h (1 Bft)
06.07.2017 20:26 24,4 °C 24,4 °C 51 % 1014,6 hPa 0,0 mm 0,2 km/h (0 Bft) SO 145 ° 0 min 0,000 mm 0,0 UV-I 44 W/m² 13,6 °C 24,4 °C 1,6 km/h (1 Bft)
06.07.2017 20:27 24,3 °C 24,4 °C 52 % 1014,5 hPa 0,0 mm 0,0 km/h (0 Bft) SO 145 ° 0 min 0,000 mm 0,0 UV-I 46 W/m² 13,8 °C 24,3 °C 0,0 km/h (0 Bft)
06.07.2017 20:28 24,1 °C 24,3 °C 57 % 1014,5 hPa 0,0 mm 0,0 km/h (0 Bft) SO 145 ° 0 min 0,000 mm 0,0 UV-I 46 W/m² 15,0 °C 24,1 °C 0,0 km/h (0 Bft)
06.07.2017 20:29 23,9 °C 24,1 °C 58 % 1014,6 hPa 0,0 mm 0,0 km/h (0 Bft) SO 145 ° 0 min 0,000 mm 0,0 UV-I 44 W/m² 15,1 °C 23,9 °C 0,0 km/h (0 Bft)
06.07.2017 20:30 23,7 °C 23,9 °C 56 % 1014,6 hPa 0,0 mm 0,0 km/h (0 Bft) SO 145 ° 0 min 0,000 mm 0,0 UV-I 42 W/m² 14,4 °C 23,7 °C 0,0 km/h (0 Bft)
06.07.2017 20:31 23,7 °C 23,7 °C 54 % 1014,6 hPa 0,0 mm 0,0 km/h (0 Bft) SO 145 ° 0 min 0,000 mm 0,0 UV-I 40 W/m² 13,8 °C 23,7 °C 0,0 km/h (0 Bft)
06.07.2017 20:32 23,8 °C 23,8 °C 56 % 1014,6 hPa 0,0 mm 0,0 km/h (0 Bft) SO 145 ° 0 min 0,000 mm 0,0 UV-I 39 W/m² 14,5 °C 23,8 °C 0,0 km/h (0 Bft)
06.07.2017 20:33 23,8 °C 23,8 °C 53 % 1014,7 hPa 0,0 mm 0,0 km/h (0 Bft) SO 145 ° 0 min 0,000 mm 0,0 UV-I 39 W/m² 13,6 °C 23,8 °C 0,0 km/h (0 Bft)
06.07.2017 20:34 23,8 °C 23,8 °C 55 % 1014,6 hPa 0,0 mm 0,0 km/h (0 Bft) SO 145 ° 0 min 0,000 mm 0,0 UV-I 37 W/m² 14,2 °C 23,8 °C 0,0 km/h (0 Bft)
06.07.2017 20:35 23,7 °C 23,8 °C 56 % 1014,7 hPa 0,0 mm 0,0 km/h (0 Bft) SO 145 ° 0 min 0,000 mm 0,0 UV-I 35 W/m² 14,4 °C 23,7 °C 0,0 km/h (0 Bft)
06.07.2017 20:36 23,6 °C 23,7 °C 58 % 1014,6 hPa 0,0 mm 0,0 km/h (0 Bft) SO 145 ° 0 min 0,000 mm 0,0 UV-I 33 W/m² 14,8 °C 23,6 °C 0,0 km/h (0 Bft)
06.07.2017 20:37 23,4 °C 23,6 °C 57 % 1014,7 hPa 0,0 mm 0,0 km/h (0 Bft) SO 145 ° 0 min 0,000 mm 0,0 UV-I 32 W/m² 14,4 °C 23,4 °C 0,0 km/h (0 Bft)
06.07.2017 20:38 23,4 °C 23,4 °C 56 % 1014,7 hPa 0,0 mm 0,0 km/h (0 Bft) SO 145 ° 0 min 0,000 mm 0,0 UV-I 32 W/m² 14,1 °C 23,4 °C 0,0 km/h (0 Bft)
06.07.2017 20:39 23,4 °C 23,4 °C 56 % 1014,7 hPa 0,0 mm 0,0 km/h (0 Bft) SO 145 ° 0 min 0,000 mm 0,0 UV-I 30 W/m² 14,1 °C 23,4 °C 0,0 km/h (0 Bft)
06.07.2017 20:40 23,4 °C 23,5 °C 56 % 1014,7 hPa 0,0 mm 0,0 km/h (0 Bft) SO 145 ° 0 min 0,000 mm 0,0 UV-I 26 W/m² 14,1 °C 23,4 °C 0,0 km/h (0 Bft)
06.07.2017 20:41 23,4 °C 23,4 °C 57 % 1014,7 hPa 0,0 mm 0,0 km/h (0 Bft) SO 145 ° 0 min 0,000 mm 0,0 UV-I 21 W/m² 14,4 °C 23,4 °C 0,0 km/h (0 Bft)
06.07.2017 20:42 23,4 °C 23,4 °C 57 % 1014,6 hPa 0,0 mm 0,0 km/h (0 Bft) SO 145 ° 0 min 0,000 mm 0,0 UV-I 21 W/m² 14,4 °C 23,4 °C 0,0 km/h (0 Bft)
06.07.2017 20:43 23,3 °C 23,4 °C 58 % 1014,7 hPa 0,0 mm 0,0 km/h (0 Bft) SO 145 ° 0 min 0,000 mm 0,0 UV-I 19 W/m² 14,6 °C 23,3 °C 0,0 km/h (0 Bft)
06.07.2017 20:44 23,1 °C 23,3 °C 59 % 1014,7 hPa 0,0 mm 0,0 km/h (0 Bft) SO 145 ° 0 min 0,000 mm 0,0 UV-I 19 W/m² 14,6 °C 23,1 °C 0,0 km/h (0 Bft)
06.07.2017 20:45 22,9 °C 23,1 °C 60 % 1014,7 hPa 0,0 mm 0,0 km/h (0 Bft) SO 145 ° 0 min 0,000 mm 0,0 UV-I 19 W/m² 14,7 °C 22,9 °C 0,0 km/h (0 Bft)
06.07.2017 20:46 22,8 °C 22,9 °C 60 % 1014,7 hPa 0,0 mm 2,1 km/h (1 Bft) SO 145 ° 0 min 0,000 mm 0,0 UV-I 18 W/m² 14,6 °C 22,8 °C 3,2 km/h (1 Bft)
06.07.2017 20:47 22,7 °C 22,8 °C 61 % 1014,7 hPa 0,0 mm 2,6 km/h (1 Bft) SO 145 ° 0 min 0,000 mm 0,0 UV-I 18 W/m² 14,8 °C 22,7 °C 3,2 km/h (1 Bft)
06.07.2017 20:48 22,6 °C 22,7 °C 62 % 1014,7 hPa 0,0 mm 2,7 km/h (1 Bft) SO 145 ° 0 min 0,000 mm 0,0 UV-I 18 W/m² 14,9 °C 22,6 °C 3,2 km/h (1 Bft)
06.07.2017 20:49 22,5 °C 22,6 °C 61 % 1014,7 hPa 0,0 mm 1,3 km/h (1 Bft) SO 145 ° 0 min 0,000 mm 0,0 UV-I 16 W/m² 14,6 °C 22,5 °C 3,2 km/h (1 Bft)
06.07.2017 20:50 22,3 °C 22,5 °C 63 % 1014,7 hPa 0,0 mm 2,6 km/h (1 Bft) SO 145 ° 0 min 0,000 mm 0,0 UV-I 16 W/m² 14,9 °C 22,3 °C 4,8 km/h (1 Bft)
06.07.2017 20:51 22,2 °C 22,3 °C 62 % 1014,7 hPa 0,0 mm 3,4 km/h (1 Bft) SO 146 ° 0 min 0,000 mm 0,0 UV-I 16 W/m² 14,6 °C 22,2 °C 4,8 km/h (1 Bft)
06.07.2017 20:52 22,1 °C 22,2 °C 63 % 1014,7 hPa 0,0 mm 3,0 km/h (1 Bft) SO 146 ° 0 min 0,000 mm 0,0 UV-I 16 W/m² 14,7 °C 22,1 °C 3,2 km/h (1 Bft)
06.07.2017 20:53 22,1 °C 22,1 °C 62 % 1014,7 hPa 0,0 mm 3,2 km/h (1 Bft) SO 146 ° 0 min 0,000 mm 0,0 UV-I 14 W/m² 14,5 °C 22,1 °C 3,2 km/h (1 Bft)
06.07.2017 20:54 22,0 °C 22,1 °C 62 % 1014,7 hPa 0,0 mm 2,8 km/h (1 Bft) SO 146 ° 0 min 0,000 mm 0,0 UV-I 14 W/m² 14,4 °C 22,0 °C 3,2 km/h (1 Bft)
06.07.2017 20:55 21,9 °C 22,0 °C 63 % 1014,7 hPa 0,0 mm 2,3 km/h (1 Bft) SO 146 ° 0 min 0,000 mm 0,0 UV-I 14 W/m² 14,5 °C 21,9 °C 3,2 km/h (1 Bft)
06.07.2017 20:56 21,9 °C 21,9 °C 62 % 1014,7 hPa 0,0 mm 2,5 km/h (1 Bft) SO 146 ° 0 min 0,000 mm 0,0 UV-I 14 W/m² 14,3 °C 21,9 °C 3,2 km/h (1 Bft)
06.07.2017 20:57 21,9 °C 21,9 °C 62 % 1014,7 hPa 0,0 mm 1,7 km/h (1 Bft) SO 146 ° 0 min 0,000 mm 0,0 UV-I 12 W/m² 14,3 °C 21,9 °C 3,2 km/h (1 Bft)
06.07.2017 20:58 21,9 °C 22,0 °C 63 % 1014,8 hPa 0,0 mm 1,6 km/h (1 Bft) SO 146 ° 0 min 0,000 mm 0,0 UV-I 12 W/m² 14,5 °C 21,9 °C 3,2 km/h (1 Bft)
06.07.2017 20:59 22,0 °C 22,0 °C 62 % 1014,7 hPa 0,0 mm 1,1 km/h (1 Bft) SO 146 ° 0 min 0,000 mm 0,0 UV-I 11 W/m² 14,4 °C 22,0 °C 1,6 km/h (1 Bft)
06.07.2017 21:00 21,9 °C 22,0 °C 63 % 1014,7 hPa 0,0 mm 0,5 km/h (0 Bft) SO 146 ° 0 min 0,000 mm 0,0 UV-I 11 W/m² 14,5 °C 21,9 °C 1,6 km/h (1 Bft)
06.07.2017 21:01 21,8 °C 21,9 °C 63 % 1014,7 hPa 0,0 mm 0,2 km/h (0 Bft) SO 146 ° 0 min 0,051 mm 0,0 UV-I 9 W/m² 14,4 °C 21,8 °C 1,6 km/h (1 Bft)
06.07.2017 21:02 21,7 °C 21,8 °C 64 % 1014,8 hPa 0,0 mm 0,0 km/h (0 Bft) SO 146 ° 0 min 0,000 mm 0,0 UV-I 9 W/m² 14,6 °C 21,7 °C 0,0 km/h (0 Bft)
06.07.2017 21:03 21,6 °C 21,7 °C 65 % 1014,8 hPa 0,0 mm 0,0 km/h (0 Bft) SO 146 ° 0 min 0,000 mm 0,0 UV-I 9 W/m² 14,7 °C 21,6 °C 0,0 km/h (0 Bft)
06.07.2017 21:04 21,4 °C 21,6 °C 65 % 1014,8 hPa 0,0 mm 0,0 km/h (0 Bft) SO 146 ° 0 min 0,000 mm 0,0 UV-I 7 W/m² 14,5 °C 21,4 °C 0,0 km/h (0 Bft)
06.07.2017 21:05 21,3 °C 21,4 °C 65 % 1014,8 hPa 0,0 mm 0,6 km/h (0 Bft) SO 146 ° 0 min 0,000 mm 0,0 UV-I 7 W/m² 14,4 °C 21,3 °C 1,6 km/h (1 Bft)
06.07.2017 21:06 21,2 °C 21,3 °C 66 % 1014,8 hPa 0,0 mm 1,4 km/h (1 Bft) SO 146 ° 0 min 0,000 mm 0,0 UV-I 7 W/m² 14,6 °C 21,2 °C 3,2 km/h (1 Bft)
06.07.2017 21:07 21,1 °C 21,2 °C 67 % 1014,8 hPa 0,0 mm 3,0 km/h (1 Bft) S-SO 157 ° 0 min 0,000 mm 0,0 UV-I 7 W/m² 14,7 °C 21,1 °C 4,8 km/h (1 Bft)
06.07.2017 21:08 20,8 °C 21,1 °C 69 % 1014,8 hPa 0,0 mm 3,2 km/h (1 Bft) S-SO 157 ° 0 min 0,000 mm 0,0 UV-I 5 W/m² 14,9 °C 20,8 °C 4,8 km/h (1 Bft)
06.07.2017 21:09 20,7 °C 20,8 °C 69 % 1014,8 hPa 0,0 mm 2,6 km/h (1 Bft) S-SO 157 ° 0 min 0,000 mm 0,0 UV-I 5 W/m² 14,8 °C 20,7 °C 4,8 km/h (1 Bft)
06.07.2017 21:10 20,6 °C 20,7 °C 70 % 1014,8 hPa 0,0 mm 2,8 km/h (1 Bft) S-SO 157 ° 0 min 0,000 mm 0,0 UV-I 5 W/m² 14,9 °C 20,6 °C 4,8 km/h (1 Bft)
06.07.2017 21:11 20,4 °C 20,6 °C 70 % 1014,8 hPa 0,0 mm 2,8 km/h (1 Bft) S-SO 157 ° 0 min 0,000 mm 0,0 UV-I 5 W/m² 14,7 °C 20,4 °C 4,8 km/h (1 Bft)
06.07.2017 21:12 20,3 °C 20,4 °C 70 % 1014,8 hPa 0,0 mm 2,2 km/h (1 Bft) S-SO 157 ° 0 min 0,000 mm 0,0 UV-I 5 W/m² 14,6 °C 20,3 °C 3,2 km/h (1 Bft)
06.07.2017 21:13 20,3 °C 20,3 °C 70 % 1014,8 hPa 0,0 mm 2,5 km/h (1 Bft) S-SO 157 ° 0 min 0,000 mm 0,0 UV-I 0 W/m² 14,6 °C 20,3 °C 3,2 km/h (1 Bft)
06.07.2017 21:14 20,3 °C 20,3 °C 69 % 1014,9 hPa 0,0 mm 2,6 km/h (1 Bft) S-SO 157 ° 0 min 0,000 mm 0,0 UV-I 0 W/m² 14,4 °C 20,3 °C 3,2 km/h (1 Bft)
06.07.2017 21:15 20,3 °C 20,3 °C 68 % 1014,9 hPa 0,0 mm 3,4 km/h (1 Bft) S-SO 157 ° 0 min 0,000 mm 0,0 UV-I 0 W/m² 14,2 °C 20,3 °C 4,8 km/h (1 Bft)
06.07.2017 21:16 20,4 °C 20,4 °C 68 % 1014,9 hPa 0,0 mm 4,3 km/h (1 Bft) S-SO 157 ° 0 min 0,000 mm 0,0 UV-I 0 W/m² 14,3 °C 20,4 °C 4,8 km/h (1 Bft)
06.07.2017 21:17 20,4 °C 20,4 °C 67 % 1014,9 hPa 0,0 mm 4,2 km/h (1 Bft) S-SO 157 ° 0 min 0,000 mm 0,0 UV-I 0 W/m² 14,1 °C 20,4 °C 4,8 km/h (1 Bft)
06.07.2017 21:18 20,5 °C 20,5 °C 67 % 1014,9 hPa 0,0 mm 4,0 km/h (1 Bft) S-SO 157 ° 0 min 0,000 mm 0,0 UV-I 0 W/m² 14,2 °C 20,5 °C 4,8 km/h (1 Bft)
06.07.2017 21:19 20,6 °C 20,6 °C 66 % 1014,9 hPa 0,0 mm 4,4 km/h (1 Bft) S-SO 157 ° 0 min 0,000 mm 0,0 UV-I 0 W/m² 14,0 °C 20,6 °C 4,8 km/h (1 Bft)
06.07.2017 21:20 20,6 °C 20,6 °C 66 % 1014,9 hPa 0,0 mm 4,2 km/h (1 Bft) S-SO 157 ° 0 min 0,000 mm 0,0 UV-I 0 W/m² 14,0 °C 20,6 °C 8,0 km/h (2 Bft)
06.07.2017 21:21 20,6 °C 20,6 °C 66 % 1014,9 hPa 0,0 mm 3,6 km/h (1 Bft) S-SO 157 ° 0 min 0,000 mm 0,0 UV-I 0 W/m² 14,0 °C 20,6 °C 4,8 km/h (1 Bft)
06.07.2017 21:22 20,6 °C 20,6 °C 66 % 1014,9 hPa 0,0 mm 4,0 km/h (1 Bft) S-SO 157 ° 0 min 0,000 mm 0,0 UV-I 0 W/m² 14,0 °C 20,6 °C 4,8 km/h (1 Bft)
06.07.2017 21:23 20,7 °C 20,7 °C 66 % 1014,9 hPa 0,0 mm 2,8 km/h (1 Bft) S-SO 157 ° 0 min 0,000 mm 0,0 UV-I 0 W/m² 14,1 °C 20,7 °C 3,2 km/h (1 Bft)
06.07.2017 21:24 20,7 °C 20,7 °C 66 % 1014,9 hPa 0,0 mm 2,9 km/h (1 Bft) S-SO 157 ° 0 min 0,000 mm 0,0 UV-I 0 W/m² 14,1 °C 20,7 °C 4,8 km/h (1 Bft)
06.07.2017 21:25 20,7 °C 20,7 °C 67 % 1014,8 hPa 0,0 mm 3,1 km/h (1 Bft) S-SO 157 ° 0 min 0,000 mm 0,0 UV-I 0 W/m² 14,3 °C 20,7 °C 3,2 km/h (1 Bft)
06.07.2017 21:26 20,7 °C 20,7 °C 67 % 1014,9 hPa 0,0 mm 2,5 km/h (1 Bft) S-SO 157 ° 0 min 0,000 mm 0,0 UV-I 0 W/m² 14,3 °C 20,7 °C 3,2 km/h (1 Bft)
06.07.2017 21:27 20,7 °C 20,7 °C 67 % 1014,9 hPa 0,0 mm 2,5 km/h (1 Bft) S-SO 157 ° 0 min 0,000 mm 0,0 UV-I 0 W/m² 14,3 °C 20,7 °C 3,2 km/h (1 Bft)
06.07.2017 21:28 20,6 °C 20,7 °C 67 % 1014,8 hPa 0,0 mm 4,2 km/h (1 Bft) S-SO 157 ° 0 min 0,000 mm 0,0 UV-I 0 W/m² 14,3 °C 20,6 °C 4,8 km/h (1 Bft)
06.07.2017 21:29 20,4 °C 20,6 °C 67 % 1014,9 hPa 0,0 mm 4,1 km/h (1 Bft) S-SO 157 ° 0 min 0,000 mm 0,0 UV-I 0 W/m² 14,1 °C 20,4 °C 4,8 km/h (1 Bft)
06.07.2017 21:30 20,2 °C 20,4 °C 67 % 1014,9 hPa 0,0 mm 4,5 km/h (1 Bft) S-SO 157 ° 0 min 0,000 mm 0,0 UV-I 0 W/m² 13,9 °C 20,2 °C 4,8 km/h (1 Bft)
06.07.2017 21:31 20,2 °C 20,2 °C 68 % 1014,9 hPa 0,0 mm 4,4 km/h (1 Bft) S-SO 157 ° 0 min 0,000 mm 0,0 UV-I 0 W/m² 14,1 °C 20,2 °C 8,0 km/h (2 Bft)
06.07.2017 21:32 20,1 °C 20,2 °C 68 % 1014,9 hPa 0,0 mm 4,3 km/h (1 Bft) S-SO 157 ° 0 min 0,000 mm 0,0 UV-I 0 W/m² 14,0 °C 20,1 °C 4,8 km/h (1 Bft)
06.07.2017 21:33 20,1 °C 20,1 °C 68 % 1014,9 hPa 0,0 mm 4,0 km/h (1 Bft) S-SO 157 ° 0 min 0,000 mm 0,0 UV-I 0 W/m² 14,0 °C 20,1 °C 4,8 km/h (1 Bft)
06.07.2017 21:34 20,0 °C 20,1 °C 69 % 1014,9 hPa 0,0 mm 3,4 km/h (1 Bft) S-SO 157 ° 0 min 0,000 mm 0,0 UV-I 0 W/m² 14,1 °C 20,0 °C 4,8 km/h (1 Bft)
06.07.2017 21:35 19,9 °C 20,0 °C 69 % 1014,9 hPa 0,0 mm 2,7 km/h (1 Bft) S-SO 157 ° 0 min 0,000 mm 0,0 UV-I 0 W/m² 14,0 °C 19,9 °C 3,2 km/h (1 Bft)
06.07.2017 21:36 19,8 °C 19,9 °C 69 % 1014,9 hPa 0,0 mm 2,4 km/h (1 Bft) S-SO 157 ° 0 min 0,000 mm 0,0 UV-I 0 W/m² 13,9 °C 19,8 °C 3,2 km/h (1 Bft)
06.07.2017 21:37 19,7 °C 19,8 °C 71 % 1014,9 hPa 0,0 mm 1,7 km/h (1 Bft) S-SO 157 ° 0 min 0,000 mm 0,0 UV-I 0 W/m² 14,3 °C 19,7 °C 3,2 km/h (1 Bft)
06.07.2017 21:38 19,6 °C 19,7 °C 71 % 1014,9 hPa 0,0 mm 2,3 km/h (1 Bft) S-SO 157 ° 0 min 0,000 mm 0,0 UV-I 0 W/m² 14,2 °C 19,6 °C 3,2 km/h (1 Bft)
06.07.2017 21:39 19,5 °C 19,6 °C 71 % 1014,9 hPa 0,0 mm 1,9 km/h (1 Bft) S-SO 157 ° 0 min 0,000 mm 0,0 UV-I 0 W/m² 14,1 °C 19,5 °C 3,2 km/h (1 Bft)
06.07.2017 21:40 19,4 °C 19,5 °C 72 % 1014,9 hPa 0,0 mm 4,1 km/h (1 Bft) S-SO 157 ° 0 min 0,000 mm 0,0 UV-I 0 W/m² 14,2 °C 19,4 °C 4,8 km/h (1 Bft)
06.07.2017 21:41 19,3 °C 19,4 °C 72 % 1014,9 hPa 0,0 mm 5,0 km/h (1 Bft) S 172 ° 0 min 0,000 mm 0,0 UV-I 0 W/m² 14,1 °C 19,3 °C 8,0 km/h (2 Bft)
06.07.2017 21:42 19,3 °C 19,3 °C 73 % 1014,9 hPa 0,0 mm 5,1 km/h (1 Bft) S 174 ° 0 min 0,000 mm 0,0 UV-I 0 W/m² 14,3 °C 19,3 °C 8,0 km/h (2 Bft)
06.07.2017 21:43 19,2 °C 19,3 °C 73 % 1015,0 hPa 0,0 mm 5,2 km/h (1 Bft) S 177 ° 0 min 0,000 mm 0,0 UV-I 0 W/m² 14,2 °C 19,2 °C 6,4 km/h (2 Bft)
06.07.2017 21:44 19,1 °C 19,2 °C 73 % 1015,0 hPa 0,0 mm 5,6 km/h (1 Bft) S 178 ° 0 min 0,000 mm 0,0 UV-I 0 W/m² 14,1 °C 19,1 °C 6,4 km/h (2 Bft)
06.07.2017 21:45 19,1 °C 19,1 °C 72 % 1015,1 hPa 0,0 mm 3,9 km/h (1 Bft) S 178 ° 0 min 0,000 mm 0,0 UV-I 0 W/m² 13,9 °C 19,1 °C 4,8 km/h (1 Bft)
06.07.2017 21:46 19,1 °C 19,1 °C 72 % 1015,1 hPa 0,0 mm 3,8 km/h (1 Bft) S 178 ° 0 min 0,000 mm 0,0 UV-I 0 W/m² 13,9 °C 19,1 °C 4,8 km/h (1 Bft)
06.07.2017 21:47 19,0 °C 19,1 °C 72 % 1015,1 hPa 0,0 mm 3,8 km/h (1 Bft) S 178 ° 0 min 0,000 mm 0,0 UV-I 0 W/m² 13,8 °C 19,0 °C 4,8 km/h (1 Bft)
06.07.2017 21:48 18,9 °C 19,0 °C 73 % 1015,0 hPa 0,0 mm 3,5 km/h (1 Bft) S 178 ° 0 min 0,000 mm 0,0 UV-I 0 W/m² 13,9 °C 18,9 °C 4,8 km/h (1 Bft)
06.07.2017 21:49 18,8 °C 18,9 °C 74 % 1015,1 hPa 0,0 mm 3,5 km/h (1 Bft) S 178 ° 0 min 0,000 mm 0,0 UV-I 0 W/m² 14,1 °C 18,8 °C 4,8 km/h (1 Bft)
06.07.2017 21:50 18,8 °C 18,8 °C 74 % 1015,1 hPa 0,0 mm 2,5 km/h (1 Bft) S 178 ° 0 min 0,000 mm 0,0 UV-I 0 W/m² 14,1 °C 18,8 °C 3,2 km/h (1 Bft)
06.07.2017 21:51 18,7 °C 18,8 °C 74 % 1015,1 hPa 0,0 mm 1,5 km/h (1 Bft) S 178 ° 0 min 0,000 mm 0,0 UV-I 0 W/m² 14,0 °C 18,7 °C 3,2 km/h (1 Bft)
06.07.2017 21:52 18,8 °C 18,8 °C 74 % 1015,1 hPa 0,0 mm 1,6 km/h (1 Bft) S 178 ° 0 min 0,000 mm 0,0 UV-I 0 W/m² 14,1 °C 18,8 °C 3,2 km/h (1 Bft)
06.07.2017 21:53 18,8 °C 18,8 °C 74 % 1015,2 hPa 0,0 mm 1,2 km/h (1 Bft) S 178 ° 0 min 0,000 mm 0,0 UV-I 0 W/m² 14,1 °C 18,8 °C 1,6 km/h (1 Bft)
06.07.2017 21:54 18,8 °C 18,8 °C 74 % 1015,1 hPa 0,0 mm 0,2 km/h (0 Bft) S 178 ° 0 min 0,000 mm 0,0 UV-I 0 W/m² 14,1 °C 18,8 °C 1,6 km/h (1 Bft)
06.07.2017 21:55 18,8 °C 18,8 °C 74 % 1015,1 hPa 0,0 mm 0,5 km/h (0 Bft) S 178 ° 0 min 0,000 mm 0,0 UV-I 0 W/m² 14,1 °C 18,8 °C 1,6 km/h (1 Bft)
06.07.2017 21:56 18,8 °C 18,8 °C 74 % 1015,1 hPa 0,0 mm 0,6 km/h (0 Bft) S 178 ° 0 min 0,000 mm 0,0 UV-I 0 W/m² 14,1 °C 18,8 °C 1,6 km/h (1 Bft)
06.07.2017 21:57 18,8 °C 18,8 °C 74 % 1015,1 hPa 0,0 mm 0,0 km/h (0 Bft) S 178 ° 0 min 0,000 mm 0,0 UV-I 0 W/m² 14,1 °C 18,8 °C 0,0 km/h (0 Bft)
06.07.2017 21:58 18,8 °C 18,8 °C 74 % 1015,1 hPa 0,0 mm 1,5 km/h (1 Bft) S 178 ° 0 min 0,000 mm 0,0 UV-I 0 W/m² 14,1 °C 18,8 °C 4,8 km/h (1 Bft)
06.07.2017 21:59 18,8 °C 18,8 °C 74 % 1015,1 hPa 0,0 mm 0,3 km/h (0 Bft) S 178 ° 0 min 0,000 mm 0,0 UV-I 0 W/m² 14,1 °C 18,8 °C 1,6 km/h (1 Bft)
06.07.2017 22:00 18,8 °C 18,8 °C 74 % 1015,1 hPa 0,0 mm 1,7 km/h (1 Bft) S 178 ° 0 min 0,000 mm 0,0 UV-I 0 W/m² 14,1 °C 18,8 °C 3,2 km/h (1 Bft)
06.07.2017 22:01 18,8 °C 18,8 °C 74 % 1015,2 hPa 0,0 mm 1,1 km/h (1 Bft) S 178 ° 0 min 0,025 mm 0,0 UV-I 0 W/m² 14,1 °C 18,8 °C 3,2 km/h (1 Bft)
06.07.2017 22:02 18,9 °C 18,9 °C 74 % 1015,1 hPa 0,0 mm 0,9 km/h (0 Bft) S 178 ° 0 min 0,000 mm 0,0 UV-I 0 W/m² 14,2 °C 18,9 °C 1,6 km/h (1 Bft)
06.07.2017 22:03 18,9 °C 18,9 °C 74 % 1015,2 hPa 0,0 mm 0,0 km/h (0 Bft) S 178 ° 0 min 0,000 mm 0,0 UV-I 0 W/m² 14,2 °C 18,9 °C 0,0 km/h (0 Bft)
06.07.2017 22:04 18,9 °C 18,9 °C 74 % 1015,2 hPa 0,0 mm 0,0 km/h (0 Bft) S 178 ° 0 min 0,000 mm 0,0 UV-I 0 W/m² 14,2 °C 18,9 °C 0,0 km/h (0 Bft)
06.07.2017 22:05 18,9 °C 18,9 °C 74 % 1015,2 hPa 0,0 mm 0,0 km/h (0 Bft) S 178 ° 0 min 0,000 mm 0,0 UV-I 0 W/m² 14,2 °C 18,9 °C 0,0 km/h (0 Bft)
06.07.2017 22:06 18,8 °C 18,9 °C 74 % 1015,2 hPa 0,0 mm 0,0 km/h (0 Bft) S 178 ° 0 min 0,000 mm 0,0 UV-I 0 W/m² 14,1 °C 18,8 °C 0,0 km/h (0 Bft)
06.07.2017 22:07 18,8 °C 18,8 °C 74 % 1015,2 hPa 0,0 mm 0,0 km/h (0 Bft) S 178 ° 0 min 0,000 mm 0,0 UV-I 0 W/m² 14,1 °C 18,8 °C 0,0 km/h (0 Bft)
06.07.2017 22:08 18,8 °C 18,8 °C 75 % 1015,2 hPa 0,0 mm 0,0 km/h (0 Bft) S 178 ° 0 min 0,000 mm 0,0 UV-I 0 W/m² 14,3 °C 18,8 °C 0,0 km/h (0 Bft)
06.07.2017 22:09 18,8 °C 18,8 °C 75 % 1015,2 hPa 0,0 mm 0,0 km/h (0 Bft) S 178 ° 0 min 0,000 mm 0,0 UV-I 0 W/m² 14,3 °C 18,8 °C 0,0 km/h (0 Bft)
06.07.2017 22:10 18,8 °C 18,8 °C 75 % 1015,2 hPa 0,0 mm 0,0 km/h (0 Bft) S 178 ° 0 min 0,000 mm 0,0 UV-I 0 W/m² 14,3 °C 18,8 °C 0,0 km/h (0 Bft)
06.07.2017 22:11 18,8 °C 18,8 °C 74 % 1015,3 hPa 0,0 mm 0,0 km/h (0 Bft) S 178 ° 0 min 0,000 mm 0,0 UV-I 0 W/m² 14,1 °C 18,8 °C 0,0 km/h (0 Bft)
06.07.2017 22:12 18,8 °C 18,8 °C 74 % 1015,3 hPa 0,0 mm 0,0 km/h (0 Bft) S 178 ° 0 min 0,000 mm 0,0 UV-I 0 W/m² 14,1 °C 18,8 °C 0,0 km/h (0 Bft)
06.07.2017 22:13 18,9 °C 18,9 °C 74 % 1015,3 hPa 0,0 mm 0,0 km/h (0 Bft) S 178 ° 0 min 0,000 mm 0,0 UV-I 0 W/m² 14,2 °C 18,9 °C 0,0 km/h (0 Bft)
06.07.2017 22:14 18,9 °C 18,9 °C 74 % 1015,3 hPa 0,0 mm 0,0 km/h (0 Bft) S 178 ° 0 min 0,000 mm 0,0 UV-I 0 W/m² 14,2 °C 18,9 °C 0,0 km/h (0 Bft)
06.07.2017 22:15 18,9 °C 18,9 °C 74 % 1015,2 hPa 0,0 mm 0,0 km/h (0 Bft) S 178 ° 0 min 0,000 mm 0,0 UV-I 0 W/m² 14,2 °C 18,9 °C 0,0 km/h (0 Bft)
06.07.2017 22:16 19,1 °C 19,1 °C 74 % 1015,3 hPa 0,0 mm 0,0 km/h (0 Bft) S 178 ° 0 min 0,000 mm 0,0 UV-I 0 W/m² 14,4 °C 19,1 °C 0,0 km/h (0 Bft)
06.07.2017 22:17 19,1 °C 19,1 °C 73 % 1015,2 hPa 0,0 mm 0,0 km/h (0 Bft) S 178 ° 0 min 0,000 mm 0,0 UV-I 0 W/m² 14,1 °C 19,1 °C 0,0 km/h (0 Bft)
06.07.2017 22:18 19,1 °C 19,1 °C 73 % 1015,2 hPa 0,0 mm 0,0 km/h (0 Bft) S 178 ° 0 min 0,000 mm 0,0 UV-I 0 W/m² 14,1 °C 19,1 °C 0,0 km/h (0 Bft)
06.07.2017 22:19 19,1 °C 19,1 °C 73 % 1015,2 hPa 0,0 mm 0,0 km/h (0 Bft) S 178 ° 0 min 0,000 mm 0,0 UV-I 0 W/m² 14,1 °C 19,1 °C 0,0 km/h (0 Bft)
06.07.2017 22:20 19,1 °C 19,1 °C 73 % 1015,2 hPa 0,0 mm 0,0 km/h (0 Bft) S 178 ° 0 min 0,000 mm 0,0 UV-I 0 W/m² 14,1 °C 19,1 °C 0,0 km/h (0 Bft)
06.07.2017 22:21 19,1 °C 19,1 °C 74 % 1015,2 hPa 0,0 mm 0,0 km/h (0 Bft) S 178 ° 0 min 0,000 mm 0,0 UV-I 0 W/m² 14,4 °C 19,1 °C 0,0 km/h (0 Bft)
06.07.2017 22:22 19,1 °C 19,1 °C 73 % 1015,2 hPa 0,0 mm 0,0 km/h (0 Bft) S 178 ° 0 min 0,000 mm 0,0 UV-I 0 W/m² 14,1 °C 19,1 °C 0,0 km/h (0 Bft)
06.07.2017 22:23 19,1 °C 19,1 °C 74 % 1015,2 hPa 0,0 mm 0,0 km/h (0 Bft) S 178 ° 0 min 0,000 mm 0,0 UV-I 0 W/m² 14,4 °C 19,1 °C 0,0 km/h (0 Bft)
06.07.2017 22:24 19,1 °C 19,1 °C 74 % 1015,2 hPa 0,0 mm 0,0 km/h (0 Bft) S 178 ° 0 min 0,000 mm 0,0 UV-I 0 W/m² 14,4 °C 19,1 °C 0,0 km/h (0 Bft)
06.07.2017 22:25 19,1 °C 19,1 °C 74 % 1015,2 hPa 0,0 mm 0,0 km/h (0 Bft) S 178 ° 0 min 0,000 mm 0,0 UV-I 0 W/m² 14,4 °C 19,1 °C 0,0 km/h (0 Bft)
06.07.2017 22:26 19,1 °C 19,1 °C 74 % 1015,2 hPa 0,0 mm 0,0 km/h (0 Bft) S 178 ° 0 min 0,000 mm 0,0 UV-I 0 W/m² 14,4 °C 19,1 °C 0,0 km/h (0 Bft)
06.07.2017 22:27 19,1 °C 19,1 °C 74 % 1015,2 hPa 0,0 mm 0,0 km/h (0 Bft) S 178 ° 0 min 0,000 mm 0,0 UV-I 0 W/m² 14,4 °C 19,1 °C 0,0 km/h (0 Bft)
06.07.2017 22:28 19,1 °C 19,1 °C 74 % 1015,3 hPa 0,0 mm 0,0 km/h (0 Bft) S 178 ° 0 min 0,000 mm 0,0 UV-I 0 W/m² 14,4 °C 19,1 °C 0,0 km/h (0 Bft)
06.07.2017 22:29 19,1 °C 19,1 °C 74 % 1015,3 hPa 0,0 mm 0,0 km/h (0 Bft) S 178 ° 0 min 0,000 mm 0,0 UV-I 0 W/m² 14,4 °C 19,1 °C 0,0 km/h (0 Bft)
06.07.2017 22:30 19,1 °C 19,1 °C 74 % 1015,3 hPa 0,0 mm 0,0 km/h (0 Bft) S 178 ° 0 min 0,000 mm 0,0 UV-I 0 W/m² 14,4 °C 19,1 °C 0,0 km/h (0 Bft)
06.07.2017 22:31 19,1 °C 19,1 °C 74 % 1015,3 hPa 0,0 mm 0,0 km/h (0 Bft) S 178 ° 0 min 0,000 mm 0,0 UV-I 0 W/m² 14,4 °C 19,1 °C 0,0 km/h (0 Bft)
06.07.2017 22:32 19,1 °C 19,1 °C 74 % 1015,2 hPa 0,0 mm 0,0 km/h (0 Bft) S 178 ° 0 min 0,000 mm 0,0 UV-I 0 W/m² 14,4 °C 19,1 °C 0,0 km/h (0 Bft)
06.07.2017 22:33 19,0 °C 19,1 °C 74 % 1015,3 hPa 0,0 mm 0,0 km/h (0 Bft) S 178 ° 0 min 0,000 mm 0,0 UV-I 0 W/m² 14,3 °C 19,0 °C 0,0 km/h (0 Bft)
06.07.2017 22:34 19,0 °C 19,0 °C 74 % 1015,3 hPa 0,0 mm 0,0 km/h (0 Bft) S 178 ° 0 min 0,000 mm 0,0 UV-I 0 W/m² 14,3 °C 19,0 °C 0,0 km/h (0 Bft)
06.07.2017 22:35 19,0 °C 19,0 °C 74 % 1015,3 hPa 0,0 mm 0,0 km/h (0 Bft) S 178 ° 0 min 0,000 mm 0,0 UV-I 0 W/m² 14,3 °C 19,0 °C 0,0 km/h (0 Bft)
06.07.2017 22:36 19,0 °C 19,0 °C 74 % 1015,3 hPa 0,0 mm 0,0 km/h (0 Bft) S 178 ° 0 min 0,000 mm 0,0 UV-I 0 W/m² 14,3 °C 19,0 °C 0,0 km/h (0 Bft)
06.07.2017 22:37 18,9 °C 19,0 °C 74 % 1015,3 hPa 0,0 mm 0,0 km/h (0 Bft) S 178 ° 0 min 0,000 mm 0,0 UV-I 0 W/m² 14,2 °C 18,9 °C 0,0 km/h (0 Bft)
06.07.2017 22:38 18,9 °C 18,9 °C 74 % 1015,3 hPa 0,0 mm 0,0 km/h (0 Bft) S 178 ° 0 min 0,000 mm 0,0 UV-I 0 W/m² 14,2 °C 18,9 °C 0,0 km/h (0 Bft)
06.07.2017 22:39 18,9 °C 18,9 °C 74 % 1015,3 hPa 0,0 mm 0,0 km/h (0 Bft) S 178 ° 0 min 0,000 mm 0,0 UV-I 0 W/m² 14,2 °C 18,9 °C 0,0 km/h (0 Bft)
06.07.2017 22:40 18,9 °C 18,9 °C 74 % 1015,3 hPa 0,0 mm 0,0 km/h (0 Bft) S 178 ° 0 min 0,000 mm 0,0 UV-I 0 W/m² 14,2 °C 18,9 °C 0,0 km/h (0 Bft)
06.07.2017 22:41 18,9 °C 18,9 °C 74 % 1015,3 hPa 0,0 mm 0,0 km/h (0 Bft) S 178 ° 0 min 0,000 mm 0,0 UV-I 0 W/m² 14,2 °C 18,9 °C 0,0 km/h (0 Bft)
06.07.2017 22:42 18,9 °C 18,9 °C 74 % 1015,3 hPa 0,0 mm 0,0 km/h (0 Bft) S 178 ° 0 min 0,000 mm 0,0 UV-I 0 W/m² 14,2 °C 18,9 °C 0,0 km/h (0 Bft)
06.07.2017 22:43 19,0 °C 19,0 °C 75 % 1015,2 hPa 0,0 mm 0,0 km/h (0 Bft) S 178 ° 0 min 0,000 mm 0,0 UV-I 0 W/m² 14,5 °C 19,0 °C 0,0 km/h (0 Bft)
06.07.2017 22:44 18,9 °C 19,0 °C 75 % 1015,2 hPa 0,0 mm 0,0 km/h (0 Bft) S 178 ° 0 min 0,000 mm 0,0 UV-I 0 W/m² 14,4 °C 18,9 °C 0,0 km/h (0 Bft)
06.07.2017 22:45 18,9 °C 18,9 °C 75 % 1015,2 hPa 0,0 mm 0,0 km/h (0 Bft) S 178 ° 0 min 0,000 mm 0,0 UV-I 0 W/m² 14,4 °C 18,9 °C 0,0 km/h (0 Bft)
06.07.2017 22:46 18,9 °C 18,9 °C 75 % 1015,2 hPa 0,0 mm 0,0 km/h (0 Bft) S 178 ° 0 min 0,000 mm 0,0 UV-I 0 W/m² 14,4 °C 18,9 °C 0,0 km/h (0 Bft)
06.07.2017 22:47 18,8 °C 18,9 °C 75 % 1015,2 hPa 0,0 mm 0,0 km/h (0 Bft) S 178 ° 0 min 0,000 mm 0,0 UV-I 0 W/m² 14,3 °C 18,8 °C 0,0 km/h (0 Bft)
06.07.2017 22:48 18,8 °C 18,9 °C 75 % 1015,2 hPa 0,0 mm 0,0 km/h (0 Bft) S 177 ° 0 min 0,000 mm 0,0 UV-I 0 W/m² 14,3 °C 18,8 °C 0,0 km/h (0 Bft)
06.07.2017 22:49 18,8 °C 18,8 °C 75 % 1015,2 hPa 0,0 mm 0,0 km/h (0 Bft) S 178 ° 0 min 0,000 mm 0,0 UV-I 0 W/m² 14,3 °C 18,8 °C 0,0 km/h (0 Bft)
06.07.2017 22:50 18,8 °C 18,8 °C 75 % 1015,3 hPa 0,0 mm 0,0 km/h (0 Bft) S 178 ° 0 min 0,000 mm 0,0 UV-I 0 W/m² 14,3 °C 18,8 °C 0,0 km/h (0 Bft)
06.07.2017 22:51 18,8 °C 18,8 °C 75 % 1015,3 hPa 0,0 mm 0,0 km/h (0 Bft) S 178 ° 0 min 0,000 mm 0,0 UV-I 0 W/m² 14,3 °C 18,8 °C 0,0 km/h (0 Bft)
06.07.2017 22:52 18,9 °C 18,9 °C 75 % 1015,3 hPa 0,0 mm 0,0 km/h (0 Bft) S 178 ° 0 min 0,000 mm 0,0 UV-I 0 W/m² 14,4 °C 18,9 °C 0,0 km/h (0 Bft)
06.07.2017 22:53 19,0 °C 19,0 °C 75 % 1015,3 hPa 0,0 mm 0,0 km/h (0 Bft) S 178 ° 0 min 0,000 mm 0,0 UV-I 0 W/m² 14,5 °C 19,0 °C 0,0 km/h (0 Bft)
06.07.2017 22:54 19,0 °C 19,0 °C 75 % 1015,3 hPa 0,0 mm 0,0 km/h (0 Bft) S 178 ° 0 min 0,000 mm 0,0 UV-I 0 W/m² 14,5 °C 19,0 °C 0,0 km/h (0 Bft)
06.07.2017 22:55 18,9 °C 19,0 °C 75 % 1015,3 hPa 0,0 mm 0,0 km/h (0 Bft) S 178 ° 0 min 0,000 mm 0,0 UV-I 0 W/m² 14,4 °C 18,9 °C 0,0 km/h (0 Bft)
06.07.2017 22:56 18,9 °C 18,9 °C 75 % 1015,4 hPa 0,0 mm 0,0 km/h (0 Bft) S 178 ° 0 min 0,000 mm 0,0 UV-I 0 W/m² 14,4 °C 18,9 °C 0,0 km/h (0 Bft)
06.07.2017 22:57 18,9 °C 18,9 °C 75 % 1015,4 hPa 0,0 mm 0,0 km/h (0 Bft) S 178 ° 0 min 0,000 mm 0,0 UV-I 0 W/m² 14,4 °C 18,9 °C 0,0 km/h (0 Bft)
06.07.2017 22:58 18,8 °C 18,9 °C 75 % 1015,4 hPa 0,0 mm 0,0 km/h (0 Bft) S 178 ° 0 min 0,000 mm 0,0 UV-I 0 W/m² 14,3 °C 18,8 °C 0,0 km/h (0 Bft)
06.07.2017 22:59 18,8 °C 18,8 °C 75 % 1015,3 hPa 0,0 mm 0,0 km/h (0 Bft) S 178 ° 0 min 0,000 mm 0,0 UV-I 0 W/m² 14,3 °C 18,8 °C 0,0 km/h (0 Bft)
06.07.2017 23:00 18,8 °C 18,8 °C 75 % 1015,3 hPa 0,0 mm 0,0 km/h (0 Bft) S 178 ° 0 min 0,000 mm 0,0 UV-I 0 W/m² 14,3 °C 18,8 °C 0,0 km/h (0 Bft)
06.07.2017 23:01 18,8 °C 18,8 °C 75 % 1015,3 hPa 0,0 mm 0,0 km/h (0 Bft) S 178 ° 0 min 0,026 mm 0,0 UV-I 0 W/m² 14,3 °C 18,8 °C 0,0 km/h (0 Bft)
06.07.2017 23:02 18,8 °C 18,8 °C 76 % 1015,4 hPa 0,0 mm 0,0 km/h (0 Bft) S 178 ° 0 min 0,000 mm 0,0 UV-I 0 W/m² 14,5 °C 18,8 °C 0,0 km/h (0 Bft)
06.07.2017 23:03 18,7 °C 18,8 °C 76 % 1015,4 hPa 0,0 mm 0,0 km/h (0 Bft) S 178 ° 0 min 0,000 mm 0,0 UV-I 0 W/m² 14,4 °C 18,7 °C 0,0 km/h (0 Bft)
06.07.2017 23:04 18,7 °C 18,7 °C 76 % 1015,4 hPa 0,0 mm 0,0 km/h (0 Bft) S 178 ° 0 min 0,000 mm 0,0 UV-I 0 W/m² 14,4 °C 18,7 °C 0,0 km/h (0 Bft)
06.07.2017 23:05 18,6 °C 18,7 °C 76 % 1015,4 hPa 0,0 mm 0,0 km/h (0 Bft) S 178 ° 0 min 0,000 mm 0,0 UV-I 0 W/m² 14,3 °C 18,6 °C 0,0 km/h (0 Bft)
06.07.2017 23:06 18,6 °C 18,6 °C 76 % 1015,4 hPa 0,0 mm 0,0 km/h (0 Bft) S 178 ° 0 min 0,000 mm 0,0 UV-I 0 W/m² 14,3 °C 18,6 °C 0,0 km/h (0 Bft)
06.07.2017 23:07 18,6 °C 18,6 °C 76 % 1015,4 hPa 0,0 mm 0,0 km/h (0 Bft) S 178 ° 0 min 0,000 mm 0,0 UV-I 0 W/m² 14,3 °C 18,6 °C 0,0 km/h (0 Bft)
06.07.2017 23:08 18,6 °C 18,6 °C 76 % 1015,4 hPa 0,0 mm 0,0 km/h (0 Bft) S 178 ° 0 min 0,000 mm 0,0 UV-I 0 W/m² 14,3 °C 18,6 °C 0,0 km/h (0 Bft)
06.07.2017 23:09 18,6 °C 18,6 °C 76 % 1015,4 hPa 0,0 mm 0,0 km/h (0 Bft) S 178 ° 0 min 0,000 mm 0,0 UV-I 0 W/m² 14,3 °C 18,6 °C 0,0 km/h (0 Bft)
06.07.2017 23:10 18,6 °C 18,6 °C 76 % 1015,4 hPa 0,0 mm 0,0 km/h (0 Bft) S 178 ° 0 min 0,000 mm 0,0 UV-I 0 W/m² 14,3 °C 18,6 °C 0,0 km/h (0 Bft)
06.07.2017 23:11 18,6 °C 18,6 °C 76 % 1015,4 hPa 0,0 mm 0,0 km/h (0 Bft) S 178 ° 0 min 0,000 mm 0,0 UV-I 0 W/m² 14,3 °C 18,6 °C 0,0 km/h (0 Bft)
06.07.2017 23:12 18,6 °C 18,6 °C 76 % 1015,4 hPa 0,0 mm 0,0 km/h (0 Bft) S 178 ° 0 min 0,000 mm 0,0 UV-I 0 W/m² 14,3 °C 18,6 °C 0,0 km/h (0 Bft)
06.07.2017 23:13 18,4 °C 18,6 °C 76 % 1015,4 hPa 0,0 mm 0,0 km/h (0 Bft) S 178 ° 0 min 0,000 mm 0,0 UV-I 0 W/m² 14,1 °C 18,4 °C 0,0 km/h (0 Bft)
06.07.2017 23:14 18,4 °C 18,5 °C 76 % 1015,4 hPa 0,0 mm 0,0 km/h (0 Bft) S 178 ° 0 min 0,000 mm 0,0 UV-I 0 W/m² 14,1 °C 18,4 °C 0,0 km/h (0 Bft)
06.07.2017 23:15 18,4 °C 18,4 °C 76 % 1015,3 hPa 0,0 mm 0,0 km/h (0 Bft) S 178 ° 0 min 0,000 mm 0,0 UV-I 0 W/m² 14,1 °C 18,4 °C 0,0 km/h (0 Bft)
06.07.2017 23:16 18,4 °C 18,4 °C 76 % 1015,4 hPa 0,0 mm 0,0 km/h (0 Bft) S 177 ° 0 min 0,000 mm 0,0 UV-I 0 W/m² 14,1 °C 18,4 °C 0,0 km/h (0 Bft)
06.07.2017 23:17 18,4 °C 18,4 °C 76 % 1015,4 hPa 0,0 mm 0,0 km/h (0 Bft) S 178 ° 0 min 0,000 mm 0,0 UV-I 0 W/m² 14,1 °C 18,4 °C 0,0 km/h (0 Bft)
06.07.2017 23:18 18,4 °C 18,4 °C 76 % 1015,4 hPa 0,0 mm 0,0 km/h (0 Bft) S 178 ° 0 min 0,000 mm 0,0 UV-I 0 W/m² 14,1 °C 18,4 °C 0,0 km/h (0 Bft)
06.07.2017 23:19 18,3 °C 18,4 °C 76 % 1015,4 hPa 0,0 mm 0,0 km/h (0 Bft) S 178 ° 0 min 0,000 mm 0,0 UV-I 0 W/m² 14,0 °C 18,3 °C 0,0 km/h (0 Bft)
06.07.2017 23:20 18,3 °C 18,3 °C 76 % 1015,4 hPa 0,0 mm 0,0 km/h (0 Bft) S 178 ° 0 min 0,000 mm 0,0 UV-I 0 W/m² 14,0 °C 18,3 °C 0,0 km/h (0 Bft)
06.07.2017 23:21 18,2 °C 18,3 °C 77 % 1015,4 hPa 0,0 mm 0,0 km/h (0 Bft) S 178 ° 0 min 0,000 mm 0,0 UV-I 0 W/m² 14,1 °C 18,2 °C 0,0 km/h (0 Bft)
06.07.2017 23:22 18,2 °C 18,2 °C 76 % 1015,4 hPa 0,0 mm 0,0 km/h (0 Bft) S 178 ° 0 min 0,000 mm 0,0 UV-I 0 W/m² 13,9 °C 18,2 °C 0,0 km/h (0 Bft)
06.07.2017 23:23 18,2 °C 18,2 °C 77 % 1015,4 hPa 0,0 mm 0,0 km/h (0 Bft) S 178 ° 0 min 0,000 mm 0,0 UV-I 0 W/m² 14,1 °C 18,2 °C 0,0 km/h (0 Bft)
06.07.2017 23:24 18,2 °C 18,2 °C 76 % 1015,4 hPa 0,0 mm 0,0 km/h (0 Bft) S 178 ° 0 min 0,000 mm 0,0 UV-I 0 W/m² 13,9 °C 18,2 °C 0,0 km/h (0 Bft)
06.07.2017 23:25 18,3 °C 18,3 °C 76 % 1015,4 hPa 0,0 mm 0,0 km/h (0 Bft) S 178 ° 0 min 0,000 mm 0,0 UV-I 0 W/m² 14,0 °C 18,3 °C 0,0 km/h (0 Bft)
06.07.2017 23:26 18,3 °C 18,3 °C 76 % 1015,5 hPa 0,0 mm 0,0 km/h (0 Bft) S 178 ° 0 min 0,000 mm 0,0 UV-I 0 W/m² 14,0 °C 18,3 °C 0,0 km/h (0 Bft)
06.07.2017 23:27 18,3 °C 18,3 °C 76 % 1015,4 hPa 0,0 mm 0,8 km/h (0 Bft) S 178 ° 0 min 0,000 mm 0,0 UV-I 0 W/m² 14,0 °C 18,3 °C 1,6 km/h (1 Bft)
06.07.2017 23:28 18,3 °C 18,3 °C 76 % 1015,4 hPa 0,0 mm 0,3 km/h (0 Bft) S 178 ° 0 min 0,000 mm 0,0 UV-I 0 W/m² 14,0 °C 18,3 °C 1,6 km/h (1 Bft)
06.07.2017 23:29 18,3 °C 18,3 °C 76 % 1015,4 hPa 0,0 mm 0,0 km/h (0 Bft) S 178 ° 0 min 0,000 mm 0,0 UV-I 0 W/m² 14,0 °C 18,3 °C 0,0 km/h (0 Bft)
06.07.2017 23:30 18,3 °C 18,3 °C 76 % 1015,5 hPa 0,0 mm 0,0 km/h (0 Bft) S 178 ° 0 min 0,000 mm 0,0 UV-I 0 W/m² 14,0 °C 18,3 °C 0,0 km/h (0 Bft)
06.07.2017 23:31 18,3 °C 18,3 °C 76 % 1015,5 hPa 0,0 mm 0,0 km/h (0 Bft) S 178 ° 0 min 0,000 mm 0,0 UV-I 0 W/m² 14,0 °C 18,3 °C 0,0 km/h (0 Bft)
06.07.2017 23:32 18,3 °C 18,3 °C 76 % 1015,5 hPa 0,0 mm 0,0 km/h (0 Bft) S 178 ° 0 min 0,000 mm 0,0 UV-I 0 W/m² 14,0 °C 18,3 °C 0,0 km/h (0 Bft)
06.07.2017 23:33 18,3 °C 18,4 °C 76 % 1015,5 hPa 0,0 mm 0,0 km/h (0 Bft) S 178 ° 0 min 0,000 mm 0,0 UV-I 0 W/m² 14,0 °C 18,3 °C 0,0 km/h (0 Bft)
06.07.2017 23:34 18,2 °C 18,3 °C 76 % 1015,5 hPa 0,0 mm 0,0 km/h (0 Bft) S 178 ° 0 min 0,000 mm 0,0 UV-I 0 W/m² 13,9 °C 18,2 °C 0,0 km/h (0 Bft)
06.07.2017 23:35 18,2 °C 18,2 °C 76 % 1015,5 hPa 0,0 mm 0,0 km/h (0 Bft) S 178 ° 0 min 0,000 mm 0,0 UV-I 0 W/m² 13,9 °C 18,2 °C 0,0 km/h (0 Bft)
06.07.2017 23:36 18,3 °C 18,3 °C 76 % 1015,5 hPa 0,0 mm 0,0 km/h (0 Bft) S 178 ° 0 min 0,000 mm 0,0 UV-I 0 W/m² 14,0 °C 18,3 °C 0,0 km/h (0 Bft)
06.07.2017 23:37 18,3 °C 18,3 °C 76 % 1015,5 hPa 0,0 mm 0,0 km/h (0 Bft) S 178 ° 0 min 0,000 mm 0,0 UV-I 0 W/m² 14,0 °C 18,3 °C 0,0 km/h (0 Bft)
06.07.2017 23:38 18,3 °C 18,3 °C 76 % 1015,6 hPa 0,0 mm 0,0 km/h (0 Bft) S 178 ° 0 min 0,000 mm 0,0 UV-I 0 W/m² 14,0 °C 18,3 °C 0,0 km/h (0 Bft)
06.07.2017 23:39 18,4 °C 18,4 °C 76 % 1015,6 hPa 0,0 mm 0,5 km/h (0 Bft) S 178 ° 0 min 0,000 mm 0,0 UV-I 0 W/m² 14,1 °C 18,4 °C 1,6 km/h (1 Bft)
06.07.2017 23:40 18,4 °C 18,4 °C 75 % 1015,6 hPa 0,0 mm 0,1 km/h (0 Bft) S 178 ° 0 min 0,000 mm 0,0 UV-I 0 W/m² 13,9 °C 18,4 °C 1,6 km/h (1 Bft)
06.07.2017 23:41 18,4 °C 18,4 °C 75 % 1015,6 hPa 0,0 mm 0,0 km/h (0 Bft) S 178 ° 0 min 0,000 mm 0,0 UV-I 0 W/m² 13,9 °C 18,4 °C 0,0 km/h (0 Bft)
06.07.2017 23:42 18,5 °C 18,5 °C 75 % 1015,5 hPa 0,0 mm 0,0 km/h (0 Bft) S 178 ° 0 min 0,000 mm 0,0 UV-I 0 W/m² 14,0 °C 18,5 °C 0,0 km/h (0 Bft)
06.07.2017 23:43 18,5 °C 18,5 °C 75 % 1015,5 hPa 0,0 mm 0,0 km/h (0 Bft) S 178 ° 0 min 0,000 mm 0,0 UV-I 0 W/m² 14,0 °C 18,5 °C 0,0 km/h (0 Bft)
06.07.2017 23:44 18,5 °C 18,5 °C 75 % 1015,5 hPa 0,0 mm 0,0 km/h (0 Bft) S 178 ° 0 min 0,000 mm 0,0 UV-I 0 W/m² 14,0 °C 18,5 °C 0,0 km/h (0 Bft)
06.07.2017 23:45 18,4 °C 18,5 °C 75 % 1015,5 hPa 0,0 mm 0,0 km/h (0 Bft) S 178 ° 0 min 0,000 mm 0,0 UV-I 0 W/m² 13,9 °C 18,4 °C 0,0 km/h (0 Bft)
06.07.2017 23:46 18,4 °C 18,4 °C 75 % 1015,5 hPa 0,0 mm 0,9 km/h (0 Bft) S 178 ° 0 min 0,000 mm 0,0 UV-I 0 W/m² 13,9 °C 18,4 °C 3,2 km/h (1 Bft)
06.07.2017 23:47 18,3 °C 18,4 °C 75 % 1015,5 hPa 0,0 mm 2,6 km/h (1 Bft) S 182 ° 0 min 0,000 mm 0,0 UV-I 0 W/m² 13,8 °C 18,3 °C 3,2 km/h (1 Bft)
06.07.2017 23:48 18,3 °C 18,3 °C 75 % 1015,5 hPa 0,0 mm 3,8 km/h (1 Bft) W 274 ° 0 min 0,000 mm 0,0 UV-I 0 W/m² 13,8 °C 18,3 °C 4,8 km/h (1 Bft)
06.07.2017 23:49 18,2 °C 18,3 °C 75 % 1015,5 hPa 0,0 mm 2,6 km/h (1 Bft) W 273 ° 0 min 0,000 mm 0,0 UV-I 0 W/m² 13,7 °C 18,2 °C 6,4 km/h (2 Bft)
06.07.2017 23:50 18,3 °C 18,3 °C 75 % 1015,5 hPa 0,0 mm 1,7 km/h (1 Bft) W 272 ° 0 min 0,000 mm 0,0 UV-I 0 W/m² 13,8 °C 18,3 °C 3,2 km/h (1 Bft)
06.07.2017 23:51 18,4 °C 18,4 °C 74 % 1015,5 hPa 0,0 mm 0,8 km/h (0 Bft) W 260 ° 0 min 0,000 mm 0,0 UV-I 0 W/m² 13,7 °C 18,4 °C 4,8 km/h (1 Bft)
06.07.2017 23:52 18,4 °C 18,4 °C 74 % 1015,5 hPa 0,0 mm 0,8 km/h (0 Bft) W 260 ° 0 min 0,000 mm 0,0 UV-I 0 W/m² 13,7 °C 18,4 °C 1,6 km/h (1 Bft)
06.07.2017 23:53 18,4 °C 18,4 °C 74 % 1015,5 hPa 0,0 mm 0,2 km/h (0 Bft) W 260 ° 0 min 0,000 mm 0,0 UV-I 0 W/m² 13,7 °C 18,4 °C 1,6 km/h (1 Bft)
06.07.2017 23:54 18,4 °C 18,4 °C 76 % 1015,6 hPa 0,0 mm 0,0 km/h (0 Bft) W 260 ° 0 min 0,000 mm 0,0 UV-I 0 W/m² 14,1 °C 18,4 °C 0,0 km/h (0 Bft)
06.07.2017 23:55 18,3 °C 18,4 °C 75 % 1015,6 hPa 0,0 mm 0,0 km/h (0 Bft) W 260 ° 0 min 0,000 mm 0,0 UV-I 0 W/m² 13,8 °C 18,3 °C 0,0 km/h (0 Bft)
06.07.2017 23:56 18,2 °C 18,3 °C 75 % 1015,5 hPa 0,0 mm 0,0 km/h (0 Bft) W 260 ° 0 min 0,000 mm 0,0 UV-I 0 W/m² 13,7 °C 18,2 °C 0,0 km/h (0 Bft)
06.07.2017 23:57 18,2 °C 18,2 °C 75 % 1015,5 hPa 0,0 mm 0,0 km/h (0 Bft) W 260 ° 0 min 0,000 mm 0,0 UV-I 0 W/m² 13,7 °C 18,2 °C 0,0 km/h (0 Bft)
06.07.2017 23:58 18,2 °C 18,2 °C 75 % 1015,5 hPa 0,0 mm 0,4 km/h (0 Bft) W 260 ° 0 min 0,000 mm 0,0 UV-I 0 W/m² 13,7 °C 18,2 °C 3,2 km/h (1 Bft)
06.07.2017 23:59 18,2 °C 18,2 °C 75 % 1015,4 hPa 0,0 mm 0,3 km/h (0 Bft) W 260 ° 0 min 0,000 mm 0,0 UV-I 0 W/m² 13,7 °C 18,2 °C 1,6 km/h (1 Bft)
_ Min-Zeit 03:34 03:37 19:15 19:04 - 23:57 - - - - - - 03:46 03:34 23:57
Minimum _ 13,1 °C 13,2 °C 38 % 1014,3 hPa - 0,0 km/h (0 Bft) - - - - - - 10,0 °C 13,1 °C 0,0 km/h (0 Bft)
_ Max-Zeit 14:43 14:44 03:39 08:52 23:59 14:58 - - 19:06 15:01 13:45 14:55 13:22 14:43 14:58
Maximum _ 28,7 °C 28,7 °C 83 % 1016,8 hPa 0,0 mm 16,7 km/h
NW (3 Bft)
- - 1 min 0,635 mm 7,6 UV-I 960 W/m² 17,2 °C 28,7 °C 22,5 km/h
W (4 Bft)
Durchschnitt _ 21,7 °C 21,7 °C 61 % 1015,9 hPa #0,0 mm 2,4 km/h (1 Bft) NW - #7:57 h #5,055 mm 4,0 UV-I 286 W/m² 13,4 °C 21,7 °C 4,0 km/h (1 Bft)